<?xml version="1.0" encoding="UTF-8" standalone="no" ?>
<gpx xmlns="http://www.topografix.com/GPX/1/1" xmlns:xsi="http://www.w3.org/2001/XMLSchema-instance" xsi:schemaLocation="http://www.topografix.com/GPX/1/1 http://www.topografix.com/GPX/1/1/gpx.xsd" version="1.1" creator="VisuGPX - https://www.visugpx.com">
  <metadata>
    <name>01/05/2022 chapelle de Pouyaspé</name>
    <desc><![CDATA[boucle au départ de St Savin puis Arcizans avant, sommet puis chapelle de Pouyaspé]]></desc>
  </metadata>
  <trk>
    <name><![CDATA[01/05/2022 chapelle de Pouyaspé_1]]></name>
    <trkseg>
      <trkpt lat="42.98259" lon="-0.09094">
        <ele>532.8</ele>
        <time>2022-05-01T06:51:55Z</time>
      </trkpt>
      <trkpt lat="42.98259" lon="-0.09093">
        <ele>531</ele>
        <time>2022-05-01T06:52:30Z</time>
      </trkpt>
      <trkpt lat="42.98256" lon="-0.09091">
        <ele>531</ele>
        <time>2022-05-01T06:52:32Z</time>
      </trkpt>
      <trkpt lat="42.98254" lon="-0.09089">
        <ele>531</ele>
        <time>2022-05-01T06:52:33Z</time>
      </trkpt>
      <trkpt lat="42.98245" lon="-0.09083">
        <ele>531.4</ele>
        <time>2022-05-01T06:52:39Z</time>
      </trkpt>
      <trkpt lat="42.98235" lon="-0.09077">
        <ele>532</ele>
        <time>2022-05-01T06:52:45Z</time>
      </trkpt>
      <trkpt lat="42.98224" lon="-0.09061">
        <ele>532.6</ele>
        <time>2022-05-01T06:52:51Z</time>
      </trkpt>
      <trkpt lat="42.9822" lon="-0.09056">
        <ele>533</ele>
        <time>2022-05-01T06:52:53Z</time>
      </trkpt>
      <trkpt lat="42.98209" lon="-0.09049">
        <ele>533.6</ele>
        <time>2022-05-01T06:52:58Z</time>
      </trkpt>
      <trkpt lat="42.98204" lon="-0.09046">
        <ele>534</ele>
        <time>2022-05-01T06:53:00Z</time>
      </trkpt>
      <trkpt lat="42.98192" lon="-0.09047">
        <ele>534.6</ele>
        <time>2022-05-01T06:53:05Z</time>
      </trkpt>
      <trkpt lat="42.98186" lon="-0.0905">
        <ele>535</ele>
        <time>2022-05-01T06:53:08Z</time>
      </trkpt>
      <trkpt lat="42.98179" lon="-0.09056">
        <ele>535.8</ele>
        <time>2022-05-01T06:53:11Z</time>
      </trkpt>
      <trkpt lat="42.98174" lon="-0.09058">
        <ele>536.2</ele>
        <time>2022-05-01T06:53:13Z</time>
      </trkpt>
      <trkpt lat="42.98163" lon="-0.09064">
        <ele>537</ele>
        <time>2022-05-01T06:53:18Z</time>
      </trkpt>
      <trkpt lat="42.98162" lon="-0.09066">
        <ele>537</ele>
        <time>2022-05-01T06:53:19Z</time>
      </trkpt>
      <trkpt lat="42.9816" lon="-0.09067">
        <ele>537.4</ele>
        <time>2022-05-01T06:53:20Z</time>
      </trkpt>
      <trkpt lat="42.98147" lon="-0.09073">
        <ele>538.6</ele>
        <time>2022-05-01T06:53:27Z</time>
      </trkpt>
      <trkpt lat="42.98144" lon="-0.09078">
        <ele>539.2</ele>
        <time>2022-05-01T06:53:29Z</time>
      </trkpt>
      <trkpt lat="42.98142" lon="-0.09084">
        <ele>539.6</ele>
        <time>2022-05-01T06:53:31Z</time>
      </trkpt>
      <trkpt lat="42.9814" lon="-0.09088">
        <ele>540</ele>
        <time>2022-05-01T06:53:33Z</time>
      </trkpt>
      <trkpt lat="42.9813" lon="-0.09092">
        <ele>540.8</ele>
        <time>2022-05-01T06:53:36Z</time>
      </trkpt>
      <trkpt lat="42.98122" lon="-0.09094">
        <ele>541.8</ele>
        <time>2022-05-01T06:53:39Z</time>
      </trkpt>
      <trkpt lat="42.98112" lon="-0.09095">
        <ele>543</ele>
        <time>2022-05-01T06:53:43Z</time>
      </trkpt>
      <trkpt lat="42.98104" lon="-0.09095">
        <ele>544</ele>
        <time>2022-05-01T06:53:46Z</time>
      </trkpt>
      <trkpt lat="42.981" lon="-0.09095">
        <ele>544.2</ele>
        <time>2022-05-01T06:53:47Z</time>
      </trkpt>
      <trkpt lat="42.98083" lon="-0.09091">
        <ele>545.2</ele>
        <time>2022-05-01T06:53:52Z</time>
      </trkpt>
      <trkpt lat="42.98077" lon="-0.09091">
        <ele>545.4</ele>
        <time>2022-05-01T06:53:54Z</time>
      </trkpt>
      <trkpt lat="42.98056" lon="-0.0909">
        <ele>546</ele>
        <time>2022-05-01T06:54:01Z</time>
      </trkpt>
      <trkpt lat="42.98045" lon="-0.09093">
        <ele>546.2</ele>
        <time>2022-05-01T06:54:04Z</time>
      </trkpt>
      <trkpt lat="42.98035" lon="-0.091">
        <ele>546.2</ele>
        <time>2022-05-01T06:54:08Z</time>
      </trkpt>
      <trkpt lat="42.98034" lon="-0.09119">
        <ele>546.6</ele>
        <time>2022-05-01T06:54:13Z</time>
      </trkpt>
      <trkpt lat="42.98028" lon="-0.09146">
        <ele>547.2</ele>
        <time>2022-05-01T06:54:20Z</time>
      </trkpt>
      <trkpt lat="42.98028" lon="-0.0915">
        <ele>547.4</ele>
        <time>2022-05-01T06:54:21Z</time>
      </trkpt>
      <trkpt lat="42.98029" lon="-0.09175">
        <ele>548.2</ele>
        <time>2022-05-01T06:54:27Z</time>
      </trkpt>
      <trkpt lat="42.98029" lon="-0.09179">
        <ele>548.6</ele>
        <time>2022-05-01T06:54:28Z</time>
      </trkpt>
      <trkpt lat="42.98028" lon="-0.09202">
        <ele>549.6</ele>
        <time>2022-05-01T06:54:34Z</time>
      </trkpt>
      <trkpt lat="42.9803" lon="-0.09221">
        <ele>550.6</ele>
        <time>2022-05-01T06:54:39Z</time>
      </trkpt>
      <trkpt lat="42.98031" lon="-0.09236">
        <ele>552</ele>
        <time>2022-05-01T06:54:43Z</time>
      </trkpt>
      <trkpt lat="42.98033" lon="-0.0925">
        <ele>553.2</ele>
        <time>2022-05-01T06:54:47Z</time>
      </trkpt>
      <trkpt lat="42.98034" lon="-0.0926">
        <ele>553.8</ele>
        <time>2022-05-01T06:54:50Z</time>
      </trkpt>
      <trkpt lat="42.98037" lon="-0.0927">
        <ele>554.2</ele>
        <time>2022-05-01T06:54:53Z</time>
      </trkpt>
      <trkpt lat="42.9804" lon="-0.0928">
        <ele>555</ele>
        <time>2022-05-01T06:54:56Z</time>
      </trkpt>
      <trkpt lat="42.98042" lon="-0.09283">
        <ele>555.4</ele>
        <time>2022-05-01T06:54:57Z</time>
      </trkpt>
      <trkpt lat="42.98047" lon="-0.09299">
        <ele>556.4</ele>
        <time>2022-05-01T06:55:02Z</time>
      </trkpt>
      <trkpt lat="42.98051" lon="-0.09305">
        <ele>556.8</ele>
        <time>2022-05-01T06:55:04Z</time>
      </trkpt>
      <trkpt lat="42.98061" lon="-0.09319">
        <ele>557.6</ele>
        <time>2022-05-01T06:55:08Z</time>
      </trkpt>
      <trkpt lat="42.98072" lon="-0.09337">
        <ele>558.4</ele>
        <time>2022-05-01T06:55:13Z</time>
      </trkpt>
      <trkpt lat="42.98079" lon="-0.09346">
        <ele>558.8</ele>
        <time>2022-05-01T06:55:16Z</time>
      </trkpt>
      <trkpt lat="42.98089" lon="-0.09361">
        <ele>559.6</ele>
        <time>2022-05-01T06:55:21Z</time>
      </trkpt>
      <trkpt lat="42.98091" lon="-0.09365">
        <ele>559.8</ele>
        <time>2022-05-01T06:55:22Z</time>
      </trkpt>
      <trkpt lat="42.98103" lon="-0.09381">
        <ele>560.8</ele>
        <time>2022-05-01T06:55:28Z</time>
      </trkpt>
      <trkpt lat="42.98105" lon="-0.09384">
        <ele>561.2</ele>
        <time>2022-05-01T06:55:29Z</time>
      </trkpt>
      <trkpt lat="42.98111" lon="-0.09394">
        <ele>562</ele>
        <time>2022-05-01T06:55:33Z</time>
      </trkpt>
      <trkpt lat="42.98117" lon="-0.09403">
        <ele>562.8</ele>
        <time>2022-05-01T06:55:36Z</time>
      </trkpt>
      <trkpt lat="42.98119" lon="-0.09406">
        <ele>563.2</ele>
        <time>2022-05-01T06:55:37Z</time>
      </trkpt>
      <trkpt lat="42.98129" lon="-0.09419">
        <ele>564.4</ele>
        <time>2022-05-01T06:55:42Z</time>
      </trkpt>
      <trkpt lat="42.98135" lon="-0.09427">
        <ele>564.6</ele>
        <time>2022-05-01T06:55:45Z</time>
      </trkpt>
      <trkpt lat="42.98138" lon="-0.09431">
        <ele>565.4</ele>
        <time>2022-05-01T06:55:47Z</time>
      </trkpt>
      <trkpt lat="42.98146" lon="-0.0944">
        <ele>566.4</ele>
        <time>2022-05-01T06:55:51Z</time>
      </trkpt>
      <trkpt lat="42.98154" lon="-0.09449">
        <ele>567.2</ele>
        <time>2022-05-01T06:55:55Z</time>
      </trkpt>
      <trkpt lat="42.98156" lon="-0.09451">
        <ele>567.4</ele>
        <time>2022-05-01T06:55:56Z</time>
      </trkpt>
      <trkpt lat="42.98163" lon="-0.09458">
        <ele>568.6</ele>
        <time>2022-05-01T06:56:00Z</time>
      </trkpt>
      <trkpt lat="42.98169" lon="-0.09465">
        <ele>569.4</ele>
        <time>2022-05-01T06:56:03Z</time>
      </trkpt>
      <trkpt lat="42.98174" lon="-0.09467">
        <ele>569.8</ele>
        <time>2022-05-01T06:56:05Z</time>
      </trkpt>
      <trkpt lat="42.98182" lon="-0.09469">
        <ele>570.2</ele>
        <time>2022-05-01T06:56:08Z</time>
      </trkpt>
      <trkpt lat="42.98194" lon="-0.09467">
        <ele>570.8</ele>
        <time>2022-05-01T06:56:13Z</time>
      </trkpt>
      <trkpt lat="42.98197" lon="-0.09467">
        <ele>570.8</ele>
        <time>2022-05-01T06:56:14Z</time>
      </trkpt>
      <trkpt lat="42.98213" lon="-0.0947">
        <ele>572</ele>
        <time>2022-05-01T06:56:19Z</time>
      </trkpt>
      <trkpt lat="42.98216" lon="-0.09471">
        <ele>572</ele>
        <time>2022-05-01T06:56:20Z</time>
      </trkpt>
      <trkpt lat="42.98232" lon="-0.09482">
        <ele>572.6</ele>
        <time>2022-05-01T06:56:25Z</time>
      </trkpt>
      <trkpt lat="42.98246" lon="-0.09492">
        <ele>573</ele>
        <time>2022-05-01T06:56:29Z</time>
      </trkpt>
      <trkpt lat="42.98254" lon="-0.09497">
        <ele>573.4</ele>
        <time>2022-05-01T06:56:32Z</time>
      </trkpt>
      <trkpt lat="42.98269" lon="-0.09504">
        <ele>574.2</ele>
        <time>2022-05-01T06:56:36Z</time>
      </trkpt>
      <trkpt lat="42.98281" lon="-0.09512">
        <ele>574.8</ele>
        <time>2022-05-01T06:56:40Z</time>
      </trkpt>
      <trkpt lat="42.98286" lon="-0.09516">
        <ele>575.2</ele>
        <time>2022-05-01T06:56:42Z</time>
      </trkpt>
      <trkpt lat="42.98299" lon="-0.09525">
        <ele>575.8</ele>
        <time>2022-05-01T06:56:46Z</time>
      </trkpt>
      <trkpt lat="42.98302" lon="-0.09529">
        <ele>576.2</ele>
        <time>2022-05-01T06:56:48Z</time>
      </trkpt>
      <trkpt lat="42.98314" lon="-0.09538">
        <ele>577</ele>
        <time>2022-05-01T06:56:53Z</time>
      </trkpt>
      <trkpt lat="42.98316" lon="-0.0954">
        <ele>577.2</ele>
        <time>2022-05-01T06:56:54Z</time>
      </trkpt>
      <trkpt lat="42.98324" lon="-0.09548">
        <ele>578.2</ele>
        <time>2022-05-01T06:56:58Z</time>
      </trkpt>
      <trkpt lat="42.98326" lon="-0.09551">
        <ele>578.6</ele>
        <time>2022-05-01T06:56:59Z</time>
      </trkpt>
      <trkpt lat="42.98334" lon="-0.09561">
        <ele>579.6</ele>
        <time>2022-05-01T06:57:04Z</time>
      </trkpt>
      <trkpt lat="42.98338" lon="-0.09568">
        <ele>580</ele>
        <time>2022-05-01T06:57:06Z</time>
      </trkpt>
      <trkpt lat="42.98344" lon="-0.09581">
        <ele>580.8</ele>
        <time>2022-05-01T06:57:10Z</time>
      </trkpt>
      <trkpt lat="42.98348" lon="-0.09592">
        <ele>581.4</ele>
        <time>2022-05-01T06:57:13Z</time>
      </trkpt>
      <trkpt lat="42.98349" lon="-0.09596">
        <ele>581.8</ele>
        <time>2022-05-01T06:57:14Z</time>
      </trkpt>
      <trkpt lat="42.9835" lon="-0.096">
        <ele>581.8</ele>
        <time>2022-05-01T06:57:15Z</time>
      </trkpt>
      <trkpt lat="42.98355" lon="-0.09613">
        <ele>582.8</ele>
        <time>2022-05-01T06:57:19Z</time>
      </trkpt>
      <trkpt lat="42.98358" lon="-0.0962">
        <ele>583.6</ele>
        <time>2022-05-01T06:57:21Z</time>
      </trkpt>
      <trkpt lat="42.98361" lon="-0.09627">
        <ele>584</ele>
        <time>2022-05-01T06:57:23Z</time>
      </trkpt>
      <trkpt lat="42.98366" lon="-0.09638">
        <ele>584.4</ele>
        <time>2022-05-01T06:57:26Z</time>
      </trkpt>
      <trkpt lat="42.98369" lon="-0.0965">
        <ele>585.2</ele>
        <time>2022-05-01T06:57:29Z</time>
      </trkpt>
      <trkpt lat="42.98377" lon="-0.09668">
        <ele>586.2</ele>
        <time>2022-05-01T06:57:34Z</time>
      </trkpt>
      <trkpt lat="42.98383" lon="-0.09688">
        <ele>587.2</ele>
        <time>2022-05-01T06:57:40Z</time>
      </trkpt>
      <trkpt lat="42.98387" lon="-0.09695">
        <ele>587.8</ele>
        <time>2022-05-01T06:57:42Z</time>
      </trkpt>
      <trkpt lat="42.98392" lon="-0.09704">
        <ele>588.4</ele>
        <time>2022-05-01T06:57:45Z</time>
      </trkpt>
      <trkpt lat="42.98397" lon="-0.09713">
        <ele>589.2</ele>
        <time>2022-05-01T06:57:48Z</time>
      </trkpt>
      <trkpt lat="42.984" lon="-0.09719">
        <ele>589.6</ele>
        <time>2022-05-01T06:57:50Z</time>
      </trkpt>
      <trkpt lat="42.98403" lon="-0.09732">
        <ele>590.4</ele>
        <time>2022-05-01T06:57:54Z</time>
      </trkpt>
      <trkpt lat="42.98404" lon="-0.09739">
        <ele>590.6</ele>
        <time>2022-05-01T06:57:56Z</time>
      </trkpt>
      <trkpt lat="42.98409" lon="-0.09754">
        <ele>591.6</ele>
        <time>2022-05-01T06:58:01Z</time>
      </trkpt>
      <trkpt lat="42.9841" lon="-0.09757">
        <ele>591.8</ele>
        <time>2022-05-01T06:58:02Z</time>
      </trkpt>
      <trkpt lat="42.98418" lon="-0.09775">
        <ele>592.8</ele>
        <time>2022-05-01T06:58:08Z</time>
      </trkpt>
      <trkpt lat="42.98426" lon="-0.09793">
        <ele>593.8</ele>
        <time>2022-05-01T06:58:14Z</time>
      </trkpt>
      <trkpt lat="42.98428" lon="-0.09796">
        <ele>594.2</ele>
        <time>2022-05-01T06:58:15Z</time>
      </trkpt>
      <trkpt lat="42.98438" lon="-0.09811">
        <ele>595</ele>
        <time>2022-05-01T06:58:20Z</time>
      </trkpt>
      <trkpt lat="42.98443" lon="-0.09819">
        <ele>595.6</ele>
        <time>2022-05-01T06:58:23Z</time>
      </trkpt>
      <trkpt lat="42.98449" lon="-0.0983">
        <ele>596.2</ele>
        <time>2022-05-01T06:58:27Z</time>
      </trkpt>
      <trkpt lat="42.98453" lon="-0.09835">
        <ele>596.4</ele>
        <time>2022-05-01T06:58:29Z</time>
      </trkpt>
      <trkpt lat="42.9847" lon="-0.09867">
        <ele>597.2</ele>
        <time>2022-05-01T06:58:38Z</time>
      </trkpt>
      <trkpt lat="42.98481" lon="-0.09894">
        <ele>597.6</ele>
        <time>2022-05-01T06:58:45Z</time>
      </trkpt>
      <trkpt lat="42.98495" lon="-0.09917">
        <ele>598.2</ele>
        <time>2022-05-01T06:58:51Z</time>
      </trkpt>
      <trkpt lat="42.98501" lon="-0.09928">
        <ele>598.2</ele>
        <time>2022-05-01T06:58:54Z</time>
      </trkpt>
      <trkpt lat="42.98521" lon="-0.0997">
        <ele>598.8</ele>
        <time>2022-05-01T06:59:05Z</time>
      </trkpt>
      <trkpt lat="42.98532" lon="-0.09988">
        <ele>599.4</ele>
        <time>2022-05-01T06:59:10Z</time>
      </trkpt>
      <trkpt lat="42.98541" lon="-0.10003">
        <ele>599.6</ele>
        <time>2022-05-01T06:59:14Z</time>
      </trkpt>
      <trkpt lat="42.98558" lon="-0.10044">
        <ele>599.8</ele>
        <time>2022-05-01T06:59:24Z</time>
      </trkpt>
      <trkpt lat="42.98567" lon="-0.10067">
        <ele>600.4</ele>
        <time>2022-05-01T06:59:30Z</time>
      </trkpt>
      <trkpt lat="42.9857" lon="-0.10075">
        <ele>600.6</ele>
        <time>2022-05-01T06:59:32Z</time>
      </trkpt>
      <trkpt lat="42.98581" lon="-0.10107">
        <ele>601.6</ele>
        <time>2022-05-01T06:59:40Z</time>
      </trkpt>
      <trkpt lat="42.98584" lon="-0.10118">
        <ele>602</ele>
        <time>2022-05-01T06:59:43Z</time>
      </trkpt>
      <trkpt lat="42.9859" lon="-0.10135">
        <ele>602.6</ele>
        <time>2022-05-01T06:59:48Z</time>
      </trkpt>
      <trkpt lat="42.98596" lon="-0.10147">
        <ele>603.4</ele>
        <time>2022-05-01T06:59:52Z</time>
      </trkpt>
      <trkpt lat="42.98599" lon="-0.10153">
        <ele>604</ele>
        <time>2022-05-01T06:59:54Z</time>
      </trkpt>
      <trkpt lat="42.98603" lon="-0.1017">
        <ele>605</ele>
        <time>2022-05-01T06:59:59Z</time>
      </trkpt>
      <trkpt lat="42.98603" lon="-0.10174">
        <ele>605.4</ele>
        <time>2022-05-01T07:00:00Z</time>
      </trkpt>
      <trkpt lat="42.98604" lon="-0.10184">
        <ele>606.2</ele>
        <time>2022-05-01T07:00:03Z</time>
      </trkpt>
      <trkpt lat="42.98605" lon="-0.10201">
        <ele>607.2</ele>
        <time>2022-05-01T07:00:08Z</time>
      </trkpt>
      <trkpt lat="42.98605" lon="-0.10208">
        <ele>607.6</ele>
        <time>2022-05-01T07:00:10Z</time>
      </trkpt>
      <trkpt lat="42.98606" lon="-0.10217">
        <ele>608.4</ele>
        <time>2022-05-01T07:00:13Z</time>
      </trkpt>
      <trkpt lat="42.98608" lon="-0.10231">
        <ele>609.2</ele>
        <time>2022-05-01T07:00:17Z</time>
      </trkpt>
      <trkpt lat="42.98609" lon="-0.10238">
        <ele>609.6</ele>
        <time>2022-05-01T07:00:19Z</time>
      </trkpt>
      <trkpt lat="42.98611" lon="-0.10255">
        <ele>611</ele>
        <time>2022-05-01T07:00:24Z</time>
      </trkpt>
      <trkpt lat="42.98612" lon="-0.10264">
        <ele>611.6</ele>
        <time>2022-05-01T07:00:27Z</time>
      </trkpt>
      <trkpt lat="42.98612" lon="-0.10275">
        <ele>612.2</ele>
        <time>2022-05-01T07:00:30Z</time>
      </trkpt>
      <trkpt lat="42.98612" lon="-0.10294">
        <ele>613.4</ele>
        <time>2022-05-01T07:00:36Z</time>
      </trkpt>
      <trkpt lat="42.98612" lon="-0.10297">
        <ele>613.6</ele>
        <time>2022-05-01T07:00:37Z</time>
      </trkpt>
      <trkpt lat="42.98611" lon="-0.10314">
        <ele>614.6</ele>
        <time>2022-05-01T07:00:42Z</time>
      </trkpt>
      <trkpt lat="42.98611" lon="-0.10331">
        <ele>615.4</ele>
        <time>2022-05-01T07:00:47Z</time>
      </trkpt>
      <trkpt lat="42.98611" lon="-0.10335">
        <ele>615.6</ele>
        <time>2022-05-01T07:00:48Z</time>
      </trkpt>
      <trkpt lat="42.98611" lon="-0.10348">
        <ele>616.6</ele>
        <time>2022-05-01T07:00:52Z</time>
      </trkpt>
      <trkpt lat="42.98611" lon="-0.10358">
        <ele>617.2</ele>
        <time>2022-05-01T07:00:55Z</time>
      </trkpt>
      <trkpt lat="42.98611" lon="-0.10365">
        <ele>617.8</ele>
        <time>2022-05-01T07:00:57Z</time>
      </trkpt>
      <trkpt lat="42.98611" lon="-0.10378">
        <ele>619</ele>
        <time>2022-05-01T07:01:01Z</time>
      </trkpt>
      <trkpt lat="42.98612" lon="-0.10391">
        <ele>619.8</ele>
        <time>2022-05-01T07:01:05Z</time>
      </trkpt>
      <trkpt lat="42.98612" lon="-0.10394">
        <ele>620</ele>
        <time>2022-05-01T07:01:06Z</time>
      </trkpt>
      <trkpt lat="42.98614" lon="-0.10411">
        <ele>621.2</ele>
        <time>2022-05-01T07:01:11Z</time>
      </trkpt>
      <trkpt lat="42.98615" lon="-0.10415">
        <ele>621.6</ele>
        <time>2022-05-01T07:01:12Z</time>
      </trkpt>
      <trkpt lat="42.98619" lon="-0.10431">
        <ele>622.4</ele>
        <time>2022-05-01T07:01:17Z</time>
      </trkpt>
      <trkpt lat="42.98624" lon="-0.10444">
        <ele>623</ele>
        <time>2022-05-01T07:01:21Z</time>
      </trkpt>
      <trkpt lat="42.98625" lon="-0.10447">
        <ele>623.6</ele>
        <time>2022-05-01T07:01:22Z</time>
      </trkpt>
      <trkpt lat="42.98631" lon="-0.10459">
        <ele>624.6</ele>
        <time>2022-05-01T07:01:26Z</time>
      </trkpt>
      <trkpt lat="42.98634" lon="-0.10465">
        <ele>625.2</ele>
        <time>2022-05-01T07:01:28Z</time>
      </trkpt>
      <trkpt lat="42.98638" lon="-0.1047">
        <ele>625.6</ele>
        <time>2022-05-01T07:01:30Z</time>
      </trkpt>
      <trkpt lat="42.98648" lon="-0.10484">
        <ele>627</ele>
        <time>2022-05-01T07:01:35Z</time>
      </trkpt>
      <trkpt lat="42.9865" lon="-0.10486">
        <ele>627.2</ele>
        <time>2022-05-01T07:01:36Z</time>
      </trkpt>
      <trkpt lat="42.98658" lon="-0.10497">
        <ele>628.2</ele>
        <time>2022-05-01T07:01:40Z</time>
      </trkpt>
      <trkpt lat="42.98666" lon="-0.10509">
        <ele>629.2</ele>
        <time>2022-05-01T07:01:45Z</time>
      </trkpt>
      <trkpt lat="42.98668" lon="-0.10512">
        <ele>629.4</ele>
        <time>2022-05-01T07:01:46Z</time>
      </trkpt>
      <trkpt lat="42.98677" lon="-0.10522">
        <ele>630.4</ele>
        <time>2022-05-01T07:01:51Z</time>
      </trkpt>
      <trkpt lat="42.98679" lon="-0.10525">
        <ele>630.6</ele>
        <time>2022-05-01T07:01:52Z</time>
      </trkpt>
      <trkpt lat="42.98691" lon="-0.10538">
        <ele>631.6</ele>
        <time>2022-05-01T07:01:58Z</time>
      </trkpt>
      <trkpt lat="42.98695" lon="-0.10545">
        <ele>632</ele>
        <time>2022-05-01T07:02:01Z</time>
      </trkpt>
      <trkpt lat="42.987" lon="-0.10552">
        <ele>633</ele>
        <time>2022-05-01T07:02:04Z</time>
      </trkpt>
      <trkpt lat="42.98703" lon="-0.10558">
        <ele>633.4</ele>
        <time>2022-05-01T07:02:06Z</time>
      </trkpt>
      <trkpt lat="42.98708" lon="-0.10566">
        <ele>634.2</ele>
        <time>2022-05-01T07:02:09Z</time>
      </trkpt>
      <trkpt lat="42.9871" lon="-0.10569">
        <ele>634.4</ele>
        <time>2022-05-01T07:02:10Z</time>
      </trkpt>
      <trkpt lat="42.98716" lon="-0.10581">
        <ele>635.4</ele>
        <time>2022-05-01T07:02:14Z</time>
      </trkpt>
      <trkpt lat="42.98722" lon="-0.10592">
        <ele>636.2</ele>
        <time>2022-05-01T07:02:18Z</time>
      </trkpt>
      <trkpt lat="42.98724" lon="-0.10595">
        <ele>636.4</ele>
        <time>2022-05-01T07:02:19Z</time>
      </trkpt>
      <trkpt lat="42.98733" lon="-0.1061">
        <ele>636.8</ele>
        <time>2022-05-01T07:02:24Z</time>
      </trkpt>
      <trkpt lat="42.98744" lon="-0.10629">
        <ele>637.4</ele>
        <time>2022-05-01T07:02:30Z</time>
      </trkpt>
      <trkpt lat="42.98752" lon="-0.10645">
        <ele>637.8</ele>
        <time>2022-05-01T07:02:34Z</time>
      </trkpt>
      <trkpt lat="42.98755" lon="-0.10678">
        <ele>637.8</ele>
        <time>2022-05-01T07:02:41Z</time>
      </trkpt>
      <trkpt lat="42.98749" lon="-0.10721">
        <ele>637.4</ele>
        <time>2022-05-01T07:02:49Z</time>
      </trkpt>
      <trkpt lat="42.98725" lon="-0.10771">
        <ele>636.8</ele>
        <time>2022-05-01T07:03:00Z</time>
      </trkpt>
      <trkpt lat="42.9871" lon="-0.10792">
        <ele>637.2</ele>
        <time>2022-05-01T07:03:06Z</time>
      </trkpt>
      <trkpt lat="42.98689" lon="-0.10813">
        <ele>637.6</ele>
        <time>2022-05-01T07:03:13Z</time>
      </trkpt>
      <trkpt lat="42.98665" lon="-0.10839">
        <ele>638</ele>
        <time>2022-05-01T07:03:21Z</time>
      </trkpt>
      <trkpt lat="42.98651" lon="-0.10857">
        <ele>638.2</ele>
        <time>2022-05-01T07:03:26Z</time>
      </trkpt>
      <trkpt lat="42.98645" lon="-0.10871">
        <ele>638.4</ele>
        <time>2022-05-01T07:03:29Z</time>
      </trkpt>
      <trkpt lat="42.98634" lon="-0.10903">
        <ele>638.6</ele>
        <time>2022-05-01T07:03:36Z</time>
      </trkpt>
      <trkpt lat="42.98621" lon="-0.10943">
        <ele>639.2</ele>
        <time>2022-05-01T07:03:45Z</time>
      </trkpt>
      <trkpt lat="42.98618" lon="-0.1095">
        <ele>639.4</ele>
        <time>2022-05-01T07:03:47Z</time>
      </trkpt>
      <trkpt lat="42.98611" lon="-0.10961">
        <ele>640</ele>
        <time>2022-05-01T07:03:51Z</time>
      </trkpt>
      <trkpt lat="42.98609" lon="-0.10966">
        <ele>640.6</ele>
        <time>2022-05-01T07:03:53Z</time>
      </trkpt>
      <trkpt lat="42.98603" lon="-0.10977">
        <ele>641.6</ele>
        <time>2022-05-01T07:03:57Z</time>
      </trkpt>
      <trkpt lat="42.98599" lon="-0.10986">
        <ele>642.6</ele>
        <time>2022-05-01T07:04:00Z</time>
      </trkpt>
      <trkpt lat="42.98596" lon="-0.10992">
        <ele>643</ele>
        <time>2022-05-01T07:04:02Z</time>
      </trkpt>
      <trkpt lat="42.98591" lon="-0.11004">
        <ele>644.2</ele>
        <time>2022-05-01T07:04:06Z</time>
      </trkpt>
      <trkpt lat="42.98586" lon="-0.11012">
        <ele>645</ele>
        <time>2022-05-01T07:04:09Z</time>
      </trkpt>
      <trkpt lat="42.98585" lon="-0.11014">
        <ele>645.4</ele>
        <time>2022-05-01T07:04:10Z</time>
      </trkpt>
      <trkpt lat="42.9858" lon="-0.11022">
        <ele>646.4</ele>
        <time>2022-05-01T07:04:14Z</time>
      </trkpt>
      <trkpt lat="42.98579" lon="-0.11024">
        <ele>646.6</ele>
        <time>2022-05-01T07:04:15Z</time>
      </trkpt>
      <trkpt lat="42.98575" lon="-0.11034">
        <ele>647.8</ele>
        <time>2022-05-01T07:04:19Z</time>
      </trkpt>
      <trkpt lat="42.98572" lon="-0.1104">
        <ele>648.6</ele>
        <time>2022-05-01T07:04:22Z</time>
      </trkpt>
      <trkpt lat="42.9857" lon="-0.11046">
        <ele>649</ele>
        <time>2022-05-01T07:04:24Z</time>
      </trkpt>
      <trkpt lat="42.98566" lon="-0.11056">
        <ele>650.2</ele>
        <time>2022-05-01T07:04:28Z</time>
      </trkpt>
      <trkpt lat="42.98563" lon="-0.11061">
        <ele>651</ele>
        <time>2022-05-01T07:04:30Z</time>
      </trkpt>
      <trkpt lat="42.98561" lon="-0.11065">
        <ele>651.4</ele>
        <time>2022-05-01T07:04:32Z</time>
      </trkpt>
      <trkpt lat="42.98556" lon="-0.11073">
        <ele>652.4</ele>
        <time>2022-05-01T07:04:36Z</time>
      </trkpt>
      <trkpt lat="42.98555" lon="-0.11075">
        <ele>652.6</ele>
        <time>2022-05-01T07:04:37Z</time>
      </trkpt>
      <trkpt lat="42.98549" lon="-0.11083">
        <ele>653.8</ele>
        <time>2022-05-01T07:04:41Z</time>
      </trkpt>
      <trkpt lat="42.98543" lon="-0.1109">
        <ele>654.8</ele>
        <time>2022-05-01T07:04:45Z</time>
      </trkpt>
      <trkpt lat="42.98541" lon="-0.11091">
        <ele>655.2</ele>
        <time>2022-05-01T07:04:46Z</time>
      </trkpt>
      <trkpt lat="42.98536" lon="-0.11095">
        <ele>656</ele>
        <time>2022-05-01T07:04:49Z</time>
      </trkpt>
      <trkpt lat="42.98526" lon="-0.11096">
        <ele>657.2</ele>
        <time>2022-05-01T07:04:54Z</time>
      </trkpt>
      <trkpt lat="42.98515" lon="-0.11089">
        <ele>658.4</ele>
        <time>2022-05-01T07:04:59Z</time>
      </trkpt>
      <trkpt lat="42.98507" lon="-0.1108">
        <ele>658.8</ele>
        <time>2022-05-01T07:05:03Z</time>
      </trkpt>
      <trkpt lat="42.98497" lon="-0.11062">
        <ele>659.6</ele>
        <time>2022-05-01T07:05:09Z</time>
      </trkpt>
      <trkpt lat="42.98496" lon="-0.1106">
        <ele>659.6</ele>
        <time>2022-05-01T07:05:10Z</time>
      </trkpt>
      <trkpt lat="42.98488" lon="-0.1104">
        <ele>660.4</ele>
        <time>2022-05-01T07:05:17Z</time>
      </trkpt>
      <trkpt lat="42.98485" lon="-0.11031">
        <ele>660.6</ele>
        <time>2022-05-01T07:05:20Z</time>
      </trkpt>
      <trkpt lat="42.98481" lon="-0.11021">
        <ele>661.6</ele>
        <time>2022-05-01T07:05:24Z</time>
      </trkpt>
      <trkpt lat="42.98478" lon="-0.11015">
        <ele>661.8</ele>
        <time>2022-05-01T07:05:26Z</time>
      </trkpt>
      <trkpt lat="42.9847" lon="-0.10998">
        <ele>663</ele>
        <time>2022-05-01T07:05:32Z</time>
      </trkpt>
      <trkpt lat="42.98469" lon="-0.10996">
        <ele>663.2</ele>
        <time>2022-05-01T07:05:33Z</time>
      </trkpt>
      <trkpt lat="42.98462" lon="-0.10979">
        <ele>664.2</ele>
        <time>2022-05-01T07:05:39Z</time>
      </trkpt>
      <trkpt lat="42.98458" lon="-0.1097">
        <ele>664.8</ele>
        <time>2022-05-01T07:05:43Z</time>
      </trkpt>
      <trkpt lat="42.98456" lon="-0.10961">
        <ele>665.2</ele>
        <time>2022-05-01T07:05:46Z</time>
      </trkpt>
      <trkpt lat="42.98455" lon="-0.10953">
        <ele>665.8</ele>
        <time>2022-05-01T07:05:49Z</time>
      </trkpt>
      <trkpt lat="42.98453" lon="-0.10946">
        <ele>666.4</ele>
        <time>2022-05-01T07:05:52Z</time>
      </trkpt>
      <trkpt lat="42.98449" lon="-0.10933">
        <ele>667.2</ele>
        <time>2022-05-01T07:05:57Z</time>
      </trkpt>
      <trkpt lat="42.98448" lon="-0.1093">
        <ele>667.4</ele>
        <time>2022-05-01T07:05:58Z</time>
      </trkpt>
      <trkpt lat="42.98446" lon="-0.10922">
        <ele>668.2</ele>
        <time>2022-05-01T07:06:01Z</time>
      </trkpt>
      <trkpt lat="42.98445" lon="-0.10919">
        <ele>668.4</ele>
        <time>2022-05-01T07:06:02Z</time>
      </trkpt>
      <trkpt lat="42.98444" lon="-0.10916">
        <ele>668.6</ele>
        <time>2022-05-01T07:06:03Z</time>
      </trkpt>
      <trkpt lat="42.98443" lon="-0.10906">
        <ele>669.6</ele>
        <time>2022-05-01T07:06:07Z</time>
      </trkpt>
      <trkpt lat="42.98441" lon="-0.109">
        <ele>670.2</ele>
        <time>2022-05-01T07:06:09Z</time>
      </trkpt>
      <trkpt lat="42.9844" lon="-0.10892">
        <ele>670.6</ele>
        <time>2022-05-01T07:06:12Z</time>
      </trkpt>
      <trkpt lat="42.98438" lon="-0.10884">
        <ele>671.6</ele>
        <time>2022-05-01T07:06:15Z</time>
      </trkpt>
      <trkpt lat="42.98438" lon="-0.1088">
        <ele>671.8</ele>
        <time>2022-05-01T07:06:16Z</time>
      </trkpt>
      <trkpt lat="42.98434" lon="-0.10875">
        <ele>672.2</ele>
        <time>2022-05-01T07:06:18Z</time>
      </trkpt>
      <trkpt lat="42.98434" lon="-0.10871">
        <ele>672.6</ele>
        <time>2022-05-01T07:06:20Z</time>
      </trkpt>
      <trkpt lat="42.98433" lon="-0.10869">
        <ele>673</ele>
        <time>2022-05-01T07:06:21Z</time>
      </trkpt>
      <trkpt lat="42.98433" lon="-0.10867">
        <ele>673.2</ele>
        <time>2022-05-01T07:06:22Z</time>
      </trkpt>
      <trkpt lat="42.9843" lon="-0.10862">
        <ele>673.6</ele>
        <time>2022-05-01T07:06:24Z</time>
      </trkpt>
      <trkpt lat="42.98428" lon="-0.10856">
        <ele>674.2</ele>
        <time>2022-05-01T07:06:26Z</time>
      </trkpt>
      <trkpt lat="42.98428" lon="-0.10853">
        <ele>674.4</ele>
        <time>2022-05-01T07:06:27Z</time>
      </trkpt>
      <trkpt lat="42.98427" lon="-0.10847">
        <ele>675</ele>
        <time>2022-05-01T07:06:29Z</time>
      </trkpt>
      <trkpt lat="42.98426" lon="-0.10844">
        <ele>675.2</ele>
        <time>2022-05-01T07:06:30Z</time>
      </trkpt>
      <trkpt lat="42.98424" lon="-0.10839">
        <ele>675.6</ele>
        <time>2022-05-01T07:06:32Z</time>
      </trkpt>
      <trkpt lat="42.98423" lon="-0.10837">
        <ele>675.8</ele>
        <time>2022-05-01T07:06:33Z</time>
      </trkpt>
      <trkpt lat="42.98422" lon="-0.10832">
        <ele>676</ele>
        <time>2022-05-01T07:06:35Z</time>
      </trkpt>
      <trkpt lat="42.98418" lon="-0.10819">
        <ele>676.8</ele>
        <time>2022-05-01T07:06:40Z</time>
      </trkpt>
      <trkpt lat="42.98419" lon="-0.10816">
        <ele>677.2</ele>
        <time>2022-05-01T07:06:41Z</time>
      </trkpt>
      <trkpt lat="42.98415" lon="-0.10804">
        <ele>678.2</ele>
        <time>2022-05-01T07:06:45Z</time>
      </trkpt>
      <trkpt lat="42.98417" lon="-0.10798">
        <ele>678.8</ele>
        <time>2022-05-01T07:06:47Z</time>
      </trkpt>
      <trkpt lat="42.98417" lon="-0.10793">
        <ele>679.2</ele>
        <time>2022-05-01T07:06:49Z</time>
      </trkpt>
      <trkpt lat="42.98411" lon="-0.10781">
        <ele>680.2</ele>
        <time>2022-05-01T07:06:53Z</time>
      </trkpt>
      <trkpt lat="42.98411" lon="-0.10779">
        <ele>680.4</ele>
        <time>2022-05-01T07:06:54Z</time>
      </trkpt>
      <trkpt lat="42.98401" lon="-0.10766">
        <ele>681.6</ele>
        <time>2022-05-01T07:07:00Z</time>
      </trkpt>
      <trkpt lat="42.98395" lon="-0.10754">
        <ele>682.6</ele>
        <time>2022-05-01T07:07:06Z</time>
      </trkpt>
      <trkpt lat="42.98394" lon="-0.10752">
        <ele>683</ele>
        <time>2022-05-01T07:07:07Z</time>
      </trkpt>
      <trkpt lat="42.98388" lon="-0.10742">
        <ele>683.8</ele>
        <time>2022-05-01T07:07:11Z</time>
      </trkpt>
      <trkpt lat="42.98383" lon="-0.10732">
        <ele>684.6</ele>
        <time>2022-05-01T07:07:16Z</time>
      </trkpt>
      <trkpt lat="42.98382" lon="-0.1073">
        <ele>685.2</ele>
        <time>2022-05-01T07:07:17Z</time>
      </trkpt>
      <trkpt lat="42.98379" lon="-0.10724">
        <ele>685.8</ele>
        <time>2022-05-01T07:07:20Z</time>
      </trkpt>
      <trkpt lat="42.98378" lon="-0.10721">
        <ele>686.2</ele>
        <time>2022-05-01T07:07:21Z</time>
      </trkpt>
      <trkpt lat="42.98376" lon="-0.10714">
        <ele>686.8</ele>
        <time>2022-05-01T07:07:24Z</time>
      </trkpt>
      <trkpt lat="42.98376" lon="-0.10712">
        <ele>687.2</ele>
        <time>2022-05-01T07:07:25Z</time>
      </trkpt>
      <trkpt lat="42.98376" lon="-0.1071">
        <ele>687.6</ele>
        <time>2022-05-01T07:07:26Z</time>
      </trkpt>
      <trkpt lat="42.98375" lon="-0.10707">
        <ele>687.8</ele>
        <time>2022-05-01T07:07:27Z</time>
      </trkpt>
      <trkpt lat="42.98373" lon="-0.107">
        <ele>688.6</ele>
        <time>2022-05-01T07:07:30Z</time>
      </trkpt>
      <trkpt lat="42.98371" lon="-0.10693">
        <ele>689</ele>
        <time>2022-05-01T07:07:33Z</time>
      </trkpt>
      <trkpt lat="42.98369" lon="-0.10688">
        <ele>689.4</ele>
        <time>2022-05-01T07:07:35Z</time>
      </trkpt>
      <trkpt lat="42.98369" lon="-0.10685">
        <ele>689.8</ele>
        <time>2022-05-01T07:07:36Z</time>
      </trkpt>
      <trkpt lat="42.98368" lon="-0.10677">
        <ele>690.4</ele>
        <time>2022-05-01T07:07:39Z</time>
      </trkpt>
      <trkpt lat="42.98366" lon="-0.10671">
        <ele>690.8</ele>
        <time>2022-05-01T07:07:41Z</time>
      </trkpt>
      <trkpt lat="42.98367" lon="-0.10668">
        <ele>691</ele>
        <time>2022-05-01T07:07:42Z</time>
      </trkpt>
      <trkpt lat="42.98367" lon="-0.10654">
        <ele>692</ele>
        <time>2022-05-01T07:07:47Z</time>
      </trkpt>
      <trkpt lat="42.98367" lon="-0.10645">
        <ele>692.6</ele>
        <time>2022-05-01T07:07:50Z</time>
      </trkpt>
      <trkpt lat="42.98366" lon="-0.10637">
        <ele>693.4</ele>
        <time>2022-05-01T07:07:53Z</time>
      </trkpt>
      <trkpt lat="42.98364" lon="-0.10625">
        <ele>694.2</ele>
        <time>2022-05-01T07:07:57Z</time>
      </trkpt>
      <trkpt lat="42.98362" lon="-0.1062">
        <ele>694.2</ele>
        <time>2022-05-01T07:07:59Z</time>
      </trkpt>
      <trkpt lat="42.98358" lon="-0.10608">
        <ele>695.2</ele>
        <time>2022-05-01T07:08:03Z</time>
      </trkpt>
      <trkpt lat="42.98357" lon="-0.10606">
        <ele>695.2</ele>
        <time>2022-05-01T07:08:04Z</time>
      </trkpt>
      <trkpt lat="42.98351" lon="-0.10593">
        <ele>696.4</ele>
        <time>2022-05-01T07:08:09Z</time>
      </trkpt>
      <trkpt lat="42.98345" lon="-0.10582">
        <ele>697.4</ele>
        <time>2022-05-01T07:08:13Z</time>
      </trkpt>
      <trkpt lat="42.98344" lon="-0.10579">
        <ele>697.6</ele>
        <time>2022-05-01T07:08:14Z</time>
      </trkpt>
      <trkpt lat="42.98337" lon="-0.10567">
        <ele>698.4</ele>
        <time>2022-05-01T07:08:18Z</time>
      </trkpt>
      <trkpt lat="42.98336" lon="-0.1056">
        <ele>698.8</ele>
        <time>2022-05-01T07:08:20Z</time>
      </trkpt>
      <trkpt lat="42.98338" lon="-0.10551">
        <ele>699.4</ele>
        <time>2022-05-01T07:08:23Z</time>
      </trkpt>
      <trkpt lat="42.98335" lon="-0.10542">
        <ele>700.2</ele>
        <time>2022-05-01T07:08:26Z</time>
      </trkpt>
      <trkpt lat="42.98334" lon="-0.10539">
        <ele>700.6</ele>
        <time>2022-05-01T07:08:27Z</time>
      </trkpt>
      <trkpt lat="42.98333" lon="-0.10527">
        <ele>701.6</ele>
        <time>2022-05-01T07:08:31Z</time>
      </trkpt>
      <trkpt lat="42.98333" lon="-0.10521">
        <ele>701.8</ele>
        <time>2022-05-01T07:08:33Z</time>
      </trkpt>
      <trkpt lat="42.98332" lon="-0.10512">
        <ele>702.6</ele>
        <time>2022-05-01T07:08:36Z</time>
      </trkpt>
      <trkpt lat="42.98331" lon="-0.10495">
        <ele>703.6</ele>
        <time>2022-05-01T07:08:42Z</time>
      </trkpt>
      <trkpt lat="42.98333" lon="-0.10477">
        <ele>704.8</ele>
        <time>2022-05-01T07:08:48Z</time>
      </trkpt>
      <trkpt lat="42.98327" lon="-0.10458">
        <ele>705.8</ele>
        <time>2022-05-01T07:08:54Z</time>
      </trkpt>
      <trkpt lat="42.98326" lon="-0.10455">
        <ele>705.8</ele>
        <time>2022-05-01T07:08:55Z</time>
      </trkpt>
      <trkpt lat="42.98322" lon="-0.10447">
        <ele>706.4</ele>
        <time>2022-05-01T07:08:58Z</time>
      </trkpt>
      <trkpt lat="42.98317" lon="-0.1044">
        <ele>706.8</ele>
        <time>2022-05-01T07:09:01Z</time>
      </trkpt>
      <trkpt lat="42.98315" lon="-0.10437">
        <ele>707</ele>
        <time>2022-05-01T07:09:02Z</time>
      </trkpt>
      <trkpt lat="42.9831" lon="-0.10427">
        <ele>707.8</ele>
        <time>2022-05-01T07:09:06Z</time>
      </trkpt>
      <trkpt lat="42.98307" lon="-0.10423">
        <ele>708.2</ele>
        <time>2022-05-01T07:09:08Z</time>
      </trkpt>
      <trkpt lat="42.98301" lon="-0.10416">
        <ele>708.8</ele>
        <time>2022-05-01T07:09:11Z</time>
      </trkpt>
      <trkpt lat="42.98293" lon="-0.10406">
        <ele>710</ele>
        <time>2022-05-01T07:09:16Z</time>
      </trkpt>
      <trkpt lat="42.98288" lon="-0.10402">
        <ele>710.2</ele>
        <time>2022-05-01T07:09:18Z</time>
      </trkpt>
      <trkpt lat="42.9828" lon="-0.10393">
        <ele>711.2</ele>
        <time>2022-05-01T07:09:23Z</time>
      </trkpt>
      <trkpt lat="42.98277" lon="-0.10389">
        <ele>711.4</ele>
        <time>2022-05-01T07:09:25Z</time>
      </trkpt>
      <trkpt lat="42.98269" lon="-0.10382">
        <ele>712.2</ele>
        <time>2022-05-01T07:09:29Z</time>
      </trkpt>
      <trkpt lat="42.98264" lon="-0.10377">
        <ele>712.6</ele>
        <time>2022-05-01T07:09:32Z</time>
      </trkpt>
      <trkpt lat="42.98258" lon="-0.1037">
        <ele>713.4</ele>
        <time>2022-05-01T07:09:36Z</time>
      </trkpt>
      <trkpt lat="42.98253" lon="-0.10364">
        <ele>714.2</ele>
        <time>2022-05-01T07:09:40Z</time>
      </trkpt>
      <trkpt lat="42.98252" lon="-0.10362">
        <ele>714.4</ele>
        <time>2022-05-01T07:09:41Z</time>
      </trkpt>
      <trkpt lat="42.98244" lon="-0.10356">
        <ele>715.6</ele>
        <time>2022-05-01T07:09:47Z</time>
      </trkpt>
      <trkpt lat="42.98239" lon="-0.10354">
        <ele>716</ele>
        <time>2022-05-01T07:09:49Z</time>
      </trkpt>
      <trkpt lat="42.98231" lon="-0.10355">
        <ele>716.6</ele>
        <time>2022-05-01T07:09:53Z</time>
      </trkpt>
      <trkpt lat="42.98227" lon="-0.10355">
        <ele>717</ele>
        <time>2022-05-01T07:09:55Z</time>
      </trkpt>
      <trkpt lat="42.98219" lon="-0.10352">
        <ele>717.8</ele>
        <time>2022-05-01T07:09:59Z</time>
      </trkpt>
      <trkpt lat="42.98216" lon="-0.1035">
        <ele>718</ele>
        <time>2022-05-01T07:10:00Z</time>
      </trkpt>
      <trkpt lat="42.98201" lon="-0.10336">
        <ele>718.8</ele>
        <time>2022-05-01T07:10:07Z</time>
      </trkpt>
      <trkpt lat="42.98199" lon="-0.10334">
        <ele>719</ele>
        <time>2022-05-01T07:10:08Z</time>
      </trkpt>
      <trkpt lat="42.98197" lon="-0.10332">
        <ele>719</ele>
        <time>2022-05-01T07:10:09Z</time>
      </trkpt>
      <trkpt lat="42.98194" lon="-0.10325">
        <ele>719.6</ele>
        <time>2022-05-01T07:10:12Z</time>
      </trkpt>
      <trkpt lat="42.98191" lon="-0.10318">
        <ele>720</ele>
        <time>2022-05-01T07:10:14Z</time>
      </trkpt>
      <trkpt lat="42.98184" lon="-0.10308">
        <ele>720.4</ele>
        <time>2022-05-01T07:10:18Z</time>
      </trkpt>
      <trkpt lat="42.98174" lon="-0.103">
        <ele>720.8</ele>
        <time>2022-05-01T07:10:23Z</time>
      </trkpt>
      <trkpt lat="42.98173" lon="-0.10297">
        <ele>721</ele>
        <time>2022-05-01T07:10:24Z</time>
      </trkpt>
      <trkpt lat="42.98163" lon="-0.10295">
        <ele>721.4</ele>
        <time>2022-05-01T07:10:29Z</time>
      </trkpt>
      <trkpt lat="42.98159" lon="-0.103">
        <ele>721.6</ele>
        <time>2022-05-01T07:10:32Z</time>
      </trkpt>
      <trkpt lat="42.98159" lon="-0.10303">
        <ele>721.8</ele>
        <time>2022-05-01T07:10:33Z</time>
      </trkpt>
      <trkpt lat="42.9816" lon="-0.10308">
        <ele>722.2</ele>
        <time>2022-05-01T07:10:35Z</time>
      </trkpt>
      <trkpt lat="42.98166" lon="-0.10318">
        <ele>723</ele>
        <time>2022-05-01T07:10:40Z</time>
      </trkpt>
      <trkpt lat="42.98168" lon="-0.1032">
        <ele>723.2</ele>
        <time>2022-05-01T07:10:41Z</time>
      </trkpt>
      <trkpt lat="42.98179" lon="-0.10334">
        <ele>724</ele>
        <time>2022-05-01T07:10:48Z</time>
      </trkpt>
      <trkpt lat="42.98181" lon="-0.10336">
        <ele>724.2</ele>
        <time>2022-05-01T07:10:49Z</time>
      </trkpt>
      <trkpt lat="42.98188" lon="-0.1035">
        <ele>724.8</ele>
        <time>2022-05-01T07:10:54Z</time>
      </trkpt>
      <trkpt lat="42.98192" lon="-0.10361">
        <ele>725.4</ele>
        <time>2022-05-01T07:10:58Z</time>
      </trkpt>
      <trkpt lat="42.98195" lon="-0.10375">
        <ele>726</ele>
        <time>2022-05-01T07:11:03Z</time>
      </trkpt>
      <trkpt lat="42.98195" lon="-0.10381">
        <ele>726.4</ele>
        <time>2022-05-01T07:11:05Z</time>
      </trkpt>
      <trkpt lat="42.98194" lon="-0.10396">
        <ele>727.4</ele>
        <time>2022-05-01T07:11:10Z</time>
      </trkpt>
      <trkpt lat="42.98194" lon="-0.10399">
        <ele>727.6</ele>
        <time>2022-05-01T07:11:11Z</time>
      </trkpt>
      <trkpt lat="42.98194" lon="-0.10412">
        <ele>728.6</ele>
        <time>2022-05-01T07:11:16Z</time>
      </trkpt>
      <trkpt lat="42.98194" lon="-0.10417">
        <ele>729.2</ele>
        <time>2022-05-01T07:11:18Z</time>
      </trkpt>
      <trkpt lat="42.98194" lon="-0.10425">
        <ele>729.8</ele>
        <time>2022-05-01T07:11:21Z</time>
      </trkpt>
      <trkpt lat="42.98195" lon="-0.10434">
        <ele>730.4</ele>
        <time>2022-05-01T07:11:24Z</time>
      </trkpt>
      <trkpt lat="42.98195" lon="-0.1044">
        <ele>731</ele>
        <time>2022-05-01T07:11:26Z</time>
      </trkpt>
      <trkpt lat="42.98192" lon="-0.10454">
        <ele>731.8</ele>
        <time>2022-05-01T07:11:31Z</time>
      </trkpt>
      <trkpt lat="42.98191" lon="-0.10459">
        <ele>732.2</ele>
        <time>2022-05-01T07:11:33Z</time>
      </trkpt>
      <trkpt lat="42.98189" lon="-0.1047">
        <ele>733.4</ele>
        <time>2022-05-01T07:11:37Z</time>
      </trkpt>
      <trkpt lat="42.98189" lon="-0.10485">
        <ele>734.6</ele>
        <time>2022-05-01T07:11:42Z</time>
      </trkpt>
      <trkpt lat="42.9819" lon="-0.10493">
        <ele>734.8</ele>
        <time>2022-05-01T07:11:45Z</time>
      </trkpt>
      <trkpt lat="42.98194" lon="-0.10507">
        <ele>735.8</ele>
        <time>2022-05-01T07:11:50Z</time>
      </trkpt>
      <trkpt lat="42.98198" lon="-0.10523">
        <ele>736.6</ele>
        <time>2022-05-01T07:11:56Z</time>
      </trkpt>
      <trkpt lat="42.98202" lon="-0.10541">
        <ele>737.8</ele>
        <time>2022-05-01T07:12:02Z</time>
      </trkpt>
      <trkpt lat="42.98203" lon="-0.10549">
        <ele>738.6</ele>
        <time>2022-05-01T07:12:05Z</time>
      </trkpt>
      <trkpt lat="42.98204" lon="-0.10552">
        <ele>738.8</ele>
        <time>2022-05-01T07:12:06Z</time>
      </trkpt>
      <trkpt lat="42.98205" lon="-0.10566">
        <ele>740</ele>
        <time>2022-05-01T07:12:11Z</time>
      </trkpt>
      <trkpt lat="42.98205" lon="-0.10569">
        <ele>740.2</ele>
        <time>2022-05-01T07:12:12Z</time>
      </trkpt>
      <trkpt lat="42.98204" lon="-0.1058">
        <ele>741.2</ele>
        <time>2022-05-01T07:12:16Z</time>
      </trkpt>
      <trkpt lat="42.98204" lon="-0.1059">
        <ele>741.8</ele>
        <time>2022-05-01T07:12:20Z</time>
      </trkpt>
      <trkpt lat="42.98204" lon="-0.10595">
        <ele>742.2</ele>
        <time>2022-05-01T07:12:22Z</time>
      </trkpt>
      <trkpt lat="42.98203" lon="-0.10605">
        <ele>743.4</ele>
        <time>2022-05-01T07:12:26Z</time>
      </trkpt>
      <trkpt lat="42.98203" lon="-0.10607">
        <ele>743.4</ele>
        <time>2022-05-01T07:12:27Z</time>
      </trkpt>
      <trkpt lat="42.982" lon="-0.10617">
        <ele>744.2</ele>
        <time>2022-05-01T07:12:31Z</time>
      </trkpt>
      <trkpt lat="42.98199" lon="-0.10619">
        <ele>744.6</ele>
        <time>2022-05-01T07:12:32Z</time>
      </trkpt>
      <trkpt lat="42.98199" lon="-0.10621">
        <ele>744.6</ele>
        <time>2022-05-01T07:12:33Z</time>
      </trkpt>
      <trkpt lat="42.98197" lon="-0.10636">
        <ele>745.8</ele>
        <time>2022-05-01T07:12:38Z</time>
      </trkpt>
      <trkpt lat="42.98197" lon="-0.10639">
        <ele>746</ele>
        <time>2022-05-01T07:12:39Z</time>
      </trkpt>
      <trkpt lat="42.98198" lon="-0.10651">
        <ele>747</ele>
        <time>2022-05-01T07:12:43Z</time>
      </trkpt>
      <trkpt lat="42.98201" lon="-0.10662">
        <ele>748</ele>
        <time>2022-05-01T07:12:47Z</time>
      </trkpt>
      <trkpt lat="42.98202" lon="-0.10664">
        <ele>748.2</ele>
        <time>2022-05-01T07:12:48Z</time>
      </trkpt>
      <trkpt lat="42.9821" lon="-0.10676">
        <ele>749.2</ele>
        <time>2022-05-01T07:12:53Z</time>
      </trkpt>
      <trkpt lat="42.98213" lon="-0.10682">
        <ele>749.6</ele>
        <time>2022-05-01T07:12:56Z</time>
      </trkpt>
      <trkpt lat="42.98217" lon="-0.10689">
        <ele>750.4</ele>
        <time>2022-05-01T07:12:59Z</time>
      </trkpt>
      <trkpt lat="42.98219" lon="-0.10693">
        <ele>750.6</ele>
        <time>2022-05-01T07:13:01Z</time>
      </trkpt>
      <trkpt lat="42.98221" lon="-0.10699">
        <ele>751</ele>
        <time>2022-05-01T07:13:03Z</time>
      </trkpt>
      <trkpt lat="42.98223" lon="-0.10709">
        <ele>751.6</ele>
        <time>2022-05-01T07:13:07Z</time>
      </trkpt>
      <trkpt lat="42.98223" lon="-0.10719">
        <ele>752.2</ele>
        <time>2022-05-01T07:13:11Z</time>
      </trkpt>
      <trkpt lat="42.98224" lon="-0.10724">
        <ele>752.6</ele>
        <time>2022-05-01T07:13:13Z</time>
      </trkpt>
      <trkpt lat="42.98225" lon="-0.10737">
        <ele>753.8</ele>
        <time>2022-05-01T07:13:18Z</time>
      </trkpt>
      <trkpt lat="42.98225" lon="-0.1074">
        <ele>754</ele>
        <time>2022-05-01T07:13:19Z</time>
      </trkpt>
      <trkpt lat="42.98224" lon="-0.10752">
        <ele>755</ele>
        <time>2022-05-01T07:13:24Z</time>
      </trkpt>
      <trkpt lat="42.98222" lon="-0.10757">
        <ele>755.4</ele>
        <time>2022-05-01T07:13:26Z</time>
      </trkpt>
      <trkpt lat="42.98216" lon="-0.10768">
        <ele>756</ele>
        <time>2022-05-01T07:13:31Z</time>
      </trkpt>
      <trkpt lat="42.98213" lon="-0.10773">
        <ele>756.8</ele>
        <time>2022-05-01T07:13:34Z</time>
      </trkpt>
      <trkpt lat="42.98209" lon="-0.10779">
        <ele>757.2</ele>
        <time>2022-05-01T07:13:37Z</time>
      </trkpt>
      <trkpt lat="42.98206" lon="-0.10786">
        <ele>758</ele>
        <time>2022-05-01T07:13:40Z</time>
      </trkpt>
      <trkpt lat="42.98206" lon="-0.10788">
        <ele>758.2</ele>
        <time>2022-05-01T07:13:41Z</time>
      </trkpt>
      <trkpt lat="42.982" lon="-0.10797">
        <ele>759.4</ele>
        <time>2022-05-01T07:13:45Z</time>
      </trkpt>
      <trkpt lat="42.98199" lon="-0.10799">
        <ele>759.4</ele>
        <time>2022-05-01T07:13:46Z</time>
      </trkpt>
      <trkpt lat="42.98194" lon="-0.10808">
        <ele>760.4</ele>
        <time>2022-05-01T07:13:50Z</time>
      </trkpt>
      <trkpt lat="42.98187" lon="-0.10818">
        <ele>761.2</ele>
        <time>2022-05-01T07:13:55Z</time>
      </trkpt>
      <trkpt lat="42.98186" lon="-0.1082">
        <ele>761.4</ele>
        <time>2022-05-01T07:13:56Z</time>
      </trkpt>
      <trkpt lat="42.98177" lon="-0.10832">
        <ele>762.6</ele>
        <time>2022-05-01T07:14:02Z</time>
      </trkpt>
      <trkpt lat="42.98176" lon="-0.10834">
        <ele>762.6</ele>
        <time>2022-05-01T07:14:03Z</time>
      </trkpt>
      <trkpt lat="42.98175" lon="-0.10847">
        <ele>763.8</ele>
        <time>2022-05-01T07:14:08Z</time>
      </trkpt>
      <trkpt lat="42.98177" lon="-0.10864">
        <ele>765</ele>
        <time>2022-05-01T07:14:14Z</time>
      </trkpt>
      <trkpt lat="42.98176" lon="-0.10872">
        <ele>765.6</ele>
        <time>2022-05-01T07:14:17Z</time>
      </trkpt>
      <trkpt lat="42.98176" lon="-0.10878">
        <ele>766.4</ele>
        <time>2022-05-01T07:14:19Z</time>
      </trkpt>
      <trkpt lat="42.98175" lon="-0.10892">
        <ele>767.4</ele>
        <time>2022-05-01T07:14:24Z</time>
      </trkpt>
      <trkpt lat="42.98173" lon="-0.10909">
        <ele>768.6</ele>
        <time>2022-05-01T07:14:30Z</time>
      </trkpt>
      <trkpt lat="42.98171" lon="-0.10919">
        <ele>769.4</ele>
        <time>2022-05-01T07:14:34Z</time>
      </trkpt>
      <trkpt lat="42.9817" lon="-0.10924">
        <ele>769.6</ele>
        <time>2022-05-01T07:14:36Z</time>
      </trkpt>
      <trkpt lat="42.98167" lon="-0.10937">
        <ele>770.6</ele>
        <time>2022-05-01T07:14:41Z</time>
      </trkpt>
      <trkpt lat="42.98166" lon="-0.10939">
        <ele>771</ele>
        <time>2022-05-01T07:14:42Z</time>
      </trkpt>
      <trkpt lat="42.98163" lon="-0.10947">
        <ele>772</ele>
        <time>2022-05-01T07:14:46Z</time>
      </trkpt>
      <trkpt lat="42.98162" lon="-0.10949">
        <ele>772</ele>
        <time>2022-05-01T07:14:47Z</time>
      </trkpt>
      <trkpt lat="42.98161" lon="-0.10951">
        <ele>772.2</ele>
        <time>2022-05-01T07:14:48Z</time>
      </trkpt>
      <trkpt lat="42.98157" lon="-0.10961">
        <ele>773</ele>
        <time>2022-05-01T07:14:52Z</time>
      </trkpt>
      <trkpt lat="42.98153" lon="-0.10972">
        <ele>774</ele>
        <time>2022-05-01T07:14:57Z</time>
      </trkpt>
      <trkpt lat="42.98147" lon="-0.10985">
        <ele>775.2</ele>
        <time>2022-05-01T07:15:03Z</time>
      </trkpt>
      <trkpt lat="42.98143" lon="-0.10992">
        <ele>775.6</ele>
        <time>2022-05-01T07:15:06Z</time>
      </trkpt>
      <trkpt lat="42.98141" lon="-0.10999">
        <ele>776.4</ele>
        <time>2022-05-01T07:15:09Z</time>
      </trkpt>
      <trkpt lat="42.98139" lon="-0.11006">
        <ele>777</ele>
        <time>2022-05-01T07:15:12Z</time>
      </trkpt>
      <trkpt lat="42.98137" lon="-0.11011">
        <ele>777.4</ele>
        <time>2022-05-01T07:15:14Z</time>
      </trkpt>
      <trkpt lat="42.98136" lon="-0.11015">
        <ele>778</ele>
        <time>2022-05-01T07:15:16Z</time>
      </trkpt>
      <trkpt lat="42.98135" lon="-0.1102">
        <ele>778.2</ele>
        <time>2022-05-01T07:15:18Z</time>
      </trkpt>
      <trkpt lat="42.98133" lon="-0.11025">
        <ele>778.8</ele>
        <time>2022-05-01T07:15:20Z</time>
      </trkpt>
      <trkpt lat="42.98133" lon="-0.11036">
        <ele>779.4</ele>
        <time>2022-05-01T07:15:24Z</time>
      </trkpt>
      <trkpt lat="42.98133" lon="-0.11043">
        <ele>780</ele>
        <time>2022-05-01T07:15:26Z</time>
      </trkpt>
      <trkpt lat="42.98133" lon="-0.1105">
        <ele>780.2</ele>
        <time>2022-05-01T07:15:28Z</time>
      </trkpt>
      <trkpt lat="42.98132" lon="-0.11059">
        <ele>781</ele>
        <time>2022-05-01T07:15:31Z</time>
      </trkpt>
      <trkpt lat="42.98132" lon="-0.11061">
        <ele>781.2</ele>
        <time>2022-05-01T07:15:32Z</time>
      </trkpt>
      <trkpt lat="42.98132" lon="-0.1108">
        <ele>782.4</ele>
        <time>2022-05-01T07:15:38Z</time>
      </trkpt>
      <trkpt lat="42.98132" lon="-0.11083">
        <ele>782.6</ele>
        <time>2022-05-01T07:15:39Z</time>
      </trkpt>
      <trkpt lat="42.98129" lon="-0.11091">
        <ele>783.4</ele>
        <time>2022-05-01T07:15:43Z</time>
      </trkpt>
      <trkpt lat="42.98129" lon="-0.11096">
        <ele>784</ele>
        <time>2022-05-01T07:15:45Z</time>
      </trkpt>
      <trkpt lat="42.98129" lon="-0.11102">
        <ele>784.4</ele>
        <time>2022-05-01T07:15:47Z</time>
      </trkpt>
      <trkpt lat="42.98133" lon="-0.11117">
        <ele>785.6</ele>
        <time>2022-05-01T07:15:52Z</time>
      </trkpt>
      <trkpt lat="42.98135" lon="-0.11138">
        <ele>786.6</ele>
        <time>2022-05-01T07:15:59Z</time>
      </trkpt>
      <trkpt lat="42.98132" lon="-0.11161">
        <ele>787.6</ele>
        <time>2022-05-01T07:16:06Z</time>
      </trkpt>
      <trkpt lat="42.98123" lon="-0.11176">
        <ele>788.2</ele>
        <time>2022-05-01T07:16:13Z</time>
      </trkpt>
      <trkpt lat="42.98114" lon="-0.11176">
        <ele>788.6</ele>
        <time>2022-05-01T07:16:18Z</time>
      </trkpt>
      <trkpt lat="42.9811" lon="-0.11171">
        <ele>789.2</ele>
        <time>2022-05-01T07:16:21Z</time>
      </trkpt>
      <trkpt lat="42.98109" lon="-0.11162">
        <ele>789.6</ele>
        <time>2022-05-01T07:16:24Z</time>
      </trkpt>
      <trkpt lat="42.98114" lon="-0.1114">
        <ele>790.6</ele>
        <time>2022-05-01T07:16:31Z</time>
      </trkpt>
      <trkpt lat="42.98113" lon="-0.11134">
        <ele>790.8</ele>
        <time>2022-05-01T07:16:33Z</time>
      </trkpt>
      <trkpt lat="42.98106" lon="-0.11118">
        <ele>792</ele>
        <time>2022-05-01T07:16:39Z</time>
      </trkpt>
      <trkpt lat="42.98099" lon="-0.11107">
        <ele>793</ele>
        <time>2022-05-01T07:16:44Z</time>
      </trkpt>
      <trkpt lat="42.98099" lon="-0.11104">
        <ele>793.2</ele>
        <time>2022-05-01T07:16:45Z</time>
      </trkpt>
      <trkpt lat="42.98098" lon="-0.11095">
        <ele>793.6</ele>
        <time>2022-05-01T07:16:48Z</time>
      </trkpt>
      <trkpt lat="42.98097" lon="-0.11093">
        <ele>793.8</ele>
        <time>2022-05-01T07:16:49Z</time>
      </trkpt>
      <trkpt lat="42.98096" lon="-0.1109">
        <ele>794.2</ele>
        <time>2022-05-01T07:16:50Z</time>
      </trkpt>
      <trkpt lat="42.9809" lon="-0.11075">
        <ele>795.4</ele>
        <time>2022-05-01T07:16:56Z</time>
      </trkpt>
      <trkpt lat="42.98089" lon="-0.11073">
        <ele>795.6</ele>
        <time>2022-05-01T07:16:57Z</time>
      </trkpt>
      <trkpt lat="42.98083" lon="-0.11063">
        <ele>796.8</ele>
        <time>2022-05-01T07:17:02Z</time>
      </trkpt>
      <trkpt lat="42.98082" lon="-0.11061">
        <ele>797</ele>
        <time>2022-05-01T07:17:03Z</time>
      </trkpt>
      <trkpt lat="42.98078" lon="-0.11051">
        <ele>798</ele>
        <time>2022-05-01T07:17:07Z</time>
      </trkpt>
      <trkpt lat="42.98079" lon="-0.11049">
        <ele>798.2</ele>
        <time>2022-05-01T07:17:08Z</time>
      </trkpt>
      <trkpt lat="42.98079" lon="-0.11047">
        <ele>798.4</ele>
        <time>2022-05-01T07:17:09Z</time>
      </trkpt>
      <trkpt lat="42.98079" lon="-0.11045">
        <ele>798.4</ele>
        <time>2022-05-01T07:17:10Z</time>
      </trkpt>
      <trkpt lat="42.98077" lon="-0.11038">
        <ele>798.8</ele>
        <time>2022-05-01T07:17:13Z</time>
      </trkpt>
      <trkpt lat="42.98075" lon="-0.11032">
        <ele>799.2</ele>
        <time>2022-05-01T07:17:15Z</time>
      </trkpt>
      <trkpt lat="42.98073" lon="-0.11014">
        <ele>800.2</ele>
        <time>2022-05-01T07:17:20Z</time>
      </trkpt>
      <trkpt lat="42.98073" lon="-0.11011">
        <ele>800.6</ele>
        <time>2022-05-01T07:17:21Z</time>
      </trkpt>
      <trkpt lat="42.98071" lon="-0.10997">
        <ele>801.2</ele>
        <time>2022-05-01T07:17:25Z</time>
      </trkpt>
      <trkpt lat="42.98068" lon="-0.10988">
        <ele>801.6</ele>
        <time>2022-05-01T07:17:28Z</time>
      </trkpt>
      <trkpt lat="42.98066" lon="-0.10979">
        <ele>802.4</ele>
        <time>2022-05-01T07:17:31Z</time>
      </trkpt>
      <trkpt lat="42.98065" lon="-0.10977">
        <ele>802.6</ele>
        <time>2022-05-01T07:17:32Z</time>
      </trkpt>
      <trkpt lat="42.98062" lon="-0.10973">
        <ele>803</ele>
        <time>2022-05-01T07:17:34Z</time>
      </trkpt>
      <trkpt lat="42.98061" lon="-0.1097">
        <ele>803</ele>
        <time>2022-05-01T07:17:35Z</time>
      </trkpt>
      <trkpt lat="42.9806" lon="-0.10964">
        <ele>803.6</ele>
        <time>2022-05-01T07:17:38Z</time>
      </trkpt>
      <trkpt lat="42.98059" lon="-0.10961">
        <ele>803.8</ele>
        <time>2022-05-01T07:17:39Z</time>
      </trkpt>
      <trkpt lat="42.98058" lon="-0.10955">
        <ele>804.6</ele>
        <time>2022-05-01T07:17:42Z</time>
      </trkpt>
      <trkpt lat="42.98058" lon="-0.10945">
        <ele>805</ele>
        <time>2022-05-01T07:17:45Z</time>
      </trkpt>
      <trkpt lat="42.98058" lon="-0.10941">
        <ele>805.6</ele>
        <time>2022-05-01T07:17:47Z</time>
      </trkpt>
      <trkpt lat="42.9806" lon="-0.10926">
        <ele>806.6</ele>
        <time>2022-05-01T07:17:52Z</time>
      </trkpt>
      <trkpt lat="42.98059" lon="-0.10923">
        <ele>806.6</ele>
        <time>2022-05-01T07:17:53Z</time>
      </trkpt>
      <trkpt lat="42.98059" lon="-0.10912">
        <ele>807.6</ele>
        <time>2022-05-01T07:17:57Z</time>
      </trkpt>
      <trkpt lat="42.98059" lon="-0.10908">
        <ele>807.8</ele>
        <time>2022-05-01T07:17:58Z</time>
      </trkpt>
      <trkpt lat="42.98057" lon="-0.10898">
        <ele>808.8</ele>
        <time>2022-05-01T07:18:02Z</time>
      </trkpt>
      <trkpt lat="42.98057" lon="-0.10886">
        <ele>809.8</ele>
        <time>2022-05-01T07:18:06Z</time>
      </trkpt>
      <trkpt lat="42.98058" lon="-0.10885">
        <ele>810.2</ele>
        <time>2022-05-01T07:18:07Z</time>
      </trkpt>
      <trkpt lat="42.9806" lon="-0.10879">
        <ele>810.6</ele>
        <time>2022-05-01T07:18:09Z</time>
      </trkpt>
      <trkpt lat="42.98064" lon="-0.10873">
        <ele>811.4</ele>
        <time>2022-05-01T07:18:12Z</time>
      </trkpt>
      <trkpt lat="42.98066" lon="-0.10871">
        <ele>811.4</ele>
        <time>2022-05-01T07:18:13Z</time>
      </trkpt>
      <trkpt lat="42.98067" lon="-0.10868">
        <ele>811.8</ele>
        <time>2022-05-01T07:18:14Z</time>
      </trkpt>
      <trkpt lat="42.98066" lon="-0.10861">
        <ele>812.4</ele>
        <time>2022-05-01T07:18:17Z</time>
      </trkpt>
      <trkpt lat="42.98066" lon="-0.10857">
        <ele>812.6</ele>
        <time>2022-05-01T07:18:18Z</time>
      </trkpt>
      <trkpt lat="42.98065" lon="-0.10854">
        <ele>812.8</ele>
        <time>2022-05-01T07:18:19Z</time>
      </trkpt>
      <trkpt lat="42.98061" lon="-0.10846">
        <ele>813.2</ele>
        <time>2022-05-01T07:18:22Z</time>
      </trkpt>
      <trkpt lat="42.9806" lon="-0.10843">
        <ele>813.4</ele>
        <time>2022-05-01T07:18:23Z</time>
      </trkpt>
      <trkpt lat="42.9806" lon="-0.10841">
        <ele>813.6</ele>
        <time>2022-05-01T07:18:24Z</time>
      </trkpt>
      <trkpt lat="42.98058" lon="-0.10825">
        <ele>814.8</ele>
        <time>2022-05-01T07:18:29Z</time>
      </trkpt>
      <trkpt lat="42.98056" lon="-0.1082">
        <ele>815.2</ele>
        <time>2022-05-01T07:18:31Z</time>
      </trkpt>
      <trkpt lat="42.98052" lon="-0.10817">
        <ele>815.8</ele>
        <time>2022-05-01T07:18:33Z</time>
      </trkpt>
      <trkpt lat="42.98047" lon="-0.10808">
        <ele>816.4</ele>
        <time>2022-05-01T07:18:37Z</time>
      </trkpt>
      <trkpt lat="42.98044" lon="-0.10805">
        <ele>817</ele>
        <time>2022-05-01T07:18:39Z</time>
      </trkpt>
      <trkpt lat="42.98032" lon="-0.10797">
        <ele>818.2</ele>
        <time>2022-05-01T07:18:45Z</time>
      </trkpt>
      <trkpt lat="42.98026" lon="-0.10786">
        <ele>818.8</ele>
        <time>2022-05-01T07:18:50Z</time>
      </trkpt>
      <trkpt lat="42.98025" lon="-0.10784">
        <ele>819.2</ele>
        <time>2022-05-01T07:18:51Z</time>
      </trkpt>
      <trkpt lat="42.98019" lon="-0.10775">
        <ele>820.2</ele>
        <time>2022-05-01T07:18:55Z</time>
      </trkpt>
      <trkpt lat="42.98018" lon="-0.10773">
        <ele>820.4</ele>
        <time>2022-05-01T07:18:56Z</time>
      </trkpt>
      <trkpt lat="42.98012" lon="-0.10763">
        <ele>821.2</ele>
        <time>2022-05-01T07:19:01Z</time>
      </trkpt>
      <trkpt lat="42.9801" lon="-0.10762">
        <ele>821.4</ele>
        <time>2022-05-01T07:19:02Z</time>
      </trkpt>
      <trkpt lat="42.98006" lon="-0.10755">
        <ele>822.6</ele>
        <time>2022-05-01T07:19:06Z</time>
      </trkpt>
      <trkpt lat="42.98003" lon="-0.10751">
        <ele>823</ele>
        <time>2022-05-01T07:19:08Z</time>
      </trkpt>
      <trkpt lat="42.98002" lon="-0.10749">
        <ele>823.2</ele>
        <time>2022-05-01T07:19:09Z</time>
      </trkpt>
      <trkpt lat="42.98001" lon="-0.10745">
        <ele>823.6</ele>
        <time>2022-05-01T07:19:11Z</time>
      </trkpt>
      <trkpt lat="42.97999" lon="-0.10744">
        <ele>824.2</ele>
        <time>2022-05-01T07:19:12Z</time>
      </trkpt>
      <trkpt lat="42.97998" lon="-0.10743">
        <ele>824.4</ele>
        <time>2022-05-01T07:19:13Z</time>
      </trkpt>
      <trkpt lat="42.97994" lon="-0.10738">
        <ele>825</ele>
        <time>2022-05-01T07:19:16Z</time>
      </trkpt>
      <trkpt lat="42.97989" lon="-0.1073">
        <ele>826.2</ele>
        <time>2022-05-01T07:19:20Z</time>
      </trkpt>
      <trkpt lat="42.97983" lon="-0.10721">
        <ele>827.4</ele>
        <time>2022-05-01T07:19:25Z</time>
      </trkpt>
      <trkpt lat="42.97981" lon="-0.10719">
        <ele>827.6</ele>
        <time>2022-05-01T07:19:26Z</time>
      </trkpt>
      <trkpt lat="42.97977" lon="-0.10709">
        <ele>828.8</ele>
        <time>2022-05-01T07:19:30Z</time>
      </trkpt>
      <trkpt lat="42.97976" lon="-0.107">
        <ele>830</ele>
        <time>2022-05-01T07:19:33Z</time>
      </trkpt>
      <trkpt lat="42.97971" lon="-0.10686">
        <ele>831.2</ele>
        <time>2022-05-01T07:19:39Z</time>
      </trkpt>
      <trkpt lat="42.97969" lon="-0.10681">
        <ele>831.8</ele>
        <time>2022-05-01T07:19:41Z</time>
      </trkpt>
      <trkpt lat="42.97969" lon="-0.10675">
        <ele>832.2</ele>
        <time>2022-05-01T07:19:43Z</time>
      </trkpt>
      <trkpt lat="42.97968" lon="-0.1067">
        <ele>832.8</ele>
        <time>2022-05-01T07:19:45Z</time>
      </trkpt>
      <trkpt lat="42.97967" lon="-0.10668">
        <ele>833.2</ele>
        <time>2022-05-01T07:19:46Z</time>
      </trkpt>
      <trkpt lat="42.97967" lon="-0.10661">
        <ele>833.4</ele>
        <time>2022-05-01T07:19:48Z</time>
      </trkpt>
      <trkpt lat="42.97966" lon="-0.10656">
        <ele>834.2</ele>
        <time>2022-05-01T07:19:50Z</time>
      </trkpt>
      <trkpt lat="42.97968" lon="-0.10652">
        <ele>834.4</ele>
        <time>2022-05-01T07:19:51Z</time>
      </trkpt>
      <trkpt lat="42.97967" lon="-0.1065">
        <ele>834.6</ele>
        <time>2022-05-01T07:19:52Z</time>
      </trkpt>
      <trkpt lat="42.97964" lon="-0.10646">
        <ele>835.6</ele>
        <time>2022-05-01T07:19:55Z</time>
      </trkpt>
      <trkpt lat="42.97962" lon="-0.10644">
        <ele>835.8</ele>
        <time>2022-05-01T07:19:56Z</time>
      </trkpt>
      <trkpt lat="42.97961" lon="-0.10642">
        <ele>835.8</ele>
        <time>2022-05-01T07:19:57Z</time>
      </trkpt>
      <trkpt lat="42.9796" lon="-0.10637">
        <ele>836.6</ele>
        <time>2022-05-01T07:20:00Z</time>
      </trkpt>
      <trkpt lat="42.97959" lon="-0.10634">
        <ele>837</ele>
        <time>2022-05-01T07:20:01Z</time>
      </trkpt>
      <trkpt lat="42.97959" lon="-0.10625">
        <ele>838</ele>
        <time>2022-05-01T07:20:05Z</time>
      </trkpt>
      <trkpt lat="42.97959" lon="-0.10623">
        <ele>838.2</ele>
        <time>2022-05-01T07:20:06Z</time>
      </trkpt>
      <trkpt lat="42.97956" lon="-0.10614">
        <ele>839</ele>
        <time>2022-05-01T07:20:10Z</time>
      </trkpt>
      <trkpt lat="42.97954" lon="-0.10609">
        <ele>839.6</ele>
        <time>2022-05-01T07:20:13Z</time>
      </trkpt>
      <trkpt lat="42.97953" lon="-0.10604">
        <ele>840</ele>
        <time>2022-05-01T07:20:15Z</time>
      </trkpt>
      <trkpt lat="42.97954" lon="-0.10597">
        <ele>840.2</ele>
        <time>2022-05-01T07:20:17Z</time>
      </trkpt>
      <trkpt lat="42.97953" lon="-0.10592">
        <ele>841</ele>
        <time>2022-05-01T07:20:19Z</time>
      </trkpt>
      <trkpt lat="42.97953" lon="-0.10589">
        <ele>841.4</ele>
        <time>2022-05-01T07:20:20Z</time>
      </trkpt>
      <trkpt lat="42.97952" lon="-0.10587">
        <ele>841.4</ele>
        <time>2022-05-01T07:20:21Z</time>
      </trkpt>
      <trkpt lat="42.97946" lon="-0.10575">
        <ele>842.8</ele>
        <time>2022-05-01T07:20:26Z</time>
      </trkpt>
      <trkpt lat="42.97946" lon="-0.10568">
        <ele>843.4</ele>
        <time>2022-05-01T07:20:28Z</time>
      </trkpt>
      <trkpt lat="42.97946" lon="-0.10566">
        <ele>843.4</ele>
        <time>2022-05-01T07:20:29Z</time>
      </trkpt>
      <trkpt lat="42.97945" lon="-0.10561">
        <ele>843.8</ele>
        <time>2022-05-01T07:20:31Z</time>
      </trkpt>
      <trkpt lat="42.97945" lon="-0.10558">
        <ele>844.2</ele>
        <time>2022-05-01T07:20:32Z</time>
      </trkpt>
      <trkpt lat="42.97944" lon="-0.1055">
        <ele>844.8</ele>
        <time>2022-05-01T07:20:35Z</time>
      </trkpt>
      <trkpt lat="42.97941" lon="-0.10543">
        <ele>845.8</ele>
        <time>2022-05-01T07:20:38Z</time>
      </trkpt>
      <trkpt lat="42.97932" lon="-0.10533">
        <ele>847</ele>
        <time>2022-05-01T07:20:43Z</time>
      </trkpt>
      <trkpt lat="42.9793" lon="-0.10529">
        <ele>847.4</ele>
        <time>2022-05-01T07:20:45Z</time>
      </trkpt>
      <trkpt lat="42.97923" lon="-0.10522">
        <ele>848</ele>
        <time>2022-05-01T07:20:49Z</time>
      </trkpt>
      <trkpt lat="42.97916" lon="-0.10519">
        <ele>848.6</ele>
        <time>2022-05-01T07:20:52Z</time>
      </trkpt>
      <trkpt lat="42.97911" lon="-0.10516">
        <ele>849.2</ele>
        <time>2022-05-01T07:20:54Z</time>
      </trkpt>
      <trkpt lat="42.97904" lon="-0.10513">
        <ele>850</ele>
        <time>2022-05-01T07:20:58Z</time>
      </trkpt>
      <trkpt lat="42.97903" lon="-0.10512">
        <ele>850.2</ele>
        <time>2022-05-01T07:20:59Z</time>
      </trkpt>
      <trkpt lat="42.97897" lon="-0.10504">
        <ele>851</ele>
        <time>2022-05-01T07:21:04Z</time>
      </trkpt>
      <trkpt lat="42.97895" lon="-0.10503">
        <ele>851.2</ele>
        <time>2022-05-01T07:21:05Z</time>
      </trkpt>
      <trkpt lat="42.97889" lon="-0.10495">
        <ele>852.6</ele>
        <time>2022-05-01T07:21:10Z</time>
      </trkpt>
      <trkpt lat="42.9788" lon="-0.10486">
        <ele>853.6</ele>
        <time>2022-05-01T07:21:15Z</time>
      </trkpt>
      <trkpt lat="42.97879" lon="-0.10483">
        <ele>853.8</ele>
        <time>2022-05-01T07:21:16Z</time>
      </trkpt>
      <trkpt lat="42.97874" lon="-0.10474">
        <ele>854.8</ele>
        <time>2022-05-01T07:21:20Z</time>
      </trkpt>
      <trkpt lat="42.9787" lon="-0.10468">
        <ele>855.6</ele>
        <time>2022-05-01T07:21:23Z</time>
      </trkpt>
      <trkpt lat="42.97869" lon="-0.10466">
        <ele>855.8</ele>
        <time>2022-05-01T07:21:24Z</time>
      </trkpt>
      <trkpt lat="42.9786" lon="-0.10457">
        <ele>856.8</ele>
        <time>2022-05-01T07:21:29Z</time>
      </trkpt>
      <trkpt lat="42.97858" lon="-0.10455">
        <ele>857</ele>
        <time>2022-05-01T07:21:30Z</time>
      </trkpt>
      <trkpt lat="42.97852" lon="-0.10444">
        <ele>858</ele>
        <time>2022-05-01T07:21:35Z</time>
      </trkpt>
      <trkpt lat="42.9785" lon="-0.1044">
        <ele>858.2</ele>
        <time>2022-05-01T07:21:37Z</time>
      </trkpt>
      <trkpt lat="42.97847" lon="-0.10433">
        <ele>859</ele>
        <time>2022-05-01T07:21:40Z</time>
      </trkpt>
      <trkpt lat="42.97843" lon="-0.10427">
        <ele>859.6</ele>
        <time>2022-05-01T07:21:43Z</time>
      </trkpt>
      <trkpt lat="42.9784" lon="-0.10422">
        <ele>860</ele>
        <time>2022-05-01T07:21:45Z</time>
      </trkpt>
      <trkpt lat="42.97833" lon="-0.10416">
        <ele>861</ele>
        <time>2022-05-01T07:21:49Z</time>
      </trkpt>
      <trkpt lat="42.97832" lon="-0.10415">
        <ele>861.2</ele>
        <time>2022-05-01T07:21:50Z</time>
      </trkpt>
      <trkpt lat="42.97823" lon="-0.10408">
        <ele>862.2</ele>
        <time>2022-05-01T07:21:55Z</time>
      </trkpt>
      <trkpt lat="42.97817" lon="-0.10404">
        <ele>863.6</ele>
        <time>2022-05-01T07:21:59Z</time>
      </trkpt>
      <trkpt lat="42.97813" lon="-0.10403">
        <ele>864.2</ele>
        <time>2022-05-01T07:22:02Z</time>
      </trkpt>
      <trkpt lat="42.97808" lon="-0.104">
        <ele>864.8</ele>
        <time>2022-05-01T07:22:05Z</time>
      </trkpt>
      <trkpt lat="42.97799" lon="-0.10398">
        <ele>866</ele>
        <time>2022-05-01T07:22:09Z</time>
      </trkpt>
      <trkpt lat="42.97793" lon="-0.10397">
        <ele>867</ele>
        <time>2022-05-01T07:22:13Z</time>
      </trkpt>
      <trkpt lat="42.97785" lon="-0.10396">
        <ele>867.6</ele>
        <time>2022-05-01T07:22:17Z</time>
      </trkpt>
      <trkpt lat="42.9778" lon="-0.10394">
        <ele>868.2</ele>
        <time>2022-05-01T07:22:20Z</time>
      </trkpt>
      <trkpt lat="42.97768" lon="-0.1039">
        <ele>869.4</ele>
        <time>2022-05-01T07:22:26Z</time>
      </trkpt>
      <trkpt lat="42.9776" lon="-0.10384">
        <ele>870.4</ele>
        <time>2022-05-01T07:22:31Z</time>
      </trkpt>
      <trkpt lat="42.97752" lon="-0.10379">
        <ele>870.8</ele>
        <time>2022-05-01T07:22:35Z</time>
      </trkpt>
      <trkpt lat="42.97751" lon="-0.10378">
        <ele>871</ele>
        <time>2022-05-01T07:22:36Z</time>
      </trkpt>
      <trkpt lat="42.97748" lon="-0.10374">
        <ele>871.4</ele>
        <time>2022-05-01T07:22:38Z</time>
      </trkpt>
      <trkpt lat="42.97746" lon="-0.10372">
        <ele>871.6</ele>
        <time>2022-05-01T07:22:39Z</time>
      </trkpt>
      <trkpt lat="42.97736" lon="-0.10363">
        <ele>872.6</ele>
        <time>2022-05-01T07:22:44Z</time>
      </trkpt>
      <trkpt lat="42.9773" lon="-0.10359">
        <ele>873.2</ele>
        <time>2022-05-01T07:22:47Z</time>
      </trkpt>
      <trkpt lat="42.97725" lon="-0.10353">
        <ele>873.6</ele>
        <time>2022-05-01T07:22:50Z</time>
      </trkpt>
      <trkpt lat="42.9772" lon="-0.10349">
        <ele>874</ele>
        <time>2022-05-01T07:22:53Z</time>
      </trkpt>
      <trkpt lat="42.97712" lon="-0.10344">
        <ele>874.6</ele>
        <time>2022-05-01T07:22:57Z</time>
      </trkpt>
      <trkpt lat="42.97708" lon="-0.10341">
        <ele>874.8</ele>
        <time>2022-05-01T07:22:59Z</time>
      </trkpt>
      <trkpt lat="42.977" lon="-0.10334">
        <ele>875.6</ele>
        <time>2022-05-01T07:23:04Z</time>
      </trkpt>
      <trkpt lat="42.97698" lon="-0.10332">
        <ele>875.6</ele>
        <time>2022-05-01T07:23:05Z</time>
      </trkpt>
      <trkpt lat="42.97697" lon="-0.1033">
        <ele>875.8</ele>
        <time>2022-05-01T07:23:06Z</time>
      </trkpt>
      <trkpt lat="42.97687" lon="-0.10317">
        <ele>876.6</ele>
        <time>2022-05-01T07:23:12Z</time>
      </trkpt>
      <trkpt lat="42.97682" lon="-0.10315">
        <ele>876.8</ele>
        <time>2022-05-01T07:23:13Z</time>
      </trkpt>
      <trkpt lat="42.97676" lon="-0.10314">
        <ele>877.4</ele>
        <time>2022-05-01T07:23:17Z</time>
      </trkpt>
      <trkpt lat="42.97671" lon="-0.10318">
        <ele>877.8</ele>
        <time>2022-05-01T07:23:20Z</time>
      </trkpt>
      <trkpt lat="42.9767" lon="-0.10321">
        <ele>878.2</ele>
        <time>2022-05-01T07:23:21Z</time>
      </trkpt>
      <trkpt lat="42.97671" lon="-0.10327">
        <ele>878.2</ele>
        <time>2022-05-01T07:23:22Z</time>
      </trkpt>
      <trkpt lat="42.97679" lon="-0.10336">
        <ele>879</ele>
        <time>2022-05-01T07:23:28Z</time>
      </trkpt>
      <trkpt lat="42.97687" lon="-0.10342">
        <ele>880</ele>
        <time>2022-05-01T07:23:32Z</time>
      </trkpt>
      <trkpt lat="42.97694" lon="-0.1035">
        <ele>880.6</ele>
        <time>2022-05-01T07:23:37Z</time>
      </trkpt>
      <trkpt lat="42.97696" lon="-0.10354">
        <ele>881</ele>
        <time>2022-05-01T07:23:39Z</time>
      </trkpt>
      <trkpt lat="42.97705" lon="-0.10369">
        <ele>882</ele>
        <time>2022-05-01T07:23:46Z</time>
      </trkpt>
      <trkpt lat="42.97711" lon="-0.10382">
        <ele>883</ele>
        <time>2022-05-01T07:23:52Z</time>
      </trkpt>
      <trkpt lat="42.97711" lon="-0.10382">
        <ele>883.2</ele>
        <time>2022-05-01T07:23:53Z</time>
      </trkpt>
      <trkpt lat="42.97714" lon="-0.10394">
        <ele>884.2</ele>
        <time>2022-05-01T07:23:59Z</time>
      </trkpt>
      <trkpt lat="42.97715" lon="-0.10402">
        <ele>884.8</ele>
        <time>2022-05-01T07:24:01Z</time>
      </trkpt>
      <trkpt lat="42.97716" lon="-0.10404">
        <ele>884.8</ele>
        <time>2022-05-01T07:24:02Z</time>
      </trkpt>
      <trkpt lat="42.97716" lon="-0.10404">
        <ele>885.2</ele>
        <time>2022-05-01T07:24:03Z</time>
      </trkpt>
      <trkpt lat="42.97719" lon="-0.10418">
        <ele>886</ele>
        <time>2022-05-01T07:24:07Z</time>
      </trkpt>
      <trkpt lat="42.97719" lon="-0.10423">
        <ele>886.2</ele>
        <time>2022-05-01T07:24:09Z</time>
      </trkpt>
      <trkpt lat="42.97719" lon="-0.10433">
        <ele>887</ele>
        <time>2022-05-01T07:24:13Z</time>
      </trkpt>
      <trkpt lat="42.97718" lon="-0.10435">
        <ele>887.4</ele>
        <time>2022-05-01T07:24:15Z</time>
      </trkpt>
      <trkpt lat="42.97717" lon="-0.10437">
        <ele>887.4</ele>
        <time>2022-05-01T07:24:16Z</time>
      </trkpt>
      <trkpt lat="42.97715" lon="-0.10444">
        <ele>888</ele>
        <time>2022-05-01T07:24:19Z</time>
      </trkpt>
      <trkpt lat="42.97712" lon="-0.1045">
        <ele>888.6</ele>
        <time>2022-05-01T07:24:22Z</time>
      </trkpt>
      <trkpt lat="42.97711" lon="-0.10459">
        <ele>889.8</ele>
        <time>2022-05-01T07:24:28Z</time>
      </trkpt>
      <trkpt lat="42.9771" lon="-0.10462">
        <ele>890</ele>
        <time>2022-05-01T07:24:29Z</time>
      </trkpt>
      <trkpt lat="42.9771" lon="-0.1047">
        <ele>890.6</ele>
        <time>2022-05-01T07:24:32Z</time>
      </trkpt>
      <trkpt lat="42.97711" lon="-0.10473">
        <ele>890.6</ele>
        <time>2022-05-01T07:24:33Z</time>
      </trkpt>
      <trkpt lat="42.97714" lon="-0.10494">
        <ele>891.8</ele>
        <time>2022-05-01T07:24:39Z</time>
      </trkpt>
      <trkpt lat="42.97715" lon="-0.10501">
        <ele>892.4</ele>
        <time>2022-05-01T07:24:41Z</time>
      </trkpt>
      <trkpt lat="42.97712" lon="-0.10508">
        <ele>892.8</ele>
        <time>2022-05-01T07:24:44Z</time>
      </trkpt>
      <trkpt lat="42.97712" lon="-0.10508">
        <ele>893.2</ele>
        <time>2022-05-01T07:24:45Z</time>
      </trkpt>
      <trkpt lat="42.97711" lon="-0.10525">
        <ele>894</ele>
        <time>2022-05-01T07:24:51Z</time>
      </trkpt>
      <trkpt lat="42.97711" lon="-0.10545">
        <ele>895.2</ele>
        <time>2022-05-01T07:24:57Z</time>
      </trkpt>
      <trkpt lat="42.97711" lon="-0.10549">
        <ele>895.6</ele>
        <time>2022-05-01T07:24:59Z</time>
      </trkpt>
      <trkpt lat="42.97712" lon="-0.10551">
        <ele>895.8</ele>
        <time>2022-05-01T07:25:00Z</time>
      </trkpt>
      <trkpt lat="42.97714" lon="-0.10559">
        <ele>896.2</ele>
        <time>2022-05-01T07:25:03Z</time>
      </trkpt>
      <trkpt lat="42.97714" lon="-0.10561">
        <ele>896.2</ele>
        <time>2022-05-01T07:25:04Z</time>
      </trkpt>
      <trkpt lat="42.97715" lon="-0.10578">
        <ele>897</ele>
        <time>2022-05-01T07:25:10Z</time>
      </trkpt>
      <trkpt lat="42.97715" lon="-0.10581">
        <ele>897.4</ele>
        <time>2022-05-01T07:25:12Z</time>
      </trkpt>
      <trkpt lat="42.97718" lon="-0.10586">
        <ele>897.4</ele>
        <time>2022-05-01T07:25:13Z</time>
      </trkpt>
      <trkpt lat="42.97719" lon="-0.10591">
        <ele>897.8</ele>
        <time>2022-05-01T07:25:15Z</time>
      </trkpt>
      <trkpt lat="42.97721" lon="-0.10597">
        <ele>898.4</ele>
        <time>2022-05-01T07:25:18Z</time>
      </trkpt>
      <trkpt lat="42.97727" lon="-0.10611">
        <ele>899.4</ele>
        <time>2022-05-01T07:25:23Z</time>
      </trkpt>
      <trkpt lat="42.97728" lon="-0.10614">
        <ele>899.6</ele>
        <time>2022-05-01T07:25:24Z</time>
      </trkpt>
      <trkpt lat="42.97732" lon="-0.10622">
        <ele>900.6</ele>
        <time>2022-05-01T07:25:29Z</time>
      </trkpt>
      <trkpt lat="42.97736" lon="-0.10627">
        <ele>900.8</ele>
        <time>2022-05-01T07:25:30Z</time>
      </trkpt>
      <trkpt lat="42.9774" lon="-0.1063">
        <ele>901</ele>
        <time>2022-05-01T07:25:32Z</time>
      </trkpt>
      <trkpt lat="42.97742" lon="-0.10639">
        <ele>901.4</ele>
        <time>2022-05-01T07:25:36Z</time>
      </trkpt>
      <trkpt lat="42.97749" lon="-0.10649">
        <ele>902.6</ele>
        <time>2022-05-01T07:25:40Z</time>
      </trkpt>
      <trkpt lat="42.97753" lon="-0.10658">
        <ele>903</ele>
        <time>2022-05-01T07:25:43Z</time>
      </trkpt>
      <trkpt lat="42.97756" lon="-0.10661">
        <ele>903.6</ele>
        <time>2022-05-01T07:25:45Z</time>
      </trkpt>
      <trkpt lat="42.97758" lon="-0.10662">
        <ele>903.8</ele>
        <time>2022-05-01T07:25:46Z</time>
      </trkpt>
      <trkpt lat="42.97759" lon="-0.10664">
        <ele>904</ele>
        <time>2022-05-01T07:25:47Z</time>
      </trkpt>
      <trkpt lat="42.97762" lon="-0.1068">
        <ele>904.8</ele>
        <time>2022-05-01T07:25:53Z</time>
      </trkpt>
      <trkpt lat="42.97764" lon="-0.10696">
        <ele>906</ele>
        <time>2022-05-01T07:26:00Z</time>
      </trkpt>
      <trkpt lat="42.97765" lon="-0.10701">
        <ele>906</ele>
        <time>2022-05-01T07:26:01Z</time>
      </trkpt>
      <trkpt lat="42.97767" lon="-0.10722">
        <ele>907</ele>
        <time>2022-05-01T07:26:09Z</time>
      </trkpt>
      <trkpt lat="42.97768" lon="-0.10725">
        <ele>907</ele>
        <time>2022-05-01T07:26:10Z</time>
      </trkpt>
      <trkpt lat="42.97768" lon="-0.10747">
        <ele>907.8</ele>
        <time>2022-05-01T07:26:18Z</time>
      </trkpt>
      <trkpt lat="42.97768" lon="-0.1075">
        <ele>908</ele>
        <time>2022-05-01T07:26:19Z</time>
      </trkpt>
      <trkpt lat="42.97765" lon="-0.10766">
        <ele>908.8</ele>
        <time>2022-05-01T07:26:25Z</time>
      </trkpt>
      <trkpt lat="42.97764" lon="-0.10769">
        <ele>909</ele>
        <time>2022-05-01T07:26:26Z</time>
      </trkpt>
      <trkpt lat="42.97763" lon="-0.10779">
        <ele>909.6</ele>
        <time>2022-05-01T07:26:30Z</time>
      </trkpt>
      <trkpt lat="42.97762" lon="-0.10784">
        <ele>910</ele>
        <time>2022-05-01T07:26:32Z</time>
      </trkpt>
      <trkpt lat="42.97761" lon="-0.10787">
        <ele>910.2</ele>
        <time>2022-05-01T07:26:33Z</time>
      </trkpt>
      <trkpt lat="42.97756" lon="-0.10801">
        <ele>911</ele>
        <time>2022-05-01T07:26:39Z</time>
      </trkpt>
      <trkpt lat="42.97755" lon="-0.10803">
        <ele>911.4</ele>
        <time>2022-05-01T07:26:41Z</time>
      </trkpt>
      <trkpt lat="42.97748" lon="-0.10819">
        <ele>912.2</ele>
        <time>2022-05-01T07:26:47Z</time>
      </trkpt>
      <trkpt lat="42.97747" lon="-0.10821">
        <ele>912.6</ele>
        <time>2022-05-01T07:26:49Z</time>
      </trkpt>
      <trkpt lat="42.97745" lon="-0.10825">
        <ele>912.8</ele>
        <time>2022-05-01T07:26:50Z</time>
      </trkpt>
      <trkpt lat="42.97741" lon="-0.10833">
        <ele>913.2</ele>
        <time>2022-05-01T07:26:53Z</time>
      </trkpt>
      <trkpt lat="42.97739" lon="-0.10836">
        <ele>913.2</ele>
        <time>2022-05-01T07:26:54Z</time>
      </trkpt>
      <trkpt lat="42.97737" lon="-0.1084">
        <ele>913.6</ele>
        <time>2022-05-01T07:26:56Z</time>
      </trkpt>
      <trkpt lat="42.97734" lon="-0.10847">
        <ele>914.2</ele>
        <time>2022-05-01T07:26:59Z</time>
      </trkpt>
      <trkpt lat="42.97735" lon="-0.10851">
        <ele>914.2</ele>
        <time>2022-05-01T07:27:00Z</time>
      </trkpt>
      <trkpt lat="42.97735" lon="-0.10853">
        <ele>914.4</ele>
        <time>2022-05-01T07:27:01Z</time>
      </trkpt>
      <trkpt lat="42.97733" lon="-0.10865">
        <ele>915.2</ele>
        <time>2022-05-01T07:27:06Z</time>
      </trkpt>
      <trkpt lat="42.97733" lon="-0.10871">
        <ele>915.6</ele>
        <time>2022-05-01T07:27:08Z</time>
      </trkpt>
      <trkpt lat="42.97732" lon="-0.10876">
        <ele>915.8</ele>
        <time>2022-05-01T07:27:10Z</time>
      </trkpt>
      <trkpt lat="42.97731" lon="-0.10878">
        <ele>915.8</ele>
        <time>2022-05-01T07:27:11Z</time>
      </trkpt>
      <trkpt lat="42.97731" lon="-0.1088">
        <ele>916.2</ele>
        <time>2022-05-01T07:27:12Z</time>
      </trkpt>
      <trkpt lat="42.97731" lon="-0.10891">
        <ele>916.2</ele>
        <time>2022-05-01T07:27:15Z</time>
      </trkpt>
      <trkpt lat="42.9773" lon="-0.10913">
        <ele>916.2</ele>
        <time>2022-05-01T07:27:21Z</time>
      </trkpt>
      <trkpt lat="42.97726" lon="-0.10924">
        <ele>916.6</ele>
        <time>2022-05-01T07:27:26Z</time>
      </trkpt>
      <trkpt lat="42.97718" lon="-0.10934">
        <ele>917.6</ele>
        <time>2022-05-01T07:27:32Z</time>
      </trkpt>
      <trkpt lat="42.97716" lon="-0.10936">
        <ele>917.8</ele>
        <time>2022-05-01T07:27:33Z</time>
      </trkpt>
      <trkpt lat="42.97715" lon="-0.10937">
        <ele>918</ele>
        <time>2022-05-01T07:27:34Z</time>
      </trkpt>
      <trkpt lat="42.9771" lon="-0.1094">
        <ele>919</ele>
        <time>2022-05-01T07:27:37Z</time>
      </trkpt>
      <trkpt lat="42.97709" lon="-0.10941">
        <ele>919.2</ele>
        <time>2022-05-01T07:27:38Z</time>
      </trkpt>
      <trkpt lat="42.97702" lon="-0.10946">
        <ele>920.2</ele>
        <time>2022-05-01T07:27:43Z</time>
      </trkpt>
      <trkpt lat="42.97701" lon="-0.10947">
        <ele>920.4</ele>
        <time>2022-05-01T07:27:44Z</time>
      </trkpt>
      <trkpt lat="42.97696" lon="-0.10952">
        <ele>921</ele>
        <time>2022-05-01T07:27:47Z</time>
      </trkpt>
      <trkpt lat="42.97696" lon="-0.10954">
        <ele>921.4</ele>
        <time>2022-05-01T07:27:48Z</time>
      </trkpt>
      <trkpt lat="42.97695" lon="-0.10956">
        <ele>921.6</ele>
        <time>2022-05-01T07:27:49Z</time>
      </trkpt>
      <trkpt lat="42.97692" lon="-0.10965">
        <ele>922.4</ele>
        <time>2022-05-01T07:27:53Z</time>
      </trkpt>
      <trkpt lat="42.97693" lon="-0.10969">
        <ele>922.8</ele>
        <time>2022-05-01T07:27:55Z</time>
      </trkpt>
      <trkpt lat="42.97695" lon="-0.10975">
        <ele>923.6</ele>
        <time>2022-05-01T07:27:58Z</time>
      </trkpt>
      <trkpt lat="42.97701" lon="-0.1098">
        <ele>924.4</ele>
        <time>2022-05-01T07:28:02Z</time>
      </trkpt>
      <trkpt lat="42.97704" lon="-0.1098">
        <ele>924.4</ele>
        <time>2022-05-01T07:28:03Z</time>
      </trkpt>
      <trkpt lat="42.97717" lon="-0.10983">
        <ele>925.6</ele>
        <time>2022-05-01T07:28:09Z</time>
      </trkpt>
      <trkpt lat="42.97717" lon="-0.10983">
        <ele>925.6</ele>
        <time>2022-05-01T07:28:10Z</time>
      </trkpt>
      <trkpt lat="42.97721" lon="-0.10988">
        <ele>926</ele>
        <time>2022-05-01T07:28:12Z</time>
      </trkpt>
      <trkpt lat="42.97723" lon="-0.10991">
        <ele>926.4</ele>
        <time>2022-05-01T07:28:14Z</time>
      </trkpt>
      <trkpt lat="42.97727" lon="-0.10994">
        <ele>926.6</ele>
        <time>2022-05-01T07:28:16Z</time>
      </trkpt>
      <trkpt lat="42.97733" lon="-0.10998">
        <ele>927</ele>
        <time>2022-05-01T07:28:19Z</time>
      </trkpt>
      <trkpt lat="42.97735" lon="-0.11001">
        <ele>927.4</ele>
        <time>2022-05-01T07:28:21Z</time>
      </trkpt>
      <trkpt lat="42.97737" lon="-0.11003">
        <ele>927.6</ele>
        <time>2022-05-01T07:28:22Z</time>
      </trkpt>
      <trkpt lat="42.97745" lon="-0.11012">
        <ele>928.8</ele>
        <time>2022-05-01T07:28:28Z</time>
      </trkpt>
      <trkpt lat="42.97746" lon="-0.11014">
        <ele>928.8</ele>
        <time>2022-05-01T07:28:29Z</time>
      </trkpt>
      <trkpt lat="42.97752" lon="-0.11028">
        <ele>929.8</ele>
        <time>2022-05-01T07:28:36Z</time>
      </trkpt>
      <trkpt lat="42.97753" lon="-0.11031">
        <ele>930</ele>
        <time>2022-05-01T07:28:37Z</time>
      </trkpt>
      <trkpt lat="42.97752" lon="-0.11046">
        <ele>931</ele>
        <time>2022-05-01T07:28:43Z</time>
      </trkpt>
      <trkpt lat="42.97752" lon="-0.11048">
        <ele>931.4</ele>
        <time>2022-05-01T07:28:45Z</time>
      </trkpt>
      <trkpt lat="42.97745" lon="-0.11059">
        <ele>932</ele>
        <time>2022-05-01T07:28:50Z</time>
      </trkpt>
      <trkpt lat="42.97744" lon="-0.11061">
        <ele>932.2</ele>
        <time>2022-05-01T07:28:51Z</time>
      </trkpt>
      <trkpt lat="42.97736" lon="-0.11071">
        <ele>933</ele>
        <time>2022-05-01T07:28:57Z</time>
      </trkpt>
      <trkpt lat="42.97735" lon="-0.11073">
        <ele>933.2</ele>
        <time>2022-05-01T07:28:58Z</time>
      </trkpt>
      <trkpt lat="42.97729" lon="-0.11083">
        <ele>934</ele>
        <time>2022-05-01T07:29:04Z</time>
      </trkpt>
      <trkpt lat="42.97725" lon="-0.11085">
        <ele>934.2</ele>
        <time>2022-05-01T07:29:05Z</time>
      </trkpt>
      <trkpt lat="42.97721" lon="-0.11086">
        <ele>934.8</ele>
        <time>2022-05-01T07:29:08Z</time>
      </trkpt>
      <trkpt lat="42.97719" lon="-0.11087">
        <ele>935</ele>
        <time>2022-05-01T07:29:10Z</time>
      </trkpt>
      <trkpt lat="42.97716" lon="-0.11088">
        <ele>935.4</ele>
        <time>2022-05-01T07:29:12Z</time>
      </trkpt>
      <trkpt lat="42.97714" lon="-0.11088">
        <ele>935.6</ele>
        <time>2022-05-01T07:29:14Z</time>
      </trkpt>
      <trkpt lat="42.97705" lon="-0.11091">
        <ele>936.4</ele>
        <time>2022-05-01T07:29:19Z</time>
      </trkpt>
      <trkpt lat="42.97701" lon="-0.11092">
        <ele>937.2</ele>
        <time>2022-05-01T07:29:22Z</time>
      </trkpt>
      <trkpt lat="42.97694" lon="-0.11097">
        <ele>937.6</ele>
        <time>2022-05-01T07:29:26Z</time>
      </trkpt>
      <trkpt lat="42.9769" lon="-0.11101">
        <ele>938.2</ele>
        <time>2022-05-01T07:29:29Z</time>
      </trkpt>
      <trkpt lat="42.97681" lon="-0.11111">
        <ele>938.6</ele>
        <time>2022-05-01T07:29:33Z</time>
      </trkpt>
      <trkpt lat="42.97676" lon="-0.11118">
        <ele>939</ele>
        <time>2022-05-01T07:29:36Z</time>
      </trkpt>
      <trkpt lat="42.97672" lon="-0.11131">
        <ele>939.4</ele>
        <time>2022-05-01T07:29:40Z</time>
      </trkpt>
      <trkpt lat="42.9767" lon="-0.1114">
        <ele>940</ele>
        <time>2022-05-01T07:29:43Z</time>
      </trkpt>
      <trkpt lat="42.97664" lon="-0.11155">
        <ele>940.8</ele>
        <time>2022-05-01T07:29:48Z</time>
      </trkpt>
      <trkpt lat="42.9766" lon="-0.11166">
        <ele>941.4</ele>
        <time>2022-05-01T07:29:52Z</time>
      </trkpt>
      <trkpt lat="42.97654" lon="-0.11182">
        <ele>941.8</ele>
        <time>2022-05-01T07:29:58Z</time>
      </trkpt>
      <trkpt lat="42.97647" lon="-0.11196">
        <ele>942.2</ele>
        <time>2022-05-01T07:30:04Z</time>
      </trkpt>
      <trkpt lat="42.97642" lon="-0.11209">
        <ele>943</ele>
        <time>2022-05-01T07:30:09Z</time>
      </trkpt>
      <trkpt lat="42.97641" lon="-0.11211">
        <ele>943</ele>
        <time>2022-05-01T07:30:10Z</time>
      </trkpt>
      <trkpt lat="42.97638" lon="-0.11216">
        <ele>943.2</ele>
        <time>2022-05-01T07:30:12Z</time>
      </trkpt>
      <trkpt lat="42.97632" lon="-0.11227">
        <ele>943.8</ele>
        <time>2022-05-01T07:30:17Z</time>
      </trkpt>
      <trkpt lat="42.9763" lon="-0.11233">
        <ele>944</ele>
        <time>2022-05-01T07:30:19Z</time>
      </trkpt>
      <trkpt lat="42.97628" lon="-0.11251">
        <ele>944.8</ele>
        <time>2022-05-01T07:30:25Z</time>
      </trkpt>
      <trkpt lat="42.97629" lon="-0.11257">
        <ele>945</ele>
        <time>2022-05-01T07:30:27Z</time>
      </trkpt>
      <trkpt lat="42.97627" lon="-0.11272">
        <ele>945.6</ele>
        <time>2022-05-01T07:30:32Z</time>
      </trkpt>
      <trkpt lat="42.97626" lon="-0.11282">
        <ele>946</ele>
        <time>2022-05-01T07:30:36Z</time>
      </trkpt>
      <trkpt lat="42.97626" lon="-0.11285">
        <ele>946.2</ele>
        <time>2022-05-01T07:30:37Z</time>
      </trkpt>
      <trkpt lat="42.97626" lon="-0.11287">
        <ele>946.2</ele>
        <time>2022-05-01T07:30:38Z</time>
      </trkpt>
      <trkpt lat="42.97626" lon="-0.11295">
        <ele>946.6</ele>
        <time>2022-05-01T07:30:41Z</time>
      </trkpt>
      <trkpt lat="42.97627" lon="-0.11299">
        <ele>947</ele>
        <time>2022-05-01T07:30:43Z</time>
      </trkpt>
      <trkpt lat="42.9763" lon="-0.11307">
        <ele>947.6</ele>
        <time>2022-05-01T07:30:47Z</time>
      </trkpt>
      <trkpt lat="42.97633" lon="-0.1131">
        <ele>948</ele>
        <time>2022-05-01T07:30:49Z</time>
      </trkpt>
      <trkpt lat="42.97632" lon="-0.11313">
        <ele>948</ele>
        <time>2022-05-01T07:30:50Z</time>
      </trkpt>
      <trkpt lat="42.97635" lon="-0.1132">
        <ele>948.6</ele>
        <time>2022-05-01T07:30:53Z</time>
      </trkpt>
      <trkpt lat="42.97636" lon="-0.11322">
        <ele>948.8</ele>
        <time>2022-05-01T07:30:54Z</time>
      </trkpt>
      <trkpt lat="42.97638" lon="-0.11325">
        <ele>949</ele>
        <time>2022-05-01T07:30:55Z</time>
      </trkpt>
      <trkpt lat="42.97638" lon="-0.11328">
        <ele>949.2</ele>
        <time>2022-05-01T07:30:56Z</time>
      </trkpt>
      <trkpt lat="42.9764" lon="-0.11336">
        <ele>949.8</ele>
        <time>2022-05-01T07:31:00Z</time>
      </trkpt>
      <trkpt lat="42.97642" lon="-0.1134">
        <ele>950.2</ele>
        <time>2022-05-01T07:31:02Z</time>
      </trkpt>
      <trkpt lat="42.97642" lon="-0.11351">
        <ele>951.2</ele>
        <time>2022-05-01T07:31:07Z</time>
      </trkpt>
      <trkpt lat="42.97642" lon="-0.11354">
        <ele>951.4</ele>
        <time>2022-05-01T07:31:08Z</time>
      </trkpt>
      <trkpt lat="42.97642" lon="-0.11356">
        <ele>951.6</ele>
        <time>2022-05-01T07:31:09Z</time>
      </trkpt>
      <trkpt lat="42.97644" lon="-0.1136">
        <ele>952.2</ele>
        <time>2022-05-01T07:31:11Z</time>
      </trkpt>
      <trkpt lat="42.97644" lon="-0.11362">
        <ele>952.6</ele>
        <time>2022-05-01T07:31:12Z</time>
      </trkpt>
      <trkpt lat="42.97646" lon="-0.11366">
        <ele>952.8</ele>
        <time>2022-05-01T07:31:14Z</time>
      </trkpt>
      <trkpt lat="42.9765" lon="-0.11371">
        <ele>953.4</ele>
        <time>2022-05-01T07:31:17Z</time>
      </trkpt>
      <trkpt lat="42.9765" lon="-0.11371">
        <ele>953.6</ele>
        <time>2022-05-01T07:31:18Z</time>
      </trkpt>
      <trkpt lat="42.97653" lon="-0.11376">
        <ele>953.8</ele>
        <time>2022-05-01T07:31:19Z</time>
      </trkpt>
      <trkpt lat="42.97653" lon="-0.11387">
        <ele>954.6</ele>
        <time>2022-05-01T07:31:23Z</time>
      </trkpt>
      <trkpt lat="42.97652" lon="-0.11389">
        <ele>954.8</ele>
        <time>2022-05-01T07:31:24Z</time>
      </trkpt>
      <trkpt lat="42.97651" lon="-0.11402">
        <ele>956</ele>
        <time>2022-05-01T07:31:29Z</time>
      </trkpt>
      <trkpt lat="42.97649" lon="-0.11407">
        <ele>956.2</ele>
        <time>2022-05-01T07:31:31Z</time>
      </trkpt>
      <trkpt lat="42.97644" lon="-0.11425">
        <ele>957</ele>
        <time>2022-05-01T07:31:38Z</time>
      </trkpt>
      <trkpt lat="42.97644" lon="-0.11427">
        <ele>957.2</ele>
        <time>2022-05-01T07:31:39Z</time>
      </trkpt>
      <trkpt lat="42.97642" lon="-0.11444">
        <ele>958</ele>
        <time>2022-05-01T07:31:44Z</time>
      </trkpt>
      <trkpt lat="42.97642" lon="-0.11451">
        <ele>958.4</ele>
        <time>2022-05-01T07:31:46Z</time>
      </trkpt>
      <trkpt lat="42.97642" lon="-0.11457">
        <ele>958.8</ele>
        <time>2022-05-01T07:31:48Z</time>
      </trkpt>
      <trkpt lat="42.9764" lon="-0.11459">
        <ele>959.2</ele>
        <time>2022-05-01T07:31:50Z</time>
      </trkpt>
      <trkpt lat="42.97641" lon="-0.11465">
        <ele>959.4</ele>
        <time>2022-05-01T07:31:52Z</time>
      </trkpt>
      <trkpt lat="42.97641" lon="-0.11477">
        <ele>960.2</ele>
        <time>2022-05-01T07:31:57Z</time>
      </trkpt>
      <trkpt lat="42.97641" lon="-0.11481">
        <ele>960.6</ele>
        <time>2022-05-01T07:31:59Z</time>
      </trkpt>
      <trkpt lat="42.9764" lon="-0.11485">
        <ele>961</ele>
        <time>2022-05-01T07:32:01Z</time>
      </trkpt>
      <trkpt lat="42.97641" lon="-0.11487">
        <ele>961.4</ele>
        <time>2022-05-01T07:32:02Z</time>
      </trkpt>
      <trkpt lat="42.97641" lon="-0.11494">
        <ele>961.8</ele>
        <time>2022-05-01T07:32:05Z</time>
      </trkpt>
      <trkpt lat="42.97643" lon="-0.11499">
        <ele>962.2</ele>
        <time>2022-05-01T07:32:07Z</time>
      </trkpt>
      <trkpt lat="42.97648" lon="-0.11508">
        <ele>963</ele>
        <time>2022-05-01T07:32:12Z</time>
      </trkpt>
      <trkpt lat="42.9765" lon="-0.11512">
        <ele>963.4</ele>
        <time>2022-05-01T07:32:14Z</time>
      </trkpt>
      <trkpt lat="42.97656" lon="-0.11523">
        <ele>963.8</ele>
        <time>2022-05-01T07:32:18Z</time>
      </trkpt>
      <trkpt lat="42.97658" lon="-0.11525">
        <ele>964.2</ele>
        <time>2022-05-01T07:32:19Z</time>
      </trkpt>
      <trkpt lat="42.97659" lon="-0.11526">
        <ele>964.4</ele>
        <time>2022-05-01T07:32:20Z</time>
      </trkpt>
      <trkpt lat="42.97663" lon="-0.11532">
        <ele>964.8</ele>
        <time>2022-05-01T07:32:22Z</time>
      </trkpt>
      <trkpt lat="42.97668" lon="-0.11541">
        <ele>965.6</ele>
        <time>2022-05-01T07:32:26Z</time>
      </trkpt>
      <trkpt lat="42.97668" lon="-0.11546">
        <ele>966</ele>
        <time>2022-05-01T07:32:28Z</time>
      </trkpt>
      <trkpt lat="42.97669" lon="-0.11547">
        <ele>965.8</ele>
        <time>2022-05-01T07:32:29Z</time>
      </trkpt>
      <trkpt lat="42.97672" lon="-0.11553">
        <ele>966.6</ele>
        <time>2022-05-01T07:32:32Z</time>
      </trkpt>
      <trkpt lat="42.97675" lon="-0.11564">
        <ele>967.2</ele>
        <time>2022-05-01T07:32:37Z</time>
      </trkpt>
      <trkpt lat="42.97676" lon="-0.11571">
        <ele>967.6</ele>
        <time>2022-05-01T07:32:40Z</time>
      </trkpt>
      <trkpt lat="42.9768" lon="-0.11578">
        <ele>968.4</ele>
        <time>2022-05-01T07:32:44Z</time>
      </trkpt>
      <trkpt lat="42.97682" lon="-0.11583">
        <ele>968.8</ele>
        <time>2022-05-01T07:32:46Z</time>
      </trkpt>
      <trkpt lat="42.97686" lon="-0.11592">
        <ele>969.8</ele>
        <time>2022-05-01T07:32:50Z</time>
      </trkpt>
      <trkpt lat="42.97687" lon="-0.11594">
        <ele>970</ele>
        <time>2022-05-01T07:32:51Z</time>
      </trkpt>
      <trkpt lat="42.97693" lon="-0.11606">
        <ele>971</ele>
        <time>2022-05-01T07:32:57Z</time>
      </trkpt>
      <trkpt lat="42.97696" lon="-0.11612">
        <ele>971.4</ele>
        <time>2022-05-01T07:33:00Z</time>
      </trkpt>
      <trkpt lat="42.97699" lon="-0.1162">
        <ele>972.2</ele>
        <time>2022-05-01T07:33:04Z</time>
      </trkpt>
      <trkpt lat="42.977" lon="-0.11632">
        <ele>973</ele>
        <time>2022-05-01T07:33:09Z</time>
      </trkpt>
      <trkpt lat="42.97701" lon="-0.11637">
        <ele>973.2</ele>
        <time>2022-05-01T07:33:11Z</time>
      </trkpt>
      <trkpt lat="42.97706" lon="-0.11647">
        <ele>973.8</ele>
        <time>2022-05-01T07:33:15Z</time>
      </trkpt>
      <trkpt lat="42.97709" lon="-0.11657">
        <ele>974.2</ele>
        <time>2022-05-01T07:33:19Z</time>
      </trkpt>
      <trkpt lat="42.97709" lon="-0.1166">
        <ele>974.4</ele>
        <time>2022-05-01T07:33:20Z</time>
      </trkpt>
      <trkpt lat="42.97703" lon="-0.11671">
        <ele>975</ele>
        <time>2022-05-01T07:33:26Z</time>
      </trkpt>
      <trkpt lat="42.97693" lon="-0.11668">
        <ele>975.4</ele>
        <time>2022-05-01T07:33:31Z</time>
      </trkpt>
      <trkpt lat="42.97691" lon="-0.11666">
        <ele>975.6</ele>
        <time>2022-05-01T07:33:32Z</time>
      </trkpt>
      <trkpt lat="42.97686" lon="-0.11651">
        <ele>976.6</ele>
        <time>2022-05-01T07:33:38Z</time>
      </trkpt>
      <trkpt lat="42.97684" lon="-0.11643">
        <ele>976.8</ele>
        <time>2022-05-01T07:33:41Z</time>
      </trkpt>
      <trkpt lat="42.97682" lon="-0.1164">
        <ele>976.8</ele>
        <time>2022-05-01T07:33:43Z</time>
      </trkpt>
      <trkpt lat="42.97673" lon="-0.11624">
        <ele>977.6</ele>
        <time>2022-05-01T07:33:50Z</time>
      </trkpt>
      <trkpt lat="42.97669" lon="-0.1162">
        <ele>978</ele>
        <time>2022-05-01T07:33:52Z</time>
      </trkpt>
      <trkpt lat="42.97666" lon="-0.11617">
        <ele>978</ele>
        <time>2022-05-01T07:33:54Z</time>
      </trkpt>
      <trkpt lat="42.97661" lon="-0.11615">
        <ele>978.2</ele>
        <time>2022-05-01T07:33:56Z</time>
      </trkpt>
      <trkpt lat="42.97659" lon="-0.11613">
        <ele>978.4</ele>
        <time>2022-05-01T07:33:57Z</time>
      </trkpt>
      <trkpt lat="42.97652" lon="-0.11604">
        <ele>978.6</ele>
        <time>2022-05-01T07:34:01Z</time>
      </trkpt>
      <trkpt lat="42.97648" lon="-0.11599">
        <ele>979.2</ele>
        <time>2022-05-01T07:34:04Z</time>
      </trkpt>
      <trkpt lat="42.97648" lon="-0.11594">
        <ele>979.4</ele>
        <time>2022-05-01T07:34:07Z</time>
      </trkpt>
      <trkpt lat="42.97647" lon="-0.11591">
        <ele>979.6</ele>
        <time>2022-05-01T07:34:09Z</time>
      </trkpt>
      <trkpt lat="42.97646" lon="-0.11589">
        <ele>979.6</ele>
        <time>2022-05-01T07:34:10Z</time>
      </trkpt>
      <trkpt lat="42.97645" lon="-0.11587">
        <ele>979.6</ele>
        <time>2022-05-01T07:34:11Z</time>
      </trkpt>
      <trkpt lat="42.97644" lon="-0.11581">
        <ele>979.8</ele>
        <time>2022-05-01T07:34:14Z</time>
      </trkpt>
      <trkpt lat="42.97641" lon="-0.11577">
        <ele>980</ele>
        <time>2022-05-01T07:34:16Z</time>
      </trkpt>
      <trkpt lat="42.97638" lon="-0.11571">
        <ele>980.6</ele>
        <time>2022-05-01T07:34:19Z</time>
      </trkpt>
      <trkpt lat="42.97632" lon="-0.1156">
        <ele>981.6</ele>
        <time>2022-05-01T07:34:24Z</time>
      </trkpt>
      <trkpt lat="42.97632" lon="-0.11558">
        <ele>981.6</ele>
        <time>2022-05-01T07:34:25Z</time>
      </trkpt>
      <trkpt lat="42.97632" lon="-0.11556">
        <ele>981.6</ele>
        <time>2022-05-01T07:34:26Z</time>
      </trkpt>
      <trkpt lat="42.97623" lon="-0.1154">
        <ele>982.8</ele>
        <time>2022-05-01T07:34:33Z</time>
      </trkpt>
      <trkpt lat="42.9762" lon="-0.11533">
        <ele>983.2</ele>
        <time>2022-05-01T07:34:35Z</time>
      </trkpt>
      <trkpt lat="42.97618" lon="-0.11515">
        <ele>983.6</ele>
        <time>2022-05-01T07:34:40Z</time>
      </trkpt>
      <trkpt lat="42.97617" lon="-0.11509">
        <ele>983.8</ele>
        <time>2022-05-01T07:34:42Z</time>
      </trkpt>
      <trkpt lat="42.9761" lon="-0.11501">
        <ele>984.6</ele>
        <time>2022-05-01T07:34:46Z</time>
      </trkpt>
      <trkpt lat="42.97609" lon="-0.11498">
        <ele>984.8</ele>
        <time>2022-05-01T07:34:47Z</time>
      </trkpt>
      <trkpt lat="42.97606" lon="-0.11496">
        <ele>985</ele>
        <time>2022-05-01T07:34:48Z</time>
      </trkpt>
      <trkpt lat="42.97597" lon="-0.11483">
        <ele>985.6</ele>
        <time>2022-05-01T07:34:54Z</time>
      </trkpt>
      <trkpt lat="42.97595" lon="-0.11476">
        <ele>986.2</ele>
        <time>2022-05-01T07:34:57Z</time>
      </trkpt>
      <trkpt lat="42.97592" lon="-0.11465">
        <ele>986.6</ele>
        <time>2022-05-01T07:35:01Z</time>
      </trkpt>
      <trkpt lat="42.97596" lon="-0.11457">
        <ele>986.8</ele>
        <time>2022-05-01T07:35:03Z</time>
      </trkpt>
      <trkpt lat="42.97594" lon="-0.11451">
        <ele>987.2</ele>
        <time>2022-05-01T07:35:06Z</time>
      </trkpt>
      <trkpt lat="42.97592" lon="-0.11448">
        <ele>987.4</ele>
        <time>2022-05-01T07:35:08Z</time>
      </trkpt>
      <trkpt lat="42.97581" lon="-0.11437">
        <ele>988.2</ele>
        <time>2022-05-01T07:35:14Z</time>
      </trkpt>
      <trkpt lat="42.97581" lon="-0.11434">
        <ele>988.4</ele>
        <time>2022-05-01T07:35:15Z</time>
      </trkpt>
      <trkpt lat="42.97565" lon="-0.11425">
        <ele>989.2</ele>
        <time>2022-05-01T07:35:23Z</time>
      </trkpt>
      <trkpt lat="42.97554" lon="-0.11418">
        <ele>990.2</ele>
        <time>2022-05-01T07:35:30Z</time>
      </trkpt>
      <trkpt lat="42.97546" lon="-0.11415">
        <ele>990.6</ele>
        <time>2022-05-01T07:35:34Z</time>
      </trkpt>
      <trkpt lat="42.97543" lon="-0.11413">
        <ele>990.6</ele>
        <time>2022-05-01T07:35:36Z</time>
      </trkpt>
      <trkpt lat="42.9753" lon="-0.11408">
        <ele>991.6</ele>
        <time>2022-05-01T07:35:43Z</time>
      </trkpt>
      <trkpt lat="42.97523" lon="-0.11405">
        <ele>992.2</ele>
        <time>2022-05-01T07:35:47Z</time>
      </trkpt>
      <trkpt lat="42.97519" lon="-0.11398">
        <ele>992.6</ele>
        <time>2022-05-01T07:35:50Z</time>
      </trkpt>
      <trkpt lat="42.97516" lon="-0.11393">
        <ele>992.8</ele>
        <time>2022-05-01T07:35:52Z</time>
      </trkpt>
      <trkpt lat="42.97509" lon="-0.11381">
        <ele>993.8</ele>
        <time>2022-05-01T07:35:58Z</time>
      </trkpt>
      <trkpt lat="42.97508" lon="-0.11379">
        <ele>993.8</ele>
        <time>2022-05-01T07:35:59Z</time>
      </trkpt>
      <trkpt lat="42.97503" lon="-0.11372">
        <ele>994.8</ele>
        <time>2022-05-01T07:36:04Z</time>
      </trkpt>
      <trkpt lat="42.97499" lon="-0.11367">
        <ele>995.4</ele>
        <time>2022-05-01T07:36:06Z</time>
      </trkpt>
      <trkpt lat="42.97496" lon="-0.11362">
        <ele>996</ele>
        <time>2022-05-01T07:36:09Z</time>
      </trkpt>
      <trkpt lat="42.97494" lon="-0.11358">
        <ele>996.6</ele>
        <time>2022-05-01T07:36:12Z</time>
      </trkpt>
      <trkpt lat="42.97491" lon="-0.11353">
        <ele>997</ele>
        <time>2022-05-01T07:36:14Z</time>
      </trkpt>
      <trkpt lat="42.9749" lon="-0.11351">
        <ele>997.2</ele>
        <time>2022-05-01T07:36:15Z</time>
      </trkpt>
      <trkpt lat="42.97487" lon="-0.11345">
        <ele>997.8</ele>
        <time>2022-05-01T07:36:18Z</time>
      </trkpt>
      <trkpt lat="42.97487" lon="-0.11342">
        <ele>998.2</ele>
        <time>2022-05-01T07:36:19Z</time>
      </trkpt>
      <trkpt lat="42.97486" lon="-0.11333">
        <ele>999</ele>
        <time>2022-05-01T07:36:23Z</time>
      </trkpt>
      <trkpt lat="42.97485" lon="-0.11331">
        <ele>999.2</ele>
        <time>2022-05-01T07:36:24Z</time>
      </trkpt>
      <trkpt lat="42.97483" lon="-0.1132">
        <ele>1000.2</ele>
        <time>2022-05-01T07:36:29Z</time>
      </trkpt>
      <trkpt lat="42.97481" lon="-0.11318">
        <ele>1000.4</ele>
        <time>2022-05-01T07:36:30Z</time>
      </trkpt>
      <trkpt lat="42.97477" lon="-0.11308">
        <ele>1001.2</ele>
        <time>2022-05-01T07:36:35Z</time>
      </trkpt>
      <trkpt lat="42.97476" lon="-0.11306">
        <ele>1001.4</ele>
        <time>2022-05-01T07:36:36Z</time>
      </trkpt>
      <trkpt lat="42.97475" lon="-0.11304">
        <ele>1001.4</ele>
        <time>2022-05-01T07:36:37Z</time>
      </trkpt>
      <trkpt lat="42.97473" lon="-0.11298">
        <ele>1002.4</ele>
        <time>2022-05-01T07:36:41Z</time>
      </trkpt>
      <trkpt lat="42.97471" lon="-0.11293">
        <ele>1002.8</ele>
        <time>2022-05-01T07:36:42Z</time>
      </trkpt>
      <trkpt lat="42.9747" lon="-0.11289">
        <ele>1003.2</ele>
        <time>2022-05-01T07:36:44Z</time>
      </trkpt>
      <trkpt lat="42.97471" lon="-0.11284">
        <ele>1003.6</ele>
        <time>2022-05-01T07:36:46Z</time>
      </trkpt>
      <trkpt lat="42.97467" lon="-0.11277">
        <ele>1004</ele>
        <time>2022-05-01T07:36:49Z</time>
      </trkpt>
      <trkpt lat="42.97467" lon="-0.1127">
        <ele>1004.4</ele>
        <time>2022-05-01T07:36:51Z</time>
      </trkpt>
      <trkpt lat="42.97467" lon="-0.11267">
        <ele>1004.6</ele>
        <time>2022-05-01T07:36:52Z</time>
      </trkpt>
      <trkpt lat="42.97466" lon="-0.11265">
        <ele>1004.8</ele>
        <time>2022-05-01T07:36:53Z</time>
      </trkpt>
      <trkpt lat="42.97465" lon="-0.11263">
        <ele>1004.8</ele>
        <time>2022-05-01T07:36:54Z</time>
      </trkpt>
      <trkpt lat="42.97463" lon="-0.11259">
        <ele>1005</ele>
        <time>2022-05-01T07:36:56Z</time>
      </trkpt>
      <trkpt lat="42.9746" lon="-0.11256">
        <ele>1005.6</ele>
        <time>2022-05-01T07:36:58Z</time>
      </trkpt>
      <trkpt lat="42.97459" lon="-0.11249">
        <ele>1006.4</ele>
        <time>2022-05-01T07:37:01Z</time>
      </trkpt>
      <trkpt lat="42.97457" lon="-0.11244">
        <ele>1006.8</ele>
        <time>2022-05-01T07:37:03Z</time>
      </trkpt>
      <trkpt lat="42.97456" lon="-0.11231">
        <ele>1007.8</ele>
        <time>2022-05-01T07:37:08Z</time>
      </trkpt>
      <trkpt lat="42.97455" lon="-0.1123">
        <ele>1007.8</ele>
        <time>2022-05-01T07:37:09Z</time>
      </trkpt>
      <trkpt lat="42.97454" lon="-0.11228">
        <ele>1008</ele>
        <time>2022-05-01T07:37:10Z</time>
      </trkpt>
      <trkpt lat="42.9745" lon="-0.11225">
        <ele>1008.4</ele>
        <time>2022-05-01T07:37:13Z</time>
      </trkpt>
      <trkpt lat="42.97449" lon="-0.11223">
        <ele>1008.8</ele>
        <time>2022-05-01T07:37:15Z</time>
      </trkpt>
      <trkpt lat="42.97447" lon="-0.11221">
        <ele>1009</ele>
        <time>2022-05-01T07:37:16Z</time>
      </trkpt>
      <trkpt lat="42.97439" lon="-0.11215">
        <ele>1009.8</ele>
        <time>2022-05-01T07:37:22Z</time>
      </trkpt>
      <trkpt lat="42.97435" lon="-0.11211">
        <ele>1010.2</ele>
        <time>2022-05-01T07:37:24Z</time>
      </trkpt>
      <trkpt lat="42.9743" lon="-0.11204">
        <ele>1011.2</ele>
        <time>2022-05-01T07:37:28Z</time>
      </trkpt>
      <trkpt lat="42.97428" lon="-0.11203">
        <ele>1011.6</ele>
        <time>2022-05-01T07:37:29Z</time>
      </trkpt>
      <trkpt lat="42.97416" lon="-0.11193">
        <ele>1012.8</ele>
        <time>2022-05-01T07:37:36Z</time>
      </trkpt>
      <trkpt lat="42.97414" lon="-0.11192">
        <ele>1013</ele>
        <time>2022-05-01T07:37:37Z</time>
      </trkpt>
      <trkpt lat="42.97407" lon="-0.11189">
        <ele>1013.8</ele>
        <time>2022-05-01T07:37:41Z</time>
      </trkpt>
      <trkpt lat="42.97407" lon="-0.11189">
        <ele>1013.8</ele>
        <time>2022-05-01T07:37:42Z</time>
      </trkpt>
      <trkpt lat="42.97392" lon="-0.11187">
        <ele>1014.8</ele>
        <time>2022-05-01T07:37:49Z</time>
      </trkpt>
      <trkpt lat="42.97378" lon="-0.11185">
        <ele>1015.6</ele>
        <time>2022-05-01T07:37:57Z</time>
      </trkpt>
      <trkpt lat="42.97376" lon="-0.11185">
        <ele>1016</ele>
        <time>2022-05-01T07:37:58Z</time>
      </trkpt>
      <trkpt lat="42.97363" lon="-0.1118">
        <ele>1017</ele>
        <time>2022-05-01T07:38:05Z</time>
      </trkpt>
      <trkpt lat="42.97353" lon="-0.11176">
        <ele>1018</ele>
        <time>2022-05-01T07:38:11Z</time>
      </trkpt>
      <trkpt lat="42.97352" lon="-0.11175">
        <ele>1018.2</ele>
        <time>2022-05-01T07:38:12Z</time>
      </trkpt>
      <trkpt lat="42.97347" lon="-0.11173">
        <ele>1018.4</ele>
        <time>2022-05-01T07:38:15Z</time>
      </trkpt>
      <trkpt lat="42.97344" lon="-0.11172">
        <ele>1018.8</ele>
        <time>2022-05-01T07:38:17Z</time>
      </trkpt>
      <trkpt lat="42.9734" lon="-0.1117">
        <ele>1019</ele>
        <time>2022-05-01T07:38:19Z</time>
      </trkpt>
      <trkpt lat="42.97332" lon="-0.11164">
        <ele>1019.8</ele>
        <time>2022-05-01T07:38:24Z</time>
      </trkpt>
      <trkpt lat="42.9733" lon="-0.11163">
        <ele>1020</ele>
        <time>2022-05-01T07:38:25Z</time>
      </trkpt>
      <trkpt lat="42.97325" lon="-0.11161">
        <ele>1021.2</ele>
        <time>2022-05-01T07:38:28Z</time>
      </trkpt>
      <trkpt lat="42.97323" lon="-0.11159">
        <ele>1021.6</ele>
        <time>2022-05-01T07:38:30Z</time>
      </trkpt>
      <trkpt lat="42.9732" lon="-0.11156">
        <ele>1021.8</ele>
        <time>2022-05-01T07:38:32Z</time>
      </trkpt>
      <trkpt lat="42.97317" lon="-0.11155">
        <ele>1022</ele>
        <time>2022-05-01T07:38:34Z</time>
      </trkpt>
      <trkpt lat="42.97314" lon="-0.11154">
        <ele>1022.6</ele>
        <time>2022-05-01T07:38:36Z</time>
      </trkpt>
      <trkpt lat="42.97307" lon="-0.11151">
        <ele>1023.8</ele>
        <time>2022-05-01T07:38:40Z</time>
      </trkpt>
      <trkpt lat="42.97301" lon="-0.11148">
        <ele>1024.2</ele>
        <time>2022-05-01T07:38:44Z</time>
      </trkpt>
      <trkpt lat="42.973" lon="-0.11147">
        <ele>1024.4</ele>
        <time>2022-05-01T07:38:45Z</time>
      </trkpt>
      <trkpt lat="42.97297" lon="-0.11141">
        <ele>1024.8</ele>
        <time>2022-05-01T07:38:48Z</time>
      </trkpt>
      <trkpt lat="42.97293" lon="-0.11135">
        <ele>1025.6</ele>
        <time>2022-05-01T07:38:51Z</time>
      </trkpt>
      <trkpt lat="42.97292" lon="-0.11133">
        <ele>1025.8</ele>
        <time>2022-05-01T07:38:52Z</time>
      </trkpt>
      <trkpt lat="42.9729" lon="-0.11131">
        <ele>1026.2</ele>
        <time>2022-05-01T07:38:53Z</time>
      </trkpt>
      <trkpt lat="42.97285" lon="-0.11124">
        <ele>1026.8</ele>
        <time>2022-05-01T07:38:57Z</time>
      </trkpt>
      <trkpt lat="42.97284" lon="-0.11119">
        <ele>1027.4</ele>
        <time>2022-05-01T07:38:59Z</time>
      </trkpt>
      <trkpt lat="42.97282" lon="-0.1111">
        <ele>1027.8</ele>
        <time>2022-05-01T07:39:03Z</time>
      </trkpt>
      <trkpt lat="42.97281" lon="-0.11105">
        <ele>1028.2</ele>
        <time>2022-05-01T07:39:05Z</time>
      </trkpt>
      <trkpt lat="42.9728" lon="-0.11099">
        <ele>1028.8</ele>
        <time>2022-05-01T07:39:08Z</time>
      </trkpt>
      <trkpt lat="42.97279" lon="-0.11097">
        <ele>1029</ele>
        <time>2022-05-01T07:39:09Z</time>
      </trkpt>
      <trkpt lat="42.97277" lon="-0.11092">
        <ele>1029.2</ele>
        <time>2022-05-01T07:39:11Z</time>
      </trkpt>
      <trkpt lat="42.97276" lon="-0.11081">
        <ele>1030</ele>
        <time>2022-05-01T07:39:16Z</time>
      </trkpt>
      <trkpt lat="42.97276" lon="-0.11077">
        <ele>1030.6</ele>
        <time>2022-05-01T07:39:21Z</time>
      </trkpt>
      <trkpt lat="42.97276" lon="-0.11077">
        <ele>1030.8</ele>
        <time>2022-05-01T07:39:39Z</time>
      </trkpt>
      <trkpt lat="42.97276" lon="-0.11077">
        <ele>1030.6</ele>
        <time>2022-05-01T07:39:50Z</time>
      </trkpt>
      <trkpt lat="42.97276" lon="-0.11068">
        <ele>1030.6</ele>
        <time>2022-05-01T07:40:09Z</time>
      </trkpt>
      <trkpt lat="42.97277" lon="-0.11059">
        <ele>1030.8</ele>
        <time>2022-05-01T07:40:12Z</time>
      </trkpt>
      <trkpt lat="42.97276" lon="-0.1105">
        <ele>1031.4</ele>
        <time>2022-05-01T07:40:16Z</time>
      </trkpt>
      <trkpt lat="42.97275" lon="-0.11043">
        <ele>1031.8</ele>
        <time>2022-05-01T07:40:19Z</time>
      </trkpt>
      <trkpt lat="42.97272" lon="-0.11034">
        <ele>1032.6</ele>
        <time>2022-05-01T07:40:23Z</time>
      </trkpt>
      <trkpt lat="42.97272" lon="-0.11029">
        <ele>1033</ele>
        <time>2022-05-01T07:40:25Z</time>
      </trkpt>
      <trkpt lat="42.97271" lon="-0.11018">
        <ele>1033.8</ele>
        <time>2022-05-01T07:40:29Z</time>
      </trkpt>
      <trkpt lat="42.9727" lon="-0.11016">
        <ele>1034</ele>
        <time>2022-05-01T07:40:30Z</time>
      </trkpt>
      <trkpt lat="42.97271" lon="-0.10991">
        <ele>1035.2</ele>
        <time>2022-05-01T07:40:36Z</time>
      </trkpt>
      <trkpt lat="42.97271" lon="-0.10988">
        <ele>1035.6</ele>
        <time>2022-05-01T07:40:37Z</time>
      </trkpt>
      <trkpt lat="42.97268" lon="-0.10972">
        <ele>1036.2</ele>
        <time>2022-05-01T07:40:43Z</time>
      </trkpt>
      <trkpt lat="42.97269" lon="-0.10969">
        <ele>1036.6</ele>
        <time>2022-05-01T07:40:44Z</time>
      </trkpt>
      <trkpt lat="42.97268" lon="-0.1096">
        <ele>1037</ele>
        <time>2022-05-01T07:40:47Z</time>
      </trkpt>
      <trkpt lat="42.97267" lon="-0.10957">
        <ele>1037.6</ele>
        <time>2022-05-01T07:40:49Z</time>
      </trkpt>
      <trkpt lat="42.97264" lon="-0.10952">
        <ele>1038</ele>
        <time>2022-05-01T07:40:51Z</time>
      </trkpt>
      <trkpt lat="42.97264" lon="-0.10949">
        <ele>1038.2</ele>
        <time>2022-05-01T07:40:52Z</time>
      </trkpt>
      <trkpt lat="42.97263" lon="-0.10942">
        <ele>1038.6</ele>
        <time>2022-05-01T07:40:54Z</time>
      </trkpt>
      <trkpt lat="42.97263" lon="-0.10936">
        <ele>1039</ele>
        <time>2022-05-01T07:40:56Z</time>
      </trkpt>
      <trkpt lat="42.97263" lon="-0.1093">
        <ele>1039.4</ele>
        <time>2022-05-01T07:40:59Z</time>
      </trkpt>
      <trkpt lat="42.97261" lon="-0.10925">
        <ele>1039.8</ele>
        <time>2022-05-01T07:41:01Z</time>
      </trkpt>
      <trkpt lat="42.97258" lon="-0.10917">
        <ele>1040.2</ele>
        <time>2022-05-01T07:41:05Z</time>
      </trkpt>
      <trkpt lat="42.97257" lon="-0.10915">
        <ele>1040.6</ele>
        <time>2022-05-01T07:41:06Z</time>
      </trkpt>
      <trkpt lat="42.97256" lon="-0.10913">
        <ele>1040.8</ele>
        <time>2022-05-01T07:41:07Z</time>
      </trkpt>
      <trkpt lat="42.97254" lon="-0.10908">
        <ele>1041.4</ele>
        <time>2022-05-01T07:41:10Z</time>
      </trkpt>
      <trkpt lat="42.97254" lon="-0.10903">
        <ele>1041.8</ele>
        <time>2022-05-01T07:41:12Z</time>
      </trkpt>
      <trkpt lat="42.97252" lon="-0.10887">
        <ele>1042.8</ele>
        <time>2022-05-01T07:41:19Z</time>
      </trkpt>
      <trkpt lat="42.97249" lon="-0.10873">
        <ele>1044.2</ele>
        <time>2022-05-01T07:41:25Z</time>
      </trkpt>
      <trkpt lat="42.97248" lon="-0.1087">
        <ele>1044.4</ele>
        <time>2022-05-01T07:41:26Z</time>
      </trkpt>
      <trkpt lat="42.97247" lon="-0.10866">
        <ele>1045.4</ele>
        <time>2022-05-01T07:41:29Z</time>
      </trkpt>
      <trkpt lat="42.97245" lon="-0.10858">
        <ele>1045.6</ele>
        <time>2022-05-01T07:41:31Z</time>
      </trkpt>
      <trkpt lat="42.97245" lon="-0.10845">
        <ele>1046.4</ele>
        <time>2022-05-01T07:41:34Z</time>
      </trkpt>
      <trkpt lat="42.97245" lon="-0.10832">
        <ele>1047.4</ele>
        <time>2022-05-01T07:41:39Z</time>
      </trkpt>
      <trkpt lat="42.97245" lon="-0.10822">
        <ele>1047.8</ele>
        <time>2022-05-01T07:41:41Z</time>
      </trkpt>
      <trkpt lat="42.97243" lon="-0.1081">
        <ele>1048.2</ele>
        <time>2022-05-01T07:41:46Z</time>
      </trkpt>
      <trkpt lat="42.97242" lon="-0.10804">
        <ele>1048.8</ele>
        <time>2022-05-01T07:41:48Z</time>
      </trkpt>
      <trkpt lat="42.97245" lon="-0.10793">
        <ele>1049.4</ele>
        <time>2022-05-01T07:41:52Z</time>
      </trkpt>
      <trkpt lat="42.97247" lon="-0.1078">
        <ele>1050</ele>
        <time>2022-05-01T07:41:57Z</time>
      </trkpt>
      <trkpt lat="42.97245" lon="-0.10775">
        <ele>1050.4</ele>
        <time>2022-05-01T07:41:59Z</time>
      </trkpt>
      <trkpt lat="42.97242" lon="-0.10759">
        <ele>1051.4</ele>
        <time>2022-05-01T07:42:06Z</time>
      </trkpt>
      <trkpt lat="42.97236" lon="-0.10745">
        <ele>1052.6</ele>
        <time>2022-05-01T07:42:12Z</time>
      </trkpt>
      <trkpt lat="42.97236" lon="-0.10743">
        <ele>1052.8</ele>
        <time>2022-05-01T07:42:13Z</time>
      </trkpt>
      <trkpt lat="42.97235" lon="-0.10724">
        <ele>1053.6</ele>
        <time>2022-05-01T07:42:19Z</time>
      </trkpt>
      <trkpt lat="42.97236" lon="-0.10715">
        <ele>1054.2</ele>
        <time>2022-05-01T07:42:22Z</time>
      </trkpt>
      <trkpt lat="42.97238" lon="-0.1071">
        <ele>1054.2</ele>
        <time>2022-05-01T07:42:23Z</time>
      </trkpt>
      <trkpt lat="42.9724" lon="-0.10699">
        <ele>1054.6</ele>
        <time>2022-05-01T07:42:26Z</time>
      </trkpt>
      <trkpt lat="42.9724" lon="-0.10695">
        <ele>1054.8</ele>
        <time>2022-05-01T07:42:27Z</time>
      </trkpt>
      <trkpt lat="42.97238" lon="-0.10692">
        <ele>1055</ele>
        <time>2022-05-01T07:42:29Z</time>
      </trkpt>
      <trkpt lat="42.97238" lon="-0.10682">
        <ele>1055.8</ele>
        <time>2022-05-01T07:42:33Z</time>
      </trkpt>
      <trkpt lat="42.97238" lon="-0.10677">
        <ele>1056.4</ele>
        <time>2022-05-01T07:42:35Z</time>
      </trkpt>
      <trkpt lat="42.97241" lon="-0.10663">
        <ele>1057</ele>
        <time>2022-05-01T07:42:39Z</time>
      </trkpt>
      <trkpt lat="42.97243" lon="-0.10657">
        <ele>1057.4</ele>
        <time>2022-05-01T07:42:41Z</time>
      </trkpt>
      <trkpt lat="42.97243" lon="-0.10652">
        <ele>1058.2</ele>
        <time>2022-05-01T07:42:44Z</time>
      </trkpt>
      <trkpt lat="42.97246" lon="-0.10646">
        <ele>1059</ele>
        <time>2022-05-01T07:42:47Z</time>
      </trkpt>
      <trkpt lat="42.97248" lon="-0.10642">
        <ele>1059.4</ele>
        <time>2022-05-01T07:42:49Z</time>
      </trkpt>
      <trkpt lat="42.97249" lon="-0.1064">
        <ele>1059.6</ele>
        <time>2022-05-01T07:42:50Z</time>
      </trkpt>
      <trkpt lat="42.97251" lon="-0.10634">
        <ele>1060.2</ele>
        <time>2022-05-01T07:42:53Z</time>
      </trkpt>
      <trkpt lat="42.97252" lon="-0.10632">
        <ele>1060.6</ele>
        <time>2022-05-01T07:42:54Z</time>
      </trkpt>
      <trkpt lat="42.97262" lon="-0.10619">
        <ele>1061.4</ele>
        <time>2022-05-01T07:43:00Z</time>
      </trkpt>
      <trkpt lat="42.97269" lon="-0.1061">
        <ele>1062.2</ele>
        <time>2022-05-01T07:43:05Z</time>
      </trkpt>
      <trkpt lat="42.97271" lon="-0.10609">
        <ele>1062.6</ele>
        <time>2022-05-01T07:43:06Z</time>
      </trkpt>
      <trkpt lat="42.97282" lon="-0.10598">
        <ele>1063.6</ele>
        <time>2022-05-01T07:43:12Z</time>
      </trkpt>
      <trkpt lat="42.97285" lon="-0.10593">
        <ele>1064</ele>
        <time>2022-05-01T07:43:14Z</time>
      </trkpt>
      <trkpt lat="42.97288" lon="-0.10586">
        <ele>1064.8</ele>
        <time>2022-05-01T07:43:17Z</time>
      </trkpt>
      <trkpt lat="42.9729" lon="-0.10581">
        <ele>1065</ele>
        <time>2022-05-01T07:43:19Z</time>
      </trkpt>
      <trkpt lat="42.97295" lon="-0.10574">
        <ele>1065.2</ele>
        <time>2022-05-01T07:43:22Z</time>
      </trkpt>
      <trkpt lat="42.97295" lon="-0.10568">
        <ele>1065.4</ele>
        <time>2022-05-01T07:43:24Z</time>
      </trkpt>
      <trkpt lat="42.97294" lon="-0.10557">
        <ele>1066</ele>
        <time>2022-05-01T07:43:28Z</time>
      </trkpt>
      <trkpt lat="42.97294" lon="-0.10554">
        <ele>1066.2</ele>
        <time>2022-05-01T07:43:29Z</time>
      </trkpt>
      <trkpt lat="42.97287" lon="-0.1054">
        <ele>1067</ele>
        <time>2022-05-01T07:43:35Z</time>
      </trkpt>
      <trkpt lat="42.97278" lon="-0.10529">
        <ele>1068</ele>
        <time>2022-05-01T07:43:41Z</time>
      </trkpt>
      <trkpt lat="42.97277" lon="-0.10527">
        <ele>1068.2</ele>
        <time>2022-05-01T07:43:42Z</time>
      </trkpt>
      <trkpt lat="42.97268" lon="-0.10517">
        <ele>1069.2</ele>
        <time>2022-05-01T07:43:48Z</time>
      </trkpt>
      <trkpt lat="42.97266" lon="-0.10515">
        <ele>1069.6</ele>
        <time>2022-05-01T07:43:49Z</time>
      </trkpt>
      <trkpt lat="42.97258" lon="-0.10504">
        <ele>1070.6</ele>
        <time>2022-05-01T07:43:55Z</time>
      </trkpt>
      <trkpt lat="42.97255" lon="-0.10501">
        <ele>1071</ele>
        <time>2022-05-01T07:43:57Z</time>
      </trkpt>
      <trkpt lat="42.97247" lon="-0.10492">
        <ele>1071.6</ele>
        <time>2022-05-01T07:44:02Z</time>
      </trkpt>
      <trkpt lat="42.97246" lon="-0.1049">
        <ele>1071.8</ele>
        <time>2022-05-01T07:44:03Z</time>
      </trkpt>
      <trkpt lat="42.97239" lon="-0.10482">
        <ele>1072.6</ele>
        <time>2022-05-01T07:44:08Z</time>
      </trkpt>
      <trkpt lat="42.97237" lon="-0.10481">
        <ele>1072.6</ele>
        <time>2022-05-01T07:44:09Z</time>
      </trkpt>
      <trkpt lat="42.97227" lon="-0.10468">
        <ele>1073.8</ele>
        <time>2022-05-01T07:44:16Z</time>
      </trkpt>
      <trkpt lat="42.97226" lon="-0.10466">
        <ele>1074</ele>
        <time>2022-05-01T07:44:17Z</time>
      </trkpt>
      <trkpt lat="42.97219" lon="-0.10455">
        <ele>1075</ele>
        <time>2022-05-01T07:44:22Z</time>
      </trkpt>
      <trkpt lat="42.97218" lon="-0.10453">
        <ele>1075</ele>
        <time>2022-05-01T07:44:23Z</time>
      </trkpt>
      <trkpt lat="42.97209" lon="-0.10441">
        <ele>1076.2</ele>
        <time>2022-05-01T07:44:29Z</time>
      </trkpt>
      <trkpt lat="42.97208" lon="-0.10439">
        <ele>1076.2</ele>
        <time>2022-05-01T07:44:30Z</time>
      </trkpt>
      <trkpt lat="42.97202" lon="-0.10427">
        <ele>1077.2</ele>
        <time>2022-05-01T07:44:35Z</time>
      </trkpt>
      <trkpt lat="42.97197" lon="-0.1042">
        <ele>1077.8</ele>
        <time>2022-05-01T07:44:38Z</time>
      </trkpt>
      <trkpt lat="42.97194" lon="-0.10416">
        <ele>1078.4</ele>
        <time>2022-05-01T07:44:40Z</time>
      </trkpt>
      <trkpt lat="42.97191" lon="-0.10412">
        <ele>1079</ele>
        <time>2022-05-01T07:44:42Z</time>
      </trkpt>
      <trkpt lat="42.97187" lon="-0.10408">
        <ele>1079.6</ele>
        <time>2022-05-01T07:44:45Z</time>
      </trkpt>
      <trkpt lat="42.97175" lon="-0.10399">
        <ele>1080.8</ele>
        <time>2022-05-01T07:44:51Z</time>
      </trkpt>
      <trkpt lat="42.97171" lon="-0.10394">
        <ele>1081.4</ele>
        <time>2022-05-01T07:44:54Z</time>
      </trkpt>
      <trkpt lat="42.97166" lon="-0.1039">
        <ele>1081.8</ele>
        <time>2022-05-01T07:44:57Z</time>
      </trkpt>
      <trkpt lat="42.97159" lon="-0.10383">
        <ele>1083</ele>
        <time>2022-05-01T07:45:02Z</time>
      </trkpt>
      <trkpt lat="42.97152" lon="-0.10375">
        <ele>1084</ele>
        <time>2022-05-01T07:45:07Z</time>
      </trkpt>
      <trkpt lat="42.97151" lon="-0.10374">
        <ele>1084.2</ele>
        <time>2022-05-01T07:45:08Z</time>
      </trkpt>
      <trkpt lat="42.97149" lon="-0.10373">
        <ele>1084.4</ele>
        <time>2022-05-01T07:45:09Z</time>
      </trkpt>
      <trkpt lat="42.97143" lon="-0.10363">
        <ele>1085.2</ele>
        <time>2022-05-01T07:45:14Z</time>
      </trkpt>
      <trkpt lat="42.97138" lon="-0.10355">
        <ele>1086</ele>
        <time>2022-05-01T07:45:19Z</time>
      </trkpt>
      <trkpt lat="42.97135" lon="-0.10352">
        <ele>1086.6</ele>
        <time>2022-05-01T07:45:21Z</time>
      </trkpt>
      <trkpt lat="42.9713" lon="-0.10348">
        <ele>1087.2</ele>
        <time>2022-05-01T07:45:24Z</time>
      </trkpt>
      <trkpt lat="42.97124" lon="-0.10342">
        <ele>1088</ele>
        <time>2022-05-01T07:45:28Z</time>
      </trkpt>
      <trkpt lat="42.97121" lon="-0.10339">
        <ele>1088.2</ele>
        <time>2022-05-01T07:45:30Z</time>
      </trkpt>
      <trkpt lat="42.97115" lon="-0.1033">
        <ele>1089</ele>
        <time>2022-05-01T07:45:35Z</time>
      </trkpt>
      <trkpt lat="42.97114" lon="-0.10328">
        <ele>1089.2</ele>
        <time>2022-05-01T07:45:36Z</time>
      </trkpt>
      <trkpt lat="42.97105" lon="-0.10317">
        <ele>1090.4</ele>
        <time>2022-05-01T07:45:42Z</time>
      </trkpt>
      <trkpt lat="42.97104" lon="-0.10315">
        <ele>1090.6</ele>
        <time>2022-05-01T07:45:43Z</time>
      </trkpt>
      <trkpt lat="42.97094" lon="-0.10301">
        <ele>1091.4</ele>
        <time>2022-05-01T07:45:50Z</time>
      </trkpt>
      <trkpt lat="42.97084" lon="-0.10288">
        <ele>1092.6</ele>
        <time>2022-05-01T07:45:57Z</time>
      </trkpt>
      <trkpt lat="42.97079" lon="-0.10284">
        <ele>1093.2</ele>
        <time>2022-05-01T07:46:00Z</time>
      </trkpt>
      <trkpt lat="42.97078" lon="-0.10284">
        <ele>1093.6</ele>
        <time>2022-05-01T07:46:01Z</time>
      </trkpt>
      <trkpt lat="42.97076" lon="-0.10283">
        <ele>1093.8</ele>
        <time>2022-05-01T07:46:02Z</time>
      </trkpt>
      <trkpt lat="42.97072" lon="-0.10278">
        <ele>1094.4</ele>
        <time>2022-05-01T07:46:05Z</time>
      </trkpt>
      <trkpt lat="42.9707" lon="-0.10274">
        <ele>1094.6</ele>
        <time>2022-05-01T07:46:07Z</time>
      </trkpt>
      <trkpt lat="42.97067" lon="-0.1027">
        <ele>1095</ele>
        <time>2022-05-01T07:46:09Z</time>
      </trkpt>
      <trkpt lat="42.97064" lon="-0.10265">
        <ele>1095.6</ele>
        <time>2022-05-01T07:46:12Z</time>
      </trkpt>
      <trkpt lat="42.97057" lon="-0.10254">
        <ele>1096.6</ele>
        <time>2022-05-01T07:46:18Z</time>
      </trkpt>
      <trkpt lat="42.97056" lon="-0.10252">
        <ele>1096.8</ele>
        <time>2022-05-01T07:46:19Z</time>
      </trkpt>
      <trkpt lat="42.97049" lon="-0.10241">
        <ele>1097.8</ele>
        <time>2022-05-01T07:46:25Z</time>
      </trkpt>
      <trkpt lat="42.97047" lon="-0.10239">
        <ele>1098.2</ele>
        <time>2022-05-01T07:46:26Z</time>
      </trkpt>
      <trkpt lat="42.97042" lon="-0.1023">
        <ele>1099.2</ele>
        <time>2022-05-01T07:46:31Z</time>
      </trkpt>
      <trkpt lat="42.9704" lon="-0.10228">
        <ele>1099.2</ele>
        <time>2022-05-01T07:46:32Z</time>
      </trkpt>
      <trkpt lat="42.97037" lon="-0.10225">
        <ele>1099.6</ele>
        <time>2022-05-01T07:46:34Z</time>
      </trkpt>
      <trkpt lat="42.97029" lon="-0.10221">
        <ele>1100.2</ele>
        <time>2022-05-01T07:46:38Z</time>
      </trkpt>
      <trkpt lat="42.9702" lon="-0.1022">
        <ele>1101.4</ele>
        <time>2022-05-01T07:46:43Z</time>
      </trkpt>
      <trkpt lat="42.97011" lon="-0.10222">
        <ele>1102.4</ele>
        <time>2022-05-01T07:46:48Z</time>
      </trkpt>
      <trkpt lat="42.97009" lon="-0.10223">
        <ele>1102.8</ele>
        <time>2022-05-01T07:46:50Z</time>
      </trkpt>
      <trkpt lat="42.96999" lon="-0.10228">
        <ele>1103.4</ele>
        <time>2022-05-01T07:46:56Z</time>
      </trkpt>
      <trkpt lat="42.96997" lon="-0.10229">
        <ele>1103.6</ele>
        <time>2022-05-01T07:46:57Z</time>
      </trkpt>
      <trkpt lat="42.96989" lon="-0.10232">
        <ele>1104.6</ele>
        <time>2022-05-01T07:47:04Z</time>
      </trkpt>
      <trkpt lat="42.96979" lon="-0.10231">
        <ele>1105.4</ele>
        <time>2022-05-01T07:47:09Z</time>
      </trkpt>
      <trkpt lat="42.96972" lon="-0.10229">
        <ele>1105.6</ele>
        <time>2022-05-01T07:47:12Z</time>
      </trkpt>
      <trkpt lat="42.9696" lon="-0.10225">
        <ele>1106.2</ele>
        <time>2022-05-01T07:47:17Z</time>
      </trkpt>
      <trkpt lat="42.96956" lon="-0.10223">
        <ele>1106.6</ele>
        <time>2022-05-01T07:47:19Z</time>
      </trkpt>
      <trkpt lat="42.96946" lon="-0.10217">
        <ele>1107.6</ele>
        <time>2022-05-01T07:47:24Z</time>
      </trkpt>
      <trkpt lat="42.96944" lon="-0.10215">
        <ele>1107.6</ele>
        <time>2022-05-01T07:47:25Z</time>
      </trkpt>
      <trkpt lat="42.96936" lon="-0.10206">
        <ele>1108.2</ele>
        <time>2022-05-01T07:47:30Z</time>
      </trkpt>
      <trkpt lat="42.96928" lon="-0.10193">
        <ele>1108.6</ele>
        <time>2022-05-01T07:47:36Z</time>
      </trkpt>
      <trkpt lat="42.96926" lon="-0.10191">
        <ele>1108.8</ele>
        <time>2022-05-01T07:47:37Z</time>
      </trkpt>
      <trkpt lat="42.96922" lon="-0.10178">
        <ele>1108.8</ele>
        <time>2022-05-01T07:47:42Z</time>
      </trkpt>
      <trkpt lat="42.96914" lon="-0.10162">
        <ele>1109.8</ele>
        <time>2022-05-01T07:47:49Z</time>
      </trkpt>
      <trkpt lat="42.96913" lon="-0.1016">
        <ele>1110</ele>
        <time>2022-05-01T07:47:50Z</time>
      </trkpt>
      <trkpt lat="42.96902" lon="-0.10154">
        <ele>1110.6</ele>
        <time>2022-05-01T07:47:56Z</time>
      </trkpt>
      <trkpt lat="42.96897" lon="-0.10156">
        <ele>1110.8</ele>
        <time>2022-05-01T07:47:59Z</time>
      </trkpt>
      <trkpt lat="42.96894" lon="-0.10159">
        <ele>1111.2</ele>
        <time>2022-05-01T07:48:01Z</time>
      </trkpt>
      <trkpt lat="42.96893" lon="-0.10166">
        <ele>1111.8</ele>
        <time>2022-05-01T07:48:04Z</time>
      </trkpt>
      <trkpt lat="42.96894" lon="-0.1017">
        <ele>1112.2</ele>
        <time>2022-05-01T07:48:06Z</time>
      </trkpt>
      <trkpt lat="42.96899" lon="-0.10181">
        <ele>1113</ele>
        <time>2022-05-01T07:48:11Z</time>
      </trkpt>
      <trkpt lat="42.96901" lon="-0.10183">
        <ele>1113.2</ele>
        <time>2022-05-01T07:48:12Z</time>
      </trkpt>
      <trkpt lat="42.96908" lon="-0.10195">
        <ele>1114</ele>
        <time>2022-05-01T07:48:18Z</time>
      </trkpt>
      <trkpt lat="42.9691" lon="-0.10197">
        <ele>1114.4</ele>
        <time>2022-05-01T07:48:19Z</time>
      </trkpt>
      <trkpt lat="42.96916" lon="-0.10203">
        <ele>1115.2</ele>
        <time>2022-05-01T07:48:23Z</time>
      </trkpt>
      <trkpt lat="42.96917" lon="-0.10205">
        <ele>1115.2</ele>
        <time>2022-05-01T07:48:24Z</time>
      </trkpt>
      <trkpt lat="42.96919" lon="-0.10214">
        <ele>1116</ele>
        <time>2022-05-01T07:48:29Z</time>
      </trkpt>
      <trkpt lat="42.9692" lon="-0.10218">
        <ele>1116.2</ele>
        <time>2022-05-01T07:48:31Z</time>
      </trkpt>
      <trkpt lat="42.96921" lon="-0.1022">
        <ele>1116</ele>
        <time>2022-05-01T07:48:32Z</time>
      </trkpt>
      <trkpt lat="42.96926" lon="-0.10229">
        <ele>1117</ele>
        <time>2022-05-01T07:48:36Z</time>
      </trkpt>
      <trkpt lat="42.96926" lon="-0.10231">
        <ele>1117</ele>
        <time>2022-05-01T07:48:37Z</time>
      </trkpt>
      <trkpt lat="42.9693" lon="-0.10239">
        <ele>1117.6</ele>
        <time>2022-05-01T07:48:41Z</time>
      </trkpt>
      <trkpt lat="42.96932" lon="-0.10245">
        <ele>1118.2</ele>
        <time>2022-05-01T07:48:44Z</time>
      </trkpt>
      <trkpt lat="42.96934" lon="-0.10251">
        <ele>1118.6</ele>
        <time>2022-05-01T07:48:47Z</time>
      </trkpt>
      <trkpt lat="42.96936" lon="-0.10255">
        <ele>1119</ele>
        <time>2022-05-01T07:48:49Z</time>
      </trkpt>
      <trkpt lat="42.96939" lon="-0.10259">
        <ele>1119.2</ele>
        <time>2022-05-01T07:48:51Z</time>
      </trkpt>
      <trkpt lat="42.96943" lon="-0.10261">
        <ele>1119.4</ele>
        <time>2022-05-01T07:48:52Z</time>
      </trkpt>
      <trkpt lat="42.9695" lon="-0.10271">
        <ele>1120.2</ele>
        <time>2022-05-01T07:48:58Z</time>
      </trkpt>
      <trkpt lat="42.96952" lon="-0.10272">
        <ele>1120.6</ele>
        <time>2022-05-01T07:48:59Z</time>
      </trkpt>
      <trkpt lat="42.96959" lon="-0.10277">
        <ele>1121.4</ele>
        <time>2022-05-01T07:49:03Z</time>
      </trkpt>
      <trkpt lat="42.96968" lon="-0.10284">
        <ele>1122.6</ele>
        <time>2022-05-01T07:49:09Z</time>
      </trkpt>
      <trkpt lat="42.96977" lon="-0.1029">
        <ele>1123.8</ele>
        <time>2022-05-01T07:49:14Z</time>
      </trkpt>
      <trkpt lat="42.96983" lon="-0.10302">
        <ele>1124.8</ele>
        <time>2022-05-01T07:49:20Z</time>
      </trkpt>
      <trkpt lat="42.96984" lon="-0.10304">
        <ele>1124.8</ele>
        <time>2022-05-01T07:49:21Z</time>
      </trkpt>
      <trkpt lat="42.96985" lon="-0.10306">
        <ele>1125</ele>
        <time>2022-05-01T07:49:22Z</time>
      </trkpt>
      <trkpt lat="42.96988" lon="-0.10317">
        <ele>1125.8</ele>
        <time>2022-05-01T07:49:26Z</time>
      </trkpt>
      <trkpt lat="42.96988" lon="-0.10319">
        <ele>1125.8</ele>
        <time>2022-05-01T07:49:27Z</time>
      </trkpt>
      <trkpt lat="42.96989" lon="-0.10334">
        <ele>1127</ele>
        <time>2022-05-01T07:49:33Z</time>
      </trkpt>
      <trkpt lat="42.9699" lon="-0.10341">
        <ele>1127.4</ele>
        <time>2022-05-01T07:49:36Z</time>
      </trkpt>
      <trkpt lat="42.96992" lon="-0.10353">
        <ele>1128</ele>
        <time>2022-05-01T07:49:41Z</time>
      </trkpt>
      <trkpt lat="42.96993" lon="-0.10358">
        <ele>1128.4</ele>
        <time>2022-05-01T07:49:43Z</time>
      </trkpt>
      <trkpt lat="42.96995" lon="-0.10371">
        <ele>1129</ele>
        <time>2022-05-01T07:49:48Z</time>
      </trkpt>
      <trkpt lat="42.96996" lon="-0.10376">
        <ele>1129.6</ele>
        <time>2022-05-01T07:49:50Z</time>
      </trkpt>
      <trkpt lat="42.96998" lon="-0.10386">
        <ele>1130.2</ele>
        <time>2022-05-01T07:49:54Z</time>
      </trkpt>
      <trkpt lat="42.96998" lon="-0.104">
        <ele>1131.4</ele>
        <time>2022-05-01T07:50:00Z</time>
      </trkpt>
      <trkpt lat="42.96999" lon="-0.10418">
        <ele>1132.6</ele>
        <time>2022-05-01T07:50:07Z</time>
      </trkpt>
      <trkpt lat="42.96999" lon="-0.10421">
        <ele>1132.8</ele>
        <time>2022-05-01T07:50:08Z</time>
      </trkpt>
      <trkpt lat="42.96997" lon="-0.10434">
        <ele>1133.6</ele>
        <time>2022-05-01T07:50:13Z</time>
      </trkpt>
      <trkpt lat="42.96997" lon="-0.1044">
        <ele>1134.2</ele>
        <time>2022-05-01T07:50:15Z</time>
      </trkpt>
      <trkpt lat="42.96997" lon="-0.1045">
        <ele>1134.8</ele>
        <time>2022-05-01T07:50:19Z</time>
      </trkpt>
      <trkpt lat="42.96999" lon="-0.10462">
        <ele>1135.6</ele>
        <time>2022-05-01T07:50:23Z</time>
      </trkpt>
      <trkpt lat="42.97" lon="-0.10465">
        <ele>1135.6</ele>
        <time>2022-05-01T07:50:24Z</time>
      </trkpt>
      <trkpt lat="42.97001" lon="-0.1047">
        <ele>1136</ele>
        <time>2022-05-01T07:50:26Z</time>
      </trkpt>
      <trkpt lat="42.97001" lon="-0.10476">
        <ele>1136.6</ele>
        <time>2022-05-01T07:50:28Z</time>
      </trkpt>
      <trkpt lat="42.97002" lon="-0.10479">
        <ele>1136.8</ele>
        <time>2022-05-01T07:50:29Z</time>
      </trkpt>
      <trkpt lat="42.97003" lon="-0.10482">
        <ele>1137.2</ele>
        <time>2022-05-01T07:50:30Z</time>
      </trkpt>
      <trkpt lat="42.97004" lon="-0.1049">
        <ele>1137.8</ele>
        <time>2022-05-01T07:50:33Z</time>
      </trkpt>
      <trkpt lat="42.97006" lon="-0.10495">
        <ele>1138.2</ele>
        <time>2022-05-01T07:50:35Z</time>
      </trkpt>
      <trkpt lat="42.97011" lon="-0.10504">
        <ele>1138.6</ele>
        <time>2022-05-01T07:50:38Z</time>
      </trkpt>
      <trkpt lat="42.97015" lon="-0.10515">
        <ele>1139.4</ele>
        <time>2022-05-01T07:50:42Z</time>
      </trkpt>
      <trkpt lat="42.97016" lon="-0.10521">
        <ele>1139.6</ele>
        <time>2022-05-01T07:50:45Z</time>
      </trkpt>
      <trkpt lat="42.97019" lon="-0.10528">
        <ele>1140.2</ele>
        <time>2022-05-01T07:50:48Z</time>
      </trkpt>
      <trkpt lat="42.97022" lon="-0.10534">
        <ele>1141</ele>
        <time>2022-05-01T07:50:51Z</time>
      </trkpt>
      <trkpt lat="42.97026" lon="-0.1054">
        <ele>1141.2</ele>
        <time>2022-05-01T07:50:54Z</time>
      </trkpt>
      <trkpt lat="42.97029" lon="-0.10543">
        <ele>1141.6</ele>
        <time>2022-05-01T07:50:56Z</time>
      </trkpt>
      <trkpt lat="42.97031" lon="-0.10544">
        <ele>1141.8</ele>
        <time>2022-05-01T07:50:57Z</time>
      </trkpt>
      <trkpt lat="42.97042" lon="-0.10552">
        <ele>1142.4</ele>
        <time>2022-05-01T07:51:03Z</time>
      </trkpt>
      <trkpt lat="42.97057" lon="-0.10565">
        <ele>1143.4</ele>
        <time>2022-05-01T07:51:12Z</time>
      </trkpt>
      <trkpt lat="42.97059" lon="-0.10567">
        <ele>1143.6</ele>
        <time>2022-05-01T07:51:13Z</time>
      </trkpt>
      <trkpt lat="42.97066" lon="-0.10585">
        <ele>1144.6</ele>
        <time>2022-05-01T07:51:21Z</time>
      </trkpt>
      <trkpt lat="42.97067" lon="-0.10587">
        <ele>1144.8</ele>
        <time>2022-05-01T07:51:22Z</time>
      </trkpt>
      <trkpt lat="42.97066" lon="-0.10595">
        <ele>1145</ele>
        <time>2022-05-01T07:51:25Z</time>
      </trkpt>
      <trkpt lat="42.97063" lon="-0.10599">
        <ele>1145.2</ele>
        <time>2022-05-01T07:51:27Z</time>
      </trkpt>
      <trkpt lat="42.97056" lon="-0.106">
        <ele>1145.8</ele>
        <time>2022-05-01T07:51:31Z</time>
      </trkpt>
      <trkpt lat="42.97054" lon="-0.10599">
        <ele>1145.8</ele>
        <time>2022-05-01T07:51:32Z</time>
      </trkpt>
      <trkpt lat="42.97052" lon="-0.10598">
        <ele>1146</ele>
        <time>2022-05-01T07:51:33Z</time>
      </trkpt>
      <trkpt lat="42.97046" lon="-0.10593">
        <ele>1146.4</ele>
        <time>2022-05-01T07:51:37Z</time>
      </trkpt>
      <trkpt lat="42.97039" lon="-0.10586">
        <ele>1147</ele>
        <time>2022-05-01T07:51:42Z</time>
      </trkpt>
      <trkpt lat="42.97036" lon="-0.10583">
        <ele>1147.4</ele>
        <time>2022-05-01T07:51:44Z</time>
      </trkpt>
      <trkpt lat="42.9703" lon="-0.10577">
        <ele>1148.2</ele>
        <time>2022-05-01T07:51:48Z</time>
      </trkpt>
      <trkpt lat="42.97025" lon="-0.10573">
        <ele>1148.8</ele>
        <time>2022-05-01T07:51:51Z</time>
      </trkpt>
      <trkpt lat="42.97021" lon="-0.10569">
        <ele>1149.4</ele>
        <time>2022-05-01T07:51:54Z</time>
      </trkpt>
      <trkpt lat="42.97014" lon="-0.10562">
        <ele>1149.8</ele>
        <time>2022-05-01T07:51:59Z</time>
      </trkpt>
      <trkpt lat="42.97011" lon="-0.10559">
        <ele>1150.4</ele>
        <time>2022-05-01T07:52:01Z</time>
      </trkpt>
      <trkpt lat="42.97001" lon="-0.10548">
        <ele>1151.4</ele>
        <time>2022-05-01T07:52:07Z</time>
      </trkpt>
      <trkpt lat="42.97" lon="-0.10546">
        <ele>1151.4</ele>
        <time>2022-05-01T07:52:08Z</time>
      </trkpt>
      <trkpt lat="42.96989" lon="-0.10534">
        <ele>1152.4</ele>
        <time>2022-05-01T07:52:15Z</time>
      </trkpt>
      <trkpt lat="42.96987" lon="-0.10532">
        <ele>1152.4</ele>
        <time>2022-05-01T07:52:16Z</time>
      </trkpt>
      <trkpt lat="42.96977" lon="-0.1052">
        <ele>1153.4</ele>
        <time>2022-05-01T07:52:23Z</time>
      </trkpt>
      <trkpt lat="42.96973" lon="-0.10517">
        <ele>1153.6</ele>
        <time>2022-05-01T07:52:25Z</time>
      </trkpt>
      <trkpt lat="42.96967" lon="-0.10507">
        <ele>1154.6</ele>
        <time>2022-05-01T07:52:30Z</time>
      </trkpt>
      <trkpt lat="42.96964" lon="-0.10501">
        <ele>1155</ele>
        <time>2022-05-01T07:52:33Z</time>
      </trkpt>
      <trkpt lat="42.96961" lon="-0.10495">
        <ele>1155.8</ele>
        <time>2022-05-01T07:52:36Z</time>
      </trkpt>
      <trkpt lat="42.96957" lon="-0.10489">
        <ele>1156.6</ele>
        <time>2022-05-01T07:52:40Z</time>
      </trkpt>
      <trkpt lat="42.96955" lon="-0.10485">
        <ele>1156.6</ele>
        <time>2022-05-01T07:52:42Z</time>
      </trkpt>
      <trkpt lat="42.96948" lon="-0.10472">
        <ele>1157.8</ele>
        <time>2022-05-01T07:52:48Z</time>
      </trkpt>
      <trkpt lat="42.96947" lon="-0.1047">
        <ele>1158</ele>
        <time>2022-05-01T07:52:49Z</time>
      </trkpt>
      <trkpt lat="42.96943" lon="-0.10456">
        <ele>1159</ele>
        <time>2022-05-01T07:52:55Z</time>
      </trkpt>
      <trkpt lat="42.96938" lon="-0.1044">
        <ele>1160.2</ele>
        <time>2022-05-01T07:53:02Z</time>
      </trkpt>
      <trkpt lat="42.96936" lon="-0.10436">
        <ele>1160.8</ele>
        <time>2022-05-01T07:53:04Z</time>
      </trkpt>
      <trkpt lat="42.96932" lon="-0.10428">
        <ele>1161.6</ele>
        <time>2022-05-01T07:53:08Z</time>
      </trkpt>
      <trkpt lat="42.96929" lon="-0.10422">
        <ele>1162</ele>
        <time>2022-05-01T07:53:11Z</time>
      </trkpt>
      <trkpt lat="42.96927" lon="-0.10416">
        <ele>1162.6</ele>
        <time>2022-05-01T07:53:14Z</time>
      </trkpt>
      <trkpt lat="42.96925" lon="-0.10412">
        <ele>1163</ele>
        <time>2022-05-01T07:53:16Z</time>
      </trkpt>
      <trkpt lat="42.96924" lon="-0.1041">
        <ele>1163.2</ele>
        <time>2022-05-01T07:53:17Z</time>
      </trkpt>
      <trkpt lat="42.96922" lon="-0.10404">
        <ele>1163.8</ele>
        <time>2022-05-01T07:53:20Z</time>
      </trkpt>
      <trkpt lat="42.96918" lon="-0.10396">
        <ele>1164.8</ele>
        <time>2022-05-01T07:53:24Z</time>
      </trkpt>
      <trkpt lat="42.96912" lon="-0.10387">
        <ele>1166</ele>
        <time>2022-05-01T07:53:29Z</time>
      </trkpt>
      <trkpt lat="42.96906" lon="-0.1038">
        <ele>1166.6</ele>
        <time>2022-05-01T07:53:33Z</time>
      </trkpt>
      <trkpt lat="42.96901" lon="-0.10377">
        <ele>1167</ele>
        <time>2022-05-01T07:53:36Z</time>
      </trkpt>
      <trkpt lat="42.96896" lon="-0.10373">
        <ele>1167.6</ele>
        <time>2022-05-01T07:53:39Z</time>
      </trkpt>
      <trkpt lat="42.96891" lon="-0.10368">
        <ele>1168</ele>
        <time>2022-05-01T07:53:42Z</time>
      </trkpt>
      <trkpt lat="42.96884" lon="-0.1036">
        <ele>1169</ele>
        <time>2022-05-01T07:53:47Z</time>
      </trkpt>
      <trkpt lat="42.96883" lon="-0.10359">
        <ele>1169.2</ele>
        <time>2022-05-01T07:53:48Z</time>
      </trkpt>
      <trkpt lat="42.96874" lon="-0.10354">
        <ele>1170.2</ele>
        <time>2022-05-01T07:53:53Z</time>
      </trkpt>
      <trkpt lat="42.96872" lon="-0.10353">
        <ele>1170.4</ele>
        <time>2022-05-01T07:53:54Z</time>
      </trkpt>
      <trkpt lat="42.96865" lon="-0.10347">
        <ele>1171.2</ele>
        <time>2022-05-01T07:53:58Z</time>
      </trkpt>
      <trkpt lat="42.96858" lon="-0.1034">
        <ele>1172.2</ele>
        <time>2022-05-01T07:54:03Z</time>
      </trkpt>
      <trkpt lat="42.96856" lon="-0.10338">
        <ele>1172.2</ele>
        <time>2022-05-01T07:54:04Z</time>
      </trkpt>
      <trkpt lat="42.96846" lon="-0.10327">
        <ele>1173.6</ele>
        <time>2022-05-01T07:54:11Z</time>
      </trkpt>
      <trkpt lat="42.96838" lon="-0.10317">
        <ele>1174.6</ele>
        <time>2022-05-01T07:54:16Z</time>
      </trkpt>
      <trkpt lat="42.96834" lon="-0.10313">
        <ele>1175.2</ele>
        <time>2022-05-01T07:54:19Z</time>
      </trkpt>
      <trkpt lat="42.9683" lon="-0.1031">
        <ele>1175.4</ele>
        <time>2022-05-01T07:54:21Z</time>
      </trkpt>
      <trkpt lat="42.96828" lon="-0.10305">
        <ele>1175.6</ele>
        <time>2022-05-01T07:54:23Z</time>
      </trkpt>
      <trkpt lat="42.96825" lon="-0.10299">
        <ele>1176</ele>
        <time>2022-05-01T07:54:26Z</time>
      </trkpt>
      <trkpt lat="42.96822" lon="-0.10293">
        <ele>1176.6</ele>
        <time>2022-05-01T07:54:29Z</time>
      </trkpt>
      <trkpt lat="42.96817" lon="-0.10282">
        <ele>1177.6</ele>
        <time>2022-05-01T07:54:34Z</time>
      </trkpt>
      <trkpt lat="42.96816" lon="-0.1028">
        <ele>1177.6</ele>
        <time>2022-05-01T07:54:35Z</time>
      </trkpt>
      <trkpt lat="42.96808" lon="-0.10264">
        <ele>1178.8</ele>
        <time>2022-05-01T07:54:42Z</time>
      </trkpt>
      <trkpt lat="42.96806" lon="-0.10261">
        <ele>1179.2</ele>
        <time>2022-05-01T07:54:44Z</time>
      </trkpt>
      <trkpt lat="42.96803" lon="-0.10256">
        <ele>1180</ele>
        <time>2022-05-01T07:54:47Z</time>
      </trkpt>
      <trkpt lat="42.96798" lon="-0.10245">
        <ele>1180.6</ele>
        <time>2022-05-01T07:54:52Z</time>
      </trkpt>
      <trkpt lat="42.96796" lon="-0.10238">
        <ele>1181</ele>
        <time>2022-05-01T07:54:55Z</time>
      </trkpt>
      <trkpt lat="42.96792" lon="-0.10227">
        <ele>1181.8</ele>
        <time>2022-05-01T07:55:00Z</time>
      </trkpt>
      <trkpt lat="42.96791" lon="-0.10225">
        <ele>1182</ele>
        <time>2022-05-01T07:55:01Z</time>
      </trkpt>
      <trkpt lat="42.96786" lon="-0.10211">
        <ele>1183</ele>
        <time>2022-05-01T07:55:07Z</time>
      </trkpt>
      <trkpt lat="42.96783" lon="-0.10204">
        <ele>1183.4</ele>
        <time>2022-05-01T07:55:10Z</time>
      </trkpt>
      <trkpt lat="42.96781" lon="-0.10199">
        <ele>1184</ele>
        <time>2022-05-01T07:55:12Z</time>
      </trkpt>
      <trkpt lat="42.9678" lon="-0.10196">
        <ele>1184.2</ele>
        <time>2022-05-01T07:55:13Z</time>
      </trkpt>
      <trkpt lat="42.96773" lon="-0.10182">
        <ele>1185.4</ele>
        <time>2022-05-01T07:55:19Z</time>
      </trkpt>
      <trkpt lat="42.96767" lon="-0.1017">
        <ele>1186.6</ele>
        <time>2022-05-01T07:55:25Z</time>
      </trkpt>
      <trkpt lat="42.96762" lon="-0.10162">
        <ele>1187.2</ele>
        <time>2022-05-01T07:55:29Z</time>
      </trkpt>
      <trkpt lat="42.96759" lon="-0.10158">
        <ele>1187.8</ele>
        <time>2022-05-01T07:55:31Z</time>
      </trkpt>
      <trkpt lat="42.96753" lon="-0.10148">
        <ele>1188.8</ele>
        <time>2022-05-01T07:55:36Z</time>
      </trkpt>
      <trkpt lat="42.96747" lon="-0.10136">
        <ele>1189.8</ele>
        <time>2022-05-01T07:55:42Z</time>
      </trkpt>
      <trkpt lat="42.96744" lon="-0.1013">
        <ele>1190.6</ele>
        <time>2022-05-01T07:55:45Z</time>
      </trkpt>
      <trkpt lat="42.9674" lon="-0.10124">
        <ele>1191</ele>
        <time>2022-05-01T07:55:48Z</time>
      </trkpt>
      <trkpt lat="42.96736" lon="-0.10118">
        <ele>1191.6</ele>
        <time>2022-05-01T07:55:51Z</time>
      </trkpt>
      <trkpt lat="42.96732" lon="-0.1011">
        <ele>1192.2</ele>
        <time>2022-05-01T07:55:55Z</time>
      </trkpt>
      <trkpt lat="42.96728" lon="-0.10097">
        <ele>1192.6</ele>
        <time>2022-05-01T07:56:00Z</time>
      </trkpt>
      <trkpt lat="42.96723" lon="-0.10085">
        <ele>1193.2</ele>
        <time>2022-05-01T07:56:05Z</time>
      </trkpt>
      <trkpt lat="42.96718" lon="-0.10074">
        <ele>1194.4</ele>
        <time>2022-05-01T07:56:10Z</time>
      </trkpt>
      <trkpt lat="42.96715" lon="-0.10067">
        <ele>1195</ele>
        <time>2022-05-01T07:56:13Z</time>
      </trkpt>
      <trkpt lat="42.96711" lon="-0.10062">
        <ele>1195.6</ele>
        <time>2022-05-01T07:56:16Z</time>
      </trkpt>
      <trkpt lat="42.96709" lon="-0.10058">
        <ele>1195.8</ele>
        <time>2022-05-01T07:56:18Z</time>
      </trkpt>
      <trkpt lat="42.96707" lon="-0.10054">
        <ele>1196</ele>
        <time>2022-05-01T07:56:20Z</time>
      </trkpt>
      <trkpt lat="42.96701" lon="-0.10047">
        <ele>1196.6</ele>
        <time>2022-05-01T07:56:24Z</time>
      </trkpt>
      <trkpt lat="42.96696" lon="-0.10039">
        <ele>1197.6</ele>
        <time>2022-05-01T07:56:28Z</time>
      </trkpt>
      <trkpt lat="42.96695" lon="-0.10037">
        <ele>1198</ele>
        <time>2022-05-01T07:56:29Z</time>
      </trkpt>
      <trkpt lat="42.96684" lon="-0.10022">
        <ele>1199.2</ele>
        <time>2022-05-01T07:56:37Z</time>
      </trkpt>
      <trkpt lat="42.96682" lon="-0.10019">
        <ele>1199.2</ele>
        <time>2022-05-01T07:56:38Z</time>
      </trkpt>
      <trkpt lat="42.96672" lon="-0.10008">
        <ele>1200.4</ele>
        <time>2022-05-01T07:56:45Z</time>
      </trkpt>
      <trkpt lat="42.96666" lon="-0.09999">
        <ele>1201.6</ele>
        <time>2022-05-01T07:56:50Z</time>
      </trkpt>
      <trkpt lat="42.96659" lon="-0.09991">
        <ele>1202.4</ele>
        <time>2022-05-01T07:56:55Z</time>
      </trkpt>
      <trkpt lat="42.96654" lon="-0.09987">
        <ele>1202.8</ele>
        <time>2022-05-01T07:56:58Z</time>
      </trkpt>
      <trkpt lat="42.96647" lon="-0.09979">
        <ele>1203.4</ele>
        <time>2022-05-01T07:57:03Z</time>
      </trkpt>
      <trkpt lat="42.96644" lon="-0.09976">
        <ele>1203.8</ele>
        <time>2022-05-01T07:57:05Z</time>
      </trkpt>
      <trkpt lat="42.96637" lon="-0.09968">
        <ele>1204.6</ele>
        <time>2022-05-01T07:57:10Z</time>
      </trkpt>
      <trkpt lat="42.96632" lon="-0.09963">
        <ele>1205</ele>
        <time>2022-05-01T07:57:13Z</time>
      </trkpt>
      <trkpt lat="42.96629" lon="-0.0996">
        <ele>1205.6</ele>
        <time>2022-05-01T07:57:15Z</time>
      </trkpt>
      <trkpt lat="42.96625" lon="-0.09956">
        <ele>1206</ele>
        <time>2022-05-01T07:57:18Z</time>
      </trkpt>
      <trkpt lat="42.96624" lon="-0.09955">
        <ele>1206.2</ele>
        <time>2022-05-01T07:57:19Z</time>
      </trkpt>
      <trkpt lat="42.96614" lon="-0.09945">
        <ele>1207.2</ele>
        <time>2022-05-01T07:57:26Z</time>
      </trkpt>
      <trkpt lat="42.96611" lon="-0.09941">
        <ele>1207.4</ele>
        <time>2022-05-01T07:57:28Z</time>
      </trkpt>
      <trkpt lat="42.96605" lon="-0.09935">
        <ele>1208.2</ele>
        <time>2022-05-01T07:57:32Z</time>
      </trkpt>
      <trkpt lat="42.96597" lon="-0.09924">
        <ele>1209</ele>
        <time>2022-05-01T07:57:38Z</time>
      </trkpt>
      <trkpt lat="42.96594" lon="-0.09918">
        <ele>1209.4</ele>
        <time>2022-05-01T07:57:41Z</time>
      </trkpt>
      <trkpt lat="42.96592" lon="-0.09917">
        <ele>1209.6</ele>
        <time>2022-05-01T07:57:42Z</time>
      </trkpt>
      <trkpt lat="42.96588" lon="-0.09911">
        <ele>1210</ele>
        <time>2022-05-01T07:57:45Z</time>
      </trkpt>
      <trkpt lat="42.96584" lon="-0.09904">
        <ele>1210.4</ele>
        <time>2022-05-01T07:57:48Z</time>
      </trkpt>
      <trkpt lat="42.96572" lon="-0.09892">
        <ele>1211.2</ele>
        <time>2022-05-01T07:57:55Z</time>
      </trkpt>
      <trkpt lat="42.96569" lon="-0.09892">
        <ele>1211.6</ele>
        <time>2022-05-01T07:57:57Z</time>
      </trkpt>
      <trkpt lat="42.96565" lon="-0.09895">
        <ele>1212.2</ele>
        <time>2022-05-01T07:58:00Z</time>
      </trkpt>
      <trkpt lat="42.96565" lon="-0.09905">
        <ele>1212.8</ele>
        <time>2022-05-01T07:58:05Z</time>
      </trkpt>
      <trkpt lat="42.96566" lon="-0.09907">
        <ele>1213</ele>
        <time>2022-05-01T07:58:06Z</time>
      </trkpt>
      <trkpt lat="42.96568" lon="-0.09911">
        <ele>1213.6</ele>
        <time>2022-05-01T07:58:08Z</time>
      </trkpt>
      <trkpt lat="42.96572" lon="-0.09913">
        <ele>1214</ele>
        <time>2022-05-01T07:58:10Z</time>
      </trkpt>
      <trkpt lat="42.96575" lon="-0.09916">
        <ele>1214.6</ele>
        <time>2022-05-01T07:58:12Z</time>
      </trkpt>
      <trkpt lat="42.9658" lon="-0.0992">
        <ele>1215.2</ele>
        <time>2022-05-01T07:58:15Z</time>
      </trkpt>
      <trkpt lat="42.96589" lon="-0.09931">
        <ele>1216.2</ele>
        <time>2022-05-01T07:58:21Z</time>
      </trkpt>
      <trkpt lat="42.96591" lon="-0.09935">
        <ele>1216.4</ele>
        <time>2022-05-01T07:58:23Z</time>
      </trkpt>
      <trkpt lat="42.96598" lon="-0.09944">
        <ele>1216.8</ele>
        <time>2022-05-01T07:58:28Z</time>
      </trkpt>
      <trkpt lat="42.96607" lon="-0.09961">
        <ele>1217.4</ele>
        <time>2022-05-01T07:58:36Z</time>
      </trkpt>
      <trkpt lat="42.96612" lon="-0.09975">
        <ele>1218.4</ele>
        <time>2022-05-01T07:58:42Z</time>
      </trkpt>
      <trkpt lat="42.96614" lon="-0.09982">
        <ele>1218.8</ele>
        <time>2022-05-01T07:58:45Z</time>
      </trkpt>
      <trkpt lat="42.96618" lon="-0.0999">
        <ele>1219.6</ele>
        <time>2022-05-01T07:58:49Z</time>
      </trkpt>
      <trkpt lat="42.96619" lon="-0.09993">
        <ele>1220</ele>
        <time>2022-05-01T07:58:50Z</time>
      </trkpt>
      <trkpt lat="42.96622" lon="-0.09999">
        <ele>1220.4</ele>
        <time>2022-05-01T07:58:53Z</time>
      </trkpt>
      <trkpt lat="42.96626" lon="-0.10006">
        <ele>1220.6</ele>
        <time>2022-05-01T07:58:56Z</time>
      </trkpt>
      <trkpt lat="42.9663" lon="-0.10011">
        <ele>1221</ele>
        <time>2022-05-01T07:58:59Z</time>
      </trkpt>
      <trkpt lat="42.96634" lon="-0.1002">
        <ele>1221.8</ele>
        <time>2022-05-01T07:59:04Z</time>
      </trkpt>
      <trkpt lat="42.96635" lon="-0.10023">
        <ele>1221.8</ele>
        <time>2022-05-01T07:59:05Z</time>
      </trkpt>
      <trkpt lat="42.96637" lon="-0.10032">
        <ele>1222.8</ele>
        <time>2022-05-01T07:59:09Z</time>
      </trkpt>
      <trkpt lat="42.96642" lon="-0.10045">
        <ele>1223.8</ele>
        <time>2022-05-01T07:59:15Z</time>
      </trkpt>
      <trkpt lat="42.96646" lon="-0.10058">
        <ele>1225</ele>
        <time>2022-05-01T07:59:21Z</time>
      </trkpt>
      <trkpt lat="42.96647" lon="-0.1006">
        <ele>1225.2</ele>
        <time>2022-05-01T07:59:22Z</time>
      </trkpt>
      <trkpt lat="42.96649" lon="-0.10064">
        <ele>1226</ele>
        <time>2022-05-01T07:59:24Z</time>
      </trkpt>
      <trkpt lat="42.96649" lon="-0.10066">
        <ele>1226.2</ele>
        <time>2022-05-01T07:59:25Z</time>
      </trkpt>
      <trkpt lat="42.96651" lon="-0.10073">
        <ele>1226.8</ele>
        <time>2022-05-01T07:59:28Z</time>
      </trkpt>
      <trkpt lat="42.96653" lon="-0.10076">
        <ele>1227.4</ele>
        <time>2022-05-01T07:59:30Z</time>
      </trkpt>
      <trkpt lat="42.96655" lon="-0.10087">
        <ele>1228.4</ele>
        <time>2022-05-01T07:59:35Z</time>
      </trkpt>
      <trkpt lat="42.96655" lon="-0.10089">
        <ele>1228.4</ele>
        <time>2022-05-01T07:59:36Z</time>
      </trkpt>
      <trkpt lat="42.96657" lon="-0.10103">
        <ele>1229.6</ele>
        <time>2022-05-01T07:59:43Z</time>
      </trkpt>
      <trkpt lat="42.9666" lon="-0.10114">
        <ele>1230.6</ele>
        <time>2022-05-01T07:59:49Z</time>
      </trkpt>
      <trkpt lat="42.96661" lon="-0.10123">
        <ele>1231.4</ele>
        <time>2022-05-01T07:59:53Z</time>
      </trkpt>
      <trkpt lat="42.96661" lon="-0.10128">
        <ele>1231.8</ele>
        <time>2022-05-01T07:59:55Z</time>
      </trkpt>
      <trkpt lat="42.9666" lon="-0.10145">
        <ele>1233</ele>
        <time>2022-05-01T08:00:02Z</time>
      </trkpt>
      <trkpt lat="42.96662" lon="-0.10163">
        <ele>1234.2</ele>
        <time>2022-05-01T08:00:09Z</time>
      </trkpt>
      <trkpt lat="42.96662" lon="-0.10171">
        <ele>1234.6</ele>
        <time>2022-05-01T08:00:12Z</time>
      </trkpt>
      <trkpt lat="42.96663" lon="-0.10183">
        <ele>1235.4</ele>
        <time>2022-05-01T08:00:17Z</time>
      </trkpt>
      <trkpt lat="42.96665" lon="-0.10196">
        <ele>1236.2</ele>
        <time>2022-05-01T08:00:22Z</time>
      </trkpt>
      <trkpt lat="42.96665" lon="-0.10198">
        <ele>1236.4</ele>
        <time>2022-05-01T08:00:23Z</time>
      </trkpt>
      <trkpt lat="42.96666" lon="-0.10219">
        <ele>1237.6</ele>
        <time>2022-05-01T08:00:31Z</time>
      </trkpt>
      <trkpt lat="42.96665" lon="-0.10232">
        <ele>1238.8</ele>
        <time>2022-05-01T08:00:36Z</time>
      </trkpt>
      <trkpt lat="42.96663" lon="-0.10241">
        <ele>1239.4</ele>
        <time>2022-05-01T08:00:40Z</time>
      </trkpt>
      <trkpt lat="42.96662" lon="-0.1025">
        <ele>1239.8</ele>
        <time>2022-05-01T08:00:44Z</time>
      </trkpt>
      <trkpt lat="42.96661" lon="-0.10258">
        <ele>1240.2</ele>
        <time>2022-05-01T08:00:47Z</time>
      </trkpt>
      <trkpt lat="42.96659" lon="-0.10267">
        <ele>1240.8</ele>
        <time>2022-05-01T08:00:51Z</time>
      </trkpt>
      <trkpt lat="42.96656" lon="-0.10276">
        <ele>1241.4</ele>
        <time>2022-05-01T08:00:55Z</time>
      </trkpt>
      <trkpt lat="42.96655" lon="-0.1028">
        <ele>1241.6</ele>
        <time>2022-05-01T08:00:57Z</time>
      </trkpt>
      <trkpt lat="42.96654" lon="-0.10287">
        <ele>1242</ele>
        <time>2022-05-01T08:01:00Z</time>
      </trkpt>
      <trkpt lat="42.96653" lon="-0.1029">
        <ele>1242.2</ele>
        <time>2022-05-01T08:01:01Z</time>
      </trkpt>
      <trkpt lat="42.96652" lon="-0.10302">
        <ele>1243.2</ele>
        <time>2022-05-01T08:01:06Z</time>
      </trkpt>
      <trkpt lat="42.96652" lon="-0.10311">
        <ele>1243.6</ele>
        <time>2022-05-01T08:01:10Z</time>
      </trkpt>
      <trkpt lat="42.96651" lon="-0.10321">
        <ele>1244.2</ele>
        <time>2022-05-01T08:01:14Z</time>
      </trkpt>
      <trkpt lat="42.96652" lon="-0.10334">
        <ele>1245</ele>
        <time>2022-05-01T08:01:20Z</time>
      </trkpt>
      <trkpt lat="42.96652" lon="-0.10337">
        <ele>1245.2</ele>
        <time>2022-05-01T08:01:21Z</time>
      </trkpt>
      <trkpt lat="42.96653" lon="-0.10347">
        <ele>1246.4</ele>
        <time>2022-05-01T08:01:26Z</time>
      </trkpt>
      <trkpt lat="42.96654" lon="-0.10356">
        <ele>1246.8</ele>
        <time>2022-05-01T08:01:30Z</time>
      </trkpt>
      <trkpt lat="42.96655" lon="-0.10362">
        <ele>1247.6</ele>
        <time>2022-05-01T08:01:33Z</time>
      </trkpt>
      <trkpt lat="42.96656" lon="-0.10372">
        <ele>1248</ele>
        <time>2022-05-01T08:01:37Z</time>
      </trkpt>
      <trkpt lat="42.96656" lon="-0.10377">
        <ele>1248.6</ele>
        <time>2022-05-01T08:01:39Z</time>
      </trkpt>
      <trkpt lat="42.96657" lon="-0.10392">
        <ele>1250</ele>
        <time>2022-05-01T08:01:46Z</time>
      </trkpt>
      <trkpt lat="42.96657" lon="-0.10394">
        <ele>1250.2</ele>
        <time>2022-05-01T08:01:47Z</time>
      </trkpt>
      <trkpt lat="42.96659" lon="-0.10405">
        <ele>1251.2</ele>
        <time>2022-05-01T08:01:52Z</time>
      </trkpt>
      <trkpt lat="42.9666" lon="-0.10411">
        <ele>1251.8</ele>
        <time>2022-05-01T08:01:55Z</time>
      </trkpt>
      <trkpt lat="42.96661" lon="-0.10415">
        <ele>1252.2</ele>
        <time>2022-05-01T08:01:57Z</time>
      </trkpt>
      <trkpt lat="42.96664" lon="-0.10429">
        <ele>1253.4</ele>
        <time>2022-05-01T08:02:03Z</time>
      </trkpt>
      <trkpt lat="42.96665" lon="-0.10434">
        <ele>1253.6</ele>
        <time>2022-05-01T08:02:05Z</time>
      </trkpt>
      <trkpt lat="42.96665" lon="-0.10437">
        <ele>1253.8</ele>
        <time>2022-05-01T08:02:06Z</time>
      </trkpt>
      <trkpt lat="42.96667" lon="-0.10447">
        <ele>1254.4</ele>
        <time>2022-05-01T08:02:10Z</time>
      </trkpt>
      <trkpt lat="42.9667" lon="-0.10456">
        <ele>1255.2</ele>
        <time>2022-05-01T08:02:14Z</time>
      </trkpt>
      <trkpt lat="42.9667" lon="-0.10461">
        <ele>1255.6</ele>
        <time>2022-05-01T08:02:16Z</time>
      </trkpt>
      <trkpt lat="42.96672" lon="-0.10472">
        <ele>1256.4</ele>
        <time>2022-05-01T08:02:21Z</time>
      </trkpt>
      <trkpt lat="42.96672" lon="-0.10475">
        <ele>1256.6</ele>
        <time>2022-05-01T08:02:22Z</time>
      </trkpt>
      <trkpt lat="42.96673" lon="-0.10494">
        <ele>1257.8</ele>
        <time>2022-05-01T08:02:30Z</time>
      </trkpt>
      <trkpt lat="42.96673" lon="-0.10508">
        <ele>1258.8</ele>
        <time>2022-05-01T08:02:36Z</time>
      </trkpt>
      <trkpt lat="42.96673" lon="-0.10511">
        <ele>1258.8</ele>
        <time>2022-05-01T08:02:37Z</time>
      </trkpt>
      <trkpt lat="42.96665" lon="-0.10532">
        <ele>1260</ele>
        <time>2022-05-01T08:02:46Z</time>
      </trkpt>
      <trkpt lat="42.96658" lon="-0.10545">
        <ele>1261</ele>
        <time>2022-05-01T08:02:53Z</time>
      </trkpt>
      <trkpt lat="42.96656" lon="-0.10547">
        <ele>1261</ele>
        <time>2022-05-01T08:02:54Z</time>
      </trkpt>
      <trkpt lat="42.96646" lon="-0.10561">
        <ele>1262.2</ele>
        <time>2022-05-01T08:03:02Z</time>
      </trkpt>
      <trkpt lat="42.96639" lon="-0.10577">
        <ele>1263.2</ele>
        <time>2022-05-01T08:03:10Z</time>
      </trkpt>
      <trkpt lat="42.96636" lon="-0.10592">
        <ele>1264.2</ele>
        <time>2022-05-01T08:03:16Z</time>
      </trkpt>
      <trkpt lat="42.96637" lon="-0.10602">
        <ele>1264.8</ele>
        <time>2022-05-01T08:03:20Z</time>
      </trkpt>
      <trkpt lat="42.96638" lon="-0.10609">
        <ele>1265.4</ele>
        <time>2022-05-01T08:03:23Z</time>
      </trkpt>
      <trkpt lat="42.96643" lon="-0.10619">
        <ele>1266</ele>
        <time>2022-05-01T08:03:28Z</time>
      </trkpt>
      <trkpt lat="42.96647" lon="-0.10625">
        <ele>1266.4</ele>
        <time>2022-05-01T08:03:31Z</time>
      </trkpt>
      <trkpt lat="42.96652" lon="-0.10633">
        <ele>1266.6</ele>
        <time>2022-05-01T08:03:35Z</time>
      </trkpt>
      <trkpt lat="42.96657" lon="-0.10641">
        <ele>1267.4</ele>
        <time>2022-05-01T08:03:39Z</time>
      </trkpt>
      <trkpt lat="42.96665" lon="-0.10651">
        <ele>1268</ele>
        <time>2022-05-01T08:03:45Z</time>
      </trkpt>
      <trkpt lat="42.96667" lon="-0.10653">
        <ele>1268.2</ele>
        <time>2022-05-01T08:03:46Z</time>
      </trkpt>
      <trkpt lat="42.96673" lon="-0.10658">
        <ele>1268.6</ele>
        <time>2022-05-01T08:03:50Z</time>
      </trkpt>
      <trkpt lat="42.96684" lon="-0.10669">
        <ele>1269.2</ele>
        <time>2022-05-01T08:03:57Z</time>
      </trkpt>
      <trkpt lat="42.96686" lon="-0.10673">
        <ele>1269.6</ele>
        <time>2022-05-01T08:03:59Z</time>
      </trkpt>
      <trkpt lat="42.96692" lon="-0.10686">
        <ele>1270.2</ele>
        <time>2022-05-01T08:04:05Z</time>
      </trkpt>
      <trkpt lat="42.96695" lon="-0.10697">
        <ele>1271</ele>
        <time>2022-05-01T08:04:09Z</time>
      </trkpt>
      <trkpt lat="42.96694" lon="-0.10706">
        <ele>1271.6</ele>
        <time>2022-05-01T08:04:13Z</time>
      </trkpt>
      <trkpt lat="42.96691" lon="-0.10709">
        <ele>1271.8</ele>
        <time>2022-05-01T08:04:15Z</time>
      </trkpt>
      <trkpt lat="42.96688" lon="-0.10711">
        <ele>1272</ele>
        <time>2022-05-01T08:04:17Z</time>
      </trkpt>
      <trkpt lat="42.96686" lon="-0.10711">
        <ele>1272.2</ele>
        <time>2022-05-01T08:04:18Z</time>
      </trkpt>
      <trkpt lat="42.96675" lon="-0.10701">
        <ele>1272.8</ele>
        <time>2022-05-01T08:04:25Z</time>
      </trkpt>
      <trkpt lat="42.96673" lon="-0.10697">
        <ele>1273</ele>
        <time>2022-05-01T08:04:27Z</time>
      </trkpt>
      <trkpt lat="42.96666" lon="-0.10685">
        <ele>1273.8</ele>
        <time>2022-05-01T08:04:33Z</time>
      </trkpt>
      <trkpt lat="42.96662" lon="-0.10676">
        <ele>1274</ele>
        <time>2022-05-01T08:04:37Z</time>
      </trkpt>
      <trkpt lat="42.96654" lon="-0.10666">
        <ele>1274.6</ele>
        <time>2022-05-01T08:04:43Z</time>
      </trkpt>
      <trkpt lat="42.9665" lon="-0.10661">
        <ele>1275</ele>
        <time>2022-05-01T08:04:46Z</time>
      </trkpt>
      <trkpt lat="42.96642" lon="-0.10652">
        <ele>1276</ele>
        <time>2022-05-01T08:04:52Z</time>
      </trkpt>
      <trkpt lat="42.96641" lon="-0.10651">
        <ele>1276.4</ele>
        <time>2022-05-01T08:04:53Z</time>
      </trkpt>
      <trkpt lat="42.96631" lon="-0.10641">
        <ele>1277.4</ele>
        <time>2022-05-01T08:05:00Z</time>
      </trkpt>
      <trkpt lat="42.96629" lon="-0.1064">
        <ele>1277.6</ele>
        <time>2022-05-01T08:05:01Z</time>
      </trkpt>
      <trkpt lat="42.96619" lon="-0.10631">
        <ele>1278.8</ele>
        <time>2022-05-01T08:05:08Z</time>
      </trkpt>
      <trkpt lat="42.96616" lon="-0.10629">
        <ele>1279</ele>
        <time>2022-05-01T08:05:10Z</time>
      </trkpt>
      <trkpt lat="42.96608" lon="-0.10622">
        <ele>1279.8</ele>
        <time>2022-05-01T08:05:15Z</time>
      </trkpt>
      <trkpt lat="42.96602" lon="-0.10616">
        <ele>1280.4</ele>
        <time>2022-05-01T08:05:19Z</time>
      </trkpt>
      <trkpt lat="42.96599" lon="-0.10614">
        <ele>1280.8</ele>
        <time>2022-05-01T08:05:21Z</time>
      </trkpt>
      <trkpt lat="42.96586" lon="-0.10603">
        <ele>1281.8</ele>
        <time>2022-05-01T08:05:29Z</time>
      </trkpt>
      <trkpt lat="42.96583" lon="-0.106">
        <ele>1282.2</ele>
        <time>2022-05-01T08:05:31Z</time>
      </trkpt>
      <trkpt lat="42.96577" lon="-0.10593">
        <ele>1282.8</ele>
        <time>2022-05-01T08:05:35Z</time>
      </trkpt>
      <trkpt lat="42.96571" lon="-0.10586">
        <ele>1283.6</ele>
        <time>2022-05-01T08:05:39Z</time>
      </trkpt>
      <trkpt lat="42.96566" lon="-0.1058">
        <ele>1284</ele>
        <time>2022-05-01T08:05:42Z</time>
      </trkpt>
      <trkpt lat="42.96558" lon="-0.10569">
        <ele>1284.4</ele>
        <time>2022-05-01T08:05:48Z</time>
      </trkpt>
      <trkpt lat="42.96555" lon="-0.10558">
        <ele>1285</ele>
        <time>2022-05-01T08:05:52Z</time>
      </trkpt>
      <trkpt lat="42.96555" lon="-0.10548">
        <ele>1285.4</ele>
        <time>2022-05-01T08:05:55Z</time>
      </trkpt>
      <trkpt lat="42.96558" lon="-0.10534">
        <ele>1286</ele>
        <time>2022-05-01T08:06:00Z</time>
      </trkpt>
      <trkpt lat="42.96561" lon="-0.10522">
        <ele>1286.4</ele>
        <time>2022-05-01T08:06:04Z</time>
      </trkpt>
      <trkpt lat="42.96571" lon="-0.10501">
        <ele>1287</ele>
        <time>2022-05-01T08:06:13Z</time>
      </trkpt>
      <trkpt lat="42.96572" lon="-0.10499">
        <ele>1287.2</ele>
        <time>2022-05-01T08:06:14Z</time>
      </trkpt>
      <trkpt lat="42.96581" lon="-0.10479">
        <ele>1288</ele>
        <time>2022-05-01T08:06:22Z</time>
      </trkpt>
      <trkpt lat="42.96586" lon="-0.10453">
        <ele>1289</ele>
        <time>2022-05-01T08:06:32Z</time>
      </trkpt>
      <trkpt lat="42.96587" lon="-0.10435">
        <ele>1290</ele>
        <time>2022-05-01T08:06:39Z</time>
      </trkpt>
      <trkpt lat="42.96586" lon="-0.10422">
        <ele>1290</ele>
        <time>2022-05-01T08:06:44Z</time>
      </trkpt>
      <trkpt lat="42.96584" lon="-0.10409">
        <ele>1290.4</ele>
        <time>2022-05-01T08:06:49Z</time>
      </trkpt>
      <trkpt lat="42.9658" lon="-0.10394">
        <ele>1291.2</ele>
        <time>2022-05-01T08:06:56Z</time>
      </trkpt>
      <trkpt lat="42.96579" lon="-0.10391">
        <ele>1291.2</ele>
        <time>2022-05-01T08:06:57Z</time>
      </trkpt>
      <trkpt lat="42.96572" lon="-0.10375">
        <ele>1292.4</ele>
        <time>2022-05-01T08:07:04Z</time>
      </trkpt>
      <trkpt lat="42.9657" lon="-0.10374">
        <ele>1292.4</ele>
        <time>2022-05-01T08:07:05Z</time>
      </trkpt>
      <trkpt lat="42.96569" lon="-0.10372">
        <ele>1292.6</ele>
        <time>2022-05-01T08:07:06Z</time>
      </trkpt>
      <trkpt lat="42.96557" lon="-0.10363">
        <ele>1293.2</ele>
        <time>2022-05-01T08:07:13Z</time>
      </trkpt>
      <trkpt lat="42.96556" lon="-0.10362">
        <ele>1293.4</ele>
        <time>2022-05-01T08:07:14Z</time>
      </trkpt>
      <trkpt lat="42.96543" lon="-0.1035">
        <ele>1294.4</ele>
        <time>2022-05-01T08:07:22Z</time>
      </trkpt>
      <trkpt lat="42.96541" lon="-0.10348">
        <ele>1294.6</ele>
        <time>2022-05-01T08:07:23Z</time>
      </trkpt>
      <trkpt lat="42.96532" lon="-0.10336">
        <ele>1295.4</ele>
        <time>2022-05-01T08:07:30Z</time>
      </trkpt>
      <trkpt lat="42.96531" lon="-0.10334">
        <ele>1295.8</ele>
        <time>2022-05-01T08:07:31Z</time>
      </trkpt>
      <trkpt lat="42.96526" lon="-0.10325">
        <ele>1296.8</ele>
        <time>2022-05-01T08:07:36Z</time>
      </trkpt>
      <trkpt lat="42.96519" lon="-0.10316">
        <ele>1298</ele>
        <time>2022-05-01T08:07:42Z</time>
      </trkpt>
      <trkpt lat="42.96517" lon="-0.10314">
        <ele>1298</ele>
        <time>2022-05-01T08:07:43Z</time>
      </trkpt>
      <trkpt lat="42.9651" lon="-0.10299">
        <ele>1299</ele>
        <time>2022-05-01T08:07:50Z</time>
      </trkpt>
      <trkpt lat="42.96509" lon="-0.10297">
        <ele>1299.2</ele>
        <time>2022-05-01T08:07:51Z</time>
      </trkpt>
      <trkpt lat="42.96504" lon="-0.10283">
        <ele>1300.2</ele>
        <time>2022-05-01T08:07:57Z</time>
      </trkpt>
      <trkpt lat="42.96502" lon="-0.10278">
        <ele>1300.8</ele>
        <time>2022-05-01T08:08:00Z</time>
      </trkpt>
      <trkpt lat="42.96499" lon="-0.10272">
        <ele>1301.2</ele>
        <time>2022-05-01T08:08:03Z</time>
      </trkpt>
      <trkpt lat="42.96495" lon="-0.10265">
        <ele>1301.8</ele>
        <time>2022-05-01T08:08:07Z</time>
      </trkpt>
      <trkpt lat="42.96491" lon="-0.10257">
        <ele>1302.4</ele>
        <time>2022-05-01T08:08:11Z</time>
      </trkpt>
      <trkpt lat="42.96487" lon="-0.10246">
        <ele>1303.6</ele>
        <time>2022-05-01T08:08:16Z</time>
      </trkpt>
      <trkpt lat="42.96485" lon="-0.1024">
        <ele>1304.2</ele>
        <time>2022-05-01T08:08:19Z</time>
      </trkpt>
      <trkpt lat="42.96483" lon="-0.10234">
        <ele>1304.8</ele>
        <time>2022-05-01T08:08:22Z</time>
      </trkpt>
      <trkpt lat="42.96478" lon="-0.10225">
        <ele>1305.6</ele>
        <time>2022-05-01T08:08:27Z</time>
      </trkpt>
      <trkpt lat="42.96477" lon="-0.10223">
        <ele>1305.8</ele>
        <time>2022-05-01T08:08:28Z</time>
      </trkpt>
      <trkpt lat="42.96471" lon="-0.10208">
        <ele>1306.6</ele>
        <time>2022-05-01T08:08:35Z</time>
      </trkpt>
      <trkpt lat="42.96466" lon="-0.10198">
        <ele>1307.8</ele>
        <time>2022-05-01T08:08:40Z</time>
      </trkpt>
      <trkpt lat="42.96462" lon="-0.10188">
        <ele>1308.8</ele>
        <time>2022-05-01T08:08:45Z</time>
      </trkpt>
      <trkpt lat="42.96461" lon="-0.10186">
        <ele>1309</ele>
        <time>2022-05-01T08:08:46Z</time>
      </trkpt>
      <trkpt lat="42.96457" lon="-0.10176">
        <ele>1309.8</ele>
        <time>2022-05-01T08:08:51Z</time>
      </trkpt>
      <trkpt lat="42.96451" lon="-0.10162">
        <ele>1310.8</ele>
        <time>2022-05-01T08:08:58Z</time>
      </trkpt>
      <trkpt lat="42.96445" lon="-0.10148">
        <ele>1311.8</ele>
        <time>2022-05-01T08:09:05Z</time>
      </trkpt>
      <trkpt lat="42.96441" lon="-0.1014">
        <ele>1312.6</ele>
        <time>2022-05-01T08:09:09Z</time>
      </trkpt>
      <trkpt lat="42.96439" lon="-0.10136">
        <ele>1313</ele>
        <time>2022-05-01T08:09:11Z</time>
      </trkpt>
      <trkpt lat="42.96432" lon="-0.1012">
        <ele>1314</ele>
        <time>2022-05-01T08:09:19Z</time>
      </trkpt>
      <trkpt lat="42.96425" lon="-0.10108">
        <ele>1315</ele>
        <time>2022-05-01T08:09:26Z</time>
      </trkpt>
      <trkpt lat="42.96424" lon="-0.10107">
        <ele>1315.2</ele>
        <time>2022-05-01T08:09:27Z</time>
      </trkpt>
      <trkpt lat="42.96418" lon="-0.10094">
        <ele>1316.2</ele>
        <time>2022-05-01T08:09:34Z</time>
      </trkpt>
      <trkpt lat="42.96416" lon="-0.1009">
        <ele>1316.6</ele>
        <time>2022-05-01T08:09:36Z</time>
      </trkpt>
      <trkpt lat="42.9641" lon="-0.10081">
        <ele>1317.4</ele>
        <time>2022-05-01T08:09:41Z</time>
      </trkpt>
      <trkpt lat="42.96402" lon="-0.10068">
        <ele>1318.4</ele>
        <time>2022-05-01T08:09:48Z</time>
      </trkpt>
      <trkpt lat="42.96394" lon="-0.10053">
        <ele>1319.6</ele>
        <time>2022-05-01T08:09:55Z</time>
      </trkpt>
      <trkpt lat="42.96391" lon="-0.10048">
        <ele>1320.2</ele>
        <time>2022-05-01T08:09:58Z</time>
      </trkpt>
      <trkpt lat="42.96387" lon="-0.10039">
        <ele>1320.6</ele>
        <time>2022-05-01T08:10:02Z</time>
      </trkpt>
      <trkpt lat="42.96382" lon="-0.10031">
        <ele>1321.6</ele>
        <time>2022-05-01T08:10:06Z</time>
      </trkpt>
      <trkpt lat="42.96378" lon="-0.10024">
        <ele>1322</ele>
        <time>2022-05-01T08:10:09Z</time>
      </trkpt>
      <trkpt lat="42.96371" lon="-0.10005">
        <ele>1322.8</ele>
        <time>2022-05-01T08:10:17Z</time>
      </trkpt>
      <trkpt lat="42.96369" lon="-0.1">
        <ele>1323</ele>
        <time>2022-05-01T08:10:19Z</time>
      </trkpt>
      <trkpt lat="42.96366" lon="-0.09985">
        <ele>1323.6</ele>
        <time>2022-05-01T08:10:25Z</time>
      </trkpt>
      <trkpt lat="42.96364" lon="-0.09977">
        <ele>1324</ele>
        <time>2022-05-01T08:10:28Z</time>
      </trkpt>
      <trkpt lat="42.96361" lon="-0.09964">
        <ele>1324.8</ele>
        <time>2022-05-01T08:10:33Z</time>
      </trkpt>
      <trkpt lat="42.96361" lon="-0.09961">
        <ele>1325</ele>
        <time>2022-05-01T08:10:34Z</time>
      </trkpt>
      <trkpt lat="42.96356" lon="-0.09941">
        <ele>1326.2</ele>
        <time>2022-05-01T08:10:42Z</time>
      </trkpt>
      <trkpt lat="42.96353" lon="-0.09932">
        <ele>1326.6</ele>
        <time>2022-05-01T08:10:46Z</time>
      </trkpt>
      <trkpt lat="42.96348" lon="-0.09919">
        <ele>1327.2</ele>
        <time>2022-05-01T08:10:52Z</time>
      </trkpt>
      <trkpt lat="42.96347" lon="-0.09917">
        <ele>1327.2</ele>
        <time>2022-05-01T08:10:53Z</time>
      </trkpt>
      <trkpt lat="42.96338" lon="-0.09899">
        <ele>1328</ele>
        <time>2022-05-01T08:11:01Z</time>
      </trkpt>
      <trkpt lat="42.96335" lon="-0.09893">
        <ele>1328.2</ele>
        <time>2022-05-01T08:11:04Z</time>
      </trkpt>
      <trkpt lat="42.96329" lon="-0.09883">
        <ele>1328.6</ele>
        <time>2022-05-01T08:11:09Z</time>
      </trkpt>
      <trkpt lat="42.96322" lon="-0.09872">
        <ele>1329.2</ele>
        <time>2022-05-01T08:11:15Z</time>
      </trkpt>
      <trkpt lat="42.9632" lon="-0.09871">
        <ele>1329.4</ele>
        <time>2022-05-01T08:11:16Z</time>
      </trkpt>
      <trkpt lat="42.96318" lon="-0.0987">
        <ele>1329.4</ele>
        <time>2022-05-01T08:11:17Z</time>
      </trkpt>
      <trkpt lat="42.963" lon="-0.09872">
        <ele>1329.6</ele>
        <time>2022-05-01T08:11:26Z</time>
      </trkpt>
      <trkpt lat="42.96289" lon="-0.0988">
        <ele>1330.6</ele>
        <time>2022-05-01T08:11:33Z</time>
      </trkpt>
      <trkpt lat="42.96284" lon="-0.09886">
        <ele>1331</ele>
        <time>2022-05-01T08:11:38Z</time>
      </trkpt>
      <trkpt lat="42.96283" lon="-0.09885">
        <ele>1331</ele>
        <time>2022-05-01T08:11:39Z</time>
      </trkpt>
      <trkpt lat="42.96282" lon="-0.09883">
        <ele>1331.6</ele>
        <time>2022-05-01T08:11:41Z</time>
      </trkpt>
      <trkpt lat="42.96282" lon="-0.09881">
        <ele>1331.8</ele>
        <time>2022-05-01T08:11:42Z</time>
      </trkpt>
      <trkpt lat="42.96283" lon="-0.0988">
        <ele>1331.8</ele>
        <time>2022-05-01T08:11:43Z</time>
      </trkpt>
      <trkpt lat="42.96284" lon="-0.09878">
        <ele>1331.8</ele>
        <time>2022-05-01T08:11:44Z</time>
      </trkpt>
      <trkpt lat="42.96295" lon="-0.09873">
        <ele>1332</ele>
        <time>2022-05-01T08:11:50Z</time>
      </trkpt>
      <trkpt lat="42.96307" lon="-0.09864">
        <ele>1331.4</ele>
        <time>2022-05-01T08:11:56Z</time>
      </trkpt>
      <trkpt lat="42.96309" lon="-0.09863">
        <ele>1331</ele>
        <time>2022-05-01T08:12:01Z</time>
      </trkpt>
      <trkpt lat="42.96309" lon="-0.09863">
        <ele>1330.8</ele>
        <time>2022-05-01T08:12:06Z</time>
      </trkpt>
      <trkpt lat="42.96309" lon="-0.09863">
        <ele>1330.6</ele>
        <time>2022-05-01T08:12:11Z</time>
      </trkpt>
      <trkpt lat="42.96309" lon="-0.09863">
        <ele>1330</ele>
        <time>2022-05-01T08:13:27Z</time>
      </trkpt>
      <trkpt lat="42.96309" lon="-0.09863">
        <ele>1330.2</ele>
        <time>2022-05-01T08:14:13Z</time>
      </trkpt>
      <trkpt lat="42.96309" lon="-0.09863">
        <ele>1331</ele>
        <time>2022-05-01T08:15:36Z</time>
      </trkpt>
      <trkpt lat="42.96309" lon="-0.09863">
        <ele>1329.4</ele>
        <time>2022-05-01T08:17:24Z</time>
      </trkpt>
      <trkpt lat="42.96309" lon="-0.09863">
        <ele>1329.2</ele>
        <time>2022-05-01T08:17:53Z</time>
      </trkpt>
      <trkpt lat="42.96309" lon="-0.09863">
        <ele>1329.2</ele>
        <time>2022-05-01T08:18:19Z</time>
      </trkpt>
      <trkpt lat="42.96309" lon="-0.09863">
        <ele>1330</ele>
        <time>2022-05-01T08:18:41Z</time>
      </trkpt>
      <trkpt lat="42.96307" lon="-0.09866">
        <ele>1330.2</ele>
        <time>2022-05-01T08:18:46Z</time>
      </trkpt>
      <trkpt lat="42.96302" lon="-0.09868">
        <ele>1330.2</ele>
        <time>2022-05-01T08:18:54Z</time>
      </trkpt>
      <trkpt lat="42.9629" lon="-0.09875">
        <ele>1330.4</ele>
        <time>2022-05-01T08:19:01Z</time>
      </trkpt>
      <trkpt lat="42.96284" lon="-0.09879">
        <ele>1330.6</ele>
        <time>2022-05-01T08:19:05Z</time>
      </trkpt>
      <trkpt lat="42.96277" lon="-0.09883">
        <ele>1331</ele>
        <time>2022-05-01T08:19:09Z</time>
      </trkpt>
      <trkpt lat="42.96275" lon="-0.09884">
        <ele>1331</ele>
        <time>2022-05-01T08:19:10Z</time>
      </trkpt>
      <trkpt lat="42.96258" lon="-0.09893">
        <ele>1331.6</ele>
        <time>2022-05-01T08:19:19Z</time>
      </trkpt>
      <trkpt lat="42.96253" lon="-0.09898">
        <ele>1332</ele>
        <time>2022-05-01T08:19:22Z</time>
      </trkpt>
      <trkpt lat="42.96245" lon="-0.09904">
        <ele>1332</ele>
        <time>2022-05-01T08:19:26Z</time>
      </trkpt>
      <trkpt lat="42.96232" lon="-0.09913">
        <ele>1332.2</ele>
        <time>2022-05-01T08:19:32Z</time>
      </trkpt>
      <trkpt lat="42.96216" lon="-0.09933">
        <ele>1332</ele>
        <time>2022-05-01T08:19:37Z</time>
      </trkpt>
      <trkpt lat="42.96207" lon="-0.09945">
        <ele>1331</ele>
        <time>2022-05-01T08:19:41Z</time>
      </trkpt>
      <trkpt lat="42.96198" lon="-0.09961">
        <ele>1329.6</ele>
        <time>2022-05-01T08:19:45Z</time>
      </trkpt>
      <trkpt lat="42.96196" lon="-0.09967">
        <ele>1329.4</ele>
        <time>2022-05-01T08:19:46Z</time>
      </trkpt>
      <trkpt lat="42.96194" lon="-0.09975">
        <ele>1329</ele>
        <time>2022-05-01T08:19:47Z</time>
      </trkpt>
      <trkpt lat="42.96193" lon="-0.09983">
        <ele>1328.6</ele>
        <time>2022-05-01T08:19:48Z</time>
      </trkpt>
      <trkpt lat="42.96192" lon="-0.09992">
        <ele>1327.6</ele>
        <time>2022-05-01T08:19:49Z</time>
      </trkpt>
      <trkpt lat="42.9619" lon="-0.10001">
        <ele>1327.2</ele>
        <time>2022-05-01T08:19:50Z</time>
      </trkpt>
      <trkpt lat="42.96187" lon="-0.10016">
        <ele>1326.6</ele>
        <time>2022-05-01T08:19:52Z</time>
      </trkpt>
      <trkpt lat="42.96186" lon="-0.10028">
        <ele>1326</ele>
        <time>2022-05-01T08:19:54Z</time>
      </trkpt>
      <trkpt lat="42.96184" lon="-0.10049">
        <ele>1325.8</ele>
        <time>2022-05-01T08:19:59Z</time>
      </trkpt>
      <trkpt lat="42.96177" lon="-0.10082">
        <ele>1326</ele>
        <time>2022-05-01T08:20:08Z</time>
      </trkpt>
      <trkpt lat="42.96168" lon="-0.10108">
        <ele>1326.2</ele>
        <time>2022-05-01T08:20:13Z</time>
      </trkpt>
      <trkpt lat="42.96158" lon="-0.10135">
        <ele>1325.8</ele>
        <time>2022-05-01T08:20:17Z</time>
      </trkpt>
      <trkpt lat="42.96154" lon="-0.10151">
        <ele>1325.2</ele>
        <time>2022-05-01T08:20:19Z</time>
      </trkpt>
      <trkpt lat="42.96149" lon="-0.10179">
        <ele>1323.6</ele>
        <time>2022-05-01T08:20:22Z</time>
      </trkpt>
      <trkpt lat="42.96142" lon="-0.10198">
        <ele>1322.6</ele>
        <time>2022-05-01T08:20:24Z</time>
      </trkpt>
      <trkpt lat="42.96126" lon="-0.10221">
        <ele>1319.8</ele>
        <time>2022-05-01T08:20:27Z</time>
      </trkpt>
      <trkpt lat="42.9612" lon="-0.10228">
        <ele>1319.4</ele>
        <time>2022-05-01T08:20:28Z</time>
      </trkpt>
      <trkpt lat="42.96114" lon="-0.10236">
        <ele>1318.8</ele>
        <time>2022-05-01T08:20:29Z</time>
      </trkpt>
      <trkpt lat="42.96109" lon="-0.10245">
        <ele>1318.4</ele>
        <time>2022-05-01T08:20:30Z</time>
      </trkpt>
      <trkpt lat="42.96105" lon="-0.10254">
        <ele>1317.4</ele>
        <time>2022-05-01T08:20:31Z</time>
      </trkpt>
      <trkpt lat="42.96102" lon="-0.10263">
        <ele>1316.6</ele>
        <time>2022-05-01T08:20:32Z</time>
      </trkpt>
      <trkpt lat="42.96099" lon="-0.10274">
        <ele>1316.4</ele>
        <time>2022-05-01T08:20:33Z</time>
      </trkpt>
      <trkpt lat="42.9609" lon="-0.10304">
        <ele>1315</ele>
        <time>2022-05-01T08:20:36Z</time>
      </trkpt>
      <trkpt lat="42.96085" lon="-0.1032">
        <ele>1314.4</ele>
        <time>2022-05-01T08:20:38Z</time>
      </trkpt>
      <trkpt lat="42.96082" lon="-0.10332">
        <ele>1314</ele>
        <time>2022-05-01T08:20:40Z</time>
      </trkpt>
      <trkpt lat="42.96078" lon="-0.10349">
        <ele>1313.8</ele>
        <time>2022-05-01T08:20:43Z</time>
      </trkpt>
      <trkpt lat="42.96074" lon="-0.10374">
        <ele>1313.8</ele>
        <time>2022-05-01T08:20:48Z</time>
      </trkpt>
      <trkpt lat="42.96074" lon="-0.10415">
        <ele>1314.4</ele>
        <time>2022-05-01T08:20:56Z</time>
      </trkpt>
      <trkpt lat="42.96075" lon="-0.10451">
        <ele>1314.8</ele>
        <time>2022-05-01T08:21:02Z</time>
      </trkpt>
      <trkpt lat="42.96075" lon="-0.10457">
        <ele>1314.6</ele>
        <time>2022-05-01T08:21:03Z</time>
      </trkpt>
      <trkpt lat="42.96071" lon="-0.10467">
        <ele>1314.6</ele>
        <time>2022-05-01T08:21:05Z</time>
      </trkpt>
      <trkpt lat="42.96063" lon="-0.1047">
        <ele>1314.6</ele>
        <time>2022-05-01T08:21:07Z</time>
      </trkpt>
      <trkpt lat="42.9606" lon="-0.10469">
        <ele>1314.6</ele>
        <time>2022-05-01T08:21:08Z</time>
      </trkpt>
      <trkpt lat="42.96048" lon="-0.10454">
        <ele>1314.8</ele>
        <time>2022-05-01T08:21:13Z</time>
      </trkpt>
      <trkpt lat="42.96032" lon="-0.10427">
        <ele>1315.2</ele>
        <time>2022-05-01T08:21:21Z</time>
      </trkpt>
      <trkpt lat="42.96017" lon="-0.104">
        <ele>1315.4</ele>
        <time>2022-05-01T08:21:28Z</time>
      </trkpt>
      <trkpt lat="42.96013" lon="-0.10392">
        <ele>1315.2</ele>
        <time>2022-05-01T08:21:30Z</time>
      </trkpt>
      <trkpt lat="42.96002" lon="-0.10366">
        <ele>1315.2</ele>
        <time>2022-05-01T08:21:35Z</time>
      </trkpt>
      <trkpt lat="42.95991" lon="-0.10335">
        <ele>1315.2</ele>
        <time>2022-05-01T08:21:42Z</time>
      </trkpt>
      <trkpt lat="42.95975" lon="-0.10302">
        <ele>1314.4</ele>
        <time>2022-05-01T08:21:50Z</time>
      </trkpt>
      <trkpt lat="42.95971" lon="-0.10293">
        <ele>1314</ele>
        <time>2022-05-01T08:21:52Z</time>
      </trkpt>
      <trkpt lat="42.95957" lon="-0.10266">
        <ele>1314</ele>
        <time>2022-05-01T08:21:58Z</time>
      </trkpt>
      <trkpt lat="42.95952" lon="-0.10257">
        <ele>1313.8</ele>
        <time>2022-05-01T08:22:00Z</time>
      </trkpt>
      <trkpt lat="42.95932" lon="-0.10229">
        <ele>1313.6</ele>
        <time>2022-05-01T08:22:06Z</time>
      </trkpt>
      <trkpt lat="42.9592" lon="-0.10213">
        <ele>1312.8</ele>
        <time>2022-05-01T08:22:09Z</time>
      </trkpt>
      <trkpt lat="42.95913" lon="-0.10205">
        <ele>1311.8</ele>
        <time>2022-05-01T08:22:11Z</time>
      </trkpt>
      <trkpt lat="42.9591" lon="-0.10201">
        <ele>1311.6</ele>
        <time>2022-05-01T08:22:12Z</time>
      </trkpt>
      <trkpt lat="42.95902" lon="-0.10194">
        <ele>1310.6</ele>
        <time>2022-05-01T08:22:15Z</time>
      </trkpt>
      <trkpt lat="42.959" lon="-0.10193">
        <ele>1310</ele>
        <time>2022-05-01T08:22:16Z</time>
      </trkpt>
      <trkpt lat="42.95899" lon="-0.10193">
        <ele>1309.4</ele>
        <time>2022-05-01T08:22:17Z</time>
      </trkpt>
      <trkpt lat="42.95898" lon="-0.10192">
        <ele>1308.6</ele>
        <time>2022-05-01T08:22:20Z</time>
      </trkpt>
      <trkpt lat="42.95898" lon="-0.10192">
        <ele>1308.2</ele>
        <time>2022-05-01T08:22:21Z</time>
      </trkpt>
      <trkpt lat="42.95898" lon="-0.10192">
        <ele>1307.8</ele>
        <time>2022-05-01T08:22:23Z</time>
      </trkpt>
      <trkpt lat="42.95898" lon="-0.10193">
        <ele>1307.4</ele>
        <time>2022-05-01T08:22:32Z</time>
      </trkpt>
      <trkpt lat="42.95896" lon="-0.10192">
        <ele>1307.2</ele>
        <time>2022-05-01T08:23:04Z</time>
      </trkpt>
      <trkpt lat="42.95896" lon="-0.10192">
        <ele>1307</ele>
        <time>2022-05-01T08:23:08Z</time>
      </trkpt>
      <trkpt lat="42.95889" lon="-0.10188">
        <ele>1306.8</ele>
        <time>2022-05-01T08:24:23Z</time>
      </trkpt>
      <trkpt lat="42.9588" lon="-0.10184">
        <ele>1306.4</ele>
        <time>2022-05-01T08:24:27Z</time>
      </trkpt>
      <trkpt lat="42.95871" lon="-0.10183">
        <ele>1306.2</ele>
        <time>2022-05-01T08:24:30Z</time>
      </trkpt>
      <trkpt lat="42.95856" lon="-0.10186">
        <ele>1306</ele>
        <time>2022-05-01T08:24:35Z</time>
      </trkpt>
      <trkpt lat="42.95833" lon="-0.10199">
        <ele>1305.6</ele>
        <time>2022-05-01T08:24:41Z</time>
      </trkpt>
      <trkpt lat="42.95829" lon="-0.10201">
        <ele>1305.4</ele>
        <time>2022-05-01T08:24:42Z</time>
      </trkpt>
      <trkpt lat="42.95794" lon="-0.10218">
        <ele>1304.2</ele>
        <time>2022-05-01T08:24:50Z</time>
      </trkpt>
      <trkpt lat="42.95789" lon="-0.1022">
        <ele>1304.2</ele>
        <time>2022-05-01T08:24:51Z</time>
      </trkpt>
      <trkpt lat="42.95772" lon="-0.10227">
        <ele>1303.6</ele>
        <time>2022-05-01T08:24:56Z</time>
      </trkpt>
      <trkpt lat="42.95759" lon="-0.1024">
        <ele>1303.6</ele>
        <time>2022-05-01T08:25:02Z</time>
      </trkpt>
      <trkpt lat="42.95742" lon="-0.10261">
        <ele>1304.2</ele>
        <time>2022-05-01T08:25:09Z</time>
      </trkpt>
      <trkpt lat="42.95723" lon="-0.1028">
        <ele>1304.4</ele>
        <time>2022-05-01T08:25:16Z</time>
      </trkpt>
      <trkpt lat="42.9571" lon="-0.10291">
        <ele>1305</ele>
        <time>2022-05-01T08:25:22Z</time>
      </trkpt>
      <trkpt lat="42.95703" lon="-0.10292">
        <ele>1305.2</ele>
        <time>2022-05-01T08:25:25Z</time>
      </trkpt>
      <trkpt lat="42.95696" lon="-0.10297">
        <ele>1305.8</ele>
        <time>2022-05-01T08:25:28Z</time>
      </trkpt>
      <trkpt lat="42.95679" lon="-0.10306">
        <ele>1306.2</ele>
        <time>2022-05-01T08:25:35Z</time>
      </trkpt>
      <trkpt lat="42.95675" lon="-0.1031">
        <ele>1306.2</ele>
        <time>2022-05-01T08:25:37Z</time>
      </trkpt>
      <trkpt lat="42.95665" lon="-0.10322">
        <ele>1306.4</ele>
        <time>2022-05-01T08:25:42Z</time>
      </trkpt>
      <trkpt lat="42.95649" lon="-0.10342">
        <ele>1307</ele>
        <time>2022-05-01T08:25:50Z</time>
      </trkpt>
      <trkpt lat="42.95636" lon="-0.10355">
        <ele>1307.2</ele>
        <time>2022-05-01T08:25:55Z</time>
      </trkpt>
      <trkpt lat="42.95624" lon="-0.10368">
        <ele>1307.2</ele>
        <time>2022-05-01T08:26:00Z</time>
      </trkpt>
      <trkpt lat="42.95607" lon="-0.10388">
        <ele>1307.4</ele>
        <time>2022-05-01T08:26:08Z</time>
      </trkpt>
      <trkpt lat="42.95602" lon="-0.10396">
        <ele>1307.6</ele>
        <time>2022-05-01T08:26:11Z</time>
      </trkpt>
      <trkpt lat="42.95601" lon="-0.10401">
        <ele>1307.6</ele>
        <time>2022-05-01T08:26:13Z</time>
      </trkpt>
      <trkpt lat="42.95598" lon="-0.10406">
        <ele>1307.8</ele>
        <time>2022-05-01T08:26:15Z</time>
      </trkpt>
      <trkpt lat="42.95595" lon="-0.10409">
        <ele>1307.8</ele>
        <time>2022-05-01T08:26:17Z</time>
      </trkpt>
      <trkpt lat="42.95587" lon="-0.10421">
        <ele>1307.8</ele>
        <time>2022-05-01T08:26:22Z</time>
      </trkpt>
      <trkpt lat="42.95584" lon="-0.10427">
        <ele>1307.8</ele>
        <time>2022-05-01T08:26:24Z</time>
      </trkpt>
      <trkpt lat="42.95568" lon="-0.1045">
        <ele>1307.8</ele>
        <time>2022-05-01T08:26:31Z</time>
      </trkpt>
      <trkpt lat="42.95554" lon="-0.10466">
        <ele>1306.8</ele>
        <time>2022-05-01T08:26:38Z</time>
      </trkpt>
      <trkpt lat="42.95541" lon="-0.10476">
        <ele>1307.2</ele>
        <time>2022-05-01T08:26:45Z</time>
      </trkpt>
      <trkpt lat="42.95534" lon="-0.1048">
        <ele>1307.4</ele>
        <time>2022-05-01T08:26:48Z</time>
      </trkpt>
      <trkpt lat="42.95533" lon="-0.10485">
        <ele>1307.4</ele>
        <time>2022-05-01T08:26:50Z</time>
      </trkpt>
      <trkpt lat="42.95524" lon="-0.10497">
        <ele>1307.6</ele>
        <time>2022-05-01T08:26:56Z</time>
      </trkpt>
      <trkpt lat="42.95509" lon="-0.10511">
        <ele>1307.8</ele>
        <time>2022-05-01T08:27:04Z</time>
      </trkpt>
      <trkpt lat="42.95497" lon="-0.10521">
        <ele>1308.2</ele>
        <time>2022-05-01T08:27:10Z</time>
      </trkpt>
      <trkpt lat="42.95493" lon="-0.10523">
        <ele>1308.2</ele>
        <time>2022-05-01T08:27:12Z</time>
      </trkpt>
      <trkpt lat="42.95475" lon="-0.10537">
        <ele>1308.2</ele>
        <time>2022-05-01T08:27:20Z</time>
      </trkpt>
      <trkpt lat="42.95456" lon="-0.10555">
        <ele>1307.8</ele>
        <time>2022-05-01T08:27:28Z</time>
      </trkpt>
      <trkpt lat="42.95435" lon="-0.10577">
        <ele>1307.6</ele>
        <time>2022-05-01T08:27:37Z</time>
      </trkpt>
      <trkpt lat="42.95418" lon="-0.10597">
        <ele>1307.4</ele>
        <time>2022-05-01T08:27:45Z</time>
      </trkpt>
      <trkpt lat="42.95405" lon="-0.10613">
        <ele>1307.2</ele>
        <time>2022-05-01T08:27:51Z</time>
      </trkpt>
      <trkpt lat="42.954" lon="-0.10619">
        <ele>1307.2</ele>
        <time>2022-05-01T08:27:53Z</time>
      </trkpt>
      <trkpt lat="42.95385" lon="-0.10632">
        <ele>1307.4</ele>
        <time>2022-05-01T08:28:00Z</time>
      </trkpt>
      <trkpt lat="42.95371" lon="-0.10634">
        <ele>1308</ele>
        <time>2022-05-01T08:28:06Z</time>
      </trkpt>
      <trkpt lat="42.95357" lon="-0.10638">
        <ele>1308.2</ele>
        <time>2022-05-01T08:28:12Z</time>
      </trkpt>
      <trkpt lat="42.95349" lon="-0.10641">
        <ele>1308.4</ele>
        <time>2022-05-01T08:28:15Z</time>
      </trkpt>
      <trkpt lat="42.95328" lon="-0.10651">
        <ele>1308.6</ele>
        <time>2022-05-01T08:28:24Z</time>
      </trkpt>
      <trkpt lat="42.95326" lon="-0.10652">
        <ele>1308.6</ele>
        <time>2022-05-01T08:28:25Z</time>
      </trkpt>
      <trkpt lat="42.95308" lon="-0.10663">
        <ele>1308.6</ele>
        <time>2022-05-01T08:28:33Z</time>
      </trkpt>
      <trkpt lat="42.95299" lon="-0.10669">
        <ele>1308.6</ele>
        <time>2022-05-01T08:28:38Z</time>
      </trkpt>
      <trkpt lat="42.95295" lon="-0.1067">
        <ele>1308.6</ele>
        <time>2022-05-01T08:28:41Z</time>
      </trkpt>
      <trkpt lat="42.95293" lon="-0.10669">
        <ele>1308.6</ele>
        <time>2022-05-01T08:28:42Z</time>
      </trkpt>
      <trkpt lat="42.95286" lon="-0.10656">
        <ele>1308.6</ele>
        <time>2022-05-01T08:28:48Z</time>
      </trkpt>
      <trkpt lat="42.95282" lon="-0.10648">
        <ele>1308.4</ele>
        <time>2022-05-01T08:28:51Z</time>
      </trkpt>
      <trkpt lat="42.95278" lon="-0.10633">
        <ele>1308.2</ele>
        <time>2022-05-01T08:28:55Z</time>
      </trkpt>
      <trkpt lat="42.95283" lon="-0.10614">
        <ele>1307.6</ele>
        <time>2022-05-01T08:28:59Z</time>
      </trkpt>
      <trkpt lat="42.95287" lon="-0.10606">
        <ele>1307.2</ele>
        <time>2022-05-01T08:29:01Z</time>
      </trkpt>
      <trkpt lat="42.95294" lon="-0.10597">
        <ele>1306.2</ele>
        <time>2022-05-01T08:29:04Z</time>
      </trkpt>
      <trkpt lat="42.95298" lon="-0.10593">
        <ele>1305</ele>
        <time>2022-05-01T08:29:05Z</time>
      </trkpt>
      <trkpt lat="42.95305" lon="-0.10585">
        <ele>1304</ele>
        <time>2022-05-01T08:29:07Z</time>
      </trkpt>
      <trkpt lat="42.9531" lon="-0.10582">
        <ele>1303.8</ele>
        <time>2022-05-01T08:29:08Z</time>
      </trkpt>
      <trkpt lat="42.95319" lon="-0.10574">
        <ele>1302</ele>
        <time>2022-05-01T08:29:10Z</time>
      </trkpt>
      <trkpt lat="42.95324" lon="-0.10569">
        <ele>1301.4</ele>
        <time>2022-05-01T08:29:11Z</time>
      </trkpt>
      <trkpt lat="42.95328" lon="-0.10565">
        <ele>1300.8</ele>
        <time>2022-05-01T08:29:12Z</time>
      </trkpt>
      <trkpt lat="42.95342" lon="-0.10553">
        <ele>1299.8</ele>
        <time>2022-05-01T08:29:15Z</time>
      </trkpt>
      <trkpt lat="42.95352" lon="-0.10544">
        <ele>1298.4</ele>
        <time>2022-05-01T08:29:17Z</time>
      </trkpt>
      <trkpt lat="42.95356" lon="-0.1054">
        <ele>1297.4</ele>
        <time>2022-05-01T08:29:18Z</time>
      </trkpt>
      <trkpt lat="42.95365" lon="-0.10529">
        <ele>1296.4</ele>
        <time>2022-05-01T08:29:20Z</time>
      </trkpt>
      <trkpt lat="42.95383" lon="-0.10506">
        <ele>1294.6</ele>
        <time>2022-05-01T08:29:24Z</time>
      </trkpt>
      <trkpt lat="42.95393" lon="-0.10493">
        <ele>1293.6</ele>
        <time>2022-05-01T08:29:26Z</time>
      </trkpt>
      <trkpt lat="42.95398" lon="-0.10486">
        <ele>1292.8</ele>
        <time>2022-05-01T08:29:27Z</time>
      </trkpt>
      <trkpt lat="42.95403" lon="-0.1048">
        <ele>1291.6</ele>
        <time>2022-05-01T08:29:28Z</time>
      </trkpt>
      <trkpt lat="42.95409" lon="-0.10473">
        <ele>1290.4</ele>
        <time>2022-05-01T08:29:29Z</time>
      </trkpt>
      <trkpt lat="42.9542" lon="-0.1046">
        <ele>1288.6</ele>
        <time>2022-05-01T08:29:31Z</time>
      </trkpt>
      <trkpt lat="42.95431" lon="-0.10447">
        <ele>1287.4</ele>
        <time>2022-05-01T08:29:33Z</time>
      </trkpt>
      <trkpt lat="42.9544" lon="-0.10433">
        <ele>1286.4</ele>
        <time>2022-05-01T08:29:35Z</time>
      </trkpt>
      <trkpt lat="42.95449" lon="-0.10417">
        <ele>1284.4</ele>
        <time>2022-05-01T08:29:37Z</time>
      </trkpt>
      <trkpt lat="42.95457" lon="-0.10402">
        <ele>1282.6</ele>
        <time>2022-05-01T08:29:39Z</time>
      </trkpt>
      <trkpt lat="42.9546" lon="-0.10393">
        <ele>1282.4</ele>
        <time>2022-05-01T08:29:40Z</time>
      </trkpt>
      <trkpt lat="42.95464" lon="-0.10383">
        <ele>1280.8</ele>
        <time>2022-05-01T08:29:41Z</time>
      </trkpt>
      <trkpt lat="42.95466" lon="-0.10374">
        <ele>1279.4</ele>
        <time>2022-05-01T08:29:42Z</time>
      </trkpt>
      <trkpt lat="42.95468" lon="-0.10368">
        <ele>1278</ele>
        <time>2022-05-01T08:29:43Z</time>
      </trkpt>
      <trkpt lat="42.95475" lon="-0.10352">
        <ele>1276.6</ele>
        <time>2022-05-01T08:29:45Z</time>
      </trkpt>
      <trkpt lat="42.95484" lon="-0.10335">
        <ele>1275.2</ele>
        <time>2022-05-01T08:29:47Z</time>
      </trkpt>
      <trkpt lat="42.9549" lon="-0.10322">
        <ele>1274.2</ele>
        <time>2022-05-01T08:29:49Z</time>
      </trkpt>
      <trkpt lat="42.95492" lon="-0.10318">
        <ele>1273.4</ele>
        <time>2022-05-01T08:29:50Z</time>
      </trkpt>
      <trkpt lat="42.95495" lon="-0.10312">
        <ele>1272.6</ele>
        <time>2022-05-01T08:29:51Z</time>
      </trkpt>
      <trkpt lat="42.95498" lon="-0.10305">
        <ele>1270.6</ele>
        <time>2022-05-01T08:29:52Z</time>
      </trkpt>
      <trkpt lat="42.955" lon="-0.10297">
        <ele>1269.2</ele>
        <time>2022-05-01T08:29:54Z</time>
      </trkpt>
      <trkpt lat="42.95496" lon="-0.10292">
        <ele>1267.4</ele>
        <time>2022-05-01T08:29:56Z</time>
      </trkpt>
      <trkpt lat="42.95493" lon="-0.10292">
        <ele>1267</ele>
        <time>2022-05-01T08:29:57Z</time>
      </trkpt>
      <trkpt lat="42.95491" lon="-0.10293">
        <ele>1266</ele>
        <time>2022-05-01T08:29:58Z</time>
      </trkpt>
      <trkpt lat="42.95485" lon="-0.10298">
        <ele>1264.4</ele>
        <time>2022-05-01T08:30:00Z</time>
      </trkpt>
      <trkpt lat="42.95477" lon="-0.10305">
        <ele>1263.6</ele>
        <time>2022-05-01T08:30:02Z</time>
      </trkpt>
      <trkpt lat="42.95473" lon="-0.10308">
        <ele>1263.4</ele>
        <time>2022-05-01T08:30:03Z</time>
      </trkpt>
      <trkpt lat="42.95466" lon="-0.10315">
        <ele>1262</ele>
        <time>2022-05-01T08:30:05Z</time>
      </trkpt>
      <trkpt lat="42.95455" lon="-0.10324">
        <ele>1261</ele>
        <time>2022-05-01T08:30:07Z</time>
      </trkpt>
      <trkpt lat="42.9545" lon="-0.1033">
        <ele>1260.8</ele>
        <time>2022-05-01T08:30:08Z</time>
      </trkpt>
      <trkpt lat="42.95438" lon="-0.10343">
        <ele>1259.6</ele>
        <time>2022-05-01T08:30:10Z</time>
      </trkpt>
      <trkpt lat="42.95433" lon="-0.10349">
        <ele>1258.4</ele>
        <time>2022-05-01T08:30:11Z</time>
      </trkpt>
      <trkpt lat="42.95422" lon="-0.10361">
        <ele>1257.2</ele>
        <time>2022-05-01T08:30:13Z</time>
      </trkpt>
      <trkpt lat="42.95404" lon="-0.1038">
        <ele>1255.8</ele>
        <time>2022-05-01T08:30:16Z</time>
      </trkpt>
      <trkpt lat="42.95397" lon="-0.10388">
        <ele>1254.4</ele>
        <time>2022-05-01T08:30:17Z</time>
      </trkpt>
      <trkpt lat="42.95392" lon="-0.10394">
        <ele>1253.6</ele>
        <time>2022-05-01T08:30:18Z</time>
      </trkpt>
      <trkpt lat="42.95385" lon="-0.104">
        <ele>1253</ele>
        <time>2022-05-01T08:30:19Z</time>
      </trkpt>
      <trkpt lat="42.95374" lon="-0.10407">
        <ele>1251.4</ele>
        <time>2022-05-01T08:30:21Z</time>
      </trkpt>
      <trkpt lat="42.95362" lon="-0.10413">
        <ele>1250</ele>
        <time>2022-05-01T08:30:23Z</time>
      </trkpt>
      <trkpt lat="42.95357" lon="-0.10415">
        <ele>1248.8</ele>
        <time>2022-05-01T08:30:24Z</time>
      </trkpt>
      <trkpt lat="42.95348" lon="-0.1042">
        <ele>1247.2</ele>
        <time>2022-05-01T08:30:26Z</time>
      </trkpt>
      <trkpt lat="42.95344" lon="-0.10422">
        <ele>1246.2</ele>
        <time>2022-05-01T08:30:27Z</time>
      </trkpt>
      <trkpt lat="42.9534" lon="-0.10424">
        <ele>1245.2</ele>
        <time>2022-05-01T08:30:28Z</time>
      </trkpt>
      <trkpt lat="42.95331" lon="-0.10431">
        <ele>1243.4</ele>
        <time>2022-05-01T08:30:30Z</time>
      </trkpt>
      <trkpt lat="42.95326" lon="-0.10435">
        <ele>1242.8</ele>
        <time>2022-05-01T08:30:31Z</time>
      </trkpt>
      <trkpt lat="42.95319" lon="-0.1044">
        <ele>1242</ele>
        <time>2022-05-01T08:30:32Z</time>
      </trkpt>
      <trkpt lat="42.95306" lon="-0.10448">
        <ele>1241</ele>
        <time>2022-05-01T08:30:34Z</time>
      </trkpt>
      <trkpt lat="42.95301" lon="-0.1045">
        <ele>1240.6</ele>
        <time>2022-05-01T08:30:35Z</time>
      </trkpt>
      <trkpt lat="42.95294" lon="-0.10452">
        <ele>1239.4</ele>
        <time>2022-05-01T08:30:36Z</time>
      </trkpt>
      <trkpt lat="42.95279" lon="-0.10454">
        <ele>1238</ele>
        <time>2022-05-01T08:30:38Z</time>
      </trkpt>
      <trkpt lat="42.95264" lon="-0.10456">
        <ele>1236.8</ele>
        <time>2022-05-01T08:30:40Z</time>
      </trkpt>
      <trkpt lat="42.95257" lon="-0.10457">
        <ele>1236.6</ele>
        <time>2022-05-01T08:30:41Z</time>
      </trkpt>
      <trkpt lat="42.95251" lon="-0.10459">
        <ele>1235.2</ele>
        <time>2022-05-01T08:30:42Z</time>
      </trkpt>
      <trkpt lat="42.95245" lon="-0.10461">
        <ele>1234</ele>
        <time>2022-05-01T08:30:43Z</time>
      </trkpt>
      <trkpt lat="42.95238" lon="-0.10464">
        <ele>1232.6</ele>
        <time>2022-05-01T08:30:44Z</time>
      </trkpt>
      <trkpt lat="42.95231" lon="-0.10467">
        <ele>1231.2</ele>
        <time>2022-05-01T08:30:45Z</time>
      </trkpt>
      <trkpt lat="42.95217" lon="-0.10472">
        <ele>1229.8</ele>
        <time>2022-05-01T08:30:47Z</time>
      </trkpt>
      <trkpt lat="42.95203" lon="-0.10477">
        <ele>1228.4</ele>
        <time>2022-05-01T08:30:49Z</time>
      </trkpt>
      <trkpt lat="42.95191" lon="-0.10482">
        <ele>1227</ele>
        <time>2022-05-01T08:30:51Z</time>
      </trkpt>
      <trkpt lat="42.9518" lon="-0.10487">
        <ele>1225.2</ele>
        <time>2022-05-01T08:30:53Z</time>
      </trkpt>
      <trkpt lat="42.9517" lon="-0.10495">
        <ele>1224.4</ele>
        <time>2022-05-01T08:30:55Z</time>
      </trkpt>
      <trkpt lat="42.9516" lon="-0.10504">
        <ele>1222.2</ele>
        <time>2022-05-01T08:30:57Z</time>
      </trkpt>
      <trkpt lat="42.95156" lon="-0.10509">
        <ele>1221.8</ele>
        <time>2022-05-01T08:30:58Z</time>
      </trkpt>
      <trkpt lat="42.95152" lon="-0.10514">
        <ele>1220.2</ele>
        <time>2022-05-01T08:30:59Z</time>
      </trkpt>
      <trkpt lat="42.95144" lon="-0.10523">
        <ele>1218</ele>
        <time>2022-05-01T08:31:01Z</time>
      </trkpt>
      <trkpt lat="42.95141" lon="-0.10528">
        <ele>1216.8</ele>
        <time>2022-05-01T08:31:02Z</time>
      </trkpt>
      <trkpt lat="42.95137" lon="-0.10534">
        <ele>1216.4</ele>
        <time>2022-05-01T08:31:03Z</time>
      </trkpt>
      <trkpt lat="42.95135" lon="-0.10539">
        <ele>1215.4</ele>
        <time>2022-05-01T08:31:04Z</time>
      </trkpt>
      <trkpt lat="42.95131" lon="-0.10554">
        <ele>1214.2</ele>
        <time>2022-05-01T08:31:07Z</time>
      </trkpt>
      <trkpt lat="42.95129" lon="-0.10564">
        <ele>1212.8</ele>
        <time>2022-05-01T08:31:09Z</time>
      </trkpt>
      <trkpt lat="42.95127" lon="-0.1057">
        <ele>1211.6</ele>
        <time>2022-05-01T08:31:11Z</time>
      </trkpt>
      <trkpt lat="42.95126" lon="-0.10572">
        <ele>1211</ele>
        <time>2022-05-01T08:31:12Z</time>
      </trkpt>
      <trkpt lat="42.95122" lon="-0.10572">
        <ele>1210.2</ele>
        <time>2022-05-01T08:31:14Z</time>
      </trkpt>
      <trkpt lat="42.95122" lon="-0.10569">
        <ele>1210</ele>
        <time>2022-05-01T08:31:15Z</time>
      </trkpt>
      <trkpt lat="42.95123" lon="-0.10558">
        <ele>1209</ele>
        <time>2022-05-01T08:31:18Z</time>
      </trkpt>
      <trkpt lat="42.95124" lon="-0.10551">
        <ele>1208.8</ele>
        <time>2022-05-01T08:31:19Z</time>
      </trkpt>
      <trkpt lat="42.95127" lon="-0.10528">
        <ele>1207.8</ele>
        <time>2022-05-01T08:31:23Z</time>
      </trkpt>
      <trkpt lat="42.95129" lon="-0.10518">
        <ele>1206.8</ele>
        <time>2022-05-01T08:31:25Z</time>
      </trkpt>
      <trkpt lat="42.95131" lon="-0.10513">
        <ele>1206.4</ele>
        <time>2022-05-01T08:31:26Z</time>
      </trkpt>
      <trkpt lat="42.95136" lon="-0.105">
        <ele>1205.4</ele>
        <time>2022-05-01T08:31:29Z</time>
      </trkpt>
      <trkpt lat="42.95139" lon="-0.10496">
        <ele>1205.2</ele>
        <time>2022-05-01T08:31:30Z</time>
      </trkpt>
      <trkpt lat="42.9515" lon="-0.10476">
        <ele>1203.8</ele>
        <time>2022-05-01T08:31:35Z</time>
      </trkpt>
      <trkpt lat="42.95154" lon="-0.10465">
        <ele>1203</ele>
        <time>2022-05-01T08:31:38Z</time>
      </trkpt>
      <trkpt lat="42.95155" lon="-0.10461">
        <ele>1202.6</ele>
        <time>2022-05-01T08:31:39Z</time>
      </trkpt>
      <trkpt lat="42.95158" lon="-0.10452">
        <ele>1200.6</ele>
        <time>2022-05-01T08:31:42Z</time>
      </trkpt>
      <trkpt lat="42.95159" lon="-0.10448">
        <ele>1200.2</ele>
        <time>2022-05-01T08:31:43Z</time>
      </trkpt>
      <trkpt lat="42.9516" lon="-0.10444">
        <ele>1199.6</ele>
        <time>2022-05-01T08:31:44Z</time>
      </trkpt>
      <trkpt lat="42.95166" lon="-0.10428">
        <ele>1198</ele>
        <time>2022-05-01T08:31:48Z</time>
      </trkpt>
      <trkpt lat="42.9517" lon="-0.1042">
        <ele>1197.2</ele>
        <time>2022-05-01T08:31:50Z</time>
      </trkpt>
      <trkpt lat="42.95173" lon="-0.10414">
        <ele>1196.6</ele>
        <time>2022-05-01T08:31:52Z</time>
      </trkpt>
      <trkpt lat="42.95178" lon="-0.10405">
        <ele>1195.2</ele>
        <time>2022-05-01T08:31:54Z</time>
      </trkpt>
      <trkpt lat="42.95183" lon="-0.10398">
        <ele>1194</ele>
        <time>2022-05-01T08:31:56Z</time>
      </trkpt>
      <trkpt lat="42.95184" lon="-0.10396">
        <ele>1193.4</ele>
        <time>2022-05-01T08:31:57Z</time>
      </trkpt>
      <trkpt lat="42.95184" lon="-0.10394">
        <ele>1192.4</ele>
        <time>2022-05-01T08:31:58Z</time>
      </trkpt>
      <trkpt lat="42.95184" lon="-0.10394">
        <ele>1191</ele>
        <time>2022-05-01T08:32:00Z</time>
      </trkpt>
      <trkpt lat="42.95184" lon="-0.10394">
        <ele>1190.4</ele>
        <time>2022-05-01T08:32:01Z</time>
      </trkpt>
      <trkpt lat="42.95184" lon="-0.10394">
        <ele>1189.8</ele>
        <time>2022-05-01T08:32:03Z</time>
      </trkpt>
      <trkpt lat="42.95183" lon="-0.10394">
        <ele>1189</ele>
        <time>2022-05-01T08:32:13Z</time>
      </trkpt>
      <trkpt lat="42.95183" lon="-0.10394">
        <ele>1188.8</ele>
        <time>2022-05-01T08:32:18Z</time>
      </trkpt>
      <trkpt lat="42.95181" lon="-0.10396">
        <ele>1188.4</ele>
        <time>2022-05-01T08:32:32Z</time>
      </trkpt>
      <trkpt lat="42.95177" lon="-0.10398">
        <ele>1188.4</ele>
        <time>2022-05-01T08:32:34Z</time>
      </trkpt>
      <trkpt lat="42.95167" lon="-0.10403">
        <ele>1187.8</ele>
        <time>2022-05-01T08:32:39Z</time>
      </trkpt>
      <trkpt lat="42.95165" lon="-0.10404">
        <ele>1187.6</ele>
        <time>2022-05-01T08:32:40Z</time>
      </trkpt>
      <trkpt lat="42.95159" lon="-0.10407">
        <ele>1186.6</ele>
        <time>2022-05-01T08:32:43Z</time>
      </trkpt>
      <trkpt lat="42.95151" lon="-0.10411">
        <ele>1185.6</ele>
        <time>2022-05-01T08:32:47Z</time>
      </trkpt>
      <trkpt lat="42.9515" lon="-0.10411">
        <ele>1185.4</ele>
        <time>2022-05-01T08:32:48Z</time>
      </trkpt>
      <trkpt lat="42.95147" lon="-0.10412">
        <ele>1185</ele>
        <time>2022-05-01T08:32:50Z</time>
      </trkpt>
      <trkpt lat="42.95146" lon="-0.10413">
        <ele>1184.4</ele>
        <time>2022-05-01T08:32:51Z</time>
      </trkpt>
      <trkpt lat="42.95145" lon="-0.10414">
        <ele>1184.2</ele>
        <time>2022-05-01T08:32:52Z</time>
      </trkpt>
      <trkpt lat="42.95144" lon="-0.10414">
        <ele>1183</ele>
        <time>2022-05-01T08:32:55Z</time>
      </trkpt>
      <trkpt lat="42.95144" lon="-0.10414">
        <ele>1182</ele>
        <time>2022-05-01T08:32:58Z</time>
      </trkpt>
      <trkpt lat="42.95144" lon="-0.10414">
        <ele>1181.8</ele>
        <time>2022-05-01T08:32:59Z</time>
      </trkpt>
      <trkpt lat="42.95143" lon="-0.10413">
        <ele>1181.4</ele>
        <time>2022-05-01T08:33:05Z</time>
      </trkpt>
      <trkpt lat="42.95143" lon="-0.10413">
        <ele>1180.6</ele>
        <time>2022-05-01T08:33:16Z</time>
      </trkpt>
      <trkpt lat="42.95143" lon="-0.10413">
        <ele>1180.4</ele>
        <time>2022-05-01T08:33:17Z</time>
      </trkpt>
      <trkpt lat="42.95143" lon="-0.10413">
        <ele>1179.8</ele>
        <time>2022-05-01T08:33:21Z</time>
      </trkpt>
      <trkpt lat="42.95143" lon="-0.10413">
        <ele>1179.4</ele>
        <time>2022-05-01T08:33:23Z</time>
      </trkpt>
      <trkpt lat="42.95143" lon="-0.10413">
        <ele>1178.4</ele>
        <time>2022-05-01T08:33:28Z</time>
      </trkpt>
      <trkpt lat="42.95143" lon="-0.10413">
        <ele>1178.4</ele>
        <time>2022-05-01T08:33:29Z</time>
      </trkpt>
      <trkpt lat="42.95143" lon="-0.10413">
        <ele>1177.4</ele>
        <time>2022-05-01T08:33:35Z</time>
      </trkpt>
      <trkpt lat="42.9514" lon="-0.10405">
        <ele>1177</ele>
        <time>2022-05-01T08:33:39Z</time>
      </trkpt>
      <trkpt lat="42.95139" lon="-0.10402">
        <ele>1176.8</ele>
        <time>2022-05-01T08:33:40Z</time>
      </trkpt>
      <trkpt lat="42.95139" lon="-0.10399">
        <ele>1176.8</ele>
        <time>2022-05-01T08:33:41Z</time>
      </trkpt>
      <trkpt lat="42.95138" lon="-0.10392">
        <ele>1176.4</ele>
        <time>2022-05-01T08:33:43Z</time>
      </trkpt>
      <trkpt lat="42.95137" lon="-0.10389">
        <ele>1175.8</ele>
        <time>2022-05-01T08:33:44Z</time>
      </trkpt>
      <trkpt lat="42.95135" lon="-0.10387">
        <ele>1175.6</ele>
        <time>2022-05-01T08:33:45Z</time>
      </trkpt>
      <trkpt lat="42.95131" lon="-0.1038">
        <ele>1174.6</ele>
        <time>2022-05-01T08:33:48Z</time>
      </trkpt>
      <trkpt lat="42.95126" lon="-0.10368">
        <ele>1173.6</ele>
        <time>2022-05-01T08:33:52Z</time>
      </trkpt>
      <trkpt lat="42.95124" lon="-0.10365">
        <ele>1173.6</ele>
        <time>2022-05-01T08:33:53Z</time>
      </trkpt>
      <trkpt lat="42.95117" lon="-0.10355">
        <ele>1172.2</ele>
        <time>2022-05-01T08:33:57Z</time>
      </trkpt>
      <trkpt lat="42.95116" lon="-0.10354">
        <ele>1172</ele>
        <time>2022-05-01T08:33:58Z</time>
      </trkpt>
      <trkpt lat="42.95112" lon="-0.10351">
        <ele>1171</ele>
        <time>2022-05-01T08:34:00Z</time>
      </trkpt>
      <trkpt lat="42.95111" lon="-0.10349">
        <ele>1170.4</ele>
        <time>2022-05-01T08:34:01Z</time>
      </trkpt>
      <trkpt lat="42.95109" lon="-0.10347">
        <ele>1170</ele>
        <time>2022-05-01T08:34:02Z</time>
      </trkpt>
      <trkpt lat="42.95104" lon="-0.10342">
        <ele>1169.2</ele>
        <time>2022-05-01T08:34:04Z</time>
      </trkpt>
      <trkpt lat="42.95102" lon="-0.10339">
        <ele>1168.6</ele>
        <time>2022-05-01T08:34:05Z</time>
      </trkpt>
      <trkpt lat="42.95093" lon="-0.10332">
        <ele>1167.4</ele>
        <time>2022-05-01T08:34:08Z</time>
      </trkpt>
      <trkpt lat="42.95087" lon="-0.10327">
        <ele>1166</ele>
        <time>2022-05-01T08:34:10Z</time>
      </trkpt>
      <trkpt lat="42.9508" lon="-0.10321">
        <ele>1164.8</ele>
        <time>2022-05-01T08:34:12Z</time>
      </trkpt>
      <trkpt lat="42.95076" lon="-0.10317">
        <ele>1163.2</ele>
        <time>2022-05-01T08:34:14Z</time>
      </trkpt>
      <trkpt lat="42.95074" lon="-0.10315">
        <ele>1163</ele>
        <time>2022-05-01T08:34:15Z</time>
      </trkpt>
      <trkpt lat="42.95072" lon="-0.10315">
        <ele>1162</ele>
        <time>2022-05-01T08:34:16Z</time>
      </trkpt>
      <trkpt lat="42.95071" lon="-0.10315">
        <ele>1160.8</ele>
        <time>2022-05-01T08:34:18Z</time>
      </trkpt>
      <trkpt lat="42.95071" lon="-0.10315">
        <ele>1160.6</ele>
        <time>2022-05-01T08:34:19Z</time>
      </trkpt>
      <trkpt lat="42.95071" lon="-0.10315">
        <ele>1159.8</ele>
        <time>2022-05-01T08:34:20Z</time>
      </trkpt>
      <trkpt lat="42.9507" lon="-0.10313">
        <ele>1158.6</ele>
        <time>2022-05-01T08:34:24Z</time>
      </trkpt>
      <trkpt lat="42.9507" lon="-0.10313">
        <ele>1158</ele>
        <time>2022-05-01T08:34:27Z</time>
      </trkpt>
      <trkpt lat="42.9507" lon="-0.10312">
        <ele>1157.6</ele>
        <time>2022-05-01T08:34:33Z</time>
      </trkpt>
      <trkpt lat="42.9507" lon="-0.10312">
        <ele>1157.6</ele>
        <time>2022-05-01T08:34:34Z</time>
      </trkpt>
      <trkpt lat="42.95069" lon="-0.10312">
        <ele>1156.4</ele>
        <time>2022-05-01T08:34:43Z</time>
      </trkpt>
      <trkpt lat="42.95069" lon="-0.10312">
        <ele>1155.8</ele>
        <time>2022-05-01T08:34:50Z</time>
      </trkpt>
      <trkpt lat="42.95063" lon="-0.10306">
        <ele>1155.6</ele>
        <time>2022-05-01T08:34:53Z</time>
      </trkpt>
      <trkpt lat="42.95058" lon="-0.10301">
        <ele>1155</ele>
        <time>2022-05-01T08:34:56Z</time>
      </trkpt>
      <trkpt lat="42.95052" lon="-0.10294">
        <ele>1153.8</ele>
        <time>2022-05-01T08:34:59Z</time>
      </trkpt>
      <trkpt lat="42.95049" lon="-0.10288">
        <ele>1152.4</ele>
        <time>2022-05-01T08:35:02Z</time>
      </trkpt>
      <trkpt lat="42.95045" lon="-0.10284">
        <ele>1151.2</ele>
        <time>2022-05-01T08:35:04Z</time>
      </trkpt>
      <trkpt lat="42.95042" lon="-0.10277">
        <ele>1149.6</ele>
        <time>2022-05-01T08:35:06Z</time>
      </trkpt>
      <trkpt lat="42.9504" lon="-0.10272">
        <ele>1148.4</ele>
        <time>2022-05-01T08:35:08Z</time>
      </trkpt>
      <trkpt lat="42.95038" lon="-0.10267">
        <ele>1147.2</ele>
        <time>2022-05-01T08:35:10Z</time>
      </trkpt>
      <trkpt lat="42.95036" lon="-0.10265">
        <ele>1146.6</ele>
        <time>2022-05-01T08:35:11Z</time>
      </trkpt>
      <trkpt lat="42.95034" lon="-0.1026">
        <ele>1146</ele>
        <time>2022-05-01T08:35:13Z</time>
      </trkpt>
      <trkpt lat="42.95032" lon="-0.10255">
        <ele>1144.4</ele>
        <time>2022-05-01T08:35:15Z</time>
      </trkpt>
      <trkpt lat="42.95031" lon="-0.10253">
        <ele>1143</ele>
        <time>2022-05-01T08:35:17Z</time>
      </trkpt>
      <trkpt lat="42.95031" lon="-0.10253">
        <ele>1141.6</ele>
        <time>2022-05-01T08:35:19Z</time>
      </trkpt>
      <trkpt lat="42.95031" lon="-0.10253">
        <ele>1140.2</ele>
        <time>2022-05-01T08:35:23Z</time>
      </trkpt>
      <trkpt lat="42.95031" lon="-0.10253">
        <ele>1139.2</ele>
        <time>2022-05-01T08:35:31Z</time>
      </trkpt>
      <trkpt lat="42.95031" lon="-0.10253">
        <ele>1139</ele>
        <time>2022-05-01T08:35:35Z</time>
      </trkpt>
      <trkpt lat="42.95031" lon="-0.10253">
        <ele>1138.2</ele>
        <time>2022-05-01T08:35:42Z</time>
      </trkpt>
      <trkpt lat="42.95031" lon="-0.10253">
        <ele>1137</ele>
        <time>2022-05-01T08:35:48Z</time>
      </trkpt>
      <trkpt lat="42.95031" lon="-0.10253">
        <ele>1136</ele>
        <time>2022-05-01T08:35:53Z</time>
      </trkpt>
      <trkpt lat="42.9503" lon="-0.10252">
        <ele>1134.6</ele>
        <time>2022-05-01T08:35:59Z</time>
      </trkpt>
      <trkpt lat="42.9503" lon="-0.10251">
        <ele>1133.6</ele>
        <time>2022-05-01T08:36:03Z</time>
      </trkpt>
      <trkpt lat="42.95027" lon="-0.10246">
        <ele>1132.4</ele>
        <time>2022-05-01T08:36:10Z</time>
      </trkpt>
      <trkpt lat="42.95025" lon="-0.10241">
        <ele>1131.2</ele>
        <time>2022-05-01T08:36:21Z</time>
      </trkpt>
      <trkpt lat="42.95024" lon="-0.10241">
        <ele>1131</ele>
        <time>2022-05-01T08:36:22Z</time>
      </trkpt>
      <trkpt lat="42.95024" lon="-0.10241">
        <ele>1130</ele>
        <time>2022-05-01T08:36:30Z</time>
      </trkpt>
      <trkpt lat="42.95023" lon="-0.10238">
        <ele>1128.8</ele>
        <time>2022-05-01T08:36:36Z</time>
      </trkpt>
      <trkpt lat="42.95023" lon="-0.10238">
        <ele>1128.6</ele>
        <time>2022-05-01T08:36:38Z</time>
      </trkpt>
      <trkpt lat="42.95021" lon="-0.10236">
        <ele>1127.8</ele>
        <time>2022-05-01T08:36:44Z</time>
      </trkpt>
      <trkpt lat="42.95021" lon="-0.10235">
        <ele>1126.6</ele>
        <time>2022-05-01T08:36:54Z</time>
      </trkpt>
      <trkpt lat="42.95017" lon="-0.1023">
        <ele>1125.4</ele>
        <time>2022-05-01T08:37:05Z</time>
      </trkpt>
      <trkpt lat="42.95017" lon="-0.1023">
        <ele>1124.8</ele>
        <time>2022-05-01T08:37:07Z</time>
      </trkpt>
      <trkpt lat="42.95017" lon="-0.1023">
        <ele>1124.4</ele>
        <time>2022-05-01T08:37:09Z</time>
      </trkpt>
      <trkpt lat="42.95017" lon="-0.1023">
        <ele>1123.2</ele>
        <time>2022-05-01T08:37:13Z</time>
      </trkpt>
      <trkpt lat="42.95013" lon="-0.10225">
        <ele>1122</ele>
        <time>2022-05-01T08:37:17Z</time>
      </trkpt>
      <trkpt lat="42.95011" lon="-0.10223">
        <ele>1121.8</ele>
        <time>2022-05-01T08:37:18Z</time>
      </trkpt>
      <trkpt lat="42.95007" lon="-0.10218">
        <ele>1121.2</ele>
        <time>2022-05-01T08:37:21Z</time>
      </trkpt>
      <trkpt lat="42.95003" lon="-0.10214">
        <ele>1120.8</ele>
        <time>2022-05-01T08:37:23Z</time>
      </trkpt>
      <trkpt lat="42.95001" lon="-0.10211">
        <ele>1119.8</ele>
        <time>2022-05-01T08:37:27Z</time>
      </trkpt>
      <trkpt lat="42.95001" lon="-0.10211">
        <ele>1119.6</ele>
        <time>2022-05-01T08:37:28Z</time>
      </trkpt>
      <trkpt lat="42.95" lon="-0.10209">
        <ele>1118.8</ele>
        <time>2022-05-01T08:37:34Z</time>
      </trkpt>
      <trkpt lat="42.95" lon="-0.10209">
        <ele>1118.6</ele>
        <time>2022-05-01T08:37:35Z</time>
      </trkpt>
      <trkpt lat="42.95" lon="-0.10209">
        <ele>1117.6</ele>
        <time>2022-05-01T08:37:50Z</time>
      </trkpt>
      <trkpt lat="42.95001" lon="-0.10206">
        <ele>1117.4</ele>
        <time>2022-05-01T08:37:51Z</time>
      </trkpt>
      <trkpt lat="42.95004" lon="-0.102">
        <ele>1117</ele>
        <time>2022-05-01T08:37:53Z</time>
      </trkpt>
      <trkpt lat="42.95008" lon="-0.10191">
        <ele>1116.2</ele>
        <time>2022-05-01T08:37:56Z</time>
      </trkpt>
      <trkpt lat="42.95012" lon="-0.10186">
        <ele>1115.2</ele>
        <time>2022-05-01T08:37:58Z</time>
      </trkpt>
      <trkpt lat="42.95012" lon="-0.10184">
        <ele>1115</ele>
        <time>2022-05-01T08:37:59Z</time>
      </trkpt>
      <trkpt lat="42.95013" lon="-0.10183">
        <ele>1114.2</ele>
        <time>2022-05-01T08:38:02Z</time>
      </trkpt>
      <trkpt lat="42.95013" lon="-0.10183">
        <ele>1113.8</ele>
        <time>2022-05-01T08:38:04Z</time>
      </trkpt>
      <trkpt lat="42.95017" lon="-0.10174">
        <ele>1113.4</ele>
        <time>2022-05-01T08:38:12Z</time>
      </trkpt>
      <trkpt lat="42.95023" lon="-0.10168">
        <ele>1113.2</ele>
        <time>2022-05-01T08:38:17Z</time>
      </trkpt>
      <trkpt lat="42.95023" lon="-0.10168">
        <ele>1112.8</ele>
        <time>2022-05-01T08:38:20Z</time>
      </trkpt>
      <trkpt lat="42.95029" lon="-0.10164">
        <ele>1112.4</ele>
        <time>2022-05-01T08:38:26Z</time>
      </trkpt>
      <trkpt lat="42.95039" lon="-0.10158">
        <ele>1112.4</ele>
        <time>2022-05-01T08:38:31Z</time>
      </trkpt>
      <trkpt lat="42.95043" lon="-0.10157">
        <ele>1112.2</ele>
        <time>2022-05-01T08:38:34Z</time>
      </trkpt>
      <trkpt lat="42.95048" lon="-0.10154">
        <ele>1112.2</ele>
        <time>2022-05-01T08:38:37Z</time>
      </trkpt>
      <trkpt lat="42.9506" lon="-0.10148">
        <ele>1112.2</ele>
        <time>2022-05-01T08:38:44Z</time>
      </trkpt>
      <trkpt lat="42.95076" lon="-0.10139">
        <ele>1112</ele>
        <time>2022-05-01T08:38:51Z</time>
      </trkpt>
      <trkpt lat="42.95079" lon="-0.10138">
        <ele>1111.6</ele>
        <time>2022-05-01T08:38:53Z</time>
      </trkpt>
      <trkpt lat="42.9508" lon="-0.10137">
        <ele>1111.4</ele>
        <time>2022-05-01T08:38:54Z</time>
      </trkpt>
      <trkpt lat="42.95081" lon="-0.10135">
        <ele>1111</ele>
        <time>2022-05-01T08:38:56Z</time>
      </trkpt>
      <trkpt lat="42.95081" lon="-0.10135">
        <ele>1110.4</ele>
        <time>2022-05-01T08:38:57Z</time>
      </trkpt>
      <trkpt lat="42.95082" lon="-0.10133">
        <ele>1109.4</ele>
        <time>2022-05-01T08:39:05Z</time>
      </trkpt>
      <trkpt lat="42.95082" lon="-0.10133">
        <ele>1109.4</ele>
        <time>2022-05-01T08:39:06Z</time>
      </trkpt>
      <trkpt lat="42.95088" lon="-0.1013">
        <ele>1109.2</ele>
        <time>2022-05-01T08:39:10Z</time>
      </trkpt>
      <trkpt lat="42.9509" lon="-0.10129">
        <ele>1109.2</ele>
        <time>2022-05-01T08:39:11Z</time>
      </trkpt>
      <trkpt lat="42.95092" lon="-0.10127">
        <ele>1109.2</ele>
        <time>2022-05-01T08:39:12Z</time>
      </trkpt>
      <trkpt lat="42.95097" lon="-0.10125">
        <ele>1109</ele>
        <time>2022-05-01T08:39:14Z</time>
      </trkpt>
      <trkpt lat="42.951" lon="-0.10124">
        <ele>1109</ele>
        <time>2022-05-01T08:39:15Z</time>
      </trkpt>
      <trkpt lat="42.95104" lon="-0.10123">
        <ele>1108.8</ele>
        <time>2022-05-01T08:39:17Z</time>
      </trkpt>
      <trkpt lat="42.95108" lon="-0.1012">
        <ele>1108</ele>
        <time>2022-05-01T08:39:19Z</time>
      </trkpt>
      <trkpt lat="42.95111" lon="-0.10118">
        <ele>1107.6</ele>
        <time>2022-05-01T08:39:20Z</time>
      </trkpt>
      <trkpt lat="42.95117" lon="-0.10116">
        <ele>1106.8</ele>
        <time>2022-05-01T08:39:22Z</time>
      </trkpt>
      <trkpt lat="42.95125" lon="-0.10113">
        <ele>1106</ele>
        <time>2022-05-01T08:39:25Z</time>
      </trkpt>
      <trkpt lat="42.95127" lon="-0.10112">
        <ele>1105.8</ele>
        <time>2022-05-01T08:39:26Z</time>
      </trkpt>
      <trkpt lat="42.95129" lon="-0.10111">
        <ele>1105.6</ele>
        <time>2022-05-01T08:39:27Z</time>
      </trkpt>
      <trkpt lat="42.95133" lon="-0.10109">
        <ele>1104.6</ele>
        <time>2022-05-01T08:39:29Z</time>
      </trkpt>
      <trkpt lat="42.95137" lon="-0.10107">
        <ele>1103.8</ele>
        <time>2022-05-01T08:39:32Z</time>
      </trkpt>
      <trkpt lat="42.95138" lon="-0.10105">
        <ele>1103.4</ele>
        <time>2022-05-01T08:39:33Z</time>
      </trkpt>
      <trkpt lat="42.95139" lon="-0.10104">
        <ele>1103.4</ele>
        <time>2022-05-01T08:39:34Z</time>
      </trkpt>
      <trkpt lat="42.95149" lon="-0.10095">
        <ele>1102.8</ele>
        <time>2022-05-01T08:39:42Z</time>
      </trkpt>
      <trkpt lat="42.95151" lon="-0.10091">
        <ele>1102.6</ele>
        <time>2022-05-01T08:39:51Z</time>
      </trkpt>
      <trkpt lat="42.95156" lon="-0.10086">
        <ele>1102.8</ele>
        <time>2022-05-01T08:39:59Z</time>
      </trkpt>
      <trkpt lat="42.95164" lon="-0.10078">
        <ele>1102.8</ele>
        <time>2022-05-01T08:40:04Z</time>
      </trkpt>
      <trkpt lat="42.95167" lon="-0.10058">
        <ele>1102.6</ele>
        <time>2022-05-01T08:40:10Z</time>
      </trkpt>
      <trkpt lat="42.95167" lon="-0.10054">
        <ele>1102.2</ele>
        <time>2022-05-01T08:40:11Z</time>
      </trkpt>
      <trkpt lat="42.95169" lon="-0.10042">
        <ele>1101.6</ele>
        <time>2022-05-01T08:40:13Z</time>
      </trkpt>
      <trkpt lat="42.95173" lon="-0.10036">
        <ele>1101.2</ele>
        <time>2022-05-01T08:40:15Z</time>
      </trkpt>
      <trkpt lat="42.95173" lon="-0.10033">
        <ele>1100.6</ele>
        <time>2022-05-01T08:40:16Z</time>
      </trkpt>
      <trkpt lat="42.95175" lon="-0.10019">
        <ele>1099.4</ele>
        <time>2022-05-01T08:40:19Z</time>
      </trkpt>
      <trkpt lat="42.95175" lon="-0.10014">
        <ele>1099</ele>
        <time>2022-05-01T08:40:20Z</time>
      </trkpt>
      <trkpt lat="42.95174" lon="-0.10006">
        <ele>1098.4</ele>
        <time>2022-05-01T08:40:22Z</time>
      </trkpt>
      <trkpt lat="42.95174" lon="-0.09997">
        <ele>1097.8</ele>
        <time>2022-05-01T08:40:24Z</time>
      </trkpt>
      <trkpt lat="42.95178" lon="-0.09988">
        <ele>1097.4</ele>
        <time>2022-05-01T08:40:27Z</time>
      </trkpt>
      <trkpt lat="42.95178" lon="-0.09987">
        <ele>1096.8</ele>
        <time>2022-05-01T08:40:28Z</time>
      </trkpt>
      <trkpt lat="42.95178" lon="-0.09987">
        <ele>1095.4</ele>
        <time>2022-05-01T08:40:31Z</time>
      </trkpt>
      <trkpt lat="42.95178" lon="-0.09987">
        <ele>1094.6</ele>
        <time>2022-05-01T08:40:35Z</time>
      </trkpt>
      <trkpt lat="42.95178" lon="-0.09987">
        <ele>1094.4</ele>
        <time>2022-05-01T08:40:37Z</time>
      </trkpt>
      <trkpt lat="42.95178" lon="-0.09987">
        <ele>1093.6</ele>
        <time>2022-05-01T08:40:44Z</time>
      </trkpt>
      <trkpt lat="42.95178" lon="-0.09987">
        <ele>1093.2</ele>
        <time>2022-05-01T08:40:46Z</time>
      </trkpt>
      <trkpt lat="42.95178" lon="-0.09987">
        <ele>1092.2</ele>
        <time>2022-05-01T08:40:53Z</time>
      </trkpt>
      <trkpt lat="42.95178" lon="-0.09987">
        <ele>1091.2</ele>
        <time>2022-05-01T08:41:00Z</time>
      </trkpt>
      <trkpt lat="42.95177" lon="-0.09982">
        <ele>1090.2</ele>
        <time>2022-05-01T08:41:06Z</time>
      </trkpt>
      <trkpt lat="42.95174" lon="-0.09972">
        <ele>1089.2</ele>
        <time>2022-05-01T08:41:12Z</time>
      </trkpt>
      <trkpt lat="42.95174" lon="-0.0997">
        <ele>1089</ele>
        <time>2022-05-01T08:41:13Z</time>
      </trkpt>
      <trkpt lat="42.95172" lon="-0.09967">
        <ele>1087.8</ele>
        <time>2022-05-01T08:41:18Z</time>
      </trkpt>
      <trkpt lat="42.95172" lon="-0.09967">
        <ele>1087</ele>
        <time>2022-05-01T08:41:20Z</time>
      </trkpt>
      <trkpt lat="42.95172" lon="-0.09967">
        <ele>1086.6</ele>
        <time>2022-05-01T08:41:21Z</time>
      </trkpt>
      <trkpt lat="42.95172" lon="-0.09967">
        <ele>1085.4</ele>
        <time>2022-05-01T08:41:25Z</time>
      </trkpt>
      <trkpt lat="42.95172" lon="-0.09967">
        <ele>1085</ele>
        <time>2022-05-01T08:41:28Z</time>
      </trkpt>
      <trkpt lat="42.95172" lon="-0.09967">
        <ele>1084.2</ele>
        <time>2022-05-01T08:41:39Z</time>
      </trkpt>
      <trkpt lat="42.95172" lon="-0.09967">
        <ele>1083</ele>
        <time>2022-05-01T08:41:49Z</time>
      </trkpt>
      <trkpt lat="42.95172" lon="-0.09967">
        <ele>1082.2</ele>
        <time>2022-05-01T08:41:54Z</time>
      </trkpt>
      <trkpt lat="42.95172" lon="-0.09967">
        <ele>1082</ele>
        <time>2022-05-01T08:41:57Z</time>
      </trkpt>
      <trkpt lat="42.95172" lon="-0.09966">
        <ele>1080.6</ele>
        <time>2022-05-01T08:42:04Z</time>
      </trkpt>
      <trkpt lat="42.95172" lon="-0.09966">
        <ele>1080.2</ele>
        <time>2022-05-01T08:42:07Z</time>
      </trkpt>
      <trkpt lat="42.95169" lon="-0.09952">
        <ele>1079.2</ele>
        <time>2022-05-01T08:42:12Z</time>
      </trkpt>
      <trkpt lat="42.95166" lon="-0.09944">
        <ele>1078.6</ele>
        <time>2022-05-01T08:42:15Z</time>
      </trkpt>
      <trkpt lat="42.95164" lon="-0.0994">
        <ele>1078.2</ele>
        <time>2022-05-01T08:42:16Z</time>
      </trkpt>
      <trkpt lat="42.95163" lon="-0.09936">
        <ele>1077.8</ele>
        <time>2022-05-01T08:42:17Z</time>
      </trkpt>
      <trkpt lat="42.95162" lon="-0.09931">
        <ele>1077.4</ele>
        <time>2022-05-01T08:42:18Z</time>
      </trkpt>
      <trkpt lat="42.95161" lon="-0.09928">
        <ele>1077</ele>
        <time>2022-05-01T08:42:19Z</time>
      </trkpt>
      <trkpt lat="42.95158" lon="-0.09922">
        <ele>1076.4</ele>
        <time>2022-05-01T08:42:21Z</time>
      </trkpt>
      <trkpt lat="42.95157" lon="-0.09916">
        <ele>1076</ele>
        <time>2022-05-01T08:42:22Z</time>
      </trkpt>
      <trkpt lat="42.95158" lon="-0.09912">
        <ele>1075.6</ele>
        <time>2022-05-01T08:42:23Z</time>
      </trkpt>
      <trkpt lat="42.95158" lon="-0.09902">
        <ele>1075</ele>
        <time>2022-05-01T08:42:25Z</time>
      </trkpt>
      <trkpt lat="42.95159" lon="-0.09898">
        <ele>1075</ele>
        <time>2022-05-01T08:42:26Z</time>
      </trkpt>
      <trkpt lat="42.9516" lon="-0.09893">
        <ele>1074.6</ele>
        <time>2022-05-01T08:42:27Z</time>
      </trkpt>
      <trkpt lat="42.95161" lon="-0.09885">
        <ele>1073.8</ele>
        <time>2022-05-01T08:42:29Z</time>
      </trkpt>
      <trkpt lat="42.9516" lon="-0.09877">
        <ele>1073.2</ele>
        <time>2022-05-01T08:42:31Z</time>
      </trkpt>
      <trkpt lat="42.9516" lon="-0.09871">
        <ele>1072.6</ele>
        <time>2022-05-01T08:42:33Z</time>
      </trkpt>
      <trkpt lat="42.9516" lon="-0.09857">
        <ele>1071.4</ele>
        <time>2022-05-01T08:42:36Z</time>
      </trkpt>
      <trkpt lat="42.95161" lon="-0.09851">
        <ele>1070.4</ele>
        <time>2022-05-01T08:42:38Z</time>
      </trkpt>
      <trkpt lat="42.9516" lon="-0.09847">
        <ele>1070</ele>
        <time>2022-05-01T08:42:39Z</time>
      </trkpt>
      <trkpt lat="42.95158" lon="-0.09841">
        <ele>1068.6</ele>
        <time>2022-05-01T08:42:42Z</time>
      </trkpt>
      <trkpt lat="42.95158" lon="-0.09841">
        <ele>1067.6</ele>
        <time>2022-05-01T08:42:44Z</time>
      </trkpt>
      <trkpt lat="42.95158" lon="-0.09841">
        <ele>1066.6</ele>
        <time>2022-05-01T08:42:46Z</time>
      </trkpt>
      <trkpt lat="42.95158" lon="-0.09841">
        <ele>1065.4</ele>
        <time>2022-05-01T08:42:51Z</time>
      </trkpt>
      <trkpt lat="42.95158" lon="-0.09841">
        <ele>1065.2</ele>
        <time>2022-05-01T08:42:56Z</time>
      </trkpt>
      <trkpt lat="42.95158" lon="-0.09841">
        <ele>1064.6</ele>
        <time>2022-05-01T08:43:24Z</time>
      </trkpt>
      <trkpt lat="42.95156" lon="-0.09836">
        <ele>1064.2</ele>
        <time>2022-05-01T08:43:45Z</time>
      </trkpt>
      <trkpt lat="42.95156" lon="-0.09835">
        <ele>1064.2</ele>
        <time>2022-05-01T08:43:46Z</time>
      </trkpt>
      <trkpt lat="42.95155" lon="-0.09834">
        <ele>1064</ele>
        <time>2022-05-01T08:43:48Z</time>
      </trkpt>
      <trkpt lat="42.95156" lon="-0.09827">
        <ele>1063.4</ele>
        <time>2022-05-01T08:43:50Z</time>
      </trkpt>
      <trkpt lat="42.95157" lon="-0.09818">
        <ele>1063</ele>
        <time>2022-05-01T08:43:52Z</time>
      </trkpt>
      <trkpt lat="42.95156" lon="-0.0981">
        <ele>1062.4</ele>
        <time>2022-05-01T08:43:54Z</time>
      </trkpt>
      <trkpt lat="42.95157" lon="-0.09806">
        <ele>1062</ele>
        <time>2022-05-01T08:43:55Z</time>
      </trkpt>
      <trkpt lat="42.95158" lon="-0.09802">
        <ele>1060.8</ele>
        <time>2022-05-01T08:43:56Z</time>
      </trkpt>
      <trkpt lat="42.9516" lon="-0.09799">
        <ele>1060.6</ele>
        <time>2022-05-01T08:43:57Z</time>
      </trkpt>
      <trkpt lat="42.95164" lon="-0.09795">
        <ele>1059.6</ele>
        <time>2022-05-01T08:43:59Z</time>
      </trkpt>
      <trkpt lat="42.95166" lon="-0.09794">
        <ele>1059.2</ele>
        <time>2022-05-01T08:44:00Z</time>
      </trkpt>
      <trkpt lat="42.95173" lon="-0.09792">
        <ele>1058.4</ele>
        <time>2022-05-01T08:44:02Z</time>
      </trkpt>
      <trkpt lat="42.95179" lon="-0.09786">
        <ele>1057.2</ele>
        <time>2022-05-01T08:44:04Z</time>
      </trkpt>
      <trkpt lat="42.95186" lon="-0.09781">
        <ele>1056.2</ele>
        <time>2022-05-01T08:44:06Z</time>
      </trkpt>
      <trkpt lat="42.95194" lon="-0.09778">
        <ele>1055.4</ele>
        <time>2022-05-01T08:44:09Z</time>
      </trkpt>
      <trkpt lat="42.95201" lon="-0.09774">
        <ele>1055</ele>
        <time>2022-05-01T08:44:12Z</time>
      </trkpt>
      <trkpt lat="42.95205" lon="-0.09773">
        <ele>1055</ele>
        <time>2022-05-01T08:44:14Z</time>
      </trkpt>
      <trkpt lat="42.95207" lon="-0.09772">
        <ele>1054.8</ele>
        <time>2022-05-01T08:44:15Z</time>
      </trkpt>
      <trkpt lat="42.95227" lon="-0.0977">
        <ele>1055</ele>
        <time>2022-05-01T08:44:23Z</time>
      </trkpt>
      <trkpt lat="42.95231" lon="-0.09771">
        <ele>1054.8</ele>
        <time>2022-05-01T08:44:24Z</time>
      </trkpt>
      <trkpt lat="42.95248" lon="-0.09768">
        <ele>1054.4</ele>
        <time>2022-05-01T08:44:27Z</time>
      </trkpt>
      <trkpt lat="42.95258" lon="-0.09765">
        <ele>1053.6</ele>
        <time>2022-05-01T08:44:30Z</time>
      </trkpt>
      <trkpt lat="42.9526" lon="-0.09765">
        <ele>1053.6</ele>
        <time>2022-05-01T08:44:31Z</time>
      </trkpt>
      <trkpt lat="42.95272" lon="-0.09764">
        <ele>1053</ele>
        <time>2022-05-01T08:44:36Z</time>
      </trkpt>
      <trkpt lat="42.95291" lon="-0.09759">
        <ele>1053</ele>
        <time>2022-05-01T08:44:41Z</time>
      </trkpt>
      <trkpt lat="42.95296" lon="-0.09757">
        <ele>1053</ele>
        <time>2022-05-01T08:44:42Z</time>
      </trkpt>
      <trkpt lat="42.95321" lon="-0.09749">
        <ele>1052.6</ele>
        <time>2022-05-01T08:44:46Z</time>
      </trkpt>
      <trkpt lat="42.95325" lon="-0.09747">
        <ele>1052.2</ele>
        <time>2022-05-01T08:44:47Z</time>
      </trkpt>
      <trkpt lat="42.95335" lon="-0.09744">
        <ele>1051.4</ele>
        <time>2022-05-01T08:44:49Z</time>
      </trkpt>
      <trkpt lat="42.95341" lon="-0.09742">
        <ele>1050.4</ele>
        <time>2022-05-01T08:44:51Z</time>
      </trkpt>
      <trkpt lat="42.95357" lon="-0.09738">
        <ele>1048.8</ele>
        <time>2022-05-01T08:44:55Z</time>
      </trkpt>
      <trkpt lat="42.95366" lon="-0.09735">
        <ele>1047.2</ele>
        <time>2022-05-01T08:44:58Z</time>
      </trkpt>
      <trkpt lat="42.95369" lon="-0.09734">
        <ele>1046.2</ele>
        <time>2022-05-01T08:44:59Z</time>
      </trkpt>
      <trkpt lat="42.95374" lon="-0.09733">
        <ele>1044.6</ele>
        <time>2022-05-01T08:45:02Z</time>
      </trkpt>
      <trkpt lat="42.95375" lon="-0.09733">
        <ele>1044.2</ele>
        <time>2022-05-01T08:45:03Z</time>
      </trkpt>
      <trkpt lat="42.95375" lon="-0.09733">
        <ele>1043.2</ele>
        <time>2022-05-01T08:45:04Z</time>
      </trkpt>
      <trkpt lat="42.95375" lon="-0.09733">
        <ele>1041.8</ele>
        <time>2022-05-01T08:45:07Z</time>
      </trkpt>
      <trkpt lat="42.95376" lon="-0.09732">
        <ele>1041.6</ele>
        <time>2022-05-01T08:45:08Z</time>
      </trkpt>
      <trkpt lat="42.95376" lon="-0.09732">
        <ele>1040.8</ele>
        <time>2022-05-01T08:45:13Z</time>
      </trkpt>
      <trkpt lat="42.95376" lon="-0.09732">
        <ele>1040.4</ele>
        <time>2022-05-01T08:45:16Z</time>
      </trkpt>
      <trkpt lat="42.95376" lon="-0.09731">
        <ele>1039.8</ele>
        <time>2022-05-01T08:45:30Z</time>
      </trkpt>
      <trkpt lat="42.95376" lon="-0.09731">
        <ele>1039.4</ele>
        <time>2022-05-01T08:45:33Z</time>
      </trkpt>
      <trkpt lat="42.95377" lon="-0.09731">
        <ele>1039.4</ele>
        <time>2022-05-01T08:45:37Z</time>
      </trkpt>
      <trkpt lat="42.95378" lon="-0.09728">
        <ele>1038.6</ele>
        <time>2022-05-01T08:45:43Z</time>
      </trkpt>
      <trkpt lat="42.95379" lon="-0.09727">
        <ele>1038.4</ele>
        <time>2022-05-01T08:45:44Z</time>
      </trkpt>
      <trkpt lat="42.95379" lon="-0.09706">
        <ele>1037.6</ele>
        <time>2022-05-01T08:45:49Z</time>
      </trkpt>
      <trkpt lat="42.9538" lon="-0.09702">
        <ele>1037.2</ele>
        <time>2022-05-01T08:45:50Z</time>
      </trkpt>
      <trkpt lat="42.95382" lon="-0.09698">
        <ele>1037</ele>
        <time>2022-05-01T08:45:51Z</time>
      </trkpt>
      <trkpt lat="42.95384" lon="-0.09693">
        <ele>1036.4</ele>
        <time>2022-05-01T08:45:52Z</time>
      </trkpt>
      <trkpt lat="42.95386" lon="-0.09689">
        <ele>1035</ele>
        <time>2022-05-01T08:45:54Z</time>
      </trkpt>
      <trkpt lat="42.95386" lon="-0.09688">
        <ele>1033.8</ele>
        <time>2022-05-01T08:45:56Z</time>
      </trkpt>
      <trkpt lat="42.95387" lon="-0.09687">
        <ele>1032.4</ele>
        <time>2022-05-01T08:45:59Z</time>
      </trkpt>
      <trkpt lat="42.95387" lon="-0.09687">
        <ele>1032.2</ele>
        <time>2022-05-01T08:46:00Z</time>
      </trkpt>
      <trkpt lat="42.95387" lon="-0.09686">
        <ele>1031.4</ele>
        <time>2022-05-01T08:46:03Z</time>
      </trkpt>
      <trkpt lat="42.95387" lon="-0.09686">
        <ele>1030.6</ele>
        <time>2022-05-01T08:46:08Z</time>
      </trkpt>
      <trkpt lat="42.95387" lon="-0.09686">
        <ele>1030.4</ele>
        <time>2022-05-01T08:46:12Z</time>
      </trkpt>
      <trkpt lat="42.95388" lon="-0.09684">
        <ele>1030.2</ele>
        <time>2022-05-01T08:46:26Z</time>
      </trkpt>
      <trkpt lat="42.95388" lon="-0.09682">
        <ele>1030</ele>
        <time>2022-05-01T08:46:35Z</time>
      </trkpt>
      <trkpt lat="42.95388" lon="-0.09681">
        <ele>1029.8</ele>
        <time>2022-05-01T08:46:37Z</time>
      </trkpt>
      <trkpt lat="42.95385" lon="-0.0967">
        <ele>1029.6</ele>
        <time>2022-05-01T08:46:40Z</time>
      </trkpt>
      <trkpt lat="42.95385" lon="-0.09666">
        <ele>1029.4</ele>
        <time>2022-05-01T08:46:41Z</time>
      </trkpt>
      <trkpt lat="42.95385" lon="-0.0966">
        <ele>1029.2</ele>
        <time>2022-05-01T08:46:43Z</time>
      </trkpt>
      <trkpt lat="42.95382" lon="-0.0964">
        <ele>1028</ele>
        <time>2022-05-01T08:46:47Z</time>
      </trkpt>
      <trkpt lat="42.9538" lon="-0.09635">
        <ele>1027.2</ele>
        <time>2022-05-01T08:46:48Z</time>
      </trkpt>
      <trkpt lat="42.95379" lon="-0.09631">
        <ele>1026.8</ele>
        <time>2022-05-01T08:46:49Z</time>
      </trkpt>
      <trkpt lat="42.95378" lon="-0.09627">
        <ele>1025.6</ele>
        <time>2022-05-01T08:46:50Z</time>
      </trkpt>
      <trkpt lat="42.95375" lon="-0.09618">
        <ele>1024.8</ele>
        <time>2022-05-01T08:46:52Z</time>
      </trkpt>
      <trkpt lat="42.95373" lon="-0.09611">
        <ele>1023.6</ele>
        <time>2022-05-01T08:46:54Z</time>
      </trkpt>
      <trkpt lat="42.95371" lon="-0.09597">
        <ele>1021.8</ele>
        <time>2022-05-01T08:46:56Z</time>
      </trkpt>
      <trkpt lat="42.9537" lon="-0.09586">
        <ele>1021.4</ele>
        <time>2022-05-01T08:46:57Z</time>
      </trkpt>
      <trkpt lat="42.95369" lon="-0.0958">
        <ele>1020.6</ele>
        <time>2022-05-01T08:46:58Z</time>
      </trkpt>
      <trkpt lat="42.95369" lon="-0.0957">
        <ele>1019.2</ele>
        <time>2022-05-01T08:47:00Z</time>
      </trkpt>
      <trkpt lat="42.95369" lon="-0.09562">
        <ele>1018</ele>
        <time>2022-05-01T08:47:02Z</time>
      </trkpt>
      <trkpt lat="42.95369" lon="-0.09553">
        <ele>1016.8</ele>
        <time>2022-05-01T08:47:04Z</time>
      </trkpt>
      <trkpt lat="42.95369" lon="-0.09549">
        <ele>1015.6</ele>
        <time>2022-05-01T08:47:06Z</time>
      </trkpt>
      <trkpt lat="42.9537" lon="-0.09548">
        <ele>1014.8</ele>
        <time>2022-05-01T08:47:07Z</time>
      </trkpt>
      <trkpt lat="42.9537" lon="-0.09548">
        <ele>1014.2</ele>
        <time>2022-05-01T08:47:08Z</time>
      </trkpt>
      <trkpt lat="42.95369" lon="-0.09546">
        <ele>1013</ele>
        <time>2022-05-01T08:47:10Z</time>
      </trkpt>
      <trkpt lat="42.95369" lon="-0.09546">
        <ele>1011.8</ele>
        <time>2022-05-01T08:47:13Z</time>
      </trkpt>
      <trkpt lat="42.9537" lon="-0.09544">
        <ele>1011.6</ele>
        <time>2022-05-01T08:47:15Z</time>
      </trkpt>
      <trkpt lat="42.95371" lon="-0.0954">
        <ele>1011</ele>
        <time>2022-05-01T08:47:19Z</time>
      </trkpt>
      <trkpt lat="42.95374" lon="-0.09533">
        <ele>1011</ele>
        <time>2022-05-01T08:47:21Z</time>
      </trkpt>
      <trkpt lat="42.95376" lon="-0.09524">
        <ele>1010.8</ele>
        <time>2022-05-01T08:47:23Z</time>
      </trkpt>
      <trkpt lat="42.9538" lon="-0.09506">
        <ele>1010.4</ele>
        <time>2022-05-01T08:47:28Z</time>
      </trkpt>
      <trkpt lat="42.95384" lon="-0.09496">
        <ele>1009.4</ele>
        <time>2022-05-01T08:47:32Z</time>
      </trkpt>
      <trkpt lat="42.95385" lon="-0.09493">
        <ele>1009.4</ele>
        <time>2022-05-01T08:47:33Z</time>
      </trkpt>
      <trkpt lat="42.95386" lon="-0.09491">
        <ele>1009.2</ele>
        <time>2022-05-01T08:47:34Z</time>
      </trkpt>
      <trkpt lat="42.9539" lon="-0.09479">
        <ele>1008.4</ele>
        <time>2022-05-01T08:47:38Z</time>
      </trkpt>
      <trkpt lat="42.95391" lon="-0.09476">
        <ele>1008.4</ele>
        <time>2022-05-01T08:47:39Z</time>
      </trkpt>
      <trkpt lat="42.95396" lon="-0.0946">
        <ele>1008</ele>
        <time>2022-05-01T08:47:43Z</time>
      </trkpt>
      <trkpt lat="42.95399" lon="-0.09448">
        <ele>1007.8</ele>
        <time>2022-05-01T08:47:47Z</time>
      </trkpt>
      <trkpt lat="42.95403" lon="-0.09425">
        <ele>1007.4</ele>
        <time>2022-05-01T08:47:54Z</time>
      </trkpt>
      <trkpt lat="42.95402" lon="-0.0942">
        <ele>1007.4</ele>
        <time>2022-05-01T08:47:55Z</time>
      </trkpt>
      <trkpt lat="42.95402" lon="-0.09402">
        <ele>1007.4</ele>
        <time>2022-05-01T08:47:59Z</time>
      </trkpt>
      <trkpt lat="42.95404" lon="-0.09387">
        <ele>1007.4</ele>
        <time>2022-05-01T08:48:05Z</time>
      </trkpt>
      <trkpt lat="42.95406" lon="-0.09387">
        <ele>1007.4</ele>
        <time>2022-05-01T08:48:10Z</time>
      </trkpt>
      <trkpt lat="42.95406" lon="-0.09387">
        <ele>1007.4</ele>
        <time>2022-05-01T08:48:19Z</time>
      </trkpt>
      <trkpt lat="42.95406" lon="-0.09386">
        <ele>1007.4</ele>
        <time>2022-05-01T08:48:26Z</time>
      </trkpt>
      <trkpt lat="42.95407" lon="-0.09386">
        <ele>1006.4</ele>
        <time>2022-05-01T08:48:35Z</time>
      </trkpt>
      <trkpt lat="42.95408" lon="-0.09384">
        <ele>1005.8</ele>
        <time>2022-05-01T08:48:39Z</time>
      </trkpt>
      <trkpt lat="42.95413" lon="-0.09377">
        <ele>1005.4</ele>
        <time>2022-05-01T08:48:42Z</time>
      </trkpt>
      <trkpt lat="42.95419" lon="-0.09367">
        <ele>1004.4</ele>
        <time>2022-05-01T08:48:45Z</time>
      </trkpt>
      <trkpt lat="42.95421" lon="-0.09363">
        <ele>1003.8</ele>
        <time>2022-05-01T08:48:46Z</time>
      </trkpt>
      <trkpt lat="42.95422" lon="-0.09359">
        <ele>1003.4</ele>
        <time>2022-05-01T08:48:47Z</time>
      </trkpt>
      <trkpt lat="42.95424" lon="-0.0935">
        <ele>1002.2</ele>
        <time>2022-05-01T08:48:49Z</time>
      </trkpt>
      <trkpt lat="42.95425" lon="-0.09345">
        <ele>1001.8</ele>
        <time>2022-05-01T08:48:50Z</time>
      </trkpt>
      <trkpt lat="42.95424" lon="-0.09339">
        <ele>1001.2</ele>
        <time>2022-05-01T08:48:51Z</time>
      </trkpt>
      <trkpt lat="42.95423" lon="-0.0933">
        <ele>999.6</ele>
        <time>2022-05-01T08:48:53Z</time>
      </trkpt>
      <trkpt lat="42.95421" lon="-0.09319">
        <ele>998.4</ele>
        <time>2022-05-01T08:48:55Z</time>
      </trkpt>
      <trkpt lat="42.9542" lon="-0.09313">
        <ele>998</ele>
        <time>2022-05-01T08:48:56Z</time>
      </trkpt>
      <trkpt lat="42.95415" lon="-0.09298">
        <ele>997.2</ele>
        <time>2022-05-01T08:48:59Z</time>
      </trkpt>
      <trkpt lat="42.95411" lon="-0.09273">
        <ele>996.6</ele>
        <time>2022-05-01T08:49:03Z</time>
      </trkpt>
      <trkpt lat="42.95411" lon="-0.09269">
        <ele>996.2</ele>
        <time>2022-05-01T08:49:04Z</time>
      </trkpt>
      <trkpt lat="42.95411" lon="-0.09264">
        <ele>995.6</ele>
        <time>2022-05-01T08:49:06Z</time>
      </trkpt>
      <trkpt lat="42.95411" lon="-0.09262">
        <ele>995.4</ele>
        <time>2022-05-01T08:49:07Z</time>
      </trkpt>
      <trkpt lat="42.95409" lon="-0.0926">
        <ele>994.6</ele>
        <time>2022-05-01T08:49:08Z</time>
      </trkpt>
      <trkpt lat="42.95406" lon="-0.09242">
        <ele>993.4</ele>
        <time>2022-05-01T08:49:12Z</time>
      </trkpt>
      <trkpt lat="42.95403" lon="-0.09221">
        <ele>992.6</ele>
        <time>2022-05-01T08:49:18Z</time>
      </trkpt>
      <trkpt lat="42.95403" lon="-0.09216">
        <ele>992.2</ele>
        <time>2022-05-01T08:49:20Z</time>
      </trkpt>
      <trkpt lat="42.95403" lon="-0.09208">
        <ele>991.2</ele>
        <time>2022-05-01T08:49:23Z</time>
      </trkpt>
      <trkpt lat="42.95399" lon="-0.09186">
        <ele>990</ele>
        <time>2022-05-01T08:49:28Z</time>
      </trkpt>
      <trkpt lat="42.95398" lon="-0.09175">
        <ele>988.8</ele>
        <time>2022-05-01T08:49:30Z</time>
      </trkpt>
      <trkpt lat="42.95396" lon="-0.09166">
        <ele>988.4</ele>
        <time>2022-05-01T08:49:32Z</time>
      </trkpt>
      <trkpt lat="42.95394" lon="-0.09144">
        <ele>988</ele>
        <time>2022-05-01T08:49:38Z</time>
      </trkpt>
      <trkpt lat="42.95399" lon="-0.09127">
        <ele>988</ele>
        <time>2022-05-01T08:49:44Z</time>
      </trkpt>
      <trkpt lat="42.95404" lon="-0.0912">
        <ele>988</ele>
        <time>2022-05-01T08:49:48Z</time>
      </trkpt>
      <trkpt lat="42.95406" lon="-0.09116">
        <ele>988</ele>
        <time>2022-05-01T08:49:50Z</time>
      </trkpt>
      <trkpt lat="42.9541" lon="-0.09109">
        <ele>987.8</ele>
        <time>2022-05-01T08:49:52Z</time>
      </trkpt>
      <trkpt lat="42.95412" lon="-0.09107">
        <ele>987.6</ele>
        <time>2022-05-01T08:49:54Z</time>
      </trkpt>
      <trkpt lat="42.95415" lon="-0.09105">
        <ele>987.2</ele>
        <time>2022-05-01T08:50:01Z</time>
      </trkpt>
      <trkpt lat="42.95417" lon="-0.09104">
        <ele>988</ele>
        <time>2022-05-01T08:50:07Z</time>
      </trkpt>
      <trkpt lat="42.95417" lon="-0.09104">
        <ele>988.6</ele>
        <time>2022-05-01T08:50:18Z</time>
      </trkpt>
      <trkpt lat="42.95417" lon="-0.09104">
        <ele>988.2</ele>
        <time>2022-05-01T08:50:26Z</time>
      </trkpt>
      <trkpt lat="42.95417" lon="-0.09103">
        <ele>987.6</ele>
        <time>2022-05-01T08:50:31Z</time>
      </trkpt>
      <trkpt lat="42.95422" lon="-0.09098">
        <ele>987.2</ele>
        <time>2022-05-01T08:50:33Z</time>
      </trkpt>
      <trkpt lat="42.95426" lon="-0.09093">
        <ele>987.2</ele>
        <time>2022-05-01T08:50:34Z</time>
      </trkpt>
      <trkpt lat="42.95429" lon="-0.09087">
        <ele>986.8</ele>
        <time>2022-05-01T08:50:35Z</time>
      </trkpt>
      <trkpt lat="42.95436" lon="-0.09073">
        <ele>986.6</ele>
        <time>2022-05-01T08:50:37Z</time>
      </trkpt>
      <trkpt lat="42.95439" lon="-0.09065">
        <ele>986.4</ele>
        <time>2022-05-01T08:50:38Z</time>
      </trkpt>
      <trkpt lat="42.95442" lon="-0.09056">
        <ele>986.2</ele>
        <time>2022-05-01T08:50:39Z</time>
      </trkpt>
      <trkpt lat="42.95444" lon="-0.09038">
        <ele>985.6</ele>
        <time>2022-05-01T08:50:41Z</time>
      </trkpt>
      <trkpt lat="42.95451" lon="-0.09015">
        <ele>984.8</ele>
        <time>2022-05-01T08:50:45Z</time>
      </trkpt>
      <trkpt lat="42.95451" lon="-0.09011">
        <ele>984.6</ele>
        <time>2022-05-01T08:50:46Z</time>
      </trkpt>
      <trkpt lat="42.95452" lon="-0.08991">
        <ele>983.8</ele>
        <time>2022-05-01T08:50:50Z</time>
      </trkpt>
      <trkpt lat="42.95451" lon="-0.08975">
        <ele>983.6</ele>
        <time>2022-05-01T08:50:53Z</time>
      </trkpt>
      <trkpt lat="42.95449" lon="-0.08966">
        <ele>983.4</ele>
        <time>2022-05-01T08:50:55Z</time>
      </trkpt>
      <trkpt lat="42.95447" lon="-0.08949">
        <ele>982.4</ele>
        <time>2022-05-01T08:51:00Z</time>
      </trkpt>
      <trkpt lat="42.95447" lon="-0.08947">
        <ele>982.2</ele>
        <time>2022-05-01T08:51:01Z</time>
      </trkpt>
      <trkpt lat="42.95448" lon="-0.0894">
        <ele>981.2</ele>
        <time>2022-05-01T08:51:05Z</time>
      </trkpt>
      <trkpt lat="42.95448" lon="-0.0894">
        <ele>980.6</ele>
        <time>2022-05-01T08:51:08Z</time>
      </trkpt>
      <trkpt lat="42.95448" lon="-0.08939">
        <ele>980</ele>
        <time>2022-05-01T08:51:10Z</time>
      </trkpt>
      <trkpt lat="42.95448" lon="-0.08936">
        <ele>979</ele>
        <time>2022-05-01T08:51:16Z</time>
      </trkpt>
      <trkpt lat="42.95448" lon="-0.08936">
        <ele>978.8</ele>
        <time>2022-05-01T08:51:17Z</time>
      </trkpt>
      <trkpt lat="42.95449" lon="-0.08934">
        <ele>978</ele>
        <time>2022-05-01T08:51:24Z</time>
      </trkpt>
      <trkpt lat="42.95449" lon="-0.08931">
        <ele>977.8</ele>
        <time>2022-05-01T08:51:25Z</time>
      </trkpt>
      <trkpt lat="42.9545" lon="-0.08923">
        <ele>977.4</ele>
        <time>2022-05-01T08:51:28Z</time>
      </trkpt>
      <trkpt lat="42.95449" lon="-0.08919">
        <ele>977</ele>
        <time>2022-05-01T08:51:30Z</time>
      </trkpt>
      <trkpt lat="42.95448" lon="-0.08917">
        <ele>976.8</ele>
        <time>2022-05-01T08:51:31Z</time>
      </trkpt>
      <trkpt lat="42.95446" lon="-0.08913">
        <ele>975.4</ele>
        <time>2022-05-01T08:51:36Z</time>
      </trkpt>
      <trkpt lat="42.95446" lon="-0.08913">
        <ele>974.4</ele>
        <time>2022-05-01T08:51:39Z</time>
      </trkpt>
      <trkpt lat="42.95443" lon="-0.08904">
        <ele>973.4</ele>
        <time>2022-05-01T08:51:45Z</time>
      </trkpt>
      <trkpt lat="42.95442" lon="-0.08902">
        <ele>973.4</ele>
        <time>2022-05-01T08:51:46Z</time>
      </trkpt>
      <trkpt lat="42.95438" lon="-0.08893">
        <ele>972.2</ele>
        <time>2022-05-01T08:51:50Z</time>
      </trkpt>
      <trkpt lat="42.95435" lon="-0.08888">
        <ele>971.8</ele>
        <time>2022-05-01T08:51:52Z</time>
      </trkpt>
      <trkpt lat="42.95434" lon="-0.08884">
        <ele>971.2</ele>
        <time>2022-05-01T08:51:54Z</time>
      </trkpt>
      <trkpt lat="42.95432" lon="-0.08879">
        <ele>969.8</ele>
        <time>2022-05-01T08:51:59Z</time>
      </trkpt>
      <trkpt lat="42.95432" lon="-0.08878">
        <ele>969.4</ele>
        <time>2022-05-01T08:52:00Z</time>
      </trkpt>
      <trkpt lat="42.95432" lon="-0.08878">
        <ele>968.6</ele>
        <time>2022-05-01T08:52:01Z</time>
      </trkpt>
      <trkpt lat="42.95432" lon="-0.08876">
        <ele>967.4</ele>
        <time>2022-05-01T08:52:04Z</time>
      </trkpt>
      <trkpt lat="42.95429" lon="-0.08865">
        <ele>966.6</ele>
        <time>2022-05-01T08:52:07Z</time>
      </trkpt>
      <trkpt lat="42.95428" lon="-0.08858">
        <ele>966.2</ele>
        <time>2022-05-01T08:52:09Z</time>
      </trkpt>
      <trkpt lat="42.95428" lon="-0.08855">
        <ele>965.4</ele>
        <time>2022-05-01T08:52:11Z</time>
      </trkpt>
      <trkpt lat="42.95428" lon="-0.08855">
        <ele>964.6</ele>
        <time>2022-05-01T08:52:13Z</time>
      </trkpt>
      <trkpt lat="42.95428" lon="-0.08855">
        <ele>963.4</ele>
        <time>2022-05-01T08:52:16Z</time>
      </trkpt>
      <trkpt lat="42.95429" lon="-0.08853">
        <ele>962.2</ele>
        <time>2022-05-01T08:52:24Z</time>
      </trkpt>
      <trkpt lat="42.95429" lon="-0.08853">
        <ele>962.2</ele>
        <time>2022-05-01T08:52:25Z</time>
      </trkpt>
      <trkpt lat="42.95429" lon="-0.08853">
        <ele>962.2</ele>
        <time>2022-05-01T08:52:30Z</time>
      </trkpt>
      <trkpt lat="42.95431" lon="-0.08851">
        <ele>962</ele>
        <time>2022-05-01T08:52:33Z</time>
      </trkpt>
      <trkpt lat="42.95438" lon="-0.08848">
        <ele>962.4</ele>
        <time>2022-05-01T08:52:45Z</time>
      </trkpt>
      <trkpt lat="42.95444" lon="-0.08845">
        <ele>963.4</ele>
        <time>2022-05-01T08:52:50Z</time>
      </trkpt>
      <trkpt lat="42.95445" lon="-0.08844">
        <ele>964.6</ele>
        <time>2022-05-01T08:52:54Z</time>
      </trkpt>
      <trkpt lat="42.9545" lon="-0.08844">
        <ele>965.4</ele>
        <time>2022-05-01T08:52:59Z</time>
      </trkpt>
      <trkpt lat="42.95453" lon="-0.08845">
        <ele>965.6</ele>
        <time>2022-05-01T08:53:02Z</time>
      </trkpt>
      <trkpt lat="42.95455" lon="-0.08842">
        <ele>966</ele>
        <time>2022-05-01T08:53:06Z</time>
      </trkpt>
      <trkpt lat="42.95456" lon="-0.08842">
        <ele>967</ele>
        <time>2022-05-01T08:53:09Z</time>
      </trkpt>
      <trkpt lat="42.95456" lon="-0.08842">
        <ele>967.6</ele>
        <time>2022-05-01T08:53:12Z</time>
      </trkpt>
      <trkpt lat="42.95463" lon="-0.0884">
        <ele>968</ele>
        <time>2022-05-01T08:53:18Z</time>
      </trkpt>
      <trkpt lat="42.95465" lon="-0.0884">
        <ele>968.6</ele>
        <time>2022-05-01T08:53:19Z</time>
      </trkpt>
      <trkpt lat="42.95469" lon="-0.08838">
        <ele>968.6</ele>
        <time>2022-05-01T08:53:21Z</time>
      </trkpt>
      <trkpt lat="42.95475" lon="-0.08836">
        <ele>969.6</ele>
        <time>2022-05-01T08:53:25Z</time>
      </trkpt>
      <trkpt lat="42.95477" lon="-0.08835">
        <ele>970</ele>
        <time>2022-05-01T08:53:26Z</time>
      </trkpt>
      <trkpt lat="42.95478" lon="-0.08835">
        <ele>970.2</ele>
        <time>2022-05-01T08:53:27Z</time>
      </trkpt>
      <trkpt lat="42.9548" lon="-0.08835">
        <ele>970.6</ele>
        <time>2022-05-01T08:53:28Z</time>
      </trkpt>
      <trkpt lat="42.95486" lon="-0.08834">
        <ele>971.8</ele>
        <time>2022-05-01T08:53:31Z</time>
      </trkpt>
      <trkpt lat="42.95489" lon="-0.08833">
        <ele>972.2</ele>
        <time>2022-05-01T08:53:32Z</time>
      </trkpt>
      <trkpt lat="42.95498" lon="-0.08832">
        <ele>972.2</ele>
        <time>2022-05-01T08:53:35Z</time>
      </trkpt>
      <trkpt lat="42.95515" lon="-0.08827">
        <ele>973.2</ele>
        <time>2022-05-01T08:53:42Z</time>
      </trkpt>
      <trkpt lat="42.95518" lon="-0.08826">
        <ele>973.2</ele>
        <time>2022-05-01T08:53:43Z</time>
      </trkpt>
      <trkpt lat="42.95531" lon="-0.08825">
        <ele>974.2</ele>
        <time>2022-05-01T08:53:49Z</time>
      </trkpt>
      <trkpt lat="42.95534" lon="-0.08824">
        <ele>974.4</ele>
        <time>2022-05-01T08:53:51Z</time>
      </trkpt>
      <trkpt lat="42.95544" lon="-0.0882">
        <ele>974.8</ele>
        <time>2022-05-01T08:53:55Z</time>
      </trkpt>
      <trkpt lat="42.95561" lon="-0.08815">
        <ele>974.4</ele>
        <time>2022-05-01T08:53:59Z</time>
      </trkpt>
      <trkpt lat="42.95576" lon="-0.08812">
        <ele>973.2</ele>
        <time>2022-05-01T08:54:04Z</time>
      </trkpt>
      <trkpt lat="42.95587" lon="-0.08812">
        <ele>973</ele>
        <time>2022-05-01T08:54:09Z</time>
      </trkpt>
      <trkpt lat="42.95617" lon="-0.08813">
        <ele>972.8</ele>
        <time>2022-05-01T08:54:20Z</time>
      </trkpt>
      <trkpt lat="42.95635" lon="-0.08811">
        <ele>972.8</ele>
        <time>2022-05-01T08:54:26Z</time>
      </trkpt>
      <trkpt lat="42.95639" lon="-0.08811">
        <ele>972.8</ele>
        <time>2022-05-01T08:54:28Z</time>
      </trkpt>
      <trkpt lat="42.95641" lon="-0.08811">
        <ele>973</ele>
        <time>2022-05-01T08:54:29Z</time>
      </trkpt>
      <trkpt lat="42.95644" lon="-0.08812">
        <ele>973</ele>
        <time>2022-05-01T08:54:32Z</time>
      </trkpt>
      <trkpt lat="42.95645" lon="-0.08811">
        <ele>973.2</ele>
        <time>2022-05-01T08:54:39Z</time>
      </trkpt>
      <trkpt lat="42.95647" lon="-0.08811">
        <ele>973.2</ele>
        <time>2022-05-01T08:54:45Z</time>
      </trkpt>
      <trkpt lat="42.95654" lon="-0.08815">
        <ele>972.8</ele>
        <time>2022-05-01T08:54:52Z</time>
      </trkpt>
      <trkpt lat="42.95665" lon="-0.08822">
        <ele>972.6</ele>
        <time>2022-05-01T08:54:58Z</time>
      </trkpt>
      <trkpt lat="42.95681" lon="-0.08829">
        <ele>973.2</ele>
        <time>2022-05-01T08:55:05Z</time>
      </trkpt>
      <trkpt lat="42.95691" lon="-0.08842">
        <ele>974</ele>
        <time>2022-05-01T08:55:12Z</time>
      </trkpt>
      <trkpt lat="42.95694" lon="-0.08843">
        <ele>974</ele>
        <time>2022-05-01T08:55:15Z</time>
      </trkpt>
      <trkpt lat="42.95696" lon="-0.08844">
        <ele>974</ele>
        <time>2022-05-01T08:55:16Z</time>
      </trkpt>
      <trkpt lat="42.95699" lon="-0.08844">
        <ele>974</ele>
        <time>2022-05-01T08:55:17Z</time>
      </trkpt>
      <trkpt lat="42.95711" lon="-0.08843">
        <ele>973.2</ele>
        <time>2022-05-01T08:55:22Z</time>
      </trkpt>
      <trkpt lat="42.95718" lon="-0.08841">
        <ele>972</ele>
        <time>2022-05-01T08:55:25Z</time>
      </trkpt>
      <trkpt lat="42.95732" lon="-0.08833">
        <ele>970.6</ele>
        <time>2022-05-01T08:55:29Z</time>
      </trkpt>
      <trkpt lat="42.95738" lon="-0.08827">
        <ele>969.4</ele>
        <time>2022-05-01T08:55:32Z</time>
      </trkpt>
      <trkpt lat="42.95741" lon="-0.08822">
        <ele>968.8</ele>
        <time>2022-05-01T08:55:34Z</time>
      </trkpt>
      <trkpt lat="42.95742" lon="-0.08819">
        <ele>968.2</ele>
        <time>2022-05-01T08:55:35Z</time>
      </trkpt>
      <trkpt lat="42.95746" lon="-0.08811">
        <ele>967</ele>
        <time>2022-05-01T08:55:38Z</time>
      </trkpt>
      <trkpt lat="42.95748" lon="-0.08807">
        <ele>965.8</ele>
        <time>2022-05-01T08:55:41Z</time>
      </trkpt>
      <trkpt lat="42.95748" lon="-0.08807">
        <ele>963.8</ele>
        <time>2022-05-01T08:55:44Z</time>
      </trkpt>
      <trkpt lat="42.95748" lon="-0.08807">
        <ele>962.8</ele>
        <time>2022-05-01T08:55:47Z</time>
      </trkpt>
      <trkpt lat="42.95748" lon="-0.08804">
        <ele>962.6</ele>
        <time>2022-05-01T08:55:49Z</time>
      </trkpt>
      <trkpt lat="42.95747" lon="-0.08798">
        <ele>962.4</ele>
        <time>2022-05-01T08:55:51Z</time>
      </trkpt>
      <trkpt lat="42.95746" lon="-0.08784">
        <ele>962.2</ele>
        <time>2022-05-01T08:55:55Z</time>
      </trkpt>
      <trkpt lat="42.95746" lon="-0.08781">
        <ele>962.2</ele>
        <time>2022-05-01T08:55:56Z</time>
      </trkpt>
      <trkpt lat="42.95746" lon="-0.08781">
        <ele>961.8</ele>
        <time>2022-05-01T08:55:58Z</time>
      </trkpt>
      <trkpt lat="42.95746" lon="-0.08781">
        <ele>961.6</ele>
        <time>2022-05-01T08:55:59Z</time>
      </trkpt>
      <trkpt lat="42.95746" lon="-0.08781">
        <ele>960.8</ele>
        <time>2022-05-01T08:56:06Z</time>
      </trkpt>
      <trkpt lat="42.95746" lon="-0.08781">
        <ele>959.6</ele>
        <time>2022-05-01T08:56:16Z</time>
      </trkpt>
      <trkpt lat="42.95746" lon="-0.08781">
        <ele>959.4</ele>
        <time>2022-05-01T08:56:30Z</time>
      </trkpt>
      <trkpt lat="42.95746" lon="-0.08781">
        <ele>959.8</ele>
        <time>2022-05-01T08:57:12Z</time>
      </trkpt>
      <trkpt lat="42.95746" lon="-0.08781">
        <ele>960.2</ele>
        <time>2022-05-01T08:58:25Z</time>
      </trkpt>
      <trkpt lat="42.95747" lon="-0.0878">
        <ele>961</ele>
        <time>2022-05-01T08:58:37Z</time>
      </trkpt>
      <trkpt lat="42.95748" lon="-0.08782">
        <ele>961</ele>
        <time>2022-05-01T08:59:15Z</time>
      </trkpt>
      <trkpt lat="42.9575" lon="-0.08792">
        <ele>961.4</ele>
        <time>2022-05-01T08:59:22Z</time>
      </trkpt>
      <trkpt lat="42.95757" lon="-0.08802">
        <ele>961.6</ele>
        <time>2022-05-01T08:59:26Z</time>
      </trkpt>
      <trkpt lat="42.95759" lon="-0.08803">
        <ele>961.6</ele>
        <time>2022-05-01T08:59:27Z</time>
      </trkpt>
      <trkpt lat="42.95777" lon="-0.08806">
        <ele>961.6</ele>
        <time>2022-05-01T08:59:34Z</time>
      </trkpt>
      <trkpt lat="42.95787" lon="-0.08804">
        <ele>960.2</ele>
        <time>2022-05-01T08:59:38Z</time>
      </trkpt>
      <trkpt lat="42.9579" lon="-0.08805">
        <ele>959.8</ele>
        <time>2022-05-01T08:59:39Z</time>
      </trkpt>
      <trkpt lat="42.95797" lon="-0.08807">
        <ele>958.6</ele>
        <time>2022-05-01T08:59:41Z</time>
      </trkpt>
      <trkpt lat="42.95804" lon="-0.08812">
        <ele>958.2</ele>
        <time>2022-05-01T08:59:43Z</time>
      </trkpt>
      <trkpt lat="42.95807" lon="-0.08814">
        <ele>958</ele>
        <time>2022-05-01T08:59:44Z</time>
      </trkpt>
      <trkpt lat="42.95809" lon="-0.08816">
        <ele>957.2</ele>
        <time>2022-05-01T08:59:45Z</time>
      </trkpt>
      <trkpt lat="42.95814" lon="-0.08823">
        <ele>956</ele>
        <time>2022-05-01T08:59:48Z</time>
      </trkpt>
      <trkpt lat="42.95818" lon="-0.08825">
        <ele>955.2</ele>
        <time>2022-05-01T08:59:50Z</time>
      </trkpt>
      <trkpt lat="42.95823" lon="-0.08828">
        <ele>954.8</ele>
        <time>2022-05-01T08:59:52Z</time>
      </trkpt>
      <trkpt lat="42.95825" lon="-0.08827">
        <ele>954.8</ele>
        <time>2022-05-01T08:59:53Z</time>
      </trkpt>
      <trkpt lat="42.95827" lon="-0.08826">
        <ele>954.4</ele>
        <time>2022-05-01T08:59:55Z</time>
      </trkpt>
      <trkpt lat="42.95827" lon="-0.08822">
        <ele>953</ele>
        <time>2022-05-01T08:59:58Z</time>
      </trkpt>
      <trkpt lat="42.95825" lon="-0.08817">
        <ele>952</ele>
        <time>2022-05-01T09:00:01Z</time>
      </trkpt>
      <trkpt lat="42.95826" lon="-0.08814">
        <ele>950.8</ele>
        <time>2022-05-01T09:00:04Z</time>
      </trkpt>
      <trkpt lat="42.95827" lon="-0.08815">
        <ele>950</ele>
        <time>2022-05-01T09:00:06Z</time>
      </trkpt>
      <trkpt lat="42.95827" lon="-0.08814">
        <ele>949.6</ele>
        <time>2022-05-01T09:00:08Z</time>
      </trkpt>
      <trkpt lat="42.95827" lon="-0.08814">
        <ele>948.8</ele>
        <time>2022-05-01T09:00:13Z</time>
      </trkpt>
      <trkpt lat="42.95829" lon="-0.08815">
        <ele>948.6</ele>
        <time>2022-05-01T09:00:14Z</time>
      </trkpt>
      <trkpt lat="42.9583" lon="-0.08816">
        <ele>948</ele>
        <time>2022-05-01T09:00:18Z</time>
      </trkpt>
      <trkpt lat="42.9583" lon="-0.08816">
        <ele>947.4</ele>
        <time>2022-05-01T09:00:22Z</time>
      </trkpt>
      <trkpt lat="42.95833" lon="-0.08819">
        <ele>946.4</ele>
        <time>2022-05-01T09:00:37Z</time>
      </trkpt>
      <trkpt lat="42.95834" lon="-0.08819">
        <ele>945.2</ele>
        <time>2022-05-01T09:00:45Z</time>
      </trkpt>
      <trkpt lat="42.95834" lon="-0.08819">
        <ele>944.2</ele>
        <time>2022-05-01T09:00:51Z</time>
      </trkpt>
      <trkpt lat="42.95834" lon="-0.08819">
        <ele>943</ele>
        <time>2022-05-01T09:00:58Z</time>
      </trkpt>
      <trkpt lat="42.95834" lon="-0.08818">
        <ele>941.8</ele>
        <time>2022-05-01T09:01:04Z</time>
      </trkpt>
      <trkpt lat="42.95836" lon="-0.08819">
        <ele>940.6</ele>
        <time>2022-05-01T09:01:11Z</time>
      </trkpt>
      <trkpt lat="42.95843" lon="-0.08822">
        <ele>940.2</ele>
        <time>2022-05-01T09:01:13Z</time>
      </trkpt>
      <trkpt lat="42.95849" lon="-0.08825">
        <ele>939.6</ele>
        <time>2022-05-01T09:01:16Z</time>
      </trkpt>
      <trkpt lat="42.95851" lon="-0.08825">
        <ele>939.2</ele>
        <time>2022-05-01T09:01:17Z</time>
      </trkpt>
      <trkpt lat="42.95854" lon="-0.08825">
        <ele>938.2</ele>
        <time>2022-05-01T09:01:19Z</time>
      </trkpt>
      <trkpt lat="42.95854" lon="-0.08825">
        <ele>937</ele>
        <time>2022-05-01T09:01:21Z</time>
      </trkpt>
      <trkpt lat="42.95855" lon="-0.08824">
        <ele>936.8</ele>
        <time>2022-05-01T09:01:22Z</time>
      </trkpt>
      <trkpt lat="42.95855" lon="-0.08823">
        <ele>935.6</ele>
        <time>2022-05-01T09:01:24Z</time>
      </trkpt>
      <trkpt lat="42.95856" lon="-0.08818">
        <ele>934.4</ele>
        <time>2022-05-01T09:01:28Z</time>
      </trkpt>
      <trkpt lat="42.95856" lon="-0.08818">
        <ele>934</ele>
        <time>2022-05-01T09:01:30Z</time>
      </trkpt>
      <trkpt lat="42.95856" lon="-0.08818">
        <ele>933</ele>
        <time>2022-05-01T09:01:34Z</time>
      </trkpt>
      <trkpt lat="42.95856" lon="-0.08818">
        <ele>932</ele>
        <time>2022-05-01T09:01:37Z</time>
      </trkpt>
      <trkpt lat="42.95856" lon="-0.08818">
        <ele>931.8</ele>
        <time>2022-05-01T09:01:39Z</time>
      </trkpt>
      <trkpt lat="42.9586" lon="-0.08819">
        <ele>930.6</ele>
        <time>2022-05-01T09:01:43Z</time>
      </trkpt>
      <trkpt lat="42.95863" lon="-0.08821">
        <ele>930.2</ele>
        <time>2022-05-01T09:01:45Z</time>
      </trkpt>
      <trkpt lat="42.95865" lon="-0.08823">
        <ele>929.6</ele>
        <time>2022-05-01T09:01:49Z</time>
      </trkpt>
      <trkpt lat="42.95866" lon="-0.08822">
        <ele>929.2</ele>
        <time>2022-05-01T09:01:51Z</time>
      </trkpt>
      <trkpt lat="42.95869" lon="-0.0882">
        <ele>928.6</ele>
        <time>2022-05-01T09:01:56Z</time>
      </trkpt>
      <trkpt lat="42.95869" lon="-0.08821">
        <ele>928.4</ele>
        <time>2022-05-01T09:01:58Z</time>
      </trkpt>
      <trkpt lat="42.95869" lon="-0.08821">
        <ele>928.4</ele>
        <time>2022-05-01T09:02:00Z</time>
      </trkpt>
      <trkpt lat="42.95869" lon="-0.08821">
        <ele>928.2</ele>
        <time>2022-05-01T09:02:02Z</time>
      </trkpt>
      <trkpt lat="42.95871" lon="-0.08821">
        <ele>928</ele>
        <time>2022-05-01T09:02:09Z</time>
      </trkpt>
      <trkpt lat="42.95871" lon="-0.08822">
        <ele>927.6</ele>
        <time>2022-05-01T09:02:17Z</time>
      </trkpt>
      <trkpt lat="42.95871" lon="-0.08822">
        <ele>927</ele>
        <time>2022-05-01T09:02:23Z</time>
      </trkpt>
      <trkpt lat="42.95877" lon="-0.08823">
        <ele>926.6</ele>
        <time>2022-05-01T09:02:28Z</time>
      </trkpt>
      <trkpt lat="42.95878" lon="-0.08826">
        <ele>925.8</ele>
        <time>2022-05-01T09:02:30Z</time>
      </trkpt>
      <trkpt lat="42.95879" lon="-0.08827">
        <ele>925.6</ele>
        <time>2022-05-01T09:02:31Z</time>
      </trkpt>
      <trkpt lat="42.95882" lon="-0.08828">
        <ele>925</ele>
        <time>2022-05-01T09:02:33Z</time>
      </trkpt>
      <trkpt lat="42.95883" lon="-0.08829">
        <ele>924.6</ele>
        <time>2022-05-01T09:02:34Z</time>
      </trkpt>
      <trkpt lat="42.95888" lon="-0.08829">
        <ele>924.2</ele>
        <time>2022-05-01T09:02:39Z</time>
      </trkpt>
      <trkpt lat="42.9589" lon="-0.08828">
        <ele>923.8</ele>
        <time>2022-05-01T09:02:45Z</time>
      </trkpt>
      <trkpt lat="42.95892" lon="-0.08828">
        <ele>923.6</ele>
        <time>2022-05-01T09:02:48Z</time>
      </trkpt>
      <trkpt lat="42.95894" lon="-0.08827">
        <ele>923.6</ele>
        <time>2022-05-01T09:02:49Z</time>
      </trkpt>
      <trkpt lat="42.95903" lon="-0.08826">
        <ele>923.4</ele>
        <time>2022-05-01T09:02:51Z</time>
      </trkpt>
      <trkpt lat="42.95915" lon="-0.08827">
        <ele>922.6</ele>
        <time>2022-05-01T09:02:54Z</time>
      </trkpt>
      <trkpt lat="42.95919" lon="-0.08824">
        <ele>922</ele>
        <time>2022-05-01T09:02:55Z</time>
      </trkpt>
      <trkpt lat="42.95929" lon="-0.0882">
        <ele>921.4</ele>
        <time>2022-05-01T09:02:57Z</time>
      </trkpt>
      <trkpt lat="42.95942" lon="-0.08822">
        <ele>920.4</ele>
        <time>2022-05-01T09:03:00Z</time>
      </trkpt>
      <trkpt lat="42.95945" lon="-0.08824">
        <ele>919.2</ele>
        <time>2022-05-01T09:03:01Z</time>
      </trkpt>
      <trkpt lat="42.95949" lon="-0.08823">
        <ele>917.6</ele>
        <time>2022-05-01T09:03:02Z</time>
      </trkpt>
      <trkpt lat="42.95956" lon="-0.08821">
        <ele>916</ele>
        <time>2022-05-01T09:03:04Z</time>
      </trkpt>
      <trkpt lat="42.95964" lon="-0.08818">
        <ele>915</ele>
        <time>2022-05-01T09:03:06Z</time>
      </trkpt>
      <trkpt lat="42.95968" lon="-0.08818">
        <ele>914.6</ele>
        <time>2022-05-01T09:03:07Z</time>
      </trkpt>
      <trkpt lat="42.95973" lon="-0.08817">
        <ele>913.8</ele>
        <time>2022-05-01T09:03:08Z</time>
      </trkpt>
      <trkpt lat="42.95984" lon="-0.08818">
        <ele>912.6</ele>
        <time>2022-05-01T09:03:10Z</time>
      </trkpt>
      <trkpt lat="42.95992" lon="-0.0882">
        <ele>911.4</ele>
        <time>2022-05-01T09:03:12Z</time>
      </trkpt>
      <trkpt lat="42.95995" lon="-0.08819">
        <ele>910.8</ele>
        <time>2022-05-01T09:03:13Z</time>
      </trkpt>
      <trkpt lat="42.95997" lon="-0.08819">
        <ele>909.8</ele>
        <time>2022-05-01T09:03:14Z</time>
      </trkpt>
      <trkpt lat="42.96" lon="-0.08819">
        <ele>909.4</ele>
        <time>2022-05-01T09:03:15Z</time>
      </trkpt>
      <trkpt lat="42.96002" lon="-0.08819">
        <ele>908.6</ele>
        <time>2022-05-01T09:03:16Z</time>
      </trkpt>
      <trkpt lat="42.96004" lon="-0.08818">
        <ele>908.2</ele>
        <time>2022-05-01T09:03:17Z</time>
      </trkpt>
      <trkpt lat="42.96008" lon="-0.08816">
        <ele>907.6</ele>
        <time>2022-05-01T09:03:18Z</time>
      </trkpt>
      <trkpt lat="42.96011" lon="-0.08814">
        <ele>906.8</ele>
        <time>2022-05-01T09:03:19Z</time>
      </trkpt>
      <trkpt lat="42.96021" lon="-0.08815">
        <ele>906</ele>
        <time>2022-05-01T09:03:21Z</time>
      </trkpt>
      <trkpt lat="42.96025" lon="-0.08816">
        <ele>905.6</ele>
        <time>2022-05-01T09:03:22Z</time>
      </trkpt>
      <trkpt lat="42.96028" lon="-0.08816">
        <ele>904.2</ele>
        <time>2022-05-01T09:03:23Z</time>
      </trkpt>
      <trkpt lat="42.96035" lon="-0.08814">
        <ele>902.6</ele>
        <time>2022-05-01T09:03:25Z</time>
      </trkpt>
      <trkpt lat="42.96038" lon="-0.08813">
        <ele>902.2</ele>
        <time>2022-05-01T09:03:26Z</time>
      </trkpt>
      <trkpt lat="42.96041" lon="-0.08813">
        <ele>901</ele>
        <time>2022-05-01T09:03:27Z</time>
      </trkpt>
      <trkpt lat="42.96047" lon="-0.08811">
        <ele>899.4</ele>
        <time>2022-05-01T09:03:29Z</time>
      </trkpt>
      <trkpt lat="42.9605" lon="-0.08811">
        <ele>899</ele>
        <time>2022-05-01T09:03:30Z</time>
      </trkpt>
      <trkpt lat="42.96051" lon="-0.08812">
        <ele>898.2</ele>
        <time>2022-05-01T09:03:31Z</time>
      </trkpt>
      <trkpt lat="42.96053" lon="-0.08813">
        <ele>897.8</ele>
        <time>2022-05-01T09:03:32Z</time>
      </trkpt>
      <trkpt lat="42.96056" lon="-0.08813">
        <ele>897.2</ele>
        <time>2022-05-01T09:03:33Z</time>
      </trkpt>
      <trkpt lat="42.9606" lon="-0.08813">
        <ele>896</ele>
        <time>2022-05-01T09:03:34Z</time>
      </trkpt>
      <trkpt lat="42.96069" lon="-0.08812">
        <ele>894.4</ele>
        <time>2022-05-01T09:03:36Z</time>
      </trkpt>
      <trkpt lat="42.96073" lon="-0.08813">
        <ele>894</ele>
        <time>2022-05-01T09:03:37Z</time>
      </trkpt>
      <trkpt lat="42.96076" lon="-0.08813">
        <ele>893.2</ele>
        <time>2022-05-01T09:03:38Z</time>
      </trkpt>
      <trkpt lat="42.96082" lon="-0.08816">
        <ele>891.4</ele>
        <time>2022-05-01T09:03:40Z</time>
      </trkpt>
      <trkpt lat="42.96093" lon="-0.08816">
        <ele>890</ele>
        <time>2022-05-01T09:03:43Z</time>
      </trkpt>
      <trkpt lat="42.96098" lon="-0.08817">
        <ele>889</ele>
        <time>2022-05-01T09:03:44Z</time>
      </trkpt>
      <trkpt lat="42.96103" lon="-0.08818">
        <ele>888</ele>
        <time>2022-05-01T09:03:45Z</time>
      </trkpt>
      <trkpt lat="42.9611" lon="-0.0882">
        <ele>887</ele>
        <time>2022-05-01T09:03:46Z</time>
      </trkpt>
      <trkpt lat="42.96121" lon="-0.08822">
        <ele>885.8</ele>
        <time>2022-05-01T09:03:48Z</time>
      </trkpt>
      <trkpt lat="42.9613" lon="-0.08823">
        <ele>884</ele>
        <time>2022-05-01T09:03:50Z</time>
      </trkpt>
      <trkpt lat="42.96135" lon="-0.08823">
        <ele>882.8</ele>
        <time>2022-05-01T09:03:51Z</time>
      </trkpt>
      <trkpt lat="42.96144" lon="-0.08823">
        <ele>880.8</ele>
        <time>2022-05-01T09:03:53Z</time>
      </trkpt>
      <trkpt lat="42.96149" lon="-0.08823">
        <ele>880</ele>
        <time>2022-05-01T09:03:54Z</time>
      </trkpt>
      <trkpt lat="42.96153" lon="-0.08824">
        <ele>878.8</ele>
        <time>2022-05-01T09:03:55Z</time>
      </trkpt>
      <trkpt lat="42.96161" lon="-0.08824">
        <ele>877.6</ele>
        <time>2022-05-01T09:03:57Z</time>
      </trkpt>
      <trkpt lat="42.96167" lon="-0.08827">
        <ele>876.4</ele>
        <time>2022-05-01T09:03:59Z</time>
      </trkpt>
      <trkpt lat="42.96168" lon="-0.08828">
        <ele>875</ele>
        <time>2022-05-01T09:04:01Z</time>
      </trkpt>
      <trkpt lat="42.96172" lon="-0.08827">
        <ele>873.8</ele>
        <time>2022-05-01T09:04:03Z</time>
      </trkpt>
      <trkpt lat="42.96175" lon="-0.08828">
        <ele>873</ele>
        <time>2022-05-01T09:04:06Z</time>
      </trkpt>
      <trkpt lat="42.9618" lon="-0.08829">
        <ele>872.8</ele>
        <time>2022-05-01T09:04:09Z</time>
      </trkpt>
      <trkpt lat="42.96182" lon="-0.08828">
        <ele>872.6</ele>
        <time>2022-05-01T09:04:13Z</time>
      </trkpt>
      <trkpt lat="42.96187" lon="-0.08829">
        <ele>872.6</ele>
        <time>2022-05-01T09:04:21Z</time>
      </trkpt>
      <trkpt lat="42.96192" lon="-0.08829">
        <ele>872.4</ele>
        <time>2022-05-01T09:04:29Z</time>
      </trkpt>
      <trkpt lat="42.96205" lon="-0.08832">
        <ele>872.4</ele>
        <time>2022-05-01T09:04:37Z</time>
      </trkpt>
      <trkpt lat="42.96218" lon="-0.08835">
        <ele>872.2</ele>
        <time>2022-05-01T09:04:41Z</time>
      </trkpt>
      <trkpt lat="42.96225" lon="-0.08836">
        <ele>872.2</ele>
        <time>2022-05-01T09:04:42Z</time>
      </trkpt>
      <trkpt lat="42.96239" lon="-0.0884">
        <ele>871.8</ele>
        <time>2022-05-01T09:04:46Z</time>
      </trkpt>
      <trkpt lat="42.96246" lon="-0.0884">
        <ele>871.6</ele>
        <time>2022-05-01T09:04:48Z</time>
      </trkpt>
      <trkpt lat="42.96248" lon="-0.08841">
        <ele>871.6</ele>
        <time>2022-05-01T09:04:49Z</time>
      </trkpt>
      <trkpt lat="42.96258" lon="-0.08847">
        <ele>871</ele>
        <time>2022-05-01T09:04:52Z</time>
      </trkpt>
      <trkpt lat="42.96279" lon="-0.08857">
        <ele>870.6</ele>
        <time>2022-05-01T09:04:58Z</time>
      </trkpt>
      <trkpt lat="42.96285" lon="-0.08861">
        <ele>870.6</ele>
        <time>2022-05-01T09:04:59Z</time>
      </trkpt>
      <trkpt lat="42.96298" lon="-0.08864">
        <ele>869.6</ele>
        <time>2022-05-01T09:05:03Z</time>
      </trkpt>
      <trkpt lat="42.96303" lon="-0.08864">
        <ele>869.6</ele>
        <time>2022-05-01T09:05:04Z</time>
      </trkpt>
      <trkpt lat="42.96304" lon="-0.08865">
        <ele>869.4</ele>
        <time>2022-05-01T09:05:05Z</time>
      </trkpt>
      <trkpt lat="42.96304" lon="-0.08866">
        <ele>869.4</ele>
        <time>2022-05-01T09:05:06Z</time>
      </trkpt>
      <trkpt lat="42.96305" lon="-0.08864">
        <ele>868.8</ele>
        <time>2022-05-01T09:05:10Z</time>
      </trkpt>
      <trkpt lat="42.96307" lon="-0.08863">
        <ele>868.8</ele>
        <time>2022-05-01T09:05:11Z</time>
      </trkpt>
      <trkpt lat="42.96308" lon="-0.08862">
        <ele>868.6</ele>
        <time>2022-05-01T09:05:13Z</time>
      </trkpt>
      <trkpt lat="42.96308" lon="-0.08861">
        <ele>868</ele>
        <time>2022-05-01T09:05:14Z</time>
      </trkpt>
      <trkpt lat="42.96309" lon="-0.08858">
        <ele>867.4</ele>
        <time>2022-05-01T09:05:16Z</time>
      </trkpt>
      <trkpt lat="42.96313" lon="-0.08857">
        <ele>866.8</ele>
        <time>2022-05-01T09:05:19Z</time>
      </trkpt>
      <trkpt lat="42.96314" lon="-0.08857">
        <ele>866.4</ele>
        <time>2022-05-01T09:05:20Z</time>
      </trkpt>
      <trkpt lat="42.96318" lon="-0.08857">
        <ele>865</ele>
        <time>2022-05-01T09:05:22Z</time>
      </trkpt>
      <trkpt lat="42.9632" lon="-0.08857">
        <ele>864.4</ele>
        <time>2022-05-01T09:05:23Z</time>
      </trkpt>
      <trkpt lat="42.96322" lon="-0.08857">
        <ele>864</ele>
        <time>2022-05-01T09:05:24Z</time>
      </trkpt>
      <trkpt lat="42.96327" lon="-0.08858">
        <ele>862.8</ele>
        <time>2022-05-01T09:05:26Z</time>
      </trkpt>
      <trkpt lat="42.96329" lon="-0.08859">
        <ele>861.6</ele>
        <time>2022-05-01T09:05:27Z</time>
      </trkpt>
      <trkpt lat="42.96332" lon="-0.0886">
        <ele>860.4</ele>
        <time>2022-05-01T09:05:29Z</time>
      </trkpt>
      <trkpt lat="42.96336" lon="-0.08861">
        <ele>859.4</ele>
        <time>2022-05-01T09:05:31Z</time>
      </trkpt>
      <trkpt lat="42.96338" lon="-0.08862">
        <ele>859</ele>
        <time>2022-05-01T09:05:32Z</time>
      </trkpt>
      <trkpt lat="42.96343" lon="-0.08865">
        <ele>857.6</ele>
        <time>2022-05-01T09:05:34Z</time>
      </trkpt>
      <trkpt lat="42.96346" lon="-0.08868">
        <ele>856.2</ele>
        <time>2022-05-01T09:05:36Z</time>
      </trkpt>
      <trkpt lat="42.96347" lon="-0.08869">
        <ele>855.4</ele>
        <time>2022-05-01T09:05:37Z</time>
      </trkpt>
      <trkpt lat="42.96347" lon="-0.08869">
        <ele>854.8</ele>
        <time>2022-05-01T09:05:38Z</time>
      </trkpt>
      <trkpt lat="42.96347" lon="-0.08869">
        <ele>853.6</ele>
        <time>2022-05-01T09:05:41Z</time>
      </trkpt>
      <trkpt lat="42.96348" lon="-0.08869">
        <ele>853</ele>
        <time>2022-05-01T09:05:42Z</time>
      </trkpt>
      <trkpt lat="42.96352" lon="-0.0887">
        <ele>852.2</ele>
        <time>2022-05-01T09:05:44Z</time>
      </trkpt>
      <trkpt lat="42.96358" lon="-0.08872">
        <ele>852</ele>
        <time>2022-05-01T09:05:46Z</time>
      </trkpt>
      <trkpt lat="42.96361" lon="-0.08873">
        <ele>852</ele>
        <time>2022-05-01T09:05:47Z</time>
      </trkpt>
      <trkpt lat="42.96365" lon="-0.08873">
        <ele>851.8</ele>
        <time>2022-05-01T09:05:49Z</time>
      </trkpt>
      <trkpt lat="42.96368" lon="-0.08875">
        <ele>851.2</ele>
        <time>2022-05-01T09:05:50Z</time>
      </trkpt>
      <trkpt lat="42.9637" lon="-0.08878">
        <ele>850.8</ele>
        <time>2022-05-01T09:05:51Z</time>
      </trkpt>
      <trkpt lat="42.96373" lon="-0.08882">
        <ele>849.8</ele>
        <time>2022-05-01T09:05:52Z</time>
      </trkpt>
      <trkpt lat="42.96381" lon="-0.08892">
        <ele>848.6</ele>
        <time>2022-05-01T09:05:54Z</time>
      </trkpt>
      <trkpt lat="42.96389" lon="-0.089">
        <ele>847.4</ele>
        <time>2022-05-01T09:05:56Z</time>
      </trkpt>
      <trkpt lat="42.96392" lon="-0.089">
        <ele>847</ele>
        <time>2022-05-01T09:05:57Z</time>
      </trkpt>
      <trkpt lat="42.96394" lon="-0.08899">
        <ele>846.4</ele>
        <time>2022-05-01T09:05:59Z</time>
      </trkpt>
      <trkpt lat="42.96396" lon="-0.08899">
        <ele>846.2</ele>
        <time>2022-05-01T09:06:00Z</time>
      </trkpt>
      <trkpt lat="42.964" lon="-0.08895">
        <ele>845.6</ele>
        <time>2022-05-01T09:06:02Z</time>
      </trkpt>
      <trkpt lat="42.96401" lon="-0.08894">
        <ele>845</ele>
        <time>2022-05-01T09:06:03Z</time>
      </trkpt>
      <trkpt lat="42.96401" lon="-0.08894">
        <ele>843.4</ele>
        <time>2022-05-01T09:06:05Z</time>
      </trkpt>
      <trkpt lat="42.96401" lon="-0.08894">
        <ele>842.2</ele>
        <time>2022-05-01T09:06:07Z</time>
      </trkpt>
      <trkpt lat="42.96401" lon="-0.08894">
        <ele>840.6</ele>
        <time>2022-05-01T09:06:09Z</time>
      </trkpt>
      <trkpt lat="42.96401" lon="-0.08894">
        <ele>839.4</ele>
        <time>2022-05-01T09:06:12Z</time>
      </trkpt>
      <trkpt lat="42.96401" lon="-0.08894">
        <ele>838.8</ele>
        <time>2022-05-01T09:06:17Z</time>
      </trkpt>
      <trkpt lat="42.96401" lon="-0.08894">
        <ele>838.4</ele>
        <time>2022-05-01T09:06:22Z</time>
      </trkpt>
      <trkpt lat="42.96402" lon="-0.08893">
        <ele>837.6</ele>
        <time>2022-05-01T09:06:36Z</time>
      </trkpt>
      <trkpt lat="42.96402" lon="-0.08892">
        <ele>837</ele>
        <time>2022-05-01T09:06:46Z</time>
      </trkpt>
      <trkpt lat="42.96405" lon="-0.08888">
        <ele>836</ele>
        <time>2022-05-01T09:06:52Z</time>
      </trkpt>
      <trkpt lat="42.96407" lon="-0.08886">
        <ele>834.8</ele>
        <time>2022-05-01T09:06:54Z</time>
      </trkpt>
      <trkpt lat="42.96409" lon="-0.08882">
        <ele>833.4</ele>
        <time>2022-05-01T09:06:56Z</time>
      </trkpt>
      <trkpt lat="42.96414" lon="-0.08874">
        <ele>832.2</ele>
        <time>2022-05-01T09:06:58Z</time>
      </trkpt>
      <trkpt lat="42.96417" lon="-0.0887">
        <ele>830.6</ele>
        <time>2022-05-01T09:07:00Z</time>
      </trkpt>
      <trkpt lat="42.9642" lon="-0.08866">
        <ele>829</ele>
        <time>2022-05-01T09:07:01Z</time>
      </trkpt>
      <trkpt lat="42.96423" lon="-0.0886">
        <ele>828.2</ele>
        <time>2022-05-01T09:07:02Z</time>
      </trkpt>
      <trkpt lat="42.96427" lon="-0.08858">
        <ele>826.8</ele>
        <time>2022-05-01T09:07:03Z</time>
      </trkpt>
      <trkpt lat="42.96435" lon="-0.08853">
        <ele>825.4</ele>
        <time>2022-05-01T09:07:05Z</time>
      </trkpt>
      <trkpt lat="42.96441" lon="-0.08849">
        <ele>824.2</ele>
        <time>2022-05-01T09:07:07Z</time>
      </trkpt>
      <trkpt lat="42.96452" lon="-0.08838">
        <ele>823.4</ele>
        <time>2022-05-01T09:07:09Z</time>
      </trkpt>
      <trkpt lat="42.96455" lon="-0.08837">
        <ele>823.2</ele>
        <time>2022-05-01T09:07:11Z</time>
      </trkpt>
      <trkpt lat="42.96455" lon="-0.08837">
        <ele>823</ele>
        <time>2022-05-01T09:07:13Z</time>
      </trkpt>
      <trkpt lat="42.96468" lon="-0.08818">
        <ele>822.6</ele>
        <time>2022-05-01T09:07:20Z</time>
      </trkpt>
      <trkpt lat="42.96472" lon="-0.08812">
        <ele>822.8</ele>
        <time>2022-05-01T09:07:26Z</time>
      </trkpt>
      <trkpt lat="42.96474" lon="-0.08809">
        <ele>822.8</ele>
        <time>2022-05-01T09:07:27Z</time>
      </trkpt>
      <trkpt lat="42.96477" lon="-0.08798">
        <ele>822.6</ele>
        <time>2022-05-01T09:07:30Z</time>
      </trkpt>
      <trkpt lat="42.9648" lon="-0.08791">
        <ele>822.2</ele>
        <time>2022-05-01T09:07:32Z</time>
      </trkpt>
      <trkpt lat="42.96482" lon="-0.08787">
        <ele>821.6</ele>
        <time>2022-05-01T09:07:33Z</time>
      </trkpt>
      <trkpt lat="42.96484" lon="-0.08784">
        <ele>821.4</ele>
        <time>2022-05-01T09:07:34Z</time>
      </trkpt>
      <trkpt lat="42.96485" lon="-0.08774">
        <ele>820.4</ele>
        <time>2022-05-01T09:07:36Z</time>
      </trkpt>
      <trkpt lat="42.96487" lon="-0.08764">
        <ele>819.2</ele>
        <time>2022-05-01T09:07:38Z</time>
      </trkpt>
      <trkpt lat="42.96488" lon="-0.08761">
        <ele>818</ele>
        <time>2022-05-01T09:07:39Z</time>
      </trkpt>
      <trkpt lat="42.9649" lon="-0.08754">
        <ele>817</ele>
        <time>2022-05-01T09:07:41Z</time>
      </trkpt>
      <trkpt lat="42.96491" lon="-0.0875">
        <ele>816.8</ele>
        <time>2022-05-01T09:07:42Z</time>
      </trkpt>
      <trkpt lat="42.96493" lon="-0.08748">
        <ele>815.4</ele>
        <time>2022-05-01T09:07:43Z</time>
      </trkpt>
      <trkpt lat="42.96497" lon="-0.08742">
        <ele>813.4</ele>
        <time>2022-05-01T09:07:45Z</time>
      </trkpt>
      <trkpt lat="42.96499" lon="-0.08738">
        <ele>812.6</ele>
        <time>2022-05-01T09:07:46Z</time>
      </trkpt>
      <trkpt lat="42.96503" lon="-0.08735">
        <ele>812</ele>
        <time>2022-05-01T09:07:47Z</time>
      </trkpt>
      <trkpt lat="42.96507" lon="-0.08732">
        <ele>811</ele>
        <time>2022-05-01T09:07:48Z</time>
      </trkpt>
      <trkpt lat="42.96515" lon="-0.08728">
        <ele>809</ele>
        <time>2022-05-01T09:07:50Z</time>
      </trkpt>
      <trkpt lat="42.96519" lon="-0.08726">
        <ele>808.6</ele>
        <time>2022-05-01T09:07:51Z</time>
      </trkpt>
      <trkpt lat="42.96523" lon="-0.08725">
        <ele>807.4</ele>
        <time>2022-05-01T09:07:52Z</time>
      </trkpt>
      <trkpt lat="42.96527" lon="-0.08724">
        <ele>806.6</ele>
        <time>2022-05-01T09:07:53Z</time>
      </trkpt>
      <trkpt lat="42.96531" lon="-0.08723">
        <ele>805.6</ele>
        <time>2022-05-01T09:07:54Z</time>
      </trkpt>
      <trkpt lat="42.96541" lon="-0.08723">
        <ele>804.2</ele>
        <time>2022-05-01T09:07:56Z</time>
      </trkpt>
      <trkpt lat="42.9655" lon="-0.08724">
        <ele>802.2</ele>
        <time>2022-05-01T09:07:58Z</time>
      </trkpt>
      <trkpt lat="42.96553" lon="-0.08724">
        <ele>801.6</ele>
        <time>2022-05-01T09:07:59Z</time>
      </trkpt>
      <trkpt lat="42.96556" lon="-0.08725">
        <ele>800.6</ele>
        <time>2022-05-01T09:08:00Z</time>
      </trkpt>
      <trkpt lat="42.96562" lon="-0.08725">
        <ele>799.4</ele>
        <time>2022-05-01T09:08:02Z</time>
      </trkpt>
      <trkpt lat="42.96564" lon="-0.08724">
        <ele>798.4</ele>
        <time>2022-05-01T09:08:03Z</time>
      </trkpt>
      <trkpt lat="42.96567" lon="-0.08721">
        <ele>798.2</ele>
        <time>2022-05-01T09:08:04Z</time>
      </trkpt>
      <trkpt lat="42.96568" lon="-0.0872">
        <ele>796.8</ele>
        <time>2022-05-01T09:08:05Z</time>
      </trkpt>
      <trkpt lat="42.96571" lon="-0.08717">
        <ele>794.6</ele>
        <time>2022-05-01T09:08:07Z</time>
      </trkpt>
      <trkpt lat="42.96575" lon="-0.08712">
        <ele>792.8</ele>
        <time>2022-05-01T09:08:09Z</time>
      </trkpt>
      <trkpt lat="42.96576" lon="-0.0871">
        <ele>792.4</ele>
        <time>2022-05-01T09:08:10Z</time>
      </trkpt>
      <trkpt lat="42.96577" lon="-0.08708">
        <ele>790.8</ele>
        <time>2022-05-01T09:08:11Z</time>
      </trkpt>
      <trkpt lat="42.96579" lon="-0.08703">
        <ele>789</ele>
        <time>2022-05-01T09:08:13Z</time>
      </trkpt>
      <trkpt lat="42.96579" lon="-0.08701">
        <ele>788.4</ele>
        <time>2022-05-01T09:08:14Z</time>
      </trkpt>
      <trkpt lat="42.9658" lon="-0.08699">
        <ele>787.2</ele>
        <time>2022-05-01T09:08:15Z</time>
      </trkpt>
      <trkpt lat="42.9658" lon="-0.08699">
        <ele>785.6</ele>
        <time>2022-05-01T09:08:17Z</time>
      </trkpt>
      <trkpt lat="42.9658" lon="-0.08699">
        <ele>784</ele>
        <time>2022-05-01T09:08:19Z</time>
      </trkpt>
      <trkpt lat="42.9658" lon="-0.08699">
        <ele>783.4</ele>
        <time>2022-05-01T09:08:20Z</time>
      </trkpt>
      <trkpt lat="42.9658" lon="-0.08699">
        <ele>782.8</ele>
        <time>2022-05-01T09:08:21Z</time>
      </trkpt>
      <trkpt lat="42.9658" lon="-0.08699">
        <ele>781.6</ele>
        <time>2022-05-01T09:08:24Z</time>
      </trkpt>
      <trkpt lat="42.9658" lon="-0.08699">
        <ele>781.2</ele>
        <time>2022-05-01T09:08:26Z</time>
      </trkpt>
      <trkpt lat="42.9658" lon="-0.08699">
        <ele>780.2</ele>
        <time>2022-05-01T09:08:30Z</time>
      </trkpt>
      <trkpt lat="42.9658" lon="-0.08699">
        <ele>779</ele>
        <time>2022-05-01T09:08:33Z</time>
      </trkpt>
      <trkpt lat="42.9658" lon="-0.08699">
        <ele>778</ele>
        <time>2022-05-01T09:08:39Z</time>
      </trkpt>
      <trkpt lat="42.9658" lon="-0.08699">
        <ele>777.4</ele>
        <time>2022-05-01T09:08:43Z</time>
      </trkpt>
      <trkpt lat="42.9658" lon="-0.08698">
        <ele>777</ele>
        <time>2022-05-01T09:08:45Z</time>
      </trkpt>
      <trkpt lat="42.9658" lon="-0.08698">
        <ele>776.6</ele>
        <time>2022-05-01T09:08:48Z</time>
      </trkpt>
      <trkpt lat="42.9658" lon="-0.08698">
        <ele>775.6</ele>
        <time>2022-05-01T09:08:51Z</time>
      </trkpt>
      <trkpt lat="42.9658" lon="-0.08697">
        <ele>774.4</ele>
        <time>2022-05-01T09:08:57Z</time>
      </trkpt>
      <trkpt lat="42.9658" lon="-0.08695">
        <ele>773.2</ele>
        <time>2022-05-01T09:09:01Z</time>
      </trkpt>
      <trkpt lat="42.9658" lon="-0.08693">
        <ele>772</ele>
        <time>2022-05-01T09:09:06Z</time>
      </trkpt>
      <trkpt lat="42.9658" lon="-0.08689">
        <ele>770.8</ele>
        <time>2022-05-01T09:09:11Z</time>
      </trkpt>
      <trkpt lat="42.96581" lon="-0.08684">
        <ele>770</ele>
        <time>2022-05-01T09:09:17Z</time>
      </trkpt>
      <trkpt lat="42.96581" lon="-0.08681">
        <ele>769.8</ele>
        <time>2022-05-01T09:09:19Z</time>
      </trkpt>
      <trkpt lat="42.96583" lon="-0.08672">
        <ele>769.2</ele>
        <time>2022-05-01T09:09:24Z</time>
      </trkpt>
      <trkpt lat="42.96587" lon="-0.08659">
        <ele>768.6</ele>
        <time>2022-05-01T09:09:29Z</time>
      </trkpt>
      <trkpt lat="42.96587" lon="-0.08656">
        <ele>767.4</ele>
        <time>2022-05-01T09:09:31Z</time>
      </trkpt>
      <trkpt lat="42.96587" lon="-0.08656">
        <ele>767</ele>
        <time>2022-05-01T09:09:32Z</time>
      </trkpt>
      <trkpt lat="42.96587" lon="-0.08656">
        <ele>765.4</ele>
        <time>2022-05-01T09:09:36Z</time>
      </trkpt>
      <trkpt lat="42.96586" lon="-0.08654">
        <ele>764.8</ele>
        <time>2022-05-01T09:09:41Z</time>
      </trkpt>
      <trkpt lat="42.96586" lon="-0.08649">
        <ele>764.6</ele>
        <time>2022-05-01T09:09:46Z</time>
      </trkpt>
      <trkpt lat="42.96586" lon="-0.08649">
        <ele>764.6</ele>
        <time>2022-05-01T09:09:47Z</time>
      </trkpt>
      <trkpt lat="42.96589" lon="-0.08639">
        <ele>763.8</ele>
        <time>2022-05-01T09:10:08Z</time>
      </trkpt>
      <trkpt lat="42.96594" lon="-0.08633">
        <ele>763.6</ele>
        <time>2022-05-01T09:10:10Z</time>
      </trkpt>
      <trkpt lat="42.96601" lon="-0.0863">
        <ele>762.6</ele>
        <time>2022-05-01T09:10:13Z</time>
      </trkpt>
      <trkpt lat="42.96604" lon="-0.08629">
        <ele>762.4</ele>
        <time>2022-05-01T09:10:14Z</time>
      </trkpt>
      <trkpt lat="42.96608" lon="-0.08628">
        <ele>761</ele>
        <time>2022-05-01T09:10:17Z</time>
      </trkpt>
      <trkpt lat="42.96609" lon="-0.08625">
        <ele>760.4</ele>
        <time>2022-05-01T09:10:19Z</time>
      </trkpt>
      <trkpt lat="42.96609" lon="-0.08621">
        <ele>760.2</ele>
        <time>2022-05-01T09:10:20Z</time>
      </trkpt>
      <trkpt lat="42.96608" lon="-0.08618">
        <ele>759.8</ele>
        <time>2022-05-01T09:10:21Z</time>
      </trkpt>
      <trkpt lat="42.96608" lon="-0.08617">
        <ele>759.8</ele>
        <time>2022-05-01T09:10:22Z</time>
      </trkpt>
      <trkpt lat="42.96607" lon="-0.08615">
        <ele>759.2</ele>
        <time>2022-05-01T09:10:23Z</time>
      </trkpt>
      <trkpt lat="42.96607" lon="-0.0861">
        <ele>758.6</ele>
        <time>2022-05-01T09:10:25Z</time>
      </trkpt>
      <trkpt lat="42.96607" lon="-0.08608">
        <ele>758.4</ele>
        <time>2022-05-01T09:10:26Z</time>
      </trkpt>
      <trkpt lat="42.96607" lon="-0.08598">
        <ele>757.4</ele>
        <time>2022-05-01T09:10:30Z</time>
      </trkpt>
      <trkpt lat="42.96606" lon="-0.08592">
        <ele>757.2</ele>
        <time>2022-05-01T09:10:32Z</time>
      </trkpt>
      <trkpt lat="42.96609" lon="-0.08588">
        <ele>757</ele>
        <time>2022-05-01T09:10:34Z</time>
      </trkpt>
      <trkpt lat="42.96614" lon="-0.08586">
        <ele>756.4</ele>
        <time>2022-05-01T09:10:36Z</time>
      </trkpt>
      <trkpt lat="42.96619" lon="-0.08584">
        <ele>756.2</ele>
        <time>2022-05-01T09:10:38Z</time>
      </trkpt>
      <trkpt lat="42.96633" lon="-0.08568">
        <ele>755.8</ele>
        <time>2022-05-01T09:10:44Z</time>
      </trkpt>
      <trkpt lat="42.96647" lon="-0.08561">
        <ele>755.8</ele>
        <time>2022-05-01T09:10:49Z</time>
      </trkpt>
      <trkpt lat="42.9666" lon="-0.08554">
        <ele>755.4</ele>
        <time>2022-05-01T09:10:53Z</time>
      </trkpt>
      <trkpt lat="42.96661" lon="-0.08552">
        <ele>755.4</ele>
        <time>2022-05-01T09:10:54Z</time>
      </trkpt>
      <trkpt lat="42.96661" lon="-0.0855">
        <ele>755.2</ele>
        <time>2022-05-01T09:10:55Z</time>
      </trkpt>
      <trkpt lat="42.9666" lon="-0.08547">
        <ele>754.8</ele>
        <time>2022-05-01T09:10:57Z</time>
      </trkpt>
      <trkpt lat="42.96661" lon="-0.08544">
        <ele>754.8</ele>
        <time>2022-05-01T09:11:00Z</time>
      </trkpt>
      <trkpt lat="42.96661" lon="-0.08542">
        <ele>754.6</ele>
        <time>2022-05-01T09:11:01Z</time>
      </trkpt>
      <trkpt lat="42.96664" lon="-0.08527">
        <ele>754.6</ele>
        <time>2022-05-01T09:11:07Z</time>
      </trkpt>
      <trkpt lat="42.96667" lon="-0.08508">
        <ele>754.6</ele>
        <time>2022-05-01T09:11:12Z</time>
      </trkpt>
      <trkpt lat="42.96668" lon="-0.085">
        <ele>754.4</ele>
        <time>2022-05-01T09:11:14Z</time>
      </trkpt>
      <trkpt lat="42.9667" lon="-0.08491">
        <ele>754</ele>
        <time>2022-05-01T09:11:16Z</time>
      </trkpt>
      <trkpt lat="42.96674" lon="-0.0848">
        <ele>752.6</ele>
        <time>2022-05-01T09:11:19Z</time>
      </trkpt>
      <trkpt lat="42.96678" lon="-0.08471">
        <ele>751.4</ele>
        <time>2022-05-01T09:11:21Z</time>
      </trkpt>
      <trkpt lat="42.9668" lon="-0.08465">
        <ele>751.2</ele>
        <time>2022-05-01T09:11:22Z</time>
      </trkpt>
      <trkpt lat="42.96682" lon="-0.08458">
        <ele>750.4</ele>
        <time>2022-05-01T09:11:23Z</time>
      </trkpt>
      <trkpt lat="42.96687" lon="-0.08443">
        <ele>749.4</ele>
        <time>2022-05-01T09:11:25Z</time>
      </trkpt>
      <trkpt lat="42.96691" lon="-0.08437">
        <ele>748.8</ele>
        <time>2022-05-01T09:11:26Z</time>
      </trkpt>
      <trkpt lat="42.96696" lon="-0.08432">
        <ele>748.2</ele>
        <time>2022-05-01T09:11:27Z</time>
      </trkpt>
      <trkpt lat="42.96701" lon="-0.08429">
        <ele>747.8</ele>
        <time>2022-05-01T09:11:28Z</time>
      </trkpt>
      <trkpt lat="42.96706" lon="-0.08427">
        <ele>747.2</ele>
        <time>2022-05-01T09:11:29Z</time>
      </trkpt>
      <trkpt lat="42.96716" lon="-0.08425">
        <ele>746.2</ele>
        <time>2022-05-01T09:11:31Z</time>
      </trkpt>
      <trkpt lat="42.96725" lon="-0.08425">
        <ele>745.2</ele>
        <time>2022-05-01T09:11:33Z</time>
      </trkpt>
      <trkpt lat="42.96729" lon="-0.08425">
        <ele>745</ele>
        <time>2022-05-01T09:11:34Z</time>
      </trkpt>
      <trkpt lat="42.96743" lon="-0.08427">
        <ele>744</ele>
        <time>2022-05-01T09:11:38Z</time>
      </trkpt>
      <trkpt lat="42.96747" lon="-0.08427">
        <ele>743.8</ele>
        <time>2022-05-01T09:11:39Z</time>
      </trkpt>
      <trkpt lat="42.96762" lon="-0.08427">
        <ele>743.4</ele>
        <time>2022-05-01T09:11:44Z</time>
      </trkpt>
      <trkpt lat="42.96772" lon="-0.08429">
        <ele>742.6</ele>
        <time>2022-05-01T09:11:47Z</time>
      </trkpt>
      <trkpt lat="42.9678" lon="-0.08431">
        <ele>741.4</ele>
        <time>2022-05-01T09:11:49Z</time>
      </trkpt>
      <trkpt lat="42.96785" lon="-0.0843">
        <ele>740.4</ele>
        <time>2022-05-01T09:11:50Z</time>
      </trkpt>
      <trkpt lat="42.96789" lon="-0.0843">
        <ele>739.2</ele>
        <time>2022-05-01T09:11:51Z</time>
      </trkpt>
      <trkpt lat="42.96795" lon="-0.0843">
        <ele>737.8</ele>
        <time>2022-05-01T09:11:52Z</time>
      </trkpt>
      <trkpt lat="42.96802" lon="-0.0843">
        <ele>736.8</ele>
        <time>2022-05-01T09:11:53Z</time>
      </trkpt>
      <trkpt lat="42.96817" lon="-0.0843">
        <ele>735</ele>
        <time>2022-05-01T09:11:55Z</time>
      </trkpt>
      <trkpt lat="42.96831" lon="-0.08432">
        <ele>732.4</ele>
        <time>2022-05-01T09:11:57Z</time>
      </trkpt>
      <trkpt lat="42.96841" lon="-0.08431">
        <ele>730</ele>
        <time>2022-05-01T09:11:59Z</time>
      </trkpt>
      <trkpt lat="42.96848" lon="-0.08428">
        <ele>728.8</ele>
        <time>2022-05-01T09:12:01Z</time>
      </trkpt>
      <trkpt lat="42.96855" lon="-0.08427">
        <ele>727.4</ele>
        <time>2022-05-01T09:12:03Z</time>
      </trkpt>
      <trkpt lat="42.96863" lon="-0.08427">
        <ele>725.2</ele>
        <time>2022-05-01T09:12:05Z</time>
      </trkpt>
      <trkpt lat="42.96871" lon="-0.08429">
        <ele>723.6</ele>
        <time>2022-05-01T09:12:07Z</time>
      </trkpt>
      <trkpt lat="42.96876" lon="-0.0843">
        <ele>723</ele>
        <time>2022-05-01T09:12:08Z</time>
      </trkpt>
      <trkpt lat="42.96882" lon="-0.08431">
        <ele>722</ele>
        <time>2022-05-01T09:12:09Z</time>
      </trkpt>
      <trkpt lat="42.96888" lon="-0.08433">
        <ele>720.8</ele>
        <time>2022-05-01T09:12:10Z</time>
      </trkpt>
      <trkpt lat="42.96898" lon="-0.08435">
        <ele>718.4</ele>
        <time>2022-05-01T09:12:12Z</time>
      </trkpt>
      <trkpt lat="42.96902" lon="-0.08435">
        <ele>717.2</ele>
        <time>2022-05-01T09:12:13Z</time>
      </trkpt>
      <trkpt lat="42.96905" lon="-0.08436">
        <ele>715</ele>
        <time>2022-05-01T09:12:14Z</time>
      </trkpt>
      <trkpt lat="42.96909" lon="-0.08437">
        <ele>714.2</ele>
        <time>2022-05-01T09:12:15Z</time>
      </trkpt>
      <trkpt lat="42.96915" lon="-0.08438">
        <ele>712.2</ele>
        <time>2022-05-01T09:12:16Z</time>
      </trkpt>
      <trkpt lat="42.96924" lon="-0.08442">
        <ele>710</ele>
        <time>2022-05-01T09:12:18Z</time>
      </trkpt>
      <trkpt lat="42.96928" lon="-0.08444">
        <ele>709</ele>
        <time>2022-05-01T09:12:19Z</time>
      </trkpt>
      <trkpt lat="42.96932" lon="-0.08445">
        <ele>706.8</ele>
        <time>2022-05-01T09:12:20Z</time>
      </trkpt>
      <trkpt lat="42.9694" lon="-0.08449">
        <ele>704.8</ele>
        <time>2022-05-01T09:12:22Z</time>
      </trkpt>
      <trkpt lat="42.96948" lon="-0.08453">
        <ele>703.4</ele>
        <time>2022-05-01T09:12:24Z</time>
      </trkpt>
      <trkpt lat="42.96951" lon="-0.08454">
        <ele>702</ele>
        <time>2022-05-01T09:12:25Z</time>
      </trkpt>
      <trkpt lat="42.9696" lon="-0.08457">
        <ele>700.6</ele>
        <time>2022-05-01T09:12:27Z</time>
      </trkpt>
      <trkpt lat="42.96967" lon="-0.0846">
        <ele>699</ele>
        <time>2022-05-01T09:12:29Z</time>
      </trkpt>
      <trkpt lat="42.96972" lon="-0.08465">
        <ele>697.4</ele>
        <time>2022-05-01T09:12:31Z</time>
      </trkpt>
      <trkpt lat="42.96978" lon="-0.08473">
        <ele>695.6</ele>
        <time>2022-05-01T09:12:33Z</time>
      </trkpt>
      <trkpt lat="42.96986" lon="-0.08481">
        <ele>694.4</ele>
        <time>2022-05-01T09:12:35Z</time>
      </trkpt>
      <trkpt lat="42.9699" lon="-0.08484">
        <ele>694</ele>
        <time>2022-05-01T09:12:36Z</time>
      </trkpt>
      <trkpt lat="42.96992" lon="-0.08488">
        <ele>692.8</ele>
        <time>2022-05-01T09:12:37Z</time>
      </trkpt>
      <trkpt lat="42.96995" lon="-0.08496">
        <ele>690.4</ele>
        <time>2022-05-01T09:12:39Z</time>
      </trkpt>
      <trkpt lat="42.96995" lon="-0.085">
        <ele>689.8</ele>
        <time>2022-05-01T09:12:40Z</time>
      </trkpt>
      <trkpt lat="42.96996" lon="-0.08503">
        <ele>688.4</ele>
        <time>2022-05-01T09:12:41Z</time>
      </trkpt>
      <trkpt lat="42.96997" lon="-0.08506">
        <ele>686.6</ele>
        <time>2022-05-01T09:12:42Z</time>
      </trkpt>
      <trkpt lat="42.96997" lon="-0.08509">
        <ele>685.4</ele>
        <time>2022-05-01T09:12:44Z</time>
      </trkpt>
      <trkpt lat="42.96997" lon="-0.08509">
        <ele>683.4</ele>
        <time>2022-05-01T09:12:46Z</time>
      </trkpt>
      <trkpt lat="42.96997" lon="-0.08509">
        <ele>682</ele>
        <time>2022-05-01T09:12:48Z</time>
      </trkpt>
      <trkpt lat="42.96999" lon="-0.08509">
        <ele>680.8</ele>
        <time>2022-05-01T09:12:52Z</time>
      </trkpt>
      <trkpt lat="42.96997" lon="-0.08512">
        <ele>679.8</ele>
        <time>2022-05-01T09:12:59Z</time>
      </trkpt>
      <trkpt lat="42.96997" lon="-0.08512">
        <ele>679.4</ele>
        <time>2022-05-01T09:13:02Z</time>
      </trkpt>
      <trkpt lat="42.96997" lon="-0.08512">
        <ele>679.2</ele>
        <time>2022-05-01T09:13:09Z</time>
      </trkpt>
      <trkpt lat="42.97001" lon="-0.08518">
        <ele>679</ele>
        <time>2022-05-01T09:13:12Z</time>
      </trkpt>
      <trkpt lat="42.97005" lon="-0.08522">
        <ele>678.8</ele>
        <time>2022-05-01T09:13:14Z</time>
      </trkpt>
      <trkpt lat="42.97007" lon="-0.08524">
        <ele>678.6</ele>
        <time>2022-05-01T09:13:15Z</time>
      </trkpt>
      <trkpt lat="42.9701" lon="-0.08525">
        <ele>678.2</ele>
        <time>2022-05-01T09:13:16Z</time>
      </trkpt>
      <trkpt lat="42.97012" lon="-0.08527">
        <ele>678.2</ele>
        <time>2022-05-01T09:13:17Z</time>
      </trkpt>
      <trkpt lat="42.97015" lon="-0.08529">
        <ele>677.6</ele>
        <time>2022-05-01T09:13:19Z</time>
      </trkpt>
      <trkpt lat="42.97019" lon="-0.08531">
        <ele>677.2</ele>
        <time>2022-05-01T09:13:20Z</time>
      </trkpt>
      <trkpt lat="42.97026" lon="-0.08535">
        <ele>676.2</ele>
        <time>2022-05-01T09:13:22Z</time>
      </trkpt>
      <trkpt lat="42.97029" lon="-0.08537">
        <ele>676</ele>
        <time>2022-05-01T09:13:23Z</time>
      </trkpt>
      <trkpt lat="42.97032" lon="-0.0854">
        <ele>675</ele>
        <time>2022-05-01T09:13:25Z</time>
      </trkpt>
      <trkpt lat="42.97037" lon="-0.08543">
        <ele>673.8</ele>
        <time>2022-05-01T09:13:27Z</time>
      </trkpt>
      <trkpt lat="42.97042" lon="-0.08546">
        <ele>672.6</ele>
        <time>2022-05-01T09:13:30Z</time>
      </trkpt>
      <trkpt lat="42.97044" lon="-0.08548">
        <ele>671</ele>
        <time>2022-05-01T09:13:33Z</time>
      </trkpt>
      <trkpt lat="42.9705" lon="-0.08552">
        <ele>669.8</ele>
        <time>2022-05-01T09:13:36Z</time>
      </trkpt>
      <trkpt lat="42.97053" lon="-0.08553">
        <ele>669.2</ele>
        <time>2022-05-01T09:13:37Z</time>
      </trkpt>
      <trkpt lat="42.97058" lon="-0.08552">
        <ele>668.4</ele>
        <time>2022-05-01T09:13:39Z</time>
      </trkpt>
      <trkpt lat="42.97061" lon="-0.08552">
        <ele>667.8</ele>
        <time>2022-05-01T09:13:40Z</time>
      </trkpt>
      <trkpt lat="42.97064" lon="-0.08553">
        <ele>667</ele>
        <time>2022-05-01T09:13:41Z</time>
      </trkpt>
      <trkpt lat="42.97073" lon="-0.08554">
        <ele>666</ele>
        <time>2022-05-01T09:13:43Z</time>
      </trkpt>
      <trkpt lat="42.97077" lon="-0.08554">
        <ele>665.6</ele>
        <time>2022-05-01T09:13:44Z</time>
      </trkpt>
      <trkpt lat="42.97079" lon="-0.08554">
        <ele>664.6</ele>
        <time>2022-05-01T09:13:45Z</time>
      </trkpt>
      <trkpt lat="42.97082" lon="-0.08552">
        <ele>663.6</ele>
        <time>2022-05-01T09:13:47Z</time>
      </trkpt>
      <trkpt lat="42.97083" lon="-0.08552">
        <ele>663.2</ele>
        <time>2022-05-01T09:13:48Z</time>
      </trkpt>
      <trkpt lat="42.97084" lon="-0.08551">
        <ele>661.6</ele>
        <time>2022-05-01T09:13:49Z</time>
      </trkpt>
      <trkpt lat="42.97086" lon="-0.08551">
        <ele>660.2</ele>
        <time>2022-05-01T09:13:50Z</time>
      </trkpt>
      <trkpt lat="42.9709" lon="-0.08553">
        <ele>658.8</ele>
        <time>2022-05-01T09:13:52Z</time>
      </trkpt>
      <trkpt lat="42.97094" lon="-0.08556">
        <ele>656.8</ele>
        <time>2022-05-01T09:13:54Z</time>
      </trkpt>
      <trkpt lat="42.97095" lon="-0.08557">
        <ele>656.2</ele>
        <time>2022-05-01T09:13:55Z</time>
      </trkpt>
      <trkpt lat="42.97097" lon="-0.08558">
        <ele>655.4</ele>
        <time>2022-05-01T09:13:56Z</time>
      </trkpt>
      <trkpt lat="42.97098" lon="-0.08559">
        <ele>655</ele>
        <time>2022-05-01T09:13:57Z</time>
      </trkpt>
      <trkpt lat="42.97099" lon="-0.08561">
        <ele>653.6</ele>
        <time>2022-05-01T09:13:58Z</time>
      </trkpt>
      <trkpt lat="42.97099" lon="-0.08561">
        <ele>652.2</ele>
        <time>2022-05-01T09:14:01Z</time>
      </trkpt>
      <trkpt lat="42.971" lon="-0.0856">
        <ele>651.4</ele>
        <time>2022-05-01T09:14:02Z</time>
      </trkpt>
      <trkpt lat="42.971" lon="-0.0856">
        <ele>651</ele>
        <time>2022-05-01T09:14:03Z</time>
      </trkpt>
      <trkpt lat="42.97101" lon="-0.08557">
        <ele>650</ele>
        <time>2022-05-01T09:14:05Z</time>
      </trkpt>
      <trkpt lat="42.97102" lon="-0.08555">
        <ele>649.2</ele>
        <time>2022-05-01T09:14:06Z</time>
      </trkpt>
      <trkpt lat="42.97102" lon="-0.08553">
        <ele>648.6</ele>
        <time>2022-05-01T09:14:07Z</time>
      </trkpt>
      <trkpt lat="42.97101" lon="-0.0855">
        <ele>648</ele>
        <time>2022-05-01T09:14:08Z</time>
      </trkpt>
      <trkpt lat="42.97101" lon="-0.08546">
        <ele>647.2</ele>
        <time>2022-05-01T09:14:09Z</time>
      </trkpt>
      <trkpt lat="42.97101" lon="-0.08544">
        <ele>646.8</ele>
        <time>2022-05-01T09:14:10Z</time>
      </trkpt>
      <trkpt lat="42.97101" lon="-0.08543">
        <ele>646</ele>
        <time>2022-05-01T09:14:12Z</time>
      </trkpt>
      <trkpt lat="42.97101" lon="-0.08543">
        <ele>645</ele>
        <time>2022-05-01T09:14:13Z</time>
      </trkpt>
      <trkpt lat="42.97101" lon="-0.08543">
        <ele>644.8</ele>
        <time>2022-05-01T09:14:14Z</time>
      </trkpt>
      <trkpt lat="42.97105" lon="-0.08544">
        <ele>643.4</ele>
        <time>2022-05-01T09:14:17Z</time>
      </trkpt>
      <trkpt lat="42.97109" lon="-0.08546">
        <ele>643.2</ele>
        <time>2022-05-01T09:14:19Z</time>
      </trkpt>
      <trkpt lat="42.97116" lon="-0.0855">
        <ele>642.8</ele>
        <time>2022-05-01T09:14:21Z</time>
      </trkpt>
      <trkpt lat="42.97126" lon="-0.08554">
        <ele>642.4</ele>
        <time>2022-05-01T09:14:23Z</time>
      </trkpt>
      <trkpt lat="42.97132" lon="-0.08557">
        <ele>642</ele>
        <time>2022-05-01T09:14:24Z</time>
      </trkpt>
      <trkpt lat="42.97143" lon="-0.08563">
        <ele>641.2</ele>
        <time>2022-05-01T09:14:26Z</time>
      </trkpt>
      <trkpt lat="42.97154" lon="-0.08569">
        <ele>640.6</ele>
        <time>2022-05-01T09:14:28Z</time>
      </trkpt>
      <trkpt lat="42.97158" lon="-0.08571">
        <ele>640.2</ele>
        <time>2022-05-01T09:14:29Z</time>
      </trkpt>
      <trkpt lat="42.97161" lon="-0.08575">
        <ele>638.8</ele>
        <time>2022-05-01T09:14:31Z</time>
      </trkpt>
      <trkpt lat="42.97163" lon="-0.08578">
        <ele>637.6</ele>
        <time>2022-05-01T09:14:32Z</time>
      </trkpt>
      <trkpt lat="42.97168" lon="-0.08581">
        <ele>637.2</ele>
        <time>2022-05-01T09:14:33Z</time>
      </trkpt>
      <trkpt lat="42.97172" lon="-0.08583">
        <ele>636</ele>
        <time>2022-05-01T09:14:34Z</time>
      </trkpt>
      <trkpt lat="42.97179" lon="-0.08588">
        <ele>634.8</ele>
        <time>2022-05-01T09:14:37Z</time>
      </trkpt>
      <trkpt lat="42.97185" lon="-0.08588">
        <ele>633.2</ele>
        <time>2022-05-01T09:14:40Z</time>
      </trkpt>
      <trkpt lat="42.97186" lon="-0.08589">
        <ele>632.2</ele>
        <time>2022-05-01T09:14:41Z</time>
      </trkpt>
      <trkpt lat="42.97187" lon="-0.0859">
        <ele>631.4</ele>
        <time>2022-05-01T09:14:42Z</time>
      </trkpt>
      <trkpt lat="42.97188" lon="-0.08589">
        <ele>630.2</ele>
        <time>2022-05-01T09:14:43Z</time>
      </trkpt>
      <trkpt lat="42.9719" lon="-0.08589">
        <ele>629.8</ele>
        <time>2022-05-01T09:14:44Z</time>
      </trkpt>
      <trkpt lat="42.97192" lon="-0.08589">
        <ele>628.8</ele>
        <time>2022-05-01T09:14:45Z</time>
      </trkpt>
      <trkpt lat="42.97193" lon="-0.08588">
        <ele>628.6</ele>
        <time>2022-05-01T09:14:46Z</time>
      </trkpt>
      <trkpt lat="42.97194" lon="-0.08587">
        <ele>627.6</ele>
        <time>2022-05-01T09:14:47Z</time>
      </trkpt>
      <trkpt lat="42.97197" lon="-0.08586">
        <ele>626.4</ele>
        <time>2022-05-01T09:14:49Z</time>
      </trkpt>
      <trkpt lat="42.97198" lon="-0.08585">
        <ele>625.8</ele>
        <time>2022-05-01T09:14:50Z</time>
      </trkpt>
      <trkpt lat="42.97199" lon="-0.08584">
        <ele>624.8</ele>
        <time>2022-05-01T09:14:51Z</time>
      </trkpt>
      <trkpt lat="42.972" lon="-0.08583">
        <ele>624.4</ele>
        <time>2022-05-01T09:14:52Z</time>
      </trkpt>
      <trkpt lat="42.97202" lon="-0.08582">
        <ele>623.2</ele>
        <time>2022-05-01T09:14:53Z</time>
      </trkpt>
      <trkpt lat="42.9721" lon="-0.08579">
        <ele>622.2</ele>
        <time>2022-05-01T09:14:56Z</time>
      </trkpt>
      <trkpt lat="42.97213" lon="-0.08578">
        <ele>620.8</ele>
        <time>2022-05-01T09:14:57Z</time>
      </trkpt>
      <trkpt lat="42.97217" lon="-0.08576">
        <ele>619.2</ele>
        <time>2022-05-01T09:14:59Z</time>
      </trkpt>
      <trkpt lat="42.97218" lon="-0.08576">
        <ele>618</ele>
        <time>2022-05-01T09:15:00Z</time>
      </trkpt>
      <trkpt lat="42.97221" lon="-0.08575">
        <ele>616.6</ele>
        <time>2022-05-01T09:15:02Z</time>
      </trkpt>
      <trkpt lat="42.97225" lon="-0.08576">
        <ele>616.2</ele>
        <time>2022-05-01T09:15:03Z</time>
      </trkpt>
      <trkpt lat="42.97231" lon="-0.08577">
        <ele>615.4</ele>
        <time>2022-05-01T09:15:04Z</time>
      </trkpt>
      <trkpt lat="42.97241" lon="-0.08581">
        <ele>614.2</ele>
        <time>2022-05-01T09:15:06Z</time>
      </trkpt>
      <trkpt lat="42.97252" lon="-0.08587">
        <ele>612.8</ele>
        <time>2022-05-01T09:15:08Z</time>
      </trkpt>
      <trkpt lat="42.97264" lon="-0.08592">
        <ele>611.8</ele>
        <time>2022-05-01T09:15:10Z</time>
      </trkpt>
      <trkpt lat="42.9727" lon="-0.08594">
        <ele>611.4</ele>
        <time>2022-05-01T09:15:11Z</time>
      </trkpt>
      <trkpt lat="42.97279" lon="-0.08596">
        <ele>610.4</ele>
        <time>2022-05-01T09:15:13Z</time>
      </trkpt>
      <trkpt lat="42.97285" lon="-0.08596">
        <ele>608.6</ele>
        <time>2022-05-01T09:15:15Z</time>
      </trkpt>
      <trkpt lat="42.97291" lon="-0.08595">
        <ele>607</ele>
        <time>2022-05-01T09:15:16Z</time>
      </trkpt>
      <trkpt lat="42.97299" lon="-0.08593">
        <ele>605.6</ele>
        <time>2022-05-01T09:15:17Z</time>
      </trkpt>
      <trkpt lat="42.97305" lon="-0.08593">
        <ele>604.8</ele>
        <time>2022-05-01T09:15:18Z</time>
      </trkpt>
      <trkpt lat="42.97312" lon="-0.08593">
        <ele>603.6</ele>
        <time>2022-05-01T09:15:19Z</time>
      </trkpt>
      <trkpt lat="42.97321" lon="-0.08594">
        <ele>602.4</ele>
        <time>2022-05-01T09:15:20Z</time>
      </trkpt>
      <trkpt lat="42.97329" lon="-0.08593">
        <ele>601.4</ele>
        <time>2022-05-01T09:15:21Z</time>
      </trkpt>
      <trkpt lat="42.97344" lon="-0.08588">
        <ele>599.6</ele>
        <time>2022-05-01T09:15:23Z</time>
      </trkpt>
      <trkpt lat="42.97358" lon="-0.08589">
        <ele>598</ele>
        <time>2022-05-01T09:15:25Z</time>
      </trkpt>
      <trkpt lat="42.97366" lon="-0.08591">
        <ele>597.8</ele>
        <time>2022-05-01T09:15:26Z</time>
      </trkpt>
      <trkpt lat="42.97376" lon="-0.08593">
        <ele>597</ele>
        <time>2022-05-01T09:15:28Z</time>
      </trkpt>
      <trkpt lat="42.97386" lon="-0.08587">
        <ele>595.8</ele>
        <time>2022-05-01T09:15:30Z</time>
      </trkpt>
      <trkpt lat="42.97394" lon="-0.08571">
        <ele>594.6</ele>
        <time>2022-05-01T09:15:33Z</time>
      </trkpt>
      <trkpt lat="42.974" lon="-0.08563">
        <ele>594.2</ele>
        <time>2022-05-01T09:15:35Z</time>
      </trkpt>
      <trkpt lat="42.97412" lon="-0.0856">
        <ele>593.6</ele>
        <time>2022-05-01T09:15:38Z</time>
      </trkpt>
      <trkpt lat="42.9742" lon="-0.0856">
        <ele>593.4</ele>
        <time>2022-05-01T09:15:40Z</time>
      </trkpt>
      <trkpt lat="42.97441" lon="-0.08562">
        <ele>593.2</ele>
        <time>2022-05-01T09:15:44Z</time>
      </trkpt>
      <trkpt lat="42.97458" lon="-0.08564">
        <ele>592.6</ele>
        <time>2022-05-01T09:15:47Z</time>
      </trkpt>
      <trkpt lat="42.97482" lon="-0.0857">
        <ele>591.4</ele>
        <time>2022-05-01T09:15:51Z</time>
      </trkpt>
      <trkpt lat="42.97503" lon="-0.08575">
        <ele>590.4</ele>
        <time>2022-05-01T09:15:55Z</time>
      </trkpt>
      <trkpt lat="42.97508" lon="-0.08578">
        <ele>590.4</ele>
        <time>2022-05-01T09:15:56Z</time>
      </trkpt>
      <trkpt lat="42.97512" lon="-0.08583">
        <ele>589.8</ele>
        <time>2022-05-01T09:15:57Z</time>
      </trkpt>
      <trkpt lat="42.97519" lon="-0.08592">
        <ele>589.2</ele>
        <time>2022-05-01T09:15:59Z</time>
      </trkpt>
      <trkpt lat="42.97524" lon="-0.08601">
        <ele>588.6</ele>
        <time>2022-05-01T09:16:01Z</time>
      </trkpt>
      <trkpt lat="42.97526" lon="-0.08605">
        <ele>588.4</ele>
        <time>2022-05-01T09:16:02Z</time>
      </trkpt>
      <trkpt lat="42.97536" lon="-0.08619">
        <ele>587</ele>
        <time>2022-05-01T09:16:05Z</time>
      </trkpt>
      <trkpt lat="42.97541" lon="-0.08628">
        <ele>586</ele>
        <time>2022-05-01T09:16:07Z</time>
      </trkpt>
      <trkpt lat="42.9755" lon="-0.08642">
        <ele>584.8</ele>
        <time>2022-05-01T09:16:10Z</time>
      </trkpt>
      <trkpt lat="42.97556" lon="-0.08654">
        <ele>584</ele>
        <time>2022-05-01T09:16:12Z</time>
      </trkpt>
      <trkpt lat="42.97559" lon="-0.08659">
        <ele>583.8</ele>
        <time>2022-05-01T09:16:13Z</time>
      </trkpt>
      <trkpt lat="42.97564" lon="-0.08664">
        <ele>583.4</ele>
        <time>2022-05-01T09:16:14Z</time>
      </trkpt>
      <trkpt lat="42.9757" lon="-0.08671">
        <ele>583.2</ele>
        <time>2022-05-01T09:16:15Z</time>
      </trkpt>
      <trkpt lat="42.97582" lon="-0.08681">
        <ele>582.8</ele>
        <time>2022-05-01T09:16:17Z</time>
      </trkpt>
      <trkpt lat="42.97587" lon="-0.08687">
        <ele>582.2</ele>
        <time>2022-05-01T09:16:18Z</time>
      </trkpt>
      <trkpt lat="42.976" lon="-0.08704">
        <ele>580.8</ele>
        <time>2022-05-01T09:16:21Z</time>
      </trkpt>
      <trkpt lat="42.97605" lon="-0.08708">
        <ele>580.2</ele>
        <time>2022-05-01T09:16:22Z</time>
      </trkpt>
      <trkpt lat="42.97609" lon="-0.0871">
        <ele>579.8</ele>
        <time>2022-05-01T09:16:23Z</time>
      </trkpt>
      <trkpt lat="42.97616" lon="-0.08708">
        <ele>578.2</ele>
        <time>2022-05-01T09:16:25Z</time>
      </trkpt>
      <trkpt lat="42.97618" lon="-0.08704">
        <ele>576.6</ele>
        <time>2022-05-01T09:16:26Z</time>
      </trkpt>
      <trkpt lat="42.9762" lon="-0.08696">
        <ele>574.4</ele>
        <time>2022-05-01T09:16:28Z</time>
      </trkpt>
      <trkpt lat="42.97621" lon="-0.08694">
        <ele>572.6</ele>
        <time>2022-05-01T09:16:29Z</time>
      </trkpt>
      <trkpt lat="42.97624" lon="-0.08692">
        <ele>571.2</ele>
        <time>2022-05-01T09:16:31Z</time>
      </trkpt>
      <trkpt lat="42.97625" lon="-0.08691">
        <ele>570.8</ele>
        <time>2022-05-01T09:16:32Z</time>
      </trkpt>
      <trkpt lat="42.97625" lon="-0.08689">
        <ele>569.8</ele>
        <time>2022-05-01T09:16:33Z</time>
      </trkpt>
      <trkpt lat="42.97625" lon="-0.08687">
        <ele>569.4</ele>
        <time>2022-05-01T09:16:34Z</time>
      </trkpt>
      <trkpt lat="42.97624" lon="-0.08685">
        <ele>568.8</ele>
        <time>2022-05-01T09:16:35Z</time>
      </trkpt>
      <trkpt lat="42.97624" lon="-0.08684">
        <ele>568.2</ele>
        <time>2022-05-01T09:16:36Z</time>
      </trkpt>
      <trkpt lat="42.97624" lon="-0.08682">
        <ele>568</ele>
        <time>2022-05-01T09:16:37Z</time>
      </trkpt>
      <trkpt lat="42.97625" lon="-0.08677">
        <ele>567.8</ele>
        <time>2022-05-01T09:16:40Z</time>
      </trkpt>
      <trkpt lat="42.97625" lon="-0.08675">
        <ele>567.8</ele>
        <time>2022-05-01T09:16:41Z</time>
      </trkpt>
      <trkpt lat="42.97625" lon="-0.0867">
        <ele>567.4</ele>
        <time>2022-05-01T09:16:43Z</time>
      </trkpt>
      <trkpt lat="42.97624" lon="-0.08668">
        <ele>567.4</ele>
        <time>2022-05-01T09:16:44Z</time>
      </trkpt>
      <trkpt lat="42.97621" lon="-0.08662">
        <ele>567.8</ele>
        <time>2022-05-01T09:16:47Z</time>
      </trkpt>
      <trkpt lat="42.97619" lon="-0.08654">
        <ele>568</ele>
        <time>2022-05-01T09:16:51Z</time>
      </trkpt>
      <trkpt lat="42.97619" lon="-0.08652">
        <ele>568.2</ele>
        <time>2022-05-01T09:16:52Z</time>
      </trkpt>
      <trkpt lat="42.9762" lon="-0.0864">
        <ele>568.6</ele>
        <time>2022-05-01T09:16:58Z</time>
      </trkpt>
      <trkpt lat="42.97621" lon="-0.08638">
        <ele>568.6</ele>
        <time>2022-05-01T09:16:59Z</time>
      </trkpt>
      <trkpt lat="42.97622" lon="-0.08636">
        <ele>568.6</ele>
        <time>2022-05-01T09:17:00Z</time>
      </trkpt>
      <trkpt lat="42.97623" lon="-0.08631">
        <ele>568.8</ele>
        <time>2022-05-01T09:17:02Z</time>
      </trkpt>
      <trkpt lat="42.97623" lon="-0.08627">
        <ele>569</ele>
        <time>2022-05-01T09:17:04Z</time>
      </trkpt>
      <trkpt lat="42.97621" lon="-0.08608">
        <ele>569.8</ele>
        <time>2022-05-01T09:17:12Z</time>
      </trkpt>
      <trkpt lat="42.97617" lon="-0.08588">
        <ele>570</ele>
        <time>2022-05-01T09:17:19Z</time>
      </trkpt>
      <trkpt lat="42.97615" lon="-0.08578">
        <ele>570</ele>
        <time>2022-05-01T09:17:23Z</time>
      </trkpt>
      <trkpt lat="42.97616" lon="-0.08574">
        <ele>569.8</ele>
        <time>2022-05-01T09:17:25Z</time>
      </trkpt>
      <trkpt lat="42.9762" lon="-0.08579">
        <ele>569.8</ele>
        <time>2022-05-01T09:17:28Z</time>
      </trkpt>
      <trkpt lat="42.97623" lon="-0.08602">
        <ele>569.8</ele>
        <time>2022-05-01T09:17:34Z</time>
      </trkpt>
      <trkpt lat="42.97626" lon="-0.08629">
        <ele>570.2</ele>
        <time>2022-05-01T09:17:40Z</time>
      </trkpt>
      <trkpt lat="42.97626" lon="-0.08634">
        <ele>570.2</ele>
        <time>2022-05-01T09:17:41Z</time>
      </trkpt>
      <trkpt lat="42.97623" lon="-0.08656">
        <ele>570.2</ele>
        <time>2022-05-01T09:17:45Z</time>
      </trkpt>
      <trkpt lat="42.97623" lon="-0.08664">
        <ele>570.2</ele>
        <time>2022-05-01T09:17:46Z</time>
      </trkpt>
      <trkpt lat="42.97625" lon="-0.08685">
        <ele>570</ele>
        <time>2022-05-01T09:17:49Z</time>
      </trkpt>
      <trkpt lat="42.97627" lon="-0.08703">
        <ele>569.6</ele>
        <time>2022-05-01T09:17:51Z</time>
      </trkpt>
      <trkpt lat="42.9763" lon="-0.08722">
        <ele>569.4</ele>
        <time>2022-05-01T09:17:53Z</time>
      </trkpt>
      <trkpt lat="42.97632" lon="-0.08732">
        <ele>569.2</ele>
        <time>2022-05-01T09:17:54Z</time>
      </trkpt>
      <trkpt lat="42.97637" lon="-0.08752">
        <ele>568.6</ele>
        <time>2022-05-01T09:17:56Z</time>
      </trkpt>
      <trkpt lat="42.97641" lon="-0.08762">
        <ele>568.2</ele>
        <time>2022-05-01T09:17:57Z</time>
      </trkpt>
      <trkpt lat="42.97645" lon="-0.08772">
        <ele>567.8</ele>
        <time>2022-05-01T09:17:58Z</time>
      </trkpt>
      <trkpt lat="42.97657" lon="-0.0879">
        <ele>567.2</ele>
        <time>2022-05-01T09:18:00Z</time>
      </trkpt>
      <trkpt lat="42.97673" lon="-0.08812">
        <ele>566</ele>
        <time>2022-05-01T09:18:02Z</time>
      </trkpt>
      <trkpt lat="42.97685" lon="-0.08828">
        <ele>564.8</ele>
        <time>2022-05-01T09:18:04Z</time>
      </trkpt>
      <trkpt lat="42.97698" lon="-0.08844">
        <ele>563</ele>
        <time>2022-05-01T09:18:06Z</time>
      </trkpt>
      <trkpt lat="42.9771" lon="-0.0886">
        <ele>562</ele>
        <time>2022-05-01T09:18:08Z</time>
      </trkpt>
      <trkpt lat="42.97722" lon="-0.08875">
        <ele>560.8</ele>
        <time>2022-05-01T09:18:10Z</time>
      </trkpt>
      <trkpt lat="42.97727" lon="-0.0888">
        <ele>560</ele>
        <time>2022-05-01T09:18:11Z</time>
      </trkpt>
      <trkpt lat="42.97733" lon="-0.08884">
        <ele>559</ele>
        <time>2022-05-01T09:18:12Z</time>
      </trkpt>
      <trkpt lat="42.97739" lon="-0.08887">
        <ele>558.8</ele>
        <time>2022-05-01T09:18:13Z</time>
      </trkpt>
      <trkpt lat="42.97746" lon="-0.0889">
        <ele>557.2</ele>
        <time>2022-05-01T09:18:14Z</time>
      </trkpt>
      <trkpt lat="42.97752" lon="-0.08893">
        <ele>556.8</ele>
        <time>2022-05-01T09:18:15Z</time>
      </trkpt>
      <trkpt lat="42.97756" lon="-0.08896">
        <ele>555.8</ele>
        <time>2022-05-01T09:18:16Z</time>
      </trkpt>
      <trkpt lat="42.9776" lon="-0.08898">
        <ele>554.8</ele>
        <time>2022-05-01T09:18:17Z</time>
      </trkpt>
      <trkpt lat="42.97763" lon="-0.08897">
        <ele>554.4</ele>
        <time>2022-05-01T09:18:18Z</time>
      </trkpt>
      <trkpt lat="42.97768" lon="-0.08895">
        <ele>553.6</ele>
        <time>2022-05-01T09:18:19Z</time>
      </trkpt>
      <trkpt lat="42.97774" lon="-0.08893">
        <ele>553</ele>
        <time>2022-05-01T09:18:20Z</time>
      </trkpt>
      <trkpt lat="42.9778" lon="-0.08894">
        <ele>552.2</ele>
        <time>2022-05-01T09:18:21Z</time>
      </trkpt>
      <trkpt lat="42.97786" lon="-0.08896">
        <ele>551.6</ele>
        <time>2022-05-01T09:18:22Z</time>
      </trkpt>
      <trkpt lat="42.97791" lon="-0.08899">
        <ele>551</ele>
        <time>2022-05-01T09:18:23Z</time>
      </trkpt>
      <trkpt lat="42.97797" lon="-0.08903">
        <ele>550.8</ele>
        <time>2022-05-01T09:18:24Z</time>
      </trkpt>
      <trkpt lat="42.97808" lon="-0.08913">
        <ele>550.2</ele>
        <time>2022-05-01T09:18:26Z</time>
      </trkpt>
      <trkpt lat="42.97813" lon="-0.08919">
        <ele>549.8</ele>
        <time>2022-05-01T09:18:27Z</time>
      </trkpt>
      <trkpt lat="42.97829" lon="-0.08937">
        <ele>549.2</ele>
        <time>2022-05-01T09:18:30Z</time>
      </trkpt>
      <trkpt lat="42.97834" lon="-0.08943">
        <ele>549</ele>
        <time>2022-05-01T09:18:31Z</time>
      </trkpt>
      <trkpt lat="42.9784" lon="-0.08948">
        <ele>548.8</ele>
        <time>2022-05-01T09:18:32Z</time>
      </trkpt>
      <trkpt lat="42.97846" lon="-0.08952">
        <ele>548.6</ele>
        <time>2022-05-01T09:18:33Z</time>
      </trkpt>
      <trkpt lat="42.97858" lon="-0.08956">
        <ele>548</ele>
        <time>2022-05-01T09:18:35Z</time>
      </trkpt>
      <trkpt lat="42.97865" lon="-0.08958">
        <ele>547.8</ele>
        <time>2022-05-01T09:18:36Z</time>
      </trkpt>
      <trkpt lat="42.97875" lon="-0.08962">
        <ele>547.4</ele>
        <time>2022-05-01T09:18:38Z</time>
      </trkpt>
      <trkpt lat="42.97887" lon="-0.0897">
        <ele>547</ele>
        <time>2022-05-01T09:18:40Z</time>
      </trkpt>
      <trkpt lat="42.97897" lon="-0.0898">
        <ele>546.8</ele>
        <time>2022-05-01T09:18:42Z</time>
      </trkpt>
      <trkpt lat="42.97923" lon="-0.09002">
        <ele>546</ele>
        <time>2022-05-01T09:18:47Z</time>
      </trkpt>
      <trkpt lat="42.97933" lon="-0.09009">
        <ele>545.6</ele>
        <time>2022-05-01T09:18:49Z</time>
      </trkpt>
      <trkpt lat="42.97948" lon="-0.09021">
        <ele>545.4</ele>
        <time>2022-05-01T09:18:53Z</time>
      </trkpt>
      <trkpt lat="42.9796" lon="-0.09028">
        <ele>545.4</ele>
        <time>2022-05-01T09:18:56Z</time>
      </trkpt>
      <trkpt lat="42.97965" lon="-0.09031">
        <ele>545.4</ele>
        <time>2022-05-01T09:18:58Z</time>
      </trkpt>
      <trkpt lat="42.9798" lon="-0.09033">
        <ele>546.8</ele>
        <time>2022-05-01T09:19:03Z</time>
      </trkpt>
      <trkpt lat="42.97984" lon="-0.09033">
        <ele>547</ele>
        <time>2022-05-01T09:19:04Z</time>
      </trkpt>
      <trkpt lat="42.97999" lon="-0.09037">
        <ele>548.4</ele>
        <time>2022-05-01T09:19:09Z</time>
      </trkpt>
      <trkpt lat="42.98005" lon="-0.09039">
        <ele>548.8</ele>
        <time>2022-05-01T09:19:11Z</time>
      </trkpt>
      <trkpt lat="42.98013" lon="-0.09044">
        <ele>549.6</ele>
        <time>2022-05-01T09:19:14Z</time>
      </trkpt>
      <trkpt lat="42.98024" lon="-0.09048">
        <ele>550.6</ele>
        <time>2022-05-01T09:19:18Z</time>
      </trkpt>
      <trkpt lat="42.98026" lon="-0.09049">
        <ele>550.8</ele>
        <time>2022-05-01T09:19:19Z</time>
      </trkpt>
      <trkpt lat="42.98036" lon="-0.09057">
        <ele>551.8</ele>
        <time>2022-05-01T09:19:23Z</time>
      </trkpt>
      <trkpt lat="42.98043" lon="-0.09069">
        <ele>552.8</ele>
        <time>2022-05-01T09:19:27Z</time>
      </trkpt>
      <trkpt lat="42.98052" lon="-0.0908">
        <ele>553.6</ele>
        <time>2022-05-01T09:19:31Z</time>
      </trkpt>
      <trkpt lat="42.98058" lon="-0.09083">
        <ele>554.2</ele>
        <time>2022-05-01T09:19:33Z</time>
      </trkpt>
      <trkpt lat="42.98068" lon="-0.09088">
        <ele>554.4</ele>
        <time>2022-05-01T09:19:36Z</time>
      </trkpt>
      <trkpt lat="42.98096" lon="-0.09091">
        <ele>554.4</ele>
        <time>2022-05-01T09:19:45Z</time>
      </trkpt>
      <trkpt lat="42.9812" lon="-0.09089">
        <ele>554</ele>
        <time>2022-05-01T09:19:52Z</time>
      </trkpt>
      <trkpt lat="42.98123" lon="-0.09089">
        <ele>554</ele>
        <time>2022-05-01T09:19:53Z</time>
      </trkpt>
      <trkpt lat="42.98129" lon="-0.09084">
        <ele>553.6</ele>
        <time>2022-05-01T09:19:55Z</time>
      </trkpt>
      <trkpt lat="42.98137" lon="-0.09075">
        <ele>553</ele>
        <time>2022-05-01T09:19:57Z</time>
      </trkpt>
      <trkpt lat="42.98142" lon="-0.09071">
        <ele>552.8</ele>
        <time>2022-05-01T09:19:58Z</time>
      </trkpt>
      <trkpt lat="42.98155" lon="-0.09064">
        <ele>551.4</ele>
        <time>2022-05-01T09:20:01Z</time>
      </trkpt>
      <trkpt lat="42.98163" lon="-0.09057">
        <ele>550.4</ele>
        <time>2022-05-01T09:20:03Z</time>
      </trkpt>
      <trkpt lat="42.98169" lon="-0.09051">
        <ele>549.2</ele>
        <time>2022-05-01T09:20:06Z</time>
      </trkpt>
      <trkpt lat="42.98175" lon="-0.09043">
        <ele>548</ele>
        <time>2022-05-01T09:20:08Z</time>
      </trkpt>
      <trkpt lat="42.98178" lon="-0.09039">
        <ele>547.4</ele>
        <time>2022-05-01T09:20:09Z</time>
      </trkpt>
      <trkpt lat="42.98181" lon="-0.09036">
        <ele>547</ele>
        <time>2022-05-01T09:20:10Z</time>
      </trkpt>
      <trkpt lat="42.98185" lon="-0.09033">
        <ele>546.6</ele>
        <time>2022-05-01T09:20:11Z</time>
      </trkpt>
      <trkpt lat="42.98195" lon="-0.09032">
        <ele>545.6</ele>
        <time>2022-05-01T09:20:14Z</time>
      </trkpt>
      <trkpt lat="42.98197" lon="-0.09033">
        <ele>545.4</ele>
        <time>2022-05-01T09:20:15Z</time>
      </trkpt>
      <trkpt lat="42.98201" lon="-0.09032">
        <ele>544.4</ele>
        <time>2022-05-01T09:20:17Z</time>
      </trkpt>
      <trkpt lat="42.98202" lon="-0.09033">
        <ele>543.8</ele>
        <time>2022-05-01T09:20:18Z</time>
      </trkpt>
      <trkpt lat="42.98202" lon="-0.09035">
        <ele>543.2</ele>
        <time>2022-05-01T09:20:20Z</time>
      </trkpt>
      <trkpt lat="42.98201" lon="-0.09036">
        <ele>542.8</ele>
        <time>2022-05-01T09:20:22Z</time>
      </trkpt>
      <trkpt lat="42.98197" lon="-0.09035">
        <ele>542.4</ele>
        <time>2022-05-01T09:20:27Z</time>
      </trkpt>
      <trkpt lat="42.98187" lon="-0.09037">
        <ele>542.6</ele>
        <time>2022-05-01T09:20:32Z</time>
      </trkpt>
      <trkpt lat="42.98169" lon="-0.09048">
        <ele>543.4</ele>
        <time>2022-05-01T09:20:39Z</time>
      </trkpt>
      <trkpt lat="42.98168" lon="-0.0905">
        <ele>543.6</ele>
        <time>2022-05-01T09:20:40Z</time>
      </trkpt>
      <trkpt lat="42.9817" lon="-0.09054">
        <ele>544.4</ele>
        <time>2022-05-01T09:20:42Z</time>
      </trkpt>
      <trkpt lat="42.98173" lon="-0.09054">
        <ele>544.6</ele>
        <time>2022-05-01T09:20:43Z</time>
      </trkpt>
      <trkpt lat="42.9818" lon="-0.09047">
        <ele>545.8</ele>
        <time>2022-05-01T09:20:46Z</time>
      </trkpt>
      <trkpt lat="42.98184" lon="-0.09044">
        <ele>546</ele>
        <time>2022-05-01T09:20:47Z</time>
      </trkpt>
      <trkpt lat="42.98193" lon="-0.0904">
        <ele>546.2</ele>
        <time>2022-05-01T09:20:49Z</time>
      </trkpt>
      <trkpt lat="42.98204" lon="-0.09042">
        <ele>546.2</ele>
        <time>2022-05-01T09:20:51Z</time>
      </trkpt>
      <trkpt lat="42.98215" lon="-0.09048">
        <ele>546.2</ele>
        <time>2022-05-01T09:20:53Z</time>
      </trkpt>
      <trkpt lat="42.9822" lon="-0.09053">
        <ele>546</ele>
        <time>2022-05-01T09:20:54Z</time>
      </trkpt>
      <trkpt lat="42.98235" lon="-0.0907">
        <ele>545.6</ele>
        <time>2022-05-01T09:20:57Z</time>
      </trkpt>
      <trkpt lat="42.9825" lon="-0.0908">
        <ele>544.6</ele>
        <time>2022-05-01T09:21:00Z</time>
      </trkpt>
      <trkpt lat="42.98253" lon="-0.09084">
        <ele>544.4</ele>
        <time>2022-05-01T09:21:01Z</time>
      </trkpt>
      <trkpt lat="42.98261" lon="-0.09091">
        <ele>543.4</ele>
        <time>2022-05-01T09:21:04Z</time>
      </trkpt>
      <trkpt lat="42.98262" lon="-0.09092">
        <ele>543.2</ele>
        <time>2022-05-01T09:21:05Z</time>
      </trkpt>
      <trkpt lat="42.98262" lon="-0.09093">
        <ele>542</ele>
        <time>2022-05-01T09:21:08Z</time>
      </trkpt>
      <trkpt lat="42.98262" lon="-0.09093">
        <ele>541.6</ele>
        <time>2022-05-01T09:21:09Z</time>
      </trkpt>
      <trkpt lat="42.98262" lon="-0.09093">
        <ele>540.8</ele>
        <time>2022-05-01T09:21:13Z</time>
      </trkpt>
      <trkpt lat="42.98262" lon="-0.09093">
        <ele>540.4</ele>
        <time>2022-05-01T09:21:19Z</time>
      </trkpt>
    </trkseg>
  </trk>
</gpx>